<?xml version="1.0" encoding="UTF-8" standalone="no" ?>
<gpx xmlns="http://www.topografix.com/GPX/1/1" xmlns:xsi="http://www.w3.org/2001/XMLSchema-instance" xsi:schemaLocation="http://www.topografix.com/GPX/1/1 http://www.topografix.com/GPX/1/1/gpx.xsd" version="1.1" creator="VisuGPX - https://www.visugpx.com">
  <metadata>
    <name>Rando VTT les balcons de la vaunages 2011</name>
    <desc><![CDATA[Circuits 45km]]></desc>
  </metadata>
  <trk>
    <name><![CDATA[ACTIVE LOG 002]]></name>
    <trkseg>
      <trkpt lat="43.82579" lon="4.26031">
        <ele>88.578735351562</ele>
        <time>2011-05-01T06:13:57Z</time>
      </trkpt>
      <trkpt lat="43.82585" lon="4.26035">
        <ele>77.5234375</ele>
        <time>2011-05-01T06:17:25Z</time>
      </trkpt>
      <trkpt lat="43.82594" lon="4.26029">
        <ele>77.5234375</ele>
        <time>2011-05-01T06:17:33Z</time>
      </trkpt>
      <trkpt lat="43.82602" lon="4.26028">
        <ele>77.5234375</ele>
        <time>2011-05-01T06:17:41Z</time>
      </trkpt>
      <trkpt lat="43.82599" lon="4.26016">
        <ele>77.5234375</ele>
        <time>2011-05-01T06:17:47Z</time>
      </trkpt>
      <trkpt lat="43.82593" lon="4.26006">
        <ele>77.5234375</ele>
        <time>2011-05-01T06:17:52Z</time>
      </trkpt>
      <trkpt lat="43.82585" lon="4.25995">
        <ele>77.042846679688</ele>
        <time>2011-05-01T06:17:57Z</time>
      </trkpt>
      <trkpt lat="43.82578" lon="4.25985">
        <ele>76.562133789062</ele>
        <time>2011-05-01T06:18:01Z</time>
      </trkpt>
      <trkpt lat="43.82572" lon="4.25973">
        <ele>76.081420898438</ele>
        <time>2011-05-01T06:18:05Z</time>
      </trkpt>
      <trkpt lat="43.82564" lon="4.25961">
        <ele>76.081420898438</ele>
        <time>2011-05-01T06:18:09Z</time>
      </trkpt>
      <trkpt lat="43.82556" lon="4.25949">
        <ele>76.081420898438</ele>
        <time>2011-05-01T06:18:13Z</time>
      </trkpt>
      <trkpt lat="43.82548" lon="4.25937">
        <ele>76.081420898438</ele>
        <time>2011-05-01T06:18:17Z</time>
      </trkpt>
      <trkpt lat="43.82539" lon="4.25928">
        <ele>76.562133789062</ele>
        <time>2011-05-01T06:18:21Z</time>
      </trkpt>
      <trkpt lat="43.82533" lon="4.25915">
        <ele>76.081420898438</ele>
        <time>2011-05-01T06:18:25Z</time>
      </trkpt>
      <trkpt lat="43.82524" lon="4.25902">
        <ele>76.081420898438</ele>
        <time>2011-05-01T06:18:29Z</time>
      </trkpt>
      <trkpt lat="43.82517" lon="4.25893">
        <ele>75.120239257812</ele>
        <time>2011-05-01T06:18:32Z</time>
      </trkpt>
      <trkpt lat="43.8251" lon="4.25882">
        <ele>74.639526367188</ele>
        <time>2011-05-01T06:18:35Z</time>
      </trkpt>
      <trkpt lat="43.82502" lon="4.25872">
        <ele>74.639526367188</ele>
        <time>2011-05-01T06:18:38Z</time>
      </trkpt>
      <trkpt lat="43.82495" lon="4.25859">
        <ele>73.67822265625</ele>
        <time>2011-05-01T06:18:41Z</time>
      </trkpt>
      <trkpt lat="43.82488" lon="4.25848">
        <ele>74.158813476562</ele>
        <time>2011-05-01T06:18:44Z</time>
      </trkpt>
      <trkpt lat="43.82481" lon="4.25836">
        <ele>73.197631835938</ele>
        <time>2011-05-01T06:18:47Z</time>
      </trkpt>
      <trkpt lat="43.82475" lon="4.25822">
        <ele>73.197631835938</ele>
        <time>2011-05-01T06:18:50Z</time>
      </trkpt>
      <trkpt lat="43.82478" lon="4.25809">
        <ele>73.67822265625</ele>
        <time>2011-05-01T06:18:53Z</time>
      </trkpt>
      <trkpt lat="43.82487" lon="4.25797">
        <ele>73.197631835938</ele>
        <time>2011-05-01T06:18:56Z</time>
      </trkpt>
      <trkpt lat="43.82495" lon="4.2579">
        <ele>72.716918945312</ele>
        <time>2011-05-01T06:18:59Z</time>
      </trkpt>
      <trkpt lat="43.82503" lon="4.2578">
        <ele>73.197631835938</ele>
        <time>2011-05-01T06:19:02Z</time>
      </trkpt>
      <trkpt lat="43.82508" lon="4.25768">
        <ele>72.716918945312</ele>
        <time>2011-05-01T06:19:05Z</time>
      </trkpt>
      <trkpt lat="43.82506" lon="4.25755">
        <ele>72.716918945312</ele>
        <time>2011-05-01T06:19:08Z</time>
      </trkpt>
      <trkpt lat="43.825" lon="4.25743">
        <ele>72.716918945312</ele>
        <time>2011-05-01T06:19:11Z</time>
      </trkpt>
      <trkpt lat="43.82491" lon="4.25732">
        <ele>72.236206054688</ele>
        <time>2011-05-01T06:19:14Z</time>
      </trkpt>
      <trkpt lat="43.82483" lon="4.25721">
        <ele>72.236206054688</ele>
        <time>2011-05-01T06:19:17Z</time>
      </trkpt>
      <trkpt lat="43.82475" lon="4.25711">
        <ele>71.755493164062</ele>
        <time>2011-05-01T06:19:20Z</time>
      </trkpt>
      <trkpt lat="43.82465" lon="4.25705">
        <ele>71.27490234375</ele>
        <time>2011-05-01T06:19:23Z</time>
      </trkpt>
      <trkpt lat="43.82454" lon="4.25712">
        <ele>71.27490234375</ele>
        <time>2011-05-01T06:19:26Z</time>
      </trkpt>
      <trkpt lat="43.82449" lon="4.25726">
        <ele>71.755493164062</ele>
        <time>2011-05-01T06:19:29Z</time>
      </trkpt>
      <trkpt lat="43.82444" lon="4.25738">
        <ele>72.236206054688</ele>
        <time>2011-05-01T06:19:32Z</time>
      </trkpt>
      <trkpt lat="43.82436" lon="4.25746">
        <ele>72.236206054688</ele>
        <time>2011-05-01T06:19:35Z</time>
      </trkpt>
      <trkpt lat="43.82427" lon="4.25751">
        <ele>71.755493164062</ele>
        <time>2011-05-01T06:19:38Z</time>
      </trkpt>
      <trkpt lat="43.82417" lon="4.25745">
        <ele>72.236206054688</ele>
        <time>2011-05-01T06:19:41Z</time>
      </trkpt>
      <trkpt lat="43.8241" lon="4.25735">
        <ele>72.236206054688</ele>
        <time>2011-05-01T06:19:44Z</time>
      </trkpt>
      <trkpt lat="43.82406" lon="4.25721">
        <ele>71.27490234375</ele>
        <time>2011-05-01T06:19:47Z</time>
      </trkpt>
      <trkpt lat="43.82403" lon="4.25706">
        <ele>71.27490234375</ele>
        <time>2011-05-01T06:19:50Z</time>
      </trkpt>
      <trkpt lat="43.82392" lon="4.25699">
        <ele>70.794189453125</ele>
        <time>2011-05-01T06:19:53Z</time>
      </trkpt>
      <trkpt lat="43.82379" lon="4.257">
        <ele>70.794189453125</ele>
        <time>2011-05-01T06:19:56Z</time>
      </trkpt>
      <trkpt lat="43.8237" lon="4.25687">
        <ele>69.832885742188</ele>
        <time>2011-05-01T06:19:59Z</time>
      </trkpt>
      <trkpt lat="43.82361" lon="4.25673">
        <ele>69.352294921875</ele>
        <time>2011-05-01T06:20:02Z</time>
      </trkpt>
      <trkpt lat="43.82355" lon="4.25664">
        <ele>68.87158203125</ele>
        <time>2011-05-01T06:20:04Z</time>
      </trkpt>
      <trkpt lat="43.82347" lon="4.25655">
        <ele>68.87158203125</ele>
        <time>2011-05-01T06:20:06Z</time>
      </trkpt>
      <trkpt lat="43.82339" lon="4.25645">
        <ele>68.87158203125</ele>
        <time>2011-05-01T06:20:09Z</time>
      </trkpt>
      <trkpt lat="43.8235" lon="4.25628">
        <ele>69.352294921875</ele>
        <time>2011-05-01T06:20:12Z</time>
      </trkpt>
      <trkpt lat="43.82358" lon="4.25616">
        <ele>69.352294921875</ele>
        <time>2011-05-01T06:20:15Z</time>
      </trkpt>
      <trkpt lat="43.82364" lon="4.25605">
        <ele>69.832885742188</ele>
        <time>2011-05-01T06:20:18Z</time>
      </trkpt>
      <trkpt lat="43.82372" lon="4.25592">
        <ele>69.352294921875</ele>
        <time>2011-05-01T06:20:21Z</time>
      </trkpt>
      <trkpt lat="43.82382" lon="4.2558">
        <ele>69.352294921875</ele>
        <time>2011-05-01T06:20:24Z</time>
      </trkpt>
      <trkpt lat="43.82392" lon="4.25568">
        <ele>69.352294921875</ele>
        <time>2011-05-01T06:20:27Z</time>
      </trkpt>
      <trkpt lat="43.82399" lon="4.25559">
        <ele>68.87158203125</ele>
        <time>2011-05-01T06:20:29Z</time>
      </trkpt>
      <trkpt lat="43.82406" lon="4.2555">
        <ele>68.87158203125</ele>
        <time>2011-05-01T06:20:31Z</time>
      </trkpt>
      <trkpt lat="43.82413" lon="4.25542">
        <ele>68.87158203125</ele>
        <time>2011-05-01T06:20:33Z</time>
      </trkpt>
      <trkpt lat="43.8242" lon="4.25533">
        <ele>68.87158203125</ele>
        <time>2011-05-01T06:20:35Z</time>
      </trkpt>
      <trkpt lat="43.82427" lon="4.25525">
        <ele>68.390869140625</ele>
        <time>2011-05-01T06:20:37Z</time>
      </trkpt>
      <trkpt lat="43.82434" lon="4.25517">
        <ele>68.390869140625</ele>
        <time>2011-05-01T06:20:39Z</time>
      </trkpt>
      <trkpt lat="43.82441" lon="4.25508">
        <ele>67.910278320312</ele>
        <time>2011-05-01T06:20:41Z</time>
      </trkpt>
      <trkpt lat="43.82448" lon="4.255">
        <ele>67.910278320312</ele>
        <time>2011-05-01T06:20:43Z</time>
      </trkpt>
      <trkpt lat="43.82455" lon="4.25491">
        <ele>67.910278320312</ele>
        <time>2011-05-01T06:20:45Z</time>
      </trkpt>
      <trkpt lat="43.82462" lon="4.25483">
        <ele>67.910278320312</ele>
        <time>2011-05-01T06:20:47Z</time>
      </trkpt>
      <trkpt lat="43.82469" lon="4.25475">
        <ele>67.910278320312</ele>
        <time>2011-05-01T06:20:49Z</time>
      </trkpt>
      <trkpt lat="43.82476" lon="4.25467">
        <ele>67.4296875</ele>
        <time>2011-05-01T06:20:51Z</time>
      </trkpt>
      <trkpt lat="43.82485" lon="4.25456">
        <ele>67.910278320312</ele>
        <time>2011-05-01T06:20:54Z</time>
      </trkpt>
      <trkpt lat="43.82495" lon="4.25444">
        <ele>67.4296875</ele>
        <time>2011-05-01T06:20:57Z</time>
      </trkpt>
      <trkpt lat="43.82506" lon="4.25432">
        <ele>67.4296875</ele>
        <time>2011-05-01T06:21:00Z</time>
      </trkpt>
      <trkpt lat="43.82515" lon="4.25421">
        <ele>67.4296875</ele>
        <time>2011-05-01T06:21:03Z</time>
      </trkpt>
      <trkpt lat="43.82522" lon="4.25412">
        <ele>66.948974609375</ele>
        <time>2011-05-01T06:21:05Z</time>
      </trkpt>
      <trkpt lat="43.82529" lon="4.25404">
        <ele>66.948974609375</ele>
        <time>2011-05-01T06:21:07Z</time>
      </trkpt>
      <trkpt lat="43.82536" lon="4.25396">
        <ele>66.948974609375</ele>
        <time>2011-05-01T06:21:09Z</time>
      </trkpt>
      <trkpt lat="43.82543" lon="4.25389">
        <ele>66.46826171875</ele>
        <time>2011-05-01T06:21:11Z</time>
      </trkpt>
      <trkpt lat="43.8255" lon="4.2538">
        <ele>66.46826171875</ele>
        <time>2011-05-01T06:21:13Z</time>
      </trkpt>
      <trkpt lat="43.82557" lon="4.25372">
        <ele>66.948974609375</ele>
        <time>2011-05-01T06:21:15Z</time>
      </trkpt>
      <trkpt lat="43.82567" lon="4.25361">
        <ele>66.46826171875</ele>
        <time>2011-05-01T06:21:18Z</time>
      </trkpt>
      <trkpt lat="43.82577" lon="4.25349">
        <ele>66.46826171875</ele>
        <time>2011-05-01T06:21:21Z</time>
      </trkpt>
      <trkpt lat="43.82587" lon="4.25338">
        <ele>65.987670898438</ele>
        <time>2011-05-01T06:21:24Z</time>
      </trkpt>
      <trkpt lat="43.82597" lon="4.25327">
        <ele>65.987670898438</ele>
        <time>2011-05-01T06:21:27Z</time>
      </trkpt>
      <trkpt lat="43.82607" lon="4.25314">
        <ele>65.987670898438</ele>
        <time>2011-05-01T06:21:30Z</time>
      </trkpt>
      <trkpt lat="43.82616" lon="4.25303">
        <ele>65.987670898438</ele>
        <time>2011-05-01T06:21:33Z</time>
      </trkpt>
      <trkpt lat="43.82623" lon="4.25292">
        <ele>65.987670898438</ele>
        <time>2011-05-01T06:21:36Z</time>
      </trkpt>
      <trkpt lat="43.82618" lon="4.25271">
        <ele>65.987670898438</ele>
        <time>2011-05-01T06:21:39Z</time>
      </trkpt>
      <trkpt lat="43.82611" lon="4.25255">
        <ele>64.545654296875</ele>
        <time>2011-05-01T06:21:42Z</time>
      </trkpt>
      <trkpt lat="43.82606" lon="4.25243">
        <ele>65.0263671875</ele>
        <time>2011-05-01T06:21:44Z</time>
      </trkpt>
      <trkpt lat="43.82601" lon="4.25232">
        <ele>65.0263671875</ele>
        <time>2011-05-01T06:21:46Z</time>
      </trkpt>
      <trkpt lat="43.82595" lon="4.2522">
        <ele>65.507080078125</ele>
        <time>2011-05-01T06:21:48Z</time>
      </trkpt>
      <trkpt lat="43.82591" lon="4.25208">
        <ele>64.545654296875</ele>
        <time>2011-05-01T06:21:50Z</time>
      </trkpt>
      <trkpt lat="43.82587" lon="4.25195">
        <ele>64.545654296875</ele>
        <time>2011-05-01T06:21:52Z</time>
      </trkpt>
      <trkpt lat="43.82583" lon="4.25182">
        <ele>64.545654296875</ele>
        <time>2011-05-01T06:21:54Z</time>
      </trkpt>
      <trkpt lat="43.8258" lon="4.25169">
        <ele>64.065063476562</ele>
        <time>2011-05-01T06:21:56Z</time>
      </trkpt>
      <trkpt lat="43.82577" lon="4.25155">
        <ele>64.545654296875</ele>
        <time>2011-05-01T06:21:58Z</time>
      </trkpt>
      <trkpt lat="43.82575" lon="4.25141">
        <ele>64.545654296875</ele>
        <time>2011-05-01T06:22:00Z</time>
      </trkpt>
      <trkpt lat="43.82575" lon="4.25128">
        <ele>64.065063476562</ele>
        <time>2011-05-01T06:22:02Z</time>
      </trkpt>
      <trkpt lat="43.82575" lon="4.25114">
        <ele>64.065063476562</ele>
        <time>2011-05-01T06:22:04Z</time>
      </trkpt>
      <trkpt lat="43.82576" lon="4.251">
        <ele>64.065063476562</ele>
        <time>2011-05-01T06:22:06Z</time>
      </trkpt>
      <trkpt lat="43.82579" lon="4.25086">
        <ele>63.584350585938</ele>
        <time>2011-05-01T06:22:08Z</time>
      </trkpt>
      <trkpt lat="43.82583" lon="4.25073">
        <ele>63.584350585938</ele>
        <time>2011-05-01T06:22:10Z</time>
      </trkpt>
      <trkpt lat="43.82586" lon="4.25059">
        <ele>63.584350585938</ele>
        <time>2011-05-01T06:22:12Z</time>
      </trkpt>
      <trkpt lat="43.82586" lon="4.25043">
        <ele>63.103637695312</ele>
        <time>2011-05-01T06:22:14Z</time>
      </trkpt>
      <trkpt lat="43.82586" lon="4.25028">
        <ele>63.584350585938</ele>
        <time>2011-05-01T06:22:16Z</time>
      </trkpt>
      <trkpt lat="43.82587" lon="4.25014">
        <ele>62.622924804688</ele>
        <time>2011-05-01T06:22:18Z</time>
      </trkpt>
      <trkpt lat="43.82588" lon="4.24999">
        <ele>62.622924804688</ele>
        <time>2011-05-01T06:22:20Z</time>
      </trkpt>
      <trkpt lat="43.8259" lon="4.24985">
        <ele>62.622924804688</ele>
        <time>2011-05-01T06:22:22Z</time>
      </trkpt>
      <trkpt lat="43.82592" lon="4.24971">
        <ele>63.103637695312</ele>
        <time>2011-05-01T06:22:24Z</time>
      </trkpt>
      <trkpt lat="43.82595" lon="4.24956">
        <ele>63.103637695312</ele>
        <time>2011-05-01T06:22:26Z</time>
      </trkpt>
      <trkpt lat="43.82598" lon="4.2494">
        <ele>62.622924804688</ele>
        <time>2011-05-01T06:22:28Z</time>
      </trkpt>
      <trkpt lat="43.82601" lon="4.24925">
        <ele>62.622924804688</ele>
        <time>2011-05-01T06:22:30Z</time>
      </trkpt>
      <trkpt lat="43.82604" lon="4.2491">
        <ele>62.622924804688</ele>
        <time>2011-05-01T06:22:32Z</time>
      </trkpt>
      <trkpt lat="43.82605" lon="4.24895">
        <ele>62.622924804688</ele>
        <time>2011-05-01T06:22:34Z</time>
      </trkpt>
      <trkpt lat="43.82608" lon="4.2488">
        <ele>62.622924804688</ele>
        <time>2011-05-01T06:22:36Z</time>
      </trkpt>
      <trkpt lat="43.82609" lon="4.24866">
        <ele>62.622924804688</ele>
        <time>2011-05-01T06:22:38Z</time>
      </trkpt>
      <trkpt lat="43.82606" lon="4.2485">
        <ele>62.622924804688</ele>
        <time>2011-05-01T06:22:40Z</time>
      </trkpt>
      <trkpt lat="43.82604" lon="4.24835">
        <ele>62.142333984375</ele>
        <time>2011-05-01T06:22:42Z</time>
      </trkpt>
      <trkpt lat="43.82603" lon="4.24819">
        <ele>62.142333984375</ele>
        <time>2011-05-01T06:22:44Z</time>
      </trkpt>
      <trkpt lat="43.82603" lon="4.24803">
        <ele>62.142333984375</ele>
        <time>2011-05-01T06:22:46Z</time>
      </trkpt>
      <trkpt lat="43.82604" lon="4.24788">
        <ele>62.142333984375</ele>
        <time>2011-05-01T06:22:48Z</time>
      </trkpt>
      <trkpt lat="43.82606" lon="4.24773">
        <ele>62.142333984375</ele>
        <time>2011-05-01T06:22:50Z</time>
      </trkpt>
      <trkpt lat="43.82607" lon="4.24758">
        <ele>62.142333984375</ele>
        <time>2011-05-01T06:22:52Z</time>
      </trkpt>
      <trkpt lat="43.82607" lon="4.24742">
        <ele>62.142333984375</ele>
        <time>2011-05-01T06:22:54Z</time>
      </trkpt>
      <trkpt lat="43.82605" lon="4.24727">
        <ele>62.142333984375</ele>
        <time>2011-05-01T06:22:56Z</time>
      </trkpt>
      <trkpt lat="43.82604" lon="4.24712">
        <ele>62.142333984375</ele>
        <time>2011-05-01T06:22:58Z</time>
      </trkpt>
      <trkpt lat="43.82601" lon="4.24698">
        <ele>62.142333984375</ele>
        <time>2011-05-01T06:23:00Z</time>
      </trkpt>
      <trkpt lat="43.82597" lon="4.24684">
        <ele>62.142333984375</ele>
        <time>2011-05-01T06:23:02Z</time>
      </trkpt>
      <trkpt lat="43.82593" lon="4.24671">
        <ele>62.622924804688</ele>
        <time>2011-05-01T06:23:04Z</time>
      </trkpt>
      <trkpt lat="43.82592" lon="4.24659">
        <ele>63.103637695312</ele>
        <time>2011-05-01T06:23:06Z</time>
      </trkpt>
      <trkpt lat="43.82592" lon="4.24652">
        <ele>63.103637695312</ele>
        <time>2011-05-01T06:23:09Z</time>
      </trkpt>
      <trkpt lat="43.826" lon="4.24636">
        <ele>63.103637695312</ele>
        <time>2011-05-01T06:23:12Z</time>
      </trkpt>
      <trkpt lat="43.8261" lon="4.24626">
        <ele>63.103637695312</ele>
        <time>2011-05-01T06:23:15Z</time>
      </trkpt>
      <trkpt lat="43.82621" lon="4.24616">
        <ele>62.622924804688</ele>
        <time>2011-05-01T06:23:18Z</time>
      </trkpt>
      <trkpt lat="43.82633" lon="4.24605">
        <ele>62.622924804688</ele>
        <time>2011-05-01T06:23:21Z</time>
      </trkpt>
      <trkpt lat="43.82644" lon="4.24595">
        <ele>63.584350585938</ele>
        <time>2011-05-01T06:23:24Z</time>
      </trkpt>
      <trkpt lat="43.82653" lon="4.24582">
        <ele>63.584350585938</ele>
        <time>2011-05-01T06:23:27Z</time>
      </trkpt>
      <trkpt lat="43.82661" lon="4.24568">
        <ele>64.545654296875</ele>
        <time>2011-05-01T06:23:30Z</time>
      </trkpt>
      <trkpt lat="43.82668" lon="4.24552">
        <ele>64.065063476562</ele>
        <time>2011-05-01T06:23:33Z</time>
      </trkpt>
      <trkpt lat="43.82673" lon="4.24536">
        <ele>64.545654296875</ele>
        <time>2011-05-01T06:23:36Z</time>
      </trkpt>
      <trkpt lat="43.82678" lon="4.24519">
        <ele>65.0263671875</ele>
        <time>2011-05-01T06:23:39Z</time>
      </trkpt>
      <trkpt lat="43.82683" lon="4.24504">
        <ele>65.0263671875</ele>
        <time>2011-05-01T06:23:42Z</time>
      </trkpt>
      <trkpt lat="43.82688" lon="4.24488">
        <ele>65.507080078125</ele>
        <time>2011-05-01T06:23:45Z</time>
      </trkpt>
      <trkpt lat="43.82692" lon="4.24472">
        <ele>65.507080078125</ele>
        <time>2011-05-01T06:23:48Z</time>
      </trkpt>
      <trkpt lat="43.82697" lon="4.24456">
        <ele>65.507080078125</ele>
        <time>2011-05-01T06:23:51Z</time>
      </trkpt>
      <trkpt lat="43.82696" lon="4.24443">
        <ele>65.987670898438</ele>
        <time>2011-05-01T06:23:53Z</time>
      </trkpt>
      <trkpt lat="43.82692" lon="4.24427">
        <ele>65.987670898438</ele>
        <time>2011-05-01T06:23:56Z</time>
      </trkpt>
      <trkpt lat="43.82689" lon="4.24411">
        <ele>66.46826171875</ele>
        <time>2011-05-01T06:23:59Z</time>
      </trkpt>
      <trkpt lat="43.82695" lon="4.24395">
        <ele>66.948974609375</ele>
        <time>2011-05-01T06:24:02Z</time>
      </trkpt>
      <trkpt lat="43.82699" lon="4.24385">
        <ele>66.948974609375</ele>
        <time>2011-05-01T06:24:04Z</time>
      </trkpt>
      <trkpt lat="43.82702" lon="4.24367">
        <ele>66.46826171875</ele>
        <time>2011-05-01T06:24:07Z</time>
      </trkpt>
      <trkpt lat="43.82699" lon="4.24355">
        <ele>66.948974609375</ele>
        <time>2011-05-01T06:24:09Z</time>
      </trkpt>
      <trkpt lat="43.82697" lon="4.24343">
        <ele>66.46826171875</ele>
        <time>2011-05-01T06:24:11Z</time>
      </trkpt>
      <trkpt lat="43.82692" lon="4.24326">
        <ele>66.948974609375</ele>
        <time>2011-05-01T06:24:14Z</time>
      </trkpt>
      <trkpt lat="43.82688" lon="4.24308">
        <ele>66.948974609375</ele>
        <time>2011-05-01T06:24:17Z</time>
      </trkpt>
      <trkpt lat="43.82687" lon="4.24291">
        <ele>66.948974609375</ele>
        <time>2011-05-01T06:24:20Z</time>
      </trkpt>
      <trkpt lat="43.82685" lon="4.24273">
        <ele>65.987670898438</ele>
        <time>2011-05-01T06:24:23Z</time>
      </trkpt>
      <trkpt lat="43.82679" lon="4.2426">
        <ele>65.987670898438</ele>
        <time>2011-05-01T06:24:25Z</time>
      </trkpt>
      <trkpt lat="43.82672" lon="4.24251">
        <ele>65.507080078125</ele>
        <time>2011-05-01T06:24:27Z</time>
      </trkpt>
      <trkpt lat="43.82663" lon="4.24242">
        <ele>65.507080078125</ele>
        <time>2011-05-01T06:24:29Z</time>
      </trkpt>
      <trkpt lat="43.82655" lon="4.24233">
        <ele>65.0263671875</ele>
        <time>2011-05-01T06:24:31Z</time>
      </trkpt>
      <trkpt lat="43.82645" lon="4.24225">
        <ele>65.0263671875</ele>
        <time>2011-05-01T06:24:33Z</time>
      </trkpt>
      <trkpt lat="43.82636" lon="4.24219">
        <ele>64.545654296875</ele>
        <time>2011-05-01T06:24:35Z</time>
      </trkpt>
      <trkpt lat="43.82626" lon="4.24212">
        <ele>64.545654296875</ele>
        <time>2011-05-01T06:24:37Z</time>
      </trkpt>
      <trkpt lat="43.82617" lon="4.24204">
        <ele>64.065063476562</ele>
        <time>2011-05-01T06:24:39Z</time>
      </trkpt>
      <trkpt lat="43.82607" lon="4.24195">
        <ele>63.584350585938</ele>
        <time>2011-05-01T06:24:41Z</time>
      </trkpt>
      <trkpt lat="43.82597" lon="4.24187">
        <ele>63.584350585938</ele>
        <time>2011-05-01T06:24:43Z</time>
      </trkpt>
      <trkpt lat="43.82587" lon="4.2418">
        <ele>63.103637695312</ele>
        <time>2011-05-01T06:24:45Z</time>
      </trkpt>
      <trkpt lat="43.82577" lon="4.24173">
        <ele>63.103637695312</ele>
        <time>2011-05-01T06:24:47Z</time>
      </trkpt>
      <trkpt lat="43.82567" lon="4.24163">
        <ele>62.142333984375</ele>
        <time>2011-05-01T06:24:49Z</time>
      </trkpt>
      <trkpt lat="43.82559" lon="4.2415">
        <ele>62.142333984375</ele>
        <time>2011-05-01T06:24:51Z</time>
      </trkpt>
      <trkpt lat="43.82553" lon="4.24139">
        <ele>62.142333984375</ele>
        <time>2011-05-01T06:24:53Z</time>
      </trkpt>
      <trkpt lat="43.82552" lon="4.24129">
        <ele>62.622924804688</ele>
        <time>2011-05-01T06:24:56Z</time>
      </trkpt>
      <trkpt lat="43.82561" lon="4.24126">
        <ele>63.103637695312</ele>
        <time>2011-05-01T06:24:59Z</time>
      </trkpt>
      <trkpt lat="43.82572" lon="4.24121">
        <ele>62.622924804688</ele>
        <time>2011-05-01T06:25:02Z</time>
      </trkpt>
      <trkpt lat="43.82583" lon="4.24116">
        <ele>63.103637695312</ele>
        <time>2011-05-01T06:25:05Z</time>
      </trkpt>
      <trkpt lat="43.82592" lon="4.24112">
        <ele>63.584350585938</ele>
        <time>2011-05-01T06:25:08Z</time>
      </trkpt>
      <trkpt lat="43.82603" lon="4.24107">
        <ele>64.065063476562</ele>
        <time>2011-05-01T06:25:11Z</time>
      </trkpt>
      <trkpt lat="43.82612" lon="4.24103">
        <ele>64.545654296875</ele>
        <time>2011-05-01T06:25:14Z</time>
      </trkpt>
      <trkpt lat="43.82622" lon="4.24098">
        <ele>64.545654296875</ele>
        <time>2011-05-01T06:25:17Z</time>
      </trkpt>
      <trkpt lat="43.82633" lon="4.24094">
        <ele>65.0263671875</ele>
        <time>2011-05-01T06:25:20Z</time>
      </trkpt>
      <trkpt lat="43.82642" lon="4.2409">
        <ele>65.507080078125</ele>
        <time>2011-05-01T06:25:23Z</time>
      </trkpt>
      <trkpt lat="43.82652" lon="4.24086">
        <ele>65.987670898438</ele>
        <time>2011-05-01T06:25:26Z</time>
      </trkpt>
      <trkpt lat="43.82663" lon="4.24083">
        <ele>65.987670898438</ele>
        <time>2011-05-01T06:25:29Z</time>
      </trkpt>
      <trkpt lat="43.82672" lon="4.24079">
        <ele>66.46826171875</ele>
        <time>2011-05-01T06:25:32Z</time>
      </trkpt>
      <trkpt lat="43.82682" lon="4.24076">
        <ele>66.46826171875</ele>
        <time>2011-05-01T06:25:35Z</time>
      </trkpt>
      <trkpt lat="43.82692" lon="4.24072">
        <ele>66.948974609375</ele>
        <time>2011-05-01T06:25:38Z</time>
      </trkpt>
      <trkpt lat="43.82702" lon="4.24069">
        <ele>67.4296875</ele>
        <time>2011-05-01T06:25:41Z</time>
      </trkpt>
      <trkpt lat="43.82712" lon="4.24065">
        <ele>67.910278320312</ele>
        <time>2011-05-01T06:25:44Z</time>
      </trkpt>
      <trkpt lat="43.82722" lon="4.24061">
        <ele>67.910278320312</ele>
        <time>2011-05-01T06:25:47Z</time>
      </trkpt>
      <trkpt lat="43.82731" lon="4.24056">
        <ele>68.390869140625</ele>
        <time>2011-05-01T06:25:50Z</time>
      </trkpt>
      <trkpt lat="43.82741" lon="4.2405">
        <ele>69.832885742188</ele>
        <time>2011-05-01T06:25:53Z</time>
      </trkpt>
      <trkpt lat="43.8275" lon="4.24045">
        <ele>69.832885742188</ele>
        <time>2011-05-01T06:25:56Z</time>
      </trkpt>
      <trkpt lat="43.82759" lon="4.24039">
        <ele>70.3134765625</ele>
        <time>2011-05-01T06:25:59Z</time>
      </trkpt>
      <trkpt lat="43.82758" lon="4.24023">
        <ele>69.832885742188</ele>
        <time>2011-05-01T06:26:02Z</time>
      </trkpt>
      <trkpt lat="43.82755" lon="4.24007">
        <ele>69.832885742188</ele>
        <time>2011-05-01T06:26:05Z</time>
      </trkpt>
      <trkpt lat="43.82753" lon="4.2399">
        <ele>69.832885742188</ele>
        <time>2011-05-01T06:26:08Z</time>
      </trkpt>
      <trkpt lat="43.82755" lon="4.23973">
        <ele>70.3134765625</ele>
        <time>2011-05-01T06:26:11Z</time>
      </trkpt>
      <trkpt lat="43.82764" lon="4.23963">
        <ele>70.3134765625</ele>
        <time>2011-05-01T06:26:14Z</time>
      </trkpt>
      <trkpt lat="43.82775" lon="4.23955">
        <ele>70.3134765625</ele>
        <time>2011-05-01T06:26:17Z</time>
      </trkpt>
      <trkpt lat="43.82787" lon="4.23948">
        <ele>70.3134765625</ele>
        <time>2011-05-01T06:26:20Z</time>
      </trkpt>
      <trkpt lat="43.82798" lon="4.23943">
        <ele>70.794189453125</ele>
        <time>2011-05-01T06:26:23Z</time>
      </trkpt>
      <trkpt lat="43.82809" lon="4.23937">
        <ele>70.794189453125</ele>
        <time>2011-05-01T06:26:26Z</time>
      </trkpt>
      <trkpt lat="43.82821" lon="4.23931">
        <ele>70.794189453125</ele>
        <time>2011-05-01T06:26:29Z</time>
      </trkpt>
      <trkpt lat="43.82832" lon="4.23927">
        <ele>71.755493164062</ele>
        <time>2011-05-01T06:26:32Z</time>
      </trkpt>
      <trkpt lat="43.82842" lon="4.23921">
        <ele>72.236206054688</ele>
        <time>2011-05-01T06:26:35Z</time>
      </trkpt>
      <trkpt lat="43.82852" lon="4.23916">
        <ele>72.236206054688</ele>
        <time>2011-05-01T06:26:38Z</time>
      </trkpt>
      <trkpt lat="43.8286" lon="4.23912">
        <ele>73.197631835938</ele>
        <time>2011-05-01T06:26:41Z</time>
      </trkpt>
      <trkpt lat="43.82869" lon="4.23908">
        <ele>73.197631835938</ele>
        <time>2011-05-01T06:26:44Z</time>
      </trkpt>
      <trkpt lat="43.82878" lon="4.23904">
        <ele>74.158813476562</ele>
        <time>2011-05-01T06:26:47Z</time>
      </trkpt>
      <trkpt lat="43.82887" lon="4.23901">
        <ele>74.158813476562</ele>
        <time>2011-05-01T06:26:50Z</time>
      </trkpt>
      <trkpt lat="43.82896" lon="4.23897">
        <ele>74.639526367188</ele>
        <time>2011-05-01T06:26:53Z</time>
      </trkpt>
      <trkpt lat="43.82907" lon="4.23893">
        <ele>75.120239257812</ele>
        <time>2011-05-01T06:26:57Z</time>
      </trkpt>
      <trkpt lat="43.82917" lon="4.23889">
        <ele>75.600830078125</ele>
        <time>2011-05-01T06:27:01Z</time>
      </trkpt>
      <trkpt lat="43.82929" lon="4.23884">
        <ele>76.081420898438</ele>
        <time>2011-05-01T06:27:05Z</time>
      </trkpt>
      <trkpt lat="43.8294" lon="4.2388">
        <ele>76.562133789062</ele>
        <time>2011-05-01T06:27:09Z</time>
      </trkpt>
      <trkpt lat="43.82951" lon="4.23874">
        <ele>77.042846679688</ele>
        <time>2011-05-01T06:27:13Z</time>
      </trkpt>
      <trkpt lat="43.82962" lon="4.23873">
        <ele>78.004028320312</ele>
        <time>2011-05-01T06:27:17Z</time>
      </trkpt>
      <trkpt lat="43.82972" lon="4.23874">
        <ele>78.484741210938</ele>
        <time>2011-05-01T06:27:21Z</time>
      </trkpt>
      <trkpt lat="43.82977" lon="4.2386">
        <ele>78.965454101562</ele>
        <time>2011-05-01T06:27:25Z</time>
      </trkpt>
      <trkpt lat="43.82979" lon="4.23848">
        <ele>79.446044921875</ele>
        <time>2011-05-01T06:27:28Z</time>
      </trkpt>
      <trkpt lat="43.82982" lon="4.23834">
        <ele>78.965454101562</ele>
        <time>2011-05-01T06:27:31Z</time>
      </trkpt>
      <trkpt lat="43.82985" lon="4.2382">
        <ele>79.446044921875</ele>
        <time>2011-05-01T06:27:34Z</time>
      </trkpt>
      <trkpt lat="43.82986" lon="4.23806">
        <ele>78.965454101562</ele>
        <time>2011-05-01T06:27:37Z</time>
      </trkpt>
      <trkpt lat="43.82988" lon="4.2379">
        <ele>79.446044921875</ele>
        <time>2011-05-01T06:27:40Z</time>
      </trkpt>
      <trkpt lat="43.82989" lon="4.23774">
        <ele>79.926635742188</ele>
        <time>2011-05-01T06:27:43Z</time>
      </trkpt>
      <trkpt lat="43.8299" lon="4.23757">
        <ele>79.926635742188</ele>
        <time>2011-05-01T06:27:46Z</time>
      </trkpt>
      <trkpt lat="43.82991" lon="4.23739">
        <ele>79.926635742188</ele>
        <time>2011-05-01T06:27:49Z</time>
      </trkpt>
      <trkpt lat="43.82992" lon="4.23722">
        <ele>78.965454101562</ele>
        <time>2011-05-01T06:27:52Z</time>
      </trkpt>
      <trkpt lat="43.82993" lon="4.23704">
        <ele>78.965454101562</ele>
        <time>2011-05-01T06:27:55Z</time>
      </trkpt>
      <trkpt lat="43.82995" lon="4.23686">
        <ele>78.965454101562</ele>
        <time>2011-05-01T06:27:58Z</time>
      </trkpt>
      <trkpt lat="43.82998" lon="4.23669">
        <ele>78.004028320312</ele>
        <time>2011-05-01T06:28:01Z</time>
      </trkpt>
      <trkpt lat="43.83" lon="4.2365">
        <ele>78.004028320312</ele>
        <time>2011-05-01T06:28:04Z</time>
      </trkpt>
      <trkpt lat="43.83" lon="4.23637">
        <ele>78.004028320312</ele>
        <time>2011-05-01T06:28:06Z</time>
      </trkpt>
      <trkpt lat="43.83" lon="4.23626">
        <ele>78.004028320312</ele>
        <time>2011-05-01T06:28:08Z</time>
      </trkpt>
      <trkpt lat="43.83013" lon="4.23614">
        <ele>78.004028320312</ele>
        <time>2011-05-01T06:28:10Z</time>
      </trkpt>
      <trkpt lat="43.83017" lon="4.23597">
        <ele>78.965454101562</ele>
        <time>2011-05-01T06:28:13Z</time>
      </trkpt>
      <trkpt lat="43.83021" lon="4.23584">
        <ele>78.484741210938</ele>
        <time>2011-05-01T06:28:15Z</time>
      </trkpt>
      <trkpt lat="43.83024" lon="4.23572">
        <ele>78.484741210938</ele>
        <time>2011-05-01T06:28:17Z</time>
      </trkpt>
      <trkpt lat="43.83027" lon="4.2356">
        <ele>78.004028320312</ele>
        <time>2011-05-01T06:28:19Z</time>
      </trkpt>
      <trkpt lat="43.8303" lon="4.23549">
        <ele>78.484741210938</ele>
        <time>2011-05-01T06:28:21Z</time>
      </trkpt>
      <trkpt lat="43.83035" lon="4.23531">
        <ele>78.484741210938</ele>
        <time>2011-05-01T06:28:24Z</time>
      </trkpt>
      <trkpt lat="43.83039" lon="4.23515">
        <ele>78.484741210938</ele>
        <time>2011-05-01T06:28:27Z</time>
      </trkpt>
      <trkpt lat="43.83042" lon="4.23503">
        <ele>78.484741210938</ele>
        <time>2011-05-01T06:28:29Z</time>
      </trkpt>
      <trkpt lat="43.83045" lon="4.2349">
        <ele>78.965454101562</ele>
        <time>2011-05-01T06:28:31Z</time>
      </trkpt>
      <trkpt lat="43.8305" lon="4.23472">
        <ele>78.484741210938</ele>
        <time>2011-05-01T06:28:34Z</time>
      </trkpt>
      <trkpt lat="43.83053" lon="4.2346">
        <ele>78.484741210938</ele>
        <time>2011-05-01T06:28:36Z</time>
      </trkpt>
      <trkpt lat="43.83058" lon="4.23443">
        <ele>78.965454101562</ele>
        <time>2011-05-01T06:28:39Z</time>
      </trkpt>
      <trkpt lat="43.83062" lon="4.23427">
        <ele>79.446044921875</ele>
        <time>2011-05-01T06:28:42Z</time>
      </trkpt>
      <trkpt lat="43.83067" lon="4.2341">
        <ele>79.926635742188</ele>
        <time>2011-05-01T06:28:45Z</time>
      </trkpt>
      <trkpt lat="43.83071" lon="4.23394">
        <ele>79.926635742188</ele>
        <time>2011-05-01T06:28:48Z</time>
      </trkpt>
      <trkpt lat="43.83075" lon="4.23378">
        <ele>80.407470703125</ele>
        <time>2011-05-01T06:28:51Z</time>
      </trkpt>
      <trkpt lat="43.83079" lon="4.23361">
        <ele>80.407470703125</ele>
        <time>2011-05-01T06:28:54Z</time>
      </trkpt>
      <trkpt lat="43.83083" lon="4.23344">
        <ele>80.407470703125</ele>
        <time>2011-05-01T06:28:57Z</time>
      </trkpt>
      <trkpt lat="43.83088" lon="4.23329">
        <ele>80.88818359375</ele>
        <time>2011-05-01T06:29:00Z</time>
      </trkpt>
      <trkpt lat="43.83093" lon="4.23314">
        <ele>81.368774414062</ele>
        <time>2011-05-01T06:29:03Z</time>
      </trkpt>
      <trkpt lat="43.83098" lon="4.23299">
        <ele>80.88818359375</ele>
        <time>2011-05-01T06:29:06Z</time>
      </trkpt>
      <trkpt lat="43.83103" lon="4.23283">
        <ele>80.88818359375</ele>
        <time>2011-05-01T06:29:09Z</time>
      </trkpt>
      <trkpt lat="43.83107" lon="4.23266">
        <ele>81.368774414062</ele>
        <time>2011-05-01T06:29:12Z</time>
      </trkpt>
      <trkpt lat="43.83111" lon="4.23249">
        <ele>81.368774414062</ele>
        <time>2011-05-01T06:29:15Z</time>
      </trkpt>
      <trkpt lat="43.83114" lon="4.23233">
        <ele>81.849365234375</ele>
        <time>2011-05-01T06:29:18Z</time>
      </trkpt>
      <trkpt lat="43.83118" lon="4.23218">
        <ele>82.330078125</ele>
        <time>2011-05-01T06:29:21Z</time>
      </trkpt>
      <trkpt lat="43.83124" lon="4.23201">
        <ele>82.330078125</ele>
        <time>2011-05-01T06:29:24Z</time>
      </trkpt>
      <trkpt lat="43.83128" lon="4.23184">
        <ele>82.330078125</ele>
        <time>2011-05-01T06:29:27Z</time>
      </trkpt>
      <trkpt lat="43.83133" lon="4.23174">
        <ele>82.810791015625</ele>
        <time>2011-05-01T06:29:29Z</time>
      </trkpt>
      <trkpt lat="43.83141" lon="4.23159">
        <ele>82.330078125</ele>
        <time>2011-05-01T06:29:32Z</time>
      </trkpt>
      <trkpt lat="43.83148" lon="4.23145">
        <ele>82.810791015625</ele>
        <time>2011-05-01T06:29:35Z</time>
      </trkpt>
      <trkpt lat="43.83155" lon="4.23131">
        <ele>82.330078125</ele>
        <time>2011-05-01T06:29:38Z</time>
      </trkpt>
      <trkpt lat="43.83162" lon="4.23115">
        <ele>82.330078125</ele>
        <time>2011-05-01T06:29:41Z</time>
      </trkpt>
      <trkpt lat="43.83168" lon="4.23099">
        <ele>83.77197265625</ele>
        <time>2011-05-01T06:29:44Z</time>
      </trkpt>
      <trkpt lat="43.83174" lon="4.23084">
        <ele>83.291381835938</ele>
        <time>2011-05-01T06:29:47Z</time>
      </trkpt>
      <trkpt lat="43.83181" lon="4.2307">
        <ele>84.252685546875</ele>
        <time>2011-05-01T06:29:50Z</time>
      </trkpt>
      <trkpt lat="43.83188" lon="4.23057">
        <ele>84.7333984375</ele>
        <time>2011-05-01T06:29:53Z</time>
      </trkpt>
      <trkpt lat="43.83194" lon="4.23045">
        <ele>85.213989257812</ele>
        <time>2011-05-01T06:29:56Z</time>
      </trkpt>
      <trkpt lat="43.83199" lon="4.2303">
        <ele>84.252685546875</ele>
        <time>2011-05-01T06:29:59Z</time>
      </trkpt>
      <trkpt lat="43.83203" lon="4.23012">
        <ele>83.77197265625</ele>
        <time>2011-05-01T06:30:02Z</time>
      </trkpt>
      <trkpt lat="43.83205" lon="4.22998">
        <ele>83.291381835938</ele>
        <time>2011-05-01T06:30:04Z</time>
      </trkpt>
      <trkpt lat="43.83208" lon="4.22983">
        <ele>82.810791015625</ele>
        <time>2011-05-01T06:30:06Z</time>
      </trkpt>
      <trkpt lat="43.83211" lon="4.22969">
        <ele>82.810791015625</ele>
        <time>2011-05-01T06:30:08Z</time>
      </trkpt>
      <trkpt lat="43.83214" lon="4.22954">
        <ele>81.849365234375</ele>
        <time>2011-05-01T06:30:10Z</time>
      </trkpt>
      <trkpt lat="43.83217" lon="4.22938">
        <ele>81.368774414062</ele>
        <time>2011-05-01T06:30:12Z</time>
      </trkpt>
      <trkpt lat="43.8322" lon="4.22922">
        <ele>81.368774414062</ele>
        <time>2011-05-01T06:30:14Z</time>
      </trkpt>
      <trkpt lat="43.83223" lon="4.22907">
        <ele>80.88818359375</ele>
        <time>2011-05-01T06:30:16Z</time>
      </trkpt>
      <trkpt lat="43.83225" lon="4.22892">
        <ele>80.407470703125</ele>
        <time>2011-05-01T06:30:18Z</time>
      </trkpt>
      <trkpt lat="43.83228" lon="4.22875">
        <ele>79.926635742188</ele>
        <time>2011-05-01T06:30:20Z</time>
      </trkpt>
      <trkpt lat="43.83229" lon="4.22859">
        <ele>79.926635742188</ele>
        <time>2011-05-01T06:30:22Z</time>
      </trkpt>
      <trkpt lat="43.83229" lon="4.22842">
        <ele>79.446044921875</ele>
        <time>2011-05-01T06:30:24Z</time>
      </trkpt>
      <trkpt lat="43.83227" lon="4.22825">
        <ele>79.446044921875</ele>
        <time>2011-05-01T06:30:26Z</time>
      </trkpt>
      <trkpt lat="43.83227" lon="4.2281">
        <ele>79.926635742188</ele>
        <time>2011-05-01T06:30:28Z</time>
      </trkpt>
      <trkpt lat="43.83229" lon="4.22795">
        <ele>79.926635742188</ele>
        <time>2011-05-01T06:30:30Z</time>
      </trkpt>
      <trkpt lat="43.8323" lon="4.2278">
        <ele>80.88818359375</ele>
        <time>2011-05-01T06:30:32Z</time>
      </trkpt>
      <trkpt lat="43.83233" lon="4.22767">
        <ele>81.368774414062</ele>
        <time>2011-05-01T06:30:34Z</time>
      </trkpt>
      <trkpt lat="43.83235" lon="4.22754">
        <ele>81.849365234375</ele>
        <time>2011-05-01T06:30:36Z</time>
      </trkpt>
      <trkpt lat="43.83237" lon="4.22743">
        <ele>82.810791015625</ele>
        <time>2011-05-01T06:30:38Z</time>
      </trkpt>
      <trkpt lat="43.83238" lon="4.22726">
        <ele>83.291381835938</ele>
        <time>2011-05-01T06:30:41Z</time>
      </trkpt>
      <trkpt lat="43.83239" lon="4.22708">
        <ele>82.810791015625</ele>
        <time>2011-05-01T06:30:44Z</time>
      </trkpt>
      <trkpt lat="43.8324" lon="4.22694">
        <ele>82.330078125</ele>
        <time>2011-05-01T06:30:46Z</time>
      </trkpt>
      <trkpt lat="43.83242" lon="4.2268">
        <ele>81.368774414062</ele>
        <time>2011-05-01T06:30:48Z</time>
      </trkpt>
      <trkpt lat="43.83245" lon="4.22664">
        <ele>80.407470703125</ele>
        <time>2011-05-01T06:30:50Z</time>
      </trkpt>
      <trkpt lat="43.83249" lon="4.22648">
        <ele>79.446044921875</ele>
        <time>2011-05-01T06:30:52Z</time>
      </trkpt>
      <trkpt lat="43.83251" lon="4.22632">
        <ele>79.446044921875</ele>
        <time>2011-05-01T06:30:55Z</time>
      </trkpt>
      <trkpt lat="43.8326" lon="4.2264">
        <ele>79.446044921875</ele>
        <time>2011-05-01T06:30:59Z</time>
      </trkpt>
      <trkpt lat="43.83272" lon="4.22644">
        <ele>79.926635742188</ele>
        <time>2011-05-01T06:31:03Z</time>
      </trkpt>
      <trkpt lat="43.83284" lon="4.22646">
        <ele>80.88818359375</ele>
        <time>2011-05-01T06:31:07Z</time>
      </trkpt>
      <trkpt lat="43.83293" lon="4.22647">
        <ele>81.368774414062</ele>
        <time>2011-05-01T06:31:11Z</time>
      </trkpt>
      <trkpt lat="43.83304" lon="4.22649">
        <ele>81.368774414062</ele>
        <time>2011-05-01T06:31:15Z</time>
      </trkpt>
      <trkpt lat="43.83314" lon="4.22653">
        <ele>82.330078125</ele>
        <time>2011-05-01T06:31:19Z</time>
      </trkpt>
      <trkpt lat="43.83325" lon="4.22656">
        <ele>82.330078125</ele>
        <time>2011-05-01T06:31:23Z</time>
      </trkpt>
      <trkpt lat="43.83337" lon="4.22656">
        <ele>82.810791015625</ele>
        <time>2011-05-01T06:31:27Z</time>
      </trkpt>
      <trkpt lat="43.83345" lon="4.22658">
        <ele>83.77197265625</ele>
        <time>2011-05-01T06:31:31Z</time>
      </trkpt>
      <trkpt lat="43.83354" lon="4.2266">
        <ele>85.213989257812</ele>
        <time>2011-05-01T06:31:36Z</time>
      </trkpt>
      <trkpt lat="43.83364" lon="4.2266">
        <ele>86.656005859375</ele>
        <time>2011-05-01T06:31:41Z</time>
      </trkpt>
      <trkpt lat="43.83374" lon="4.2266">
        <ele>88.098022460938</ele>
        <time>2011-05-01T06:31:47Z</time>
      </trkpt>
      <trkpt lat="43.83384" lon="4.2266">
        <ele>89.539916992188</ele>
        <time>2011-05-01T06:31:52Z</time>
      </trkpt>
      <trkpt lat="43.83394" lon="4.22657">
        <ele>91.462524414062</ele>
        <time>2011-05-01T06:31:58Z</time>
      </trkpt>
      <trkpt lat="43.83404" lon="4.22655">
        <ele>92.423950195312</ele>
        <time>2011-05-01T06:32:03Z</time>
      </trkpt>
      <trkpt lat="43.83413" lon="4.22653">
        <ele>93.385131835938</ele>
        <time>2011-05-01T06:32:09Z</time>
      </trkpt>
      <trkpt lat="43.83424" lon="4.22651">
        <ele>94.8271484375</ele>
        <time>2011-05-01T06:32:15Z</time>
      </trkpt>
      <trkpt lat="43.83434" lon="4.22649">
        <ele>96.269287109375</ele>
        <time>2011-05-01T06:32:21Z</time>
      </trkpt>
      <trkpt lat="43.83443" lon="4.22647">
        <ele>98.19189453125</ele>
        <time>2011-05-01T06:32:27Z</time>
      </trkpt>
      <trkpt lat="43.83452" lon="4.22645">
        <ele>100.11450195312</ele>
        <time>2011-05-01T06:32:33Z</time>
      </trkpt>
      <trkpt lat="43.83462" lon="4.22641">
        <ele>101.55639648438</ele>
        <time>2011-05-01T06:32:39Z</time>
      </trkpt>
      <trkpt lat="43.83471" lon="4.22638">
        <ele>102.51770019531</ele>
        <time>2011-05-01T06:32:45Z</time>
      </trkpt>
      <trkpt lat="43.8348" lon="4.22633">
        <ele>104.4404296875</ele>
        <time>2011-05-01T06:32:52Z</time>
      </trkpt>
      <trkpt lat="43.83489" lon="4.22627">
        <ele>106.36303710938</ele>
        <time>2011-05-01T06:32:59Z</time>
      </trkpt>
      <trkpt lat="43.83497" lon="4.2262">
        <ele>108.28564453125</ele>
        <time>2011-05-01T06:33:06Z</time>
      </trkpt>
      <trkpt lat="43.83506" lon="4.22612">
        <ele>110.20825195312</ele>
        <time>2011-05-01T06:33:13Z</time>
      </trkpt>
      <trkpt lat="43.83511" lon="4.22599">
        <ele>110.68884277344</ele>
        <time>2011-05-01T06:33:19Z</time>
      </trkpt>
      <trkpt lat="43.83511" lon="4.22586">
        <ele>109.72766113281</ele>
        <time>2011-05-01T06:33:23Z</time>
      </trkpt>
      <trkpt lat="43.83511" lon="4.22585">
        <ele>109.24694824219</ele>
        <time>2011-05-01T06:33:26Z</time>
      </trkpt>
      <trkpt lat="43.83513" lon="4.2256">
        <ele>110.68884277344</ele>
        <time>2011-05-01T06:33:30Z</time>
      </trkpt>
      <trkpt lat="43.83515" lon="4.22544">
        <ele>112.13098144531</ele>
        <time>2011-05-01T06:33:35Z</time>
      </trkpt>
      <trkpt lat="43.83514" lon="4.22532">
        <ele>111.65026855469</ele>
        <time>2011-05-01T06:33:39Z</time>
      </trkpt>
      <trkpt lat="43.83513" lon="4.22515">
        <ele>111.65026855469</ele>
        <time>2011-05-01T06:33:43Z</time>
      </trkpt>
      <trkpt lat="43.83514" lon="4.22501">
        <ele>111.65026855469</ele>
        <time>2011-05-01T06:33:47Z</time>
      </trkpt>
      <trkpt lat="43.83518" lon="4.22489">
        <ele>111.65026855469</ele>
        <time>2011-05-01T06:33:50Z</time>
      </trkpt>
      <trkpt lat="43.83519" lon="4.22484">
        <ele>112.13098144531</ele>
        <time>2011-05-01T06:33:53Z</time>
      </trkpt>
      <trkpt lat="43.83519" lon="4.22484">
        <ele>112.13098144531</ele>
        <time>2011-05-01T06:33:56Z</time>
      </trkpt>
      <trkpt lat="43.83519" lon="4.22446">
        <ele>112.61157226562</ele>
        <time>2011-05-01T06:34:00Z</time>
      </trkpt>
      <trkpt lat="43.83527" lon="4.22432">
        <ele>112.61157226562</ele>
        <time>2011-05-01T06:34:03Z</time>
      </trkpt>
      <trkpt lat="43.83533" lon="4.2242">
        <ele>112.61157226562</ele>
        <time>2011-05-01T06:34:06Z</time>
      </trkpt>
      <trkpt lat="43.83538" lon="4.22409">
        <ele>112.13098144531</ele>
        <time>2011-05-01T06:34:09Z</time>
      </trkpt>
      <trkpt lat="43.83545" lon="4.22396">
        <ele>113.57299804688</ele>
        <time>2011-05-01T06:34:13Z</time>
      </trkpt>
      <trkpt lat="43.83547" lon="4.22382">
        <ele>115.01489257812</ele>
        <time>2011-05-01T06:34:17Z</time>
      </trkpt>
      <trkpt lat="43.8355" lon="4.22369">
        <ele>115.49560546875</ele>
        <time>2011-05-01T06:34:21Z</time>
      </trkpt>
      <trkpt lat="43.83552" lon="4.22355">
        <ele>117.41821289062</ele>
        <time>2011-05-01T06:34:26Z</time>
      </trkpt>
      <trkpt lat="43.83555" lon="4.22343">
        <ele>117.89880371094</ele>
        <time>2011-05-01T06:34:30Z</time>
      </trkpt>
      <trkpt lat="43.83558" lon="4.2233">
        <ele>118.86010742188</ele>
        <time>2011-05-01T06:34:35Z</time>
      </trkpt>
      <trkpt lat="43.83564" lon="4.2232">
        <ele>119.82141113281</ele>
        <time>2011-05-01T06:34:40Z</time>
      </trkpt>
      <trkpt lat="43.83569" lon="4.22307">
        <ele>120.78283691406</ele>
        <time>2011-05-01T06:34:45Z</time>
      </trkpt>
      <trkpt lat="43.83573" lon="4.22292">
        <ele>120.78283691406</ele>
        <time>2011-05-01T06:34:49Z</time>
      </trkpt>
      <trkpt lat="43.83573" lon="4.2228">
        <ele>121.26354980469</ele>
        <time>2011-05-01T06:34:53Z</time>
      </trkpt>
      <trkpt lat="43.83574" lon="4.22267">
        <ele>121.744140625</ele>
        <time>2011-05-01T06:34:57Z</time>
      </trkpt>
      <trkpt lat="43.83576" lon="4.22254">
        <ele>122.22473144531</ele>
        <time>2011-05-01T06:35:02Z</time>
      </trkpt>
      <trkpt lat="43.83579" lon="4.22244">
        <ele>124.14733886719</ele>
        <time>2011-05-01T06:35:07Z</time>
      </trkpt>
      <trkpt lat="43.83586" lon="4.22238">
        <ele>125.10876464844</ele>
        <time>2011-05-01T06:35:13Z</time>
      </trkpt>
      <trkpt lat="43.83588" lon="4.22219">
        <ele>125.10876464844</ele>
        <time>2011-05-01T06:35:17Z</time>
      </trkpt>
      <trkpt lat="43.83587" lon="4.22203">
        <ele>125.10876464844</ele>
        <time>2011-05-01T06:35:21Z</time>
      </trkpt>
      <trkpt lat="43.83587" lon="4.22189">
        <ele>126.06994628906</ele>
        <time>2011-05-01T06:35:25Z</time>
      </trkpt>
      <trkpt lat="43.83586" lon="4.22175">
        <ele>127.99255371094</ele>
        <time>2011-05-01T06:35:31Z</time>
      </trkpt>
      <trkpt lat="43.83586" lon="4.22169">
        <ele>130.87670898438</ele>
        <time>2011-05-01T06:35:41Z</time>
      </trkpt>
      <trkpt lat="43.83586" lon="4.22155">
        <ele>132.31860351562</ele>
        <time>2011-05-01T06:36:00Z</time>
      </trkpt>
      <trkpt lat="43.8363" lon="4.2215">
        <ele>133.76049804688</ele>
        <time>2011-05-01T06:36:06Z</time>
      </trkpt>
      <trkpt lat="43.83631" lon="4.22148">
        <ele>136.16394042969</ele>
        <time>2011-05-01T06:36:12Z</time>
      </trkpt>
      <trkpt lat="43.83631" lon="4.22148">
        <ele>136.64465332031</ele>
        <time>2011-05-01T06:36:17Z</time>
      </trkpt>
      <trkpt lat="43.83629" lon="4.22105">
        <ele>137.12524414062</ele>
        <time>2011-05-01T06:36:22Z</time>
      </trkpt>
      <trkpt lat="43.83629" lon="4.22094">
        <ele>136.64465332031</ele>
        <time>2011-05-01T06:36:28Z</time>
      </trkpt>
      <trkpt lat="43.83629" lon="4.22104">
        <ele>138.08654785156</ele>
        <time>2011-05-01T06:36:39Z</time>
      </trkpt>
      <trkpt lat="43.83629" lon="4.22116">
        <ele>139.0478515625</ele>
        <time>2011-05-01T06:36:45Z</time>
      </trkpt>
      <trkpt lat="43.83631" lon="4.2213">
        <ele>139.0478515625</ele>
        <time>2011-05-01T06:36:50Z</time>
      </trkpt>
      <trkpt lat="43.83631" lon="4.22145">
        <ele>139.52844238281</ele>
        <time>2011-05-01T06:36:55Z</time>
      </trkpt>
      <trkpt lat="43.83631" lon="4.22158">
        <ele>140.48986816406</ele>
        <time>2011-05-01T06:37:00Z</time>
      </trkpt>
      <trkpt lat="43.83631" lon="4.22166">
        <ele>139.52844238281</ele>
        <time>2011-05-01T06:37:04Z</time>
      </trkpt>
      <trkpt lat="43.83621" lon="4.22187">
        <ele>139.52844238281</ele>
        <time>2011-05-01T06:37:08Z</time>
      </trkpt>
      <trkpt lat="43.83618" lon="4.222">
        <ele>138.56726074219</ele>
        <time>2011-05-01T06:37:12Z</time>
      </trkpt>
      <trkpt lat="43.83616" lon="4.22213">
        <ele>139.0478515625</ele>
        <time>2011-05-01T06:37:16Z</time>
      </trkpt>
      <trkpt lat="43.83612" lon="4.22229">
        <ele>139.52844238281</ele>
        <time>2011-05-01T06:37:20Z</time>
      </trkpt>
      <trkpt lat="43.83609" lon="4.22242">
        <ele>138.08654785156</ele>
        <time>2011-05-01T06:37:23Z</time>
      </trkpt>
      <trkpt lat="43.83611" lon="4.22255">
        <ele>139.0478515625</ele>
        <time>2011-05-01T06:37:27Z</time>
      </trkpt>
      <trkpt lat="43.83613" lon="4.22269">
        <ele>141.45104980469</ele>
        <time>2011-05-01T06:37:31Z</time>
      </trkpt>
      <trkpt lat="43.83614" lon="4.22284">
        <ele>142.41247558594</ele>
        <time>2011-05-01T06:37:36Z</time>
      </trkpt>
      <trkpt lat="43.83614" lon="4.22299">
        <ele>143.85437011719</ele>
        <time>2011-05-01T06:37:40Z</time>
      </trkpt>
      <trkpt lat="43.83618" lon="4.22312">
        <ele>146.2578125</ele>
        <time>2011-05-01T06:37:46Z</time>
      </trkpt>
      <trkpt lat="43.83617" lon="4.22329">
        <ele>145.77709960938</ele>
        <time>2011-05-01T06:37:58Z</time>
      </trkpt>
      <trkpt lat="43.83613" lon="4.22343">
        <ele>145.77709960938</ele>
        <time>2011-05-01T06:38:01Z</time>
      </trkpt>
      <trkpt lat="43.8361" lon="4.22356">
        <ele>145.29638671875</ele>
        <time>2011-05-01T06:38:04Z</time>
      </trkpt>
      <trkpt lat="43.83607" lon="4.22372">
        <ele>143.85437011719</ele>
        <time>2011-05-01T06:38:07Z</time>
      </trkpt>
      <trkpt lat="43.83605" lon="4.22386">
        <ele>143.85437011719</ele>
        <time>2011-05-01T06:38:10Z</time>
      </trkpt>
      <trkpt lat="43.83604" lon="4.224">
        <ele>143.37365722656</ele>
        <time>2011-05-01T06:38:13Z</time>
      </trkpt>
      <trkpt lat="43.83602" lon="4.22416">
        <ele>143.37365722656</ele>
        <time>2011-05-01T06:38:17Z</time>
      </trkpt>
      <trkpt lat="43.83598" lon="4.22429">
        <ele>143.37365722656</ele>
        <time>2011-05-01T06:38:20Z</time>
      </trkpt>
      <trkpt lat="43.83596" lon="4.22446">
        <ele>140.97045898438</ele>
        <time>2011-05-01T06:38:23Z</time>
      </trkpt>
      <trkpt lat="43.83594" lon="4.22458">
        <ele>141.93176269531</ele>
        <time>2011-05-01T06:38:26Z</time>
      </trkpt>
      <trkpt lat="43.83593" lon="4.22472">
        <ele>141.93176269531</ele>
        <time>2011-05-01T06:38:30Z</time>
      </trkpt>
      <trkpt lat="43.83592" lon="4.22484">
        <ele>141.93176269531</ele>
        <time>2011-05-01T06:38:33Z</time>
      </trkpt>
      <trkpt lat="43.83592" lon="4.22498">
        <ele>142.89306640625</ele>
        <time>2011-05-01T06:38:37Z</time>
      </trkpt>
      <trkpt lat="43.83596" lon="4.2251">
        <ele>145.29638671875</ele>
        <time>2011-05-01T06:38:43Z</time>
      </trkpt>
      <trkpt lat="43.83601" lon="4.22524">
        <ele>147.21899414062</ele>
        <time>2011-05-01T06:38:49Z</time>
      </trkpt>
      <trkpt lat="43.836" lon="4.22539">
        <ele>147.69970703125</ele>
        <time>2011-05-01T06:38:56Z</time>
      </trkpt>
      <trkpt lat="43.83599" lon="4.22551">
        <ele>147.21899414062</ele>
        <time>2011-05-01T06:39:00Z</time>
      </trkpt>
      <trkpt lat="43.83599" lon="4.22562">
        <ele>146.73840332031</ele>
        <time>2011-05-01T06:39:04Z</time>
      </trkpt>
      <trkpt lat="43.83598" lon="4.22578">
        <ele>148.18041992188</ele>
        <time>2011-05-01T06:39:09Z</time>
      </trkpt>
      <trkpt lat="43.83598" lon="4.22591">
        <ele>148.66101074219</ele>
        <time>2011-05-01T06:39:14Z</time>
      </trkpt>
      <trkpt lat="43.83598" lon="4.22607">
        <ele>149.62231445312</ele>
        <time>2011-05-01T06:39:19Z</time>
      </trkpt>
      <trkpt lat="43.83596" lon="4.22621">
        <ele>149.62231445312</ele>
        <time>2011-05-01T06:39:23Z</time>
      </trkpt>
      <trkpt lat="43.83596" lon="4.22634">
        <ele>150.58361816406</ele>
        <time>2011-05-01T06:39:28Z</time>
      </trkpt>
      <trkpt lat="43.83596" lon="4.22647">
        <ele>151.06420898438</ele>
        <time>2011-05-01T06:39:32Z</time>
      </trkpt>
      <trkpt lat="43.83594" lon="4.22661">
        <ele>150.58361816406</ele>
        <time>2011-05-01T06:39:36Z</time>
      </trkpt>
      <trkpt lat="43.83591" lon="4.22675">
        <ele>150.10302734375</ele>
        <time>2011-05-01T06:39:39Z</time>
      </trkpt>
      <trkpt lat="43.83588" lon="4.22689">
        <ele>149.1416015625</ele>
        <time>2011-05-01T06:39:42Z</time>
      </trkpt>
      <trkpt lat="43.83587" lon="4.22703">
        <ele>148.66101074219</ele>
        <time>2011-05-01T06:39:45Z</time>
      </trkpt>
      <trkpt lat="43.83586" lon="4.22716">
        <ele>148.66101074219</ele>
        <time>2011-05-01T06:39:48Z</time>
      </trkpt>
      <trkpt lat="43.83586" lon="4.22729">
        <ele>148.18041992188</ele>
        <time>2011-05-01T06:39:51Z</time>
      </trkpt>
      <trkpt lat="43.83588" lon="4.22741">
        <ele>149.1416015625</ele>
        <time>2011-05-01T06:39:55Z</time>
      </trkpt>
      <trkpt lat="43.83599" lon="4.2274">
        <ele>149.62231445312</ele>
        <time>2011-05-01T06:40:01Z</time>
      </trkpt>
      <trkpt lat="43.83601" lon="4.22726">
        <ele>151.06420898438</ele>
        <time>2011-05-01T06:40:07Z</time>
      </trkpt>
      <trkpt lat="43.83602" lon="4.22714">
        <ele>152.02575683594</ele>
        <time>2011-05-01T06:40:13Z</time>
      </trkpt>
      <trkpt lat="43.83604" lon="4.22702">
        <ele>152.50634765625</ele>
        <time>2011-05-01T06:40:18Z</time>
      </trkpt>
      <trkpt lat="43.83607" lon="4.22688">
        <ele>153.46765136719</ele>
        <time>2011-05-01T06:40:24Z</time>
      </trkpt>
      <trkpt lat="43.83611" lon="4.22674">
        <ele>153.46765136719</ele>
        <time>2011-05-01T06:40:29Z</time>
      </trkpt>
      <trkpt lat="43.83613" lon="4.2266">
        <ele>154.42895507812</ele>
        <time>2011-05-01T06:40:34Z</time>
      </trkpt>
      <trkpt lat="43.83616" lon="4.22646">
        <ele>155.39025878906</ele>
        <time>2011-05-01T06:40:39Z</time>
      </trkpt>
      <trkpt lat="43.83618" lon="4.22632">
        <ele>155.87097167969</ele>
        <time>2011-05-01T06:40:44Z</time>
      </trkpt>
      <trkpt lat="43.8362" lon="4.22619">
        <ele>156.83215332031</ele>
        <time>2011-05-01T06:40:48Z</time>
      </trkpt>
      <trkpt lat="43.8362" lon="4.22605">
        <ele>155.87097167969</ele>
        <time>2011-05-01T06:40:52Z</time>
      </trkpt>
      <trkpt lat="43.83623" lon="4.22592">
        <ele>157.31286621094</ele>
        <time>2011-05-01T06:40:57Z</time>
      </trkpt>
      <trkpt lat="43.83626" lon="4.22579">
        <ele>157.79357910156</ele>
        <time>2011-05-01T06:41:02Z</time>
      </trkpt>
      <trkpt lat="43.83629" lon="4.22564">
        <ele>158.75476074219</ele>
        <time>2011-05-01T06:41:07Z</time>
      </trkpt>
      <trkpt lat="43.83631" lon="4.22549">
        <ele>159.23547363281</ele>
        <time>2011-05-01T06:41:12Z</time>
      </trkpt>
      <trkpt lat="43.83632" lon="4.22536">
        <ele>158.75476074219</ele>
        <time>2011-05-01T06:41:16Z</time>
      </trkpt>
      <trkpt lat="43.83633" lon="4.22523">
        <ele>158.75476074219</ele>
        <time>2011-05-01T06:41:20Z</time>
      </trkpt>
      <trkpt lat="43.83633" lon="4.2251">
        <ele>159.71618652344</ele>
        <time>2011-05-01T06:41:24Z</time>
      </trkpt>
      <trkpt lat="43.83637" lon="4.22504">
        <ele>159.71618652344</ele>
        <time>2011-05-01T06:41:28Z</time>
      </trkpt>
      <trkpt lat="43.8364" lon="4.22483">
        <ele>161.158203125</ele>
        <time>2011-05-01T06:41:32Z</time>
      </trkpt>
      <trkpt lat="43.83642" lon="4.22471">
        <ele>161.63891601562</ele>
        <time>2011-05-01T06:41:36Z</time>
      </trkpt>
      <trkpt lat="43.83644" lon="4.2246">
        <ele>161.158203125</ele>
        <time>2011-05-01T06:41:40Z</time>
      </trkpt>
      <trkpt lat="43.83646" lon="4.22446">
        <ele>162.11950683594</ele>
        <time>2011-05-01T06:41:44Z</time>
      </trkpt>
      <trkpt lat="43.83648" lon="4.22432">
        <ele>163.08081054688</ele>
        <time>2011-05-01T06:41:49Z</time>
      </trkpt>
      <trkpt lat="43.83651" lon="4.22417">
        <ele>163.5615234375</ele>
        <time>2011-05-01T06:41:54Z</time>
      </trkpt>
      <trkpt lat="43.83654" lon="4.22401">
        <ele>164.04211425781</ele>
        <time>2011-05-01T06:41:59Z</time>
      </trkpt>
      <trkpt lat="43.83656" lon="4.22387">
        <ele>164.52270507812</ele>
        <time>2011-05-01T06:42:04Z</time>
      </trkpt>
      <trkpt lat="43.83659" lon="4.22372">
        <ele>165.48413085938</ele>
        <time>2011-05-01T06:42:09Z</time>
      </trkpt>
      <trkpt lat="43.83661" lon="4.22358">
        <ele>165.48413085938</ele>
        <time>2011-05-01T06:42:14Z</time>
      </trkpt>
      <trkpt lat="43.83663" lon="4.22343">
        <ele>166.92602539062</ele>
        <time>2011-05-01T06:42:19Z</time>
      </trkpt>
      <trkpt lat="43.83665" lon="4.22329">
        <ele>166.4453125</ele>
        <time>2011-05-01T06:42:24Z</time>
      </trkpt>
      <trkpt lat="43.83668" lon="4.22316">
        <ele>167.40673828125</ele>
        <time>2011-05-01T06:42:29Z</time>
      </trkpt>
      <trkpt lat="43.83671" lon="4.22309">
        <ele>168.36804199219</ele>
        <time>2011-05-01T06:43:18Z</time>
      </trkpt>
      <trkpt lat="43.83673" lon="4.22303">
        <ele>168.84875488281</ele>
        <time>2011-05-01T06:44:12Z</time>
      </trkpt>
      <trkpt lat="43.83677" lon="4.22294">
        <ele>168.84875488281</ele>
        <time>2011-05-01T06:44:17Z</time>
      </trkpt>
      <trkpt lat="43.83682" lon="4.22289">
        <ele>169.81005859375</ele>
        <time>2011-05-01T06:44:22Z</time>
      </trkpt>
      <trkpt lat="43.83683" lon="4.2227">
        <ele>171.25207519531</ele>
        <time>2011-05-01T06:44:28Z</time>
      </trkpt>
      <trkpt lat="43.8369" lon="4.22266">
        <ele>173.17468261719</ele>
        <time>2011-05-01T06:44:38Z</time>
      </trkpt>
      <trkpt lat="43.837" lon="4.22264">
        <ele>174.61657714844</ele>
        <time>2011-05-01T06:44:43Z</time>
      </trkpt>
      <trkpt lat="43.8371" lon="4.22262">
        <ele>174.61657714844</ele>
        <time>2011-05-01T06:44:48Z</time>
      </trkpt>
      <trkpt lat="43.8372" lon="4.22262">
        <ele>175.57788085938</ele>
        <time>2011-05-01T06:44:53Z</time>
      </trkpt>
      <trkpt lat="43.83726" lon="4.22263">
        <ele>175.57788085938</ele>
        <time>2011-05-01T06:44:57Z</time>
      </trkpt>
      <trkpt lat="43.83722" lon="4.22251">
        <ele>177.02001953125</ele>
        <time>2011-05-01T06:45:02Z</time>
      </trkpt>
      <trkpt lat="43.83721" lon="4.22234">
        <ele>178.94262695312</ele>
        <time>2011-05-01T06:45:08Z</time>
      </trkpt>
      <trkpt lat="43.83724" lon="4.22257">
        <ele>179.42321777344</ele>
        <time>2011-05-01T06:45:14Z</time>
      </trkpt>
      <trkpt lat="43.83727" lon="4.22266">
        <ele>180.865234375</ele>
        <time>2011-05-01T06:45:20Z</time>
      </trkpt>
      <trkpt lat="43.83747" lon="4.22278">
        <ele>182.30712890625</ele>
        <time>2011-05-01T06:45:26Z</time>
      </trkpt>
      <trkpt lat="43.83751" lon="4.22283">
        <ele>183.7490234375</ele>
        <time>2011-05-01T06:45:32Z</time>
      </trkpt>
      <trkpt lat="43.83758" lon="4.22292">
        <ele>185.67175292969</ele>
        <time>2011-05-01T06:45:38Z</time>
      </trkpt>
      <trkpt lat="43.83759" lon="4.22293">
        <ele>186.63317871094</ele>
        <time>2011-05-01T06:45:44Z</time>
      </trkpt>
      <trkpt lat="43.83759" lon="4.22293">
        <ele>187.59436035156</ele>
        <time>2011-05-01T06:45:50Z</time>
      </trkpt>
      <trkpt lat="43.83804" lon="4.22292">
        <ele>187.59436035156</ele>
        <time>2011-05-01T06:45:56Z</time>
      </trkpt>
      <trkpt lat="43.83808" lon="4.22287">
        <ele>189.03637695312</ele>
        <time>2011-05-01T06:46:02Z</time>
      </trkpt>
      <trkpt lat="43.83814" lon="4.22276">
        <ele>189.03637695312</ele>
        <time>2011-05-01T06:46:07Z</time>
      </trkpt>
      <trkpt lat="43.83821" lon="4.22266">
        <ele>189.99768066406</ele>
        <time>2011-05-01T06:46:13Z</time>
      </trkpt>
      <trkpt lat="43.8383" lon="4.22257">
        <ele>190.47839355469</ele>
        <time>2011-05-01T06:46:19Z</time>
      </trkpt>
      <trkpt lat="43.83838" lon="4.22249">
        <ele>191.43957519531</ele>
        <time>2011-05-01T06:46:25Z</time>
      </trkpt>
      <trkpt lat="43.83846" lon="4.22242">
        <ele>190.958984375</ele>
        <time>2011-05-01T06:46:30Z</time>
      </trkpt>
      <trkpt lat="43.83855" lon="4.22235">
        <ele>190.958984375</ele>
        <time>2011-05-01T06:46:34Z</time>
      </trkpt>
      <trkpt lat="43.83864" lon="4.2223">
        <ele>190.958984375</ele>
        <time>2011-05-01T06:46:38Z</time>
      </trkpt>
      <trkpt lat="43.83875" lon="4.22226">
        <ele>190.958984375</ele>
        <time>2011-05-01T06:46:42Z</time>
      </trkpt>
      <trkpt lat="43.83884" lon="4.22224">
        <ele>190.47839355469</ele>
        <time>2011-05-01T06:46:45Z</time>
      </trkpt>
      <trkpt lat="43.83893" lon="4.2222">
        <ele>190.47839355469</ele>
        <time>2011-05-01T06:46:48Z</time>
      </trkpt>
      <trkpt lat="43.83901" lon="4.22216">
        <ele>190.958984375</ele>
        <time>2011-05-01T06:46:51Z</time>
      </trkpt>
      <trkpt lat="43.83912" lon="4.22215">
        <ele>189.99768066406</ele>
        <time>2011-05-01T06:46:54Z</time>
      </trkpt>
      <trkpt lat="43.83924" lon="4.22211">
        <ele>189.99768066406</ele>
        <time>2011-05-01T06:46:57Z</time>
      </trkpt>
      <trkpt lat="43.83937" lon="4.22205">
        <ele>189.99768066406</ele>
        <time>2011-05-01T06:47:00Z</time>
      </trkpt>
      <trkpt lat="43.83948" lon="4.222">
        <ele>189.51696777344</ele>
        <time>2011-05-01T06:47:03Z</time>
      </trkpt>
      <trkpt lat="43.83959" lon="4.22196">
        <ele>190.47839355469</ele>
        <time>2011-05-01T06:47:06Z</time>
      </trkpt>
      <trkpt lat="43.83967" lon="4.22195">
        <ele>189.99768066406</ele>
        <time>2011-05-01T06:47:09Z</time>
      </trkpt>
      <trkpt lat="43.83976" lon="4.22181">
        <ele>189.51696777344</ele>
        <time>2011-05-01T06:47:12Z</time>
      </trkpt>
      <trkpt lat="43.83981" lon="4.2217">
        <ele>189.03637695312</ele>
        <time>2011-05-01T06:47:15Z</time>
      </trkpt>
      <trkpt lat="43.83971" lon="4.22146">
        <ele>189.99768066406</ele>
        <time>2011-05-01T06:47:18Z</time>
      </trkpt>
      <trkpt lat="43.83974" lon="4.22134">
        <ele>189.51696777344</ele>
        <time>2011-05-01T06:47:21Z</time>
      </trkpt>
      <trkpt lat="43.83976" lon="4.22119">
        <ele>190.47839355469</ele>
        <time>2011-05-01T06:47:24Z</time>
      </trkpt>
      <trkpt lat="43.83978" lon="4.22105">
        <ele>189.99768066406</ele>
        <time>2011-05-01T06:47:27Z</time>
      </trkpt>
      <trkpt lat="43.8398" lon="4.2209">
        <ele>190.958984375</ele>
        <time>2011-05-01T06:47:30Z</time>
      </trkpt>
      <trkpt lat="43.83986" lon="4.22075">
        <ele>190.47839355469</ele>
        <time>2011-05-01T06:47:33Z</time>
      </trkpt>
      <trkpt lat="43.83994" lon="4.22062">
        <ele>190.47839355469</ele>
        <time>2011-05-01T06:47:36Z</time>
      </trkpt>
      <trkpt lat="43.84001" lon="4.22046">
        <ele>191.43957519531</ele>
        <time>2011-05-01T06:47:39Z</time>
      </trkpt>
      <trkpt lat="43.84006" lon="4.2203">
        <ele>191.43957519531</ele>
        <time>2011-05-01T06:47:42Z</time>
      </trkpt>
      <trkpt lat="43.8401" lon="4.22012">
        <ele>190.958984375</ele>
        <time>2011-05-01T06:47:45Z</time>
      </trkpt>
      <trkpt lat="43.84012" lon="4.21996">
        <ele>190.958984375</ele>
        <time>2011-05-01T06:47:48Z</time>
      </trkpt>
      <trkpt lat="43.84016" lon="4.2198">
        <ele>190.958984375</ele>
        <time>2011-05-01T06:47:51Z</time>
      </trkpt>
      <trkpt lat="43.84019" lon="4.21963">
        <ele>190.47839355469</ele>
        <time>2011-05-01T06:47:54Z</time>
      </trkpt>
      <trkpt lat="43.84023" lon="4.21946">
        <ele>190.958984375</ele>
        <time>2011-05-01T06:47:57Z</time>
      </trkpt>
      <trkpt lat="43.84028" lon="4.21929">
        <ele>190.47839355469</ele>
        <time>2011-05-01T06:48:00Z</time>
      </trkpt>
      <trkpt lat="43.84031" lon="4.21912">
        <ele>191.43957519531</ele>
        <time>2011-05-01T06:48:03Z</time>
      </trkpt>
      <trkpt lat="43.84035" lon="4.21896">
        <ele>191.43957519531</ele>
        <time>2011-05-01T06:48:06Z</time>
      </trkpt>
      <trkpt lat="43.84041" lon="4.2188">
        <ele>190.958984375</ele>
        <time>2011-05-01T06:48:09Z</time>
      </trkpt>
      <trkpt lat="43.84047" lon="4.21865">
        <ele>191.43957519531</ele>
        <time>2011-05-01T06:48:12Z</time>
      </trkpt>
      <trkpt lat="43.84054" lon="4.21851">
        <ele>191.43957519531</ele>
        <time>2011-05-01T06:48:15Z</time>
      </trkpt>
      <trkpt lat="43.8406" lon="4.21837">
        <ele>191.43957519531</ele>
        <time>2011-05-01T06:48:18Z</time>
      </trkpt>
      <trkpt lat="43.84066" lon="4.21822">
        <ele>192.40112304688</ele>
        <time>2011-05-01T06:48:21Z</time>
      </trkpt>
      <trkpt lat="43.84072" lon="4.21807">
        <ele>191.92028808594</ele>
        <time>2011-05-01T06:48:24Z</time>
      </trkpt>
      <trkpt lat="43.84079" lon="4.21793">
        <ele>191.92028808594</ele>
        <time>2011-05-01T06:48:27Z</time>
      </trkpt>
      <trkpt lat="43.84084" lon="4.21776">
        <ele>191.92028808594</ele>
        <time>2011-05-01T06:48:30Z</time>
      </trkpt>
      <trkpt lat="43.84089" lon="4.2176">
        <ele>191.92028808594</ele>
        <time>2011-05-01T06:48:33Z</time>
      </trkpt>
      <trkpt lat="43.84092" lon="4.21745">
        <ele>191.92028808594</ele>
        <time>2011-05-01T06:48:36Z</time>
      </trkpt>
      <trkpt lat="43.84096" lon="4.21727">
        <ele>191.92028808594</ele>
        <time>2011-05-01T06:48:39Z</time>
      </trkpt>
      <trkpt lat="43.841" lon="4.21711">
        <ele>191.92028808594</ele>
        <time>2011-05-01T06:48:42Z</time>
      </trkpt>
      <trkpt lat="43.84103" lon="4.21694">
        <ele>192.40112304688</ele>
        <time>2011-05-01T06:48:45Z</time>
      </trkpt>
      <trkpt lat="43.84106" lon="4.21678">
        <ele>192.40112304688</ele>
        <time>2011-05-01T06:48:48Z</time>
      </trkpt>
      <trkpt lat="43.8411" lon="4.21662">
        <ele>192.88171386719</ele>
        <time>2011-05-01T06:48:51Z</time>
      </trkpt>
      <trkpt lat="43.84115" lon="4.21649">
        <ele>193.3623046875</ele>
        <time>2011-05-01T06:48:54Z</time>
      </trkpt>
      <trkpt lat="43.8412" lon="4.21635">
        <ele>193.3623046875</ele>
        <time>2011-05-01T06:48:57Z</time>
      </trkpt>
      <trkpt lat="43.84125" lon="4.21622">
        <ele>193.84301757812</ele>
        <time>2011-05-01T06:49:00Z</time>
      </trkpt>
      <trkpt lat="43.84131" lon="4.2161">
        <ele>193.84301757812</ele>
        <time>2011-05-01T06:49:03Z</time>
      </trkpt>
      <trkpt lat="43.84136" lon="4.21598">
        <ele>193.84301757812</ele>
        <time>2011-05-01T06:49:06Z</time>
      </trkpt>
      <trkpt lat="43.8414" lon="4.21584">
        <ele>193.84301757812</ele>
        <time>2011-05-01T06:49:09Z</time>
      </trkpt>
      <trkpt lat="43.84141" lon="4.21569">
        <ele>194.32373046875</ele>
        <time>2011-05-01T06:49:12Z</time>
      </trkpt>
      <trkpt lat="43.84144" lon="4.21556">
        <ele>194.80432128906</ele>
        <time>2011-05-01T06:49:15Z</time>
      </trkpt>
      <trkpt lat="43.84146" lon="4.21545">
        <ele>194.32373046875</ele>
        <time>2011-05-01T06:49:18Z</time>
      </trkpt>
      <trkpt lat="43.84165" lon="4.21549">
        <ele>194.32373046875</ele>
        <time>2011-05-01T06:49:21Z</time>
      </trkpt>
      <trkpt lat="43.84176" lon="4.21549">
        <ele>193.84301757812</ele>
        <time>2011-05-01T06:49:24Z</time>
      </trkpt>
      <trkpt lat="43.84186" lon="4.21549">
        <ele>194.32373046875</ele>
        <time>2011-05-01T06:49:27Z</time>
      </trkpt>
      <trkpt lat="43.84197" lon="4.21547">
        <ele>193.84301757812</ele>
        <time>2011-05-01T06:49:30Z</time>
      </trkpt>
      <trkpt lat="43.84208" lon="4.21546">
        <ele>192.88171386719</ele>
        <time>2011-05-01T06:49:33Z</time>
      </trkpt>
      <trkpt lat="43.84219" lon="4.21544">
        <ele>192.88171386719</ele>
        <time>2011-05-01T06:49:36Z</time>
      </trkpt>
      <trkpt lat="43.84231" lon="4.21542">
        <ele>191.92028808594</ele>
        <time>2011-05-01T06:49:39Z</time>
      </trkpt>
      <trkpt lat="43.84241" lon="4.21535">
        <ele>191.43957519531</ele>
        <time>2011-05-01T06:49:42Z</time>
      </trkpt>
      <trkpt lat="43.84253" lon="4.21529">
        <ele>190.958984375</ele>
        <time>2011-05-01T06:49:45Z</time>
      </trkpt>
      <trkpt lat="43.84264" lon="4.21524">
        <ele>190.958984375</ele>
        <time>2011-05-01T06:49:48Z</time>
      </trkpt>
      <trkpt lat="43.84276" lon="4.21521">
        <ele>190.47839355469</ele>
        <time>2011-05-01T06:49:51Z</time>
      </trkpt>
      <trkpt lat="43.84287" lon="4.21516">
        <ele>190.47839355469</ele>
        <time>2011-05-01T06:49:54Z</time>
      </trkpt>
      <trkpt lat="43.843" lon="4.21512">
        <ele>189.51696777344</ele>
        <time>2011-05-01T06:49:57Z</time>
      </trkpt>
      <trkpt lat="43.84313" lon="4.21507">
        <ele>188.55578613281</ele>
        <time>2011-05-01T06:50:00Z</time>
      </trkpt>
      <trkpt lat="43.84321" lon="4.21504">
        <ele>187.59436035156</ele>
        <time>2011-05-01T06:50:02Z</time>
      </trkpt>
      <trkpt lat="43.84331" lon="4.21501">
        <ele>187.59436035156</ele>
        <time>2011-05-01T06:50:04Z</time>
      </trkpt>
      <trkpt lat="43.84341" lon="4.21499">
        <ele>187.11376953125</ele>
        <time>2011-05-01T06:50:06Z</time>
      </trkpt>
      <trkpt lat="43.84348" lon="4.21494">
        <ele>184.71057128906</ele>
        <time>2011-05-01T06:50:10Z</time>
      </trkpt>
      <trkpt lat="43.84344" lon="4.21481">
        <ele>185.19116210938</ele>
        <time>2011-05-01T06:50:20Z</time>
      </trkpt>
      <trkpt lat="43.84345" lon="4.21466">
        <ele>185.19116210938</ele>
        <time>2011-05-01T06:50:25Z</time>
      </trkpt>
      <trkpt lat="43.84347" lon="4.21451">
        <ele>185.19116210938</ele>
        <time>2011-05-01T06:50:29Z</time>
      </trkpt>
      <trkpt lat="43.8435" lon="4.2144">
        <ele>185.19116210938</ele>
        <time>2011-05-01T06:50:34Z</time>
      </trkpt>
      <trkpt lat="43.84356" lon="4.21425">
        <ele>185.19116210938</ele>
        <time>2011-05-01T06:50:38Z</time>
      </trkpt>
      <trkpt lat="43.84364" lon="4.2142">
        <ele>184.22985839844</ele>
        <time>2011-05-01T06:50:42Z</time>
      </trkpt>
      <trkpt lat="43.84373" lon="4.21422">
        <ele>183.26843261719</ele>
        <time>2011-05-01T06:50:46Z</time>
      </trkpt>
      <trkpt lat="43.84371" lon="4.21407">
        <ele>183.26843261719</ele>
        <time>2011-05-01T06:50:51Z</time>
      </trkpt>
      <trkpt lat="43.84372" lon="4.21396">
        <ele>182.30712890625</ele>
        <time>2011-05-01T06:50:55Z</time>
      </trkpt>
      <trkpt lat="43.84371" lon="4.21382">
        <ele>182.30712890625</ele>
        <time>2011-05-01T06:50:59Z</time>
      </trkpt>
      <trkpt lat="43.8437" lon="4.21367">
        <ele>182.30712890625</ele>
        <time>2011-05-01T06:51:03Z</time>
      </trkpt>
      <trkpt lat="43.84365" lon="4.21352">
        <ele>182.30712890625</ele>
        <time>2011-05-01T06:51:07Z</time>
      </trkpt>
      <trkpt lat="43.84367" lon="4.21341">
        <ele>181.34582519531</ele>
        <time>2011-05-01T06:51:11Z</time>
      </trkpt>
      <trkpt lat="43.84372" lon="4.21328">
        <ele>180.865234375</ele>
        <time>2011-05-01T06:51:15Z</time>
      </trkpt>
      <trkpt lat="43.84371" lon="4.21315">
        <ele>179.42321777344</ele>
        <time>2011-05-01T06:51:19Z</time>
      </trkpt>
      <trkpt lat="43.84375" lon="4.21304">
        <ele>179.42321777344</ele>
        <time>2011-05-01T06:51:23Z</time>
      </trkpt>
      <trkpt lat="43.84383" lon="4.21294">
        <ele>178.4619140625</ele>
        <time>2011-05-01T06:51:27Z</time>
      </trkpt>
      <trkpt lat="43.84384" lon="4.21282">
        <ele>176.53930664062</ele>
        <time>2011-05-01T06:51:30Z</time>
      </trkpt>
      <trkpt lat="43.84384" lon="4.21269">
        <ele>175.57788085938</ele>
        <time>2011-05-01T06:51:33Z</time>
      </trkpt>
      <trkpt lat="43.84385" lon="4.21253">
        <ele>175.09729003906</ele>
        <time>2011-05-01T06:51:36Z</time>
      </trkpt>
      <trkpt lat="43.84384" lon="4.21238">
        <ele>174.61657714844</ele>
        <time>2011-05-01T06:51:39Z</time>
      </trkpt>
      <trkpt lat="43.8438" lon="4.21223">
        <ele>174.61657714844</ele>
        <time>2011-05-01T06:51:43Z</time>
      </trkpt>
      <trkpt lat="43.84376" lon="4.21208">
        <ele>175.09729003906</ele>
        <time>2011-05-01T06:51:47Z</time>
      </trkpt>
      <trkpt lat="43.84371" lon="4.21196">
        <ele>175.57788085938</ele>
        <time>2011-05-01T06:51:51Z</time>
      </trkpt>
      <trkpt lat="43.84363" lon="4.21189">
        <ele>176.53930664062</ele>
        <time>2011-05-01T06:51:55Z</time>
      </trkpt>
      <trkpt lat="43.84355" lon="4.21183">
        <ele>177.02001953125</ele>
        <time>2011-05-01T06:51:59Z</time>
      </trkpt>
      <trkpt lat="43.84348" lon="4.21176">
        <ele>177.98120117188</ele>
        <time>2011-05-01T06:52:03Z</time>
      </trkpt>
      <trkpt lat="43.8434" lon="4.21169">
        <ele>179.42321777344</ele>
        <time>2011-05-01T06:52:08Z</time>
      </trkpt>
      <trkpt lat="43.84331" lon="4.21161">
        <ele>179.90380859375</ele>
        <time>2011-05-01T06:52:13Z</time>
      </trkpt>
      <trkpt lat="43.84322" lon="4.2115">
        <ele>180.865234375</ele>
        <time>2011-05-01T06:52:18Z</time>
      </trkpt>
      <trkpt lat="43.84317" lon="4.21139">
        <ele>181.82641601562</ele>
        <time>2011-05-01T06:52:23Z</time>
      </trkpt>
      <trkpt lat="43.84314" lon="4.21127">
        <ele>182.30712890625</ele>
        <time>2011-05-01T06:52:27Z</time>
      </trkpt>
      <trkpt lat="43.84308" lon="4.21116">
        <ele>183.7490234375</ele>
        <time>2011-05-01T06:52:32Z</time>
      </trkpt>
      <trkpt lat="43.84303" lon="4.21104">
        <ele>184.71057128906</ele>
        <time>2011-05-01T06:52:37Z</time>
      </trkpt>
      <trkpt lat="43.843" lon="4.2109">
        <ele>185.67175292969</ele>
        <time>2011-05-01T06:52:42Z</time>
      </trkpt>
      <trkpt lat="43.84296" lon="4.21077">
        <ele>187.59436035156</ele>
        <time>2011-05-01T06:52:47Z</time>
      </trkpt>
      <trkpt lat="43.84286" lon="4.21075">
        <ele>187.11376953125</ele>
        <time>2011-05-01T06:52:52Z</time>
      </trkpt>
      <trkpt lat="43.84277" lon="4.21069">
        <ele>188.55578613281</ele>
        <time>2011-05-01T06:52:58Z</time>
      </trkpt>
      <trkpt lat="43.84273" lon="4.21056">
        <ele>189.51696777344</ele>
        <time>2011-05-01T06:53:03Z</time>
      </trkpt>
      <trkpt lat="43.84274" lon="4.21043">
        <ele>189.99768066406</ele>
        <time>2011-05-01T06:53:08Z</time>
      </trkpt>
      <trkpt lat="43.84272" lon="4.2103">
        <ele>190.958984375</ele>
        <time>2011-05-01T06:53:13Z</time>
      </trkpt>
      <trkpt lat="43.84269" lon="4.21017">
        <ele>191.43957519531</ele>
        <time>2011-05-01T06:53:18Z</time>
      </trkpt>
      <trkpt lat="43.84271" lon="4.21003">
        <ele>192.40112304688</ele>
        <time>2011-05-01T06:53:23Z</time>
      </trkpt>
      <trkpt lat="43.84272" lon="4.20988">
        <ele>192.40112304688</ele>
        <time>2011-05-01T06:53:28Z</time>
      </trkpt>
      <trkpt lat="43.84272" lon="4.20975">
        <ele>192.40112304688</ele>
        <time>2011-05-01T06:53:33Z</time>
      </trkpt>
      <trkpt lat="43.84274" lon="4.20961">
        <ele>192.88171386719</ele>
        <time>2011-05-01T06:53:37Z</time>
      </trkpt>
      <trkpt lat="43.84278" lon="4.20947">
        <ele>193.3623046875</ele>
        <time>2011-05-01T06:53:41Z</time>
      </trkpt>
      <trkpt lat="43.84281" lon="4.20933">
        <ele>193.84301757812</ele>
        <time>2011-05-01T06:53:45Z</time>
      </trkpt>
      <trkpt lat="43.84284" lon="4.20919">
        <ele>193.3623046875</ele>
        <time>2011-05-01T06:53:49Z</time>
      </trkpt>
      <trkpt lat="43.84288" lon="4.20907">
        <ele>194.32373046875</ele>
        <time>2011-05-01T06:53:52Z</time>
      </trkpt>
      <trkpt lat="43.84294" lon="4.20893">
        <ele>193.84301757812</ele>
        <time>2011-05-01T06:53:56Z</time>
      </trkpt>
      <trkpt lat="43.84302" lon="4.20887">
        <ele>193.3623046875</ele>
        <time>2011-05-01T06:53:59Z</time>
      </trkpt>
      <trkpt lat="43.84308" lon="4.20875">
        <ele>192.88171386719</ele>
        <time>2011-05-01T06:54:02Z</time>
      </trkpt>
      <trkpt lat="43.84314" lon="4.20863">
        <ele>193.3623046875</ele>
        <time>2011-05-01T06:54:05Z</time>
      </trkpt>
      <trkpt lat="43.8432" lon="4.20853">
        <ele>192.40112304688</ele>
        <time>2011-05-01T06:54:08Z</time>
      </trkpt>
      <trkpt lat="43.84321" lon="4.20842">
        <ele>192.88171386719</ele>
        <time>2011-05-01T06:54:11Z</time>
      </trkpt>
      <trkpt lat="43.84315" lon="4.20826">
        <ele>193.84301757812</ele>
        <time>2011-05-01T06:54:15Z</time>
      </trkpt>
      <trkpt lat="43.84313" lon="4.20813">
        <ele>193.3623046875</ele>
        <time>2011-05-01T06:54:18Z</time>
      </trkpt>
      <trkpt lat="43.84314" lon="4.208">
        <ele>193.84301757812</ele>
        <time>2011-05-01T06:54:21Z</time>
      </trkpt>
      <trkpt lat="43.84318" lon="4.20787">
        <ele>193.3623046875</ele>
        <time>2011-05-01T06:54:24Z</time>
      </trkpt>
      <trkpt lat="43.84323" lon="4.20774">
        <ele>193.3623046875</ele>
        <time>2011-05-01T06:54:27Z</time>
      </trkpt>
      <trkpt lat="43.84328" lon="4.20761">
        <ele>193.3623046875</ele>
        <time>2011-05-01T06:54:30Z</time>
      </trkpt>
      <trkpt lat="43.84336" lon="4.2075">
        <ele>193.3623046875</ele>
        <time>2011-05-01T06:54:33Z</time>
      </trkpt>
      <trkpt lat="43.84342" lon="4.20737">
        <ele>192.40112304688</ele>
        <time>2011-05-01T06:54:36Z</time>
      </trkpt>
      <trkpt lat="43.8435" lon="4.20724">
        <ele>192.88171386719</ele>
        <time>2011-05-01T06:54:39Z</time>
      </trkpt>
      <trkpt lat="43.84358" lon="4.20711">
        <ele>191.92028808594</ele>
        <time>2011-05-01T06:54:42Z</time>
      </trkpt>
      <trkpt lat="43.84366" lon="4.20697">
        <ele>191.43957519531</ele>
        <time>2011-05-01T06:54:45Z</time>
      </trkpt>
      <trkpt lat="43.84374" lon="4.20682">
        <ele>190.47839355469</ele>
        <time>2011-05-01T06:54:48Z</time>
      </trkpt>
      <trkpt lat="43.84379" lon="4.2067">
        <ele>189.99768066406</ele>
        <time>2011-05-01T06:54:50Z</time>
      </trkpt>
      <trkpt lat="43.84383" lon="4.20658">
        <ele>190.47839355469</ele>
        <time>2011-05-01T06:54:52Z</time>
      </trkpt>
      <trkpt lat="43.84389" lon="4.20642">
        <ele>189.99768066406</ele>
        <time>2011-05-01T06:54:55Z</time>
      </trkpt>
      <trkpt lat="43.84395" lon="4.20626">
        <ele>189.99768066406</ele>
        <time>2011-05-01T06:54:58Z</time>
      </trkpt>
      <trkpt lat="43.84403" lon="4.20613">
        <ele>189.03637695312</ele>
        <time>2011-05-01T06:55:01Z</time>
      </trkpt>
      <trkpt lat="43.84409" lon="4.20602">
        <ele>189.51696777344</ele>
        <time>2011-05-01T06:55:03Z</time>
      </trkpt>
      <trkpt lat="43.84415" lon="4.20592">
        <ele>188.55578613281</ele>
        <time>2011-05-01T06:55:05Z</time>
      </trkpt>
      <trkpt lat="43.84419" lon="4.20582">
        <ele>188.07507324219</ele>
        <time>2011-05-01T06:55:07Z</time>
      </trkpt>
      <trkpt lat="43.84426" lon="4.20567">
        <ele>188.07507324219</ele>
        <time>2011-05-01T06:55:10Z</time>
      </trkpt>
      <trkpt lat="43.84431" lon="4.20556">
        <ele>187.59436035156</ele>
        <time>2011-05-01T06:55:12Z</time>
      </trkpt>
      <trkpt lat="43.84436" lon="4.20546">
        <ele>187.11376953125</ele>
        <time>2011-05-01T06:55:14Z</time>
      </trkpt>
      <trkpt lat="43.84442" lon="4.20536">
        <ele>186.63317871094</ele>
        <time>2011-05-01T06:55:16Z</time>
      </trkpt>
      <trkpt lat="43.84448" lon="4.20524">
        <ele>185.19116210938</ele>
        <time>2011-05-01T06:55:18Z</time>
      </trkpt>
      <trkpt lat="43.84452" lon="4.20511">
        <ele>185.67175292969</ele>
        <time>2011-05-01T06:55:20Z</time>
      </trkpt>
      <trkpt lat="43.84457" lon="4.20498">
        <ele>184.71057128906</ele>
        <time>2011-05-01T06:55:22Z</time>
      </trkpt>
      <trkpt lat="43.84462" lon="4.20483">
        <ele>183.7490234375</ele>
        <time>2011-05-01T06:55:25Z</time>
      </trkpt>
      <trkpt lat="43.84467" lon="4.20473">
        <ele>183.26843261719</ele>
        <time>2011-05-01T06:55:28Z</time>
      </trkpt>
      <trkpt lat="43.84471" lon="4.20464">
        <ele>182.78784179688</ele>
        <time>2011-05-01T06:55:31Z</time>
      </trkpt>
      <trkpt lat="43.84477" lon="4.20452">
        <ele>182.78784179688</ele>
        <time>2011-05-01T06:55:34Z</time>
      </trkpt>
      <trkpt lat="43.84484" lon="4.20439">
        <ele>182.30712890625</ele>
        <time>2011-05-01T06:55:37Z</time>
      </trkpt>
      <trkpt lat="43.8449" lon="4.20429">
        <ele>181.34582519531</ele>
        <time>2011-05-01T06:55:40Z</time>
      </trkpt>
      <trkpt lat="43.84496" lon="4.20421">
        <ele>180.38452148438</ele>
        <time>2011-05-01T06:55:42Z</time>
      </trkpt>
      <trkpt lat="43.845" lon="4.20414">
        <ele>179.90380859375</ele>
        <time>2011-05-01T06:55:44Z</time>
      </trkpt>
      <trkpt lat="43.84506" lon="4.20406">
        <ele>178.94262695312</ele>
        <time>2011-05-01T06:55:46Z</time>
      </trkpt>
      <trkpt lat="43.84513" lon="4.20395">
        <ele>177.02001953125</ele>
        <time>2011-05-01T06:55:48Z</time>
      </trkpt>
      <trkpt lat="43.84521" lon="4.2038">
        <ele>176.05859375</ele>
        <time>2011-05-01T06:55:50Z</time>
      </trkpt>
      <trkpt lat="43.84471" lon="4.20323">
        <ele>175.09729003906</ele>
        <time>2011-05-01T06:55:52Z</time>
      </trkpt>
      <trkpt lat="43.84463" lon="4.20314">
        <ele>173.6552734375</ele>
        <time>2011-05-01T06:55:55Z</time>
      </trkpt>
      <trkpt lat="43.84453" lon="4.20304">
        <ele>172.69396972656</ele>
        <time>2011-05-01T06:55:58Z</time>
      </trkpt>
      <trkpt lat="43.84444" lon="4.20297">
        <ele>172.69396972656</ele>
        <time>2011-05-01T06:56:01Z</time>
      </trkpt>
      <trkpt lat="43.84433" lon="4.20295">
        <ele>173.17468261719</ele>
        <time>2011-05-01T06:56:05Z</time>
      </trkpt>
      <trkpt lat="43.84423" lon="4.20298">
        <ele>173.6552734375</ele>
        <time>2011-05-01T06:56:09Z</time>
      </trkpt>
      <trkpt lat="43.84413" lon="4.20303">
        <ele>174.13586425781</ele>
        <time>2011-05-01T06:56:13Z</time>
      </trkpt>
      <trkpt lat="43.84403" lon="4.20305">
        <ele>174.61657714844</ele>
        <time>2011-05-01T06:56:17Z</time>
      </trkpt>
      <trkpt lat="43.84393" lon="4.20313">
        <ele>175.09729003906</ele>
        <time>2011-05-01T06:56:21Z</time>
      </trkpt>
      <trkpt lat="43.84384" lon="4.20317">
        <ele>175.57788085938</ele>
        <time>2011-05-01T06:56:25Z</time>
      </trkpt>
      <trkpt lat="43.84375" lon="4.20321">
        <ele>175.57788085938</ele>
        <time>2011-05-01T06:56:29Z</time>
      </trkpt>
      <trkpt lat="43.84366" lon="4.20327">
        <ele>177.02001953125</ele>
        <time>2011-05-01T06:56:33Z</time>
      </trkpt>
      <trkpt lat="43.84355" lon="4.2033">
        <ele>177.50061035156</ele>
        <time>2011-05-01T06:56:37Z</time>
      </trkpt>
      <trkpt lat="43.84347" lon="4.2034">
        <ele>177.50061035156</ele>
        <time>2011-05-01T06:56:41Z</time>
      </trkpt>
      <trkpt lat="43.84344" lon="4.20354">
        <ele>177.98120117188</ele>
        <time>2011-05-01T06:56:45Z</time>
      </trkpt>
      <trkpt lat="43.84337" lon="4.20366">
        <ele>178.4619140625</ele>
        <time>2011-05-01T06:56:49Z</time>
      </trkpt>
      <trkpt lat="43.84329" lon="4.20373">
        <ele>178.94262695312</ele>
        <time>2011-05-01T06:56:53Z</time>
      </trkpt>
      <trkpt lat="43.84321" lon="4.20383">
        <ele>178.94262695312</ele>
        <time>2011-05-01T06:56:57Z</time>
      </trkpt>
      <trkpt lat="43.84314" lon="4.20392">
        <ele>179.90380859375</ele>
        <time>2011-05-01T06:57:01Z</time>
      </trkpt>
      <trkpt lat="43.84306" lon="4.20403">
        <ele>179.42321777344</ele>
        <time>2011-05-01T06:57:05Z</time>
      </trkpt>
      <trkpt lat="43.84299" lon="4.20413">
        <ele>179.90380859375</ele>
        <time>2011-05-01T06:57:09Z</time>
      </trkpt>
      <trkpt lat="43.84293" lon="4.20407">
        <ele>180.865234375</ele>
        <time>2011-05-01T06:57:13Z</time>
      </trkpt>
      <trkpt lat="43.84291" lon="4.20392">
        <ele>180.865234375</ele>
        <time>2011-05-01T06:57:17Z</time>
      </trkpt>
      <trkpt lat="43.84286" lon="4.20381">
        <ele>181.34582519531</ele>
        <time>2011-05-01T06:57:22Z</time>
      </trkpt>
      <trkpt lat="43.8429" lon="4.20367">
        <ele>182.30712890625</ele>
        <time>2011-05-01T06:57:27Z</time>
      </trkpt>
      <trkpt lat="43.84294" lon="4.20354">
        <ele>181.34582519531</ele>
        <time>2011-05-01T06:57:31Z</time>
      </trkpt>
      <trkpt lat="43.84294" lon="4.20342">
        <ele>182.30712890625</ele>
        <time>2011-05-01T06:57:35Z</time>
      </trkpt>
      <trkpt lat="43.84295" lon="4.20327">
        <ele>182.78784179688</ele>
        <time>2011-05-01T06:57:39Z</time>
      </trkpt>
      <trkpt lat="43.84294" lon="4.20313">
        <ele>183.26843261719</ele>
        <time>2011-05-01T06:57:43Z</time>
      </trkpt>
      <trkpt lat="43.84289" lon="4.20301">
        <ele>183.26843261719</ele>
        <time>2011-05-01T06:57:47Z</time>
      </trkpt>
      <trkpt lat="43.84282" lon="4.20307">
        <ele>184.22985839844</ele>
        <time>2011-05-01T06:57:51Z</time>
      </trkpt>
      <trkpt lat="43.84276" lon="4.20318">
        <ele>184.22985839844</ele>
        <time>2011-05-01T06:57:55Z</time>
      </trkpt>
      <trkpt lat="43.84271" lon="4.20329">
        <ele>184.71057128906</ele>
        <time>2011-05-01T06:57:59Z</time>
      </trkpt>
      <trkpt lat="43.84268" lon="4.20344">
        <ele>184.22985839844</ele>
        <time>2011-05-01T06:58:03Z</time>
      </trkpt>
      <trkpt lat="43.8426" lon="4.2035">
        <ele>184.71057128906</ele>
        <time>2011-05-01T06:58:07Z</time>
      </trkpt>
      <trkpt lat="43.84252" lon="4.20355">
        <ele>185.19116210938</ele>
        <time>2011-05-01T06:58:11Z</time>
      </trkpt>
      <trkpt lat="43.84246" lon="4.20367">
        <ele>185.67175292969</ele>
        <time>2011-05-01T06:58:15Z</time>
      </trkpt>
      <trkpt lat="43.8424" lon="4.20378">
        <ele>185.19116210938</ele>
        <time>2011-05-01T06:58:19Z</time>
      </trkpt>
      <trkpt lat="43.84233" lon="4.20384">
        <ele>185.67175292969</ele>
        <time>2011-05-01T06:58:23Z</time>
      </trkpt>
      <trkpt lat="43.84225" lon="4.20392">
        <ele>185.67175292969</ele>
        <time>2011-05-01T06:58:27Z</time>
      </trkpt>
      <trkpt lat="43.84214" lon="4.20392">
        <ele>186.63317871094</ele>
        <time>2011-05-01T06:58:32Z</time>
      </trkpt>
      <trkpt lat="43.84205" lon="4.20394">
        <ele>186.63317871094</ele>
        <time>2011-05-01T06:58:37Z</time>
      </trkpt>
      <trkpt lat="43.84196" lon="4.20399">
        <ele>187.11376953125</ele>
        <time>2011-05-01T06:58:42Z</time>
      </trkpt>
      <trkpt lat="43.84187" lon="4.20404">
        <ele>187.59436035156</ele>
        <time>2011-05-01T06:58:48Z</time>
      </trkpt>
      <trkpt lat="43.84177" lon="4.20401">
        <ele>187.59436035156</ele>
        <time>2011-05-01T06:58:53Z</time>
      </trkpt>
      <trkpt lat="43.84167" lon="4.204">
        <ele>187.11376953125</ele>
        <time>2011-05-01T06:58:57Z</time>
      </trkpt>
      <trkpt lat="43.84158" lon="4.20396">
        <ele>187.11376953125</ele>
        <time>2011-05-01T06:59:01Z</time>
      </trkpt>
      <trkpt lat="43.84159" lon="4.2041">
        <ele>187.59436035156</ele>
        <time>2011-05-01T06:59:06Z</time>
      </trkpt>
      <trkpt lat="43.84164" lon="4.20423">
        <ele>187.59436035156</ele>
        <time>2011-05-01T06:59:10Z</time>
      </trkpt>
      <trkpt lat="43.8417" lon="4.20435">
        <ele>188.07507324219</ele>
        <time>2011-05-01T06:59:14Z</time>
      </trkpt>
      <trkpt lat="43.84173" lon="4.20446">
        <ele>188.55578613281</ele>
        <time>2011-05-01T06:59:18Z</time>
      </trkpt>
      <trkpt lat="43.84175" lon="4.2046">
        <ele>189.03637695312</ele>
        <time>2011-05-01T06:59:22Z</time>
      </trkpt>
      <trkpt lat="43.84172" lon="4.20475">
        <ele>189.03637695312</ele>
        <time>2011-05-01T06:59:27Z</time>
      </trkpt>
      <trkpt lat="43.84171" lon="4.20488">
        <ele>189.51696777344</ele>
        <time>2011-05-01T06:59:32Z</time>
      </trkpt>
      <trkpt lat="43.84172" lon="4.20502">
        <ele>189.99768066406</ele>
        <time>2011-05-01T06:59:37Z</time>
      </trkpt>
      <trkpt lat="43.84166" lon="4.20513">
        <ele>190.47839355469</ele>
        <time>2011-05-01T06:59:42Z</time>
      </trkpt>
      <trkpt lat="43.84167" lon="4.20526">
        <ele>190.47839355469</ele>
        <time>2011-05-01T06:59:47Z</time>
      </trkpt>
      <trkpt lat="43.84169" lon="4.2054">
        <ele>190.958984375</ele>
        <time>2011-05-01T06:59:52Z</time>
      </trkpt>
      <trkpt lat="43.84169" lon="4.20553">
        <ele>191.43957519531</ele>
        <time>2011-05-01T06:59:57Z</time>
      </trkpt>
      <trkpt lat="43.84167" lon="4.20567">
        <ele>191.92028808594</ele>
        <time>2011-05-01T07:00:02Z</time>
      </trkpt>
      <trkpt lat="43.84159" lon="4.20577">
        <ele>191.43957519531</ele>
        <time>2011-05-01T07:00:07Z</time>
      </trkpt>
      <trkpt lat="43.84151" lon="4.20582">
        <ele>191.43957519531</ele>
        <time>2011-05-01T07:00:10Z</time>
      </trkpt>
      <trkpt lat="43.84141" lon="4.20586">
        <ele>190.958984375</ele>
        <time>2011-05-01T07:00:13Z</time>
      </trkpt>
      <trkpt lat="43.8413" lon="4.20596">
        <ele>190.47839355469</ele>
        <time>2011-05-01T07:00:16Z</time>
      </trkpt>
      <trkpt lat="43.8412" lon="4.20604">
        <ele>189.99768066406</ele>
        <time>2011-05-01T07:00:19Z</time>
      </trkpt>
      <trkpt lat="43.84112" lon="4.20617">
        <ele>189.51696777344</ele>
        <time>2011-05-01T07:00:22Z</time>
      </trkpt>
      <trkpt lat="43.84104" lon="4.20632">
        <ele>189.51696777344</ele>
        <time>2011-05-01T07:00:25Z</time>
      </trkpt>
      <trkpt lat="43.84098" lon="4.20643">
        <ele>188.55578613281</ele>
        <time>2011-05-01T07:00:27Z</time>
      </trkpt>
      <trkpt lat="43.84092" lon="4.20655">
        <ele>188.07507324219</ele>
        <time>2011-05-01T07:00:29Z</time>
      </trkpt>
      <trkpt lat="43.84085" lon="4.20669">
        <ele>187.59436035156</ele>
        <time>2011-05-01T07:00:32Z</time>
      </trkpt>
      <trkpt lat="43.84073" lon="4.20673">
        <ele>186.63317871094</ele>
        <time>2011-05-01T07:00:35Z</time>
      </trkpt>
      <trkpt lat="43.8406" lon="4.20673">
        <ele>186.15246582031</ele>
        <time>2011-05-01T07:00:38Z</time>
      </trkpt>
      <trkpt lat="43.8405" lon="4.20678">
        <ele>185.19116210938</ele>
        <time>2011-05-01T07:00:40Z</time>
      </trkpt>
      <trkpt lat="43.84041" lon="4.20688">
        <ele>185.67175292969</ele>
        <time>2011-05-01T07:00:43Z</time>
      </trkpt>
      <trkpt lat="43.84036" lon="4.20699">
        <ele>186.63317871094</ele>
        <time>2011-05-01T07:00:46Z</time>
      </trkpt>
      <trkpt lat="43.84032" lon="4.20712">
        <ele>186.63317871094</ele>
        <time>2011-05-01T07:00:49Z</time>
      </trkpt>
      <trkpt lat="43.84029" lon="4.20726">
        <ele>186.63317871094</ele>
        <time>2011-05-01T07:00:52Z</time>
      </trkpt>
      <trkpt lat="43.84026" lon="4.20739">
        <ele>187.11376953125</ele>
        <time>2011-05-01T07:00:55Z</time>
      </trkpt>
      <trkpt lat="43.84022" lon="4.20752">
        <ele>187.59436035156</ele>
        <time>2011-05-01T07:00:58Z</time>
      </trkpt>
      <trkpt lat="43.84016" lon="4.20766">
        <ele>187.59436035156</ele>
        <time>2011-05-01T07:01:02Z</time>
      </trkpt>
      <trkpt lat="43.84006" lon="4.20772">
        <ele>188.55578613281</ele>
        <time>2011-05-01T07:01:06Z</time>
      </trkpt>
      <trkpt lat="43.83999" lon="4.20783">
        <ele>189.51696777344</ele>
        <time>2011-05-01T07:01:10Z</time>
      </trkpt>
      <trkpt lat="43.83992" lon="4.20797">
        <ele>189.51696777344</ele>
        <time>2011-05-01T07:01:14Z</time>
      </trkpt>
      <trkpt lat="43.83988" lon="4.20813">
        <ele>189.03637695312</ele>
        <time>2011-05-01T07:01:18Z</time>
      </trkpt>
      <trkpt lat="43.8398" lon="4.20819">
        <ele>189.51696777344</ele>
        <time>2011-05-01T07:01:21Z</time>
      </trkpt>
      <trkpt lat="43.8397" lon="4.20825">
        <ele>190.47839355469</ele>
        <time>2011-05-01T07:01:25Z</time>
      </trkpt>
      <trkpt lat="43.8396" lon="4.20833">
        <ele>190.958984375</ele>
        <time>2011-05-01T07:01:29Z</time>
      </trkpt>
      <trkpt lat="43.8395" lon="4.20841">
        <ele>190.958984375</ele>
        <time>2011-05-01T07:01:33Z</time>
      </trkpt>
      <trkpt lat="43.83945" lon="4.20853">
        <ele>190.47839355469</ele>
        <time>2011-05-01T07:01:36Z</time>
      </trkpt>
      <trkpt lat="43.83944" lon="4.20867">
        <ele>189.99768066406</ele>
        <time>2011-05-01T07:01:39Z</time>
      </trkpt>
      <trkpt lat="43.83946" lon="4.2088">
        <ele>189.99768066406</ele>
        <time>2011-05-01T07:01:42Z</time>
      </trkpt>
      <trkpt lat="43.83946" lon="4.20893">
        <ele>189.99768066406</ele>
        <time>2011-05-01T07:01:45Z</time>
      </trkpt>
      <trkpt lat="43.83944" lon="4.20907">
        <ele>189.51696777344</ele>
        <time>2011-05-01T07:01:48Z</time>
      </trkpt>
      <trkpt lat="43.83944" lon="4.20921">
        <ele>188.07507324219</ele>
        <time>2011-05-01T07:02:10Z</time>
      </trkpt>
      <trkpt lat="43.83945" lon="4.20926">
        <ele>187.11376953125</ele>
        <time>2011-05-01T07:07:00Z</time>
      </trkpt>
      <trkpt lat="43.83945" lon="4.20926">
        <ele>189.03637695312</ele>
        <time>2011-05-01T07:08:53Z</time>
      </trkpt>
      <trkpt lat="43.83945" lon="4.20926">
        <ele>189.51696777344</ele>
        <time>2011-05-01T07:09:15Z</time>
      </trkpt>
      <trkpt lat="43.83947" lon="4.20939">
        <ele>189.03637695312</ele>
        <time>2011-05-01T07:09:22Z</time>
      </trkpt>
      <trkpt lat="43.8395" lon="4.20951">
        <ele>188.07507324219</ele>
        <time>2011-05-01T07:09:27Z</time>
      </trkpt>
      <trkpt lat="43.83949" lon="4.20967">
        <ele>188.07507324219</ele>
        <time>2011-05-01T07:09:31Z</time>
      </trkpt>
      <trkpt lat="43.8394" lon="4.20974">
        <ele>187.11376953125</ele>
        <time>2011-05-01T07:09:35Z</time>
      </trkpt>
      <trkpt lat="43.83935" lon="4.20985">
        <ele>186.15246582031</ele>
        <time>2011-05-01T07:09:39Z</time>
      </trkpt>
      <trkpt lat="43.83934" lon="4.21">
        <ele>185.19116210938</ele>
        <time>2011-05-01T07:09:43Z</time>
      </trkpt>
      <trkpt lat="43.83931" lon="4.21013">
        <ele>184.71057128906</ele>
        <time>2011-05-01T07:09:47Z</time>
      </trkpt>
      <trkpt lat="43.83936" lon="4.21026">
        <ele>184.22985839844</ele>
        <time>2011-05-01T07:09:51Z</time>
      </trkpt>
      <trkpt lat="43.8394" lon="4.2104">
        <ele>182.78784179688</ele>
        <time>2011-05-01T07:09:55Z</time>
      </trkpt>
      <trkpt lat="43.83935" lon="4.21054">
        <ele>182.78784179688</ele>
        <time>2011-05-01T07:09:59Z</time>
      </trkpt>
      <trkpt lat="43.8393" lon="4.21066">
        <ele>182.30712890625</ele>
        <time>2011-05-01T07:10:03Z</time>
      </trkpt>
      <trkpt lat="43.83923" lon="4.21074">
        <ele>183.7490234375</ele>
        <time>2011-05-01T07:10:08Z</time>
      </trkpt>
      <trkpt lat="43.83923" lon="4.21086">
        <ele>182.78784179688</ele>
        <time>2011-05-01T07:10:11Z</time>
      </trkpt>
      <trkpt lat="43.83923" lon="4.21101">
        <ele>181.82641601562</ele>
        <time>2011-05-01T07:10:14Z</time>
      </trkpt>
      <trkpt lat="43.83918" lon="4.21118">
        <ele>180.865234375</ele>
        <time>2011-05-01T07:10:17Z</time>
      </trkpt>
      <trkpt lat="43.83913" lon="4.21133">
        <ele>179.90380859375</ele>
        <time>2011-05-01T07:10:20Z</time>
      </trkpt>
      <trkpt lat="43.83903" lon="4.21142">
        <ele>179.90380859375</ele>
        <time>2011-05-01T07:10:23Z</time>
      </trkpt>
      <trkpt lat="43.83898" lon="4.21151">
        <ele>179.90380859375</ele>
        <time>2011-05-01T07:10:26Z</time>
      </trkpt>
      <trkpt lat="43.83896" lon="4.21163">
        <ele>179.42321777344</ele>
        <time>2011-05-01T07:10:29Z</time>
      </trkpt>
      <trkpt lat="43.83892" lon="4.21175">
        <ele>178.94262695312</ele>
        <time>2011-05-01T07:10:32Z</time>
      </trkpt>
      <trkpt lat="43.83886" lon="4.21188">
        <ele>178.4619140625</ele>
        <time>2011-05-01T07:10:35Z</time>
      </trkpt>
      <trkpt lat="43.83882" lon="4.21201">
        <ele>178.4619140625</ele>
        <time>2011-05-01T07:10:39Z</time>
      </trkpt>
      <trkpt lat="43.83879" lon="4.21217">
        <ele>177.98120117188</ele>
        <time>2011-05-01T07:10:43Z</time>
      </trkpt>
      <trkpt lat="43.83878" lon="4.21231">
        <ele>177.50061035156</ele>
        <time>2011-05-01T07:10:47Z</time>
      </trkpt>
      <trkpt lat="43.83875" lon="4.21243">
        <ele>177.02001953125</ele>
        <time>2011-05-01T07:10:51Z</time>
      </trkpt>
      <trkpt lat="43.83871" lon="4.21256">
        <ele>176.05859375</ele>
        <time>2011-05-01T07:10:55Z</time>
      </trkpt>
      <trkpt lat="43.83864" lon="4.21269">
        <ele>175.57788085938</ele>
        <time>2011-05-01T07:10:59Z</time>
      </trkpt>
      <trkpt lat="43.8386" lon="4.2128">
        <ele>174.13586425781</ele>
        <time>2011-05-01T07:11:02Z</time>
      </trkpt>
      <trkpt lat="43.83855" lon="4.21293">
        <ele>171.73266601562</ele>
        <time>2011-05-01T07:11:05Z</time>
      </trkpt>
      <trkpt lat="43.83851" lon="4.21304">
        <ele>169.81005859375</ele>
        <time>2011-05-01T07:11:08Z</time>
      </trkpt>
      <trkpt lat="43.83844" lon="4.21316">
        <ele>165.48413085938</ele>
        <time>2011-05-01T07:11:12Z</time>
      </trkpt>
      <trkpt lat="43.83839" lon="4.21329">
        <ele>163.08081054688</ele>
        <time>2011-05-01T07:11:16Z</time>
      </trkpt>
      <trkpt lat="43.83837" lon="4.21341">
        <ele>160.67749023438</ele>
        <time>2011-05-01T07:11:20Z</time>
      </trkpt>
      <trkpt lat="43.83831" lon="4.21351">
        <ele>158.27416992188</ele>
        <time>2011-05-01T07:11:23Z</time>
      </trkpt>
      <trkpt lat="43.83811" lon="4.21366">
        <ele>157.79357910156</ele>
        <time>2011-05-01T07:11:27Z</time>
      </trkpt>
      <trkpt lat="43.83811" lon="4.21375">
        <ele>157.31286621094</ele>
        <time>2011-05-01T07:11:31Z</time>
      </trkpt>
      <trkpt lat="43.83809" lon="4.2138">
        <ele>157.31286621094</ele>
        <time>2011-05-01T07:11:34Z</time>
      </trkpt>
      <trkpt lat="43.83805" lon="4.21394">
        <ele>156.3515625</ele>
        <time>2011-05-01T07:11:37Z</time>
      </trkpt>
      <trkpt lat="43.83802" lon="4.21401">
        <ele>156.3515625</ele>
        <time>2011-05-01T07:11:41Z</time>
      </trkpt>
      <trkpt lat="43.838" lon="4.21414">
        <ele>156.3515625</ele>
        <time>2011-05-01T07:11:44Z</time>
      </trkpt>
      <trkpt lat="43.838" lon="4.21408">
        <ele>158.27416992188</ele>
        <time>2011-05-01T07:11:50Z</time>
      </trkpt>
      <trkpt lat="43.83802" lon="4.21402">
        <ele>155.87097167969</ele>
        <time>2011-05-01T07:11:57Z</time>
      </trkpt>
      <trkpt lat="43.83805" lon="4.21391">
        <ele>152.98693847656</ele>
        <time>2011-05-01T07:12:00Z</time>
      </trkpt>
      <trkpt lat="43.83808" lon="4.21381">
        <ele>152.50634765625</ele>
        <time>2011-05-01T07:12:04Z</time>
      </trkpt>
      <trkpt lat="43.83811" lon="4.21366">
        <ele>151.544921875</ele>
        <time>2011-05-01T07:12:11Z</time>
      </trkpt>
      <trkpt lat="43.83809" lon="4.21352">
        <ele>149.62231445312</ele>
        <time>2011-05-01T07:12:15Z</time>
      </trkpt>
      <trkpt lat="43.83802" lon="4.21362">
        <ele>147.69970703125</ele>
        <time>2011-05-01T07:12:20Z</time>
      </trkpt>
      <trkpt lat="43.83798" lon="4.21372">
        <ele>145.77709960938</ele>
        <time>2011-05-01T07:12:24Z</time>
      </trkpt>
      <trkpt lat="43.83789" lon="4.21375">
        <ele>142.41247558594</ele>
        <time>2011-05-01T07:12:31Z</time>
      </trkpt>
      <trkpt lat="43.83784" lon="4.21364">
        <ele>139.0478515625</ele>
        <time>2011-05-01T07:12:40Z</time>
      </trkpt>
      <trkpt lat="43.83787" lon="4.21352">
        <ele>140.00915527344</ele>
        <time>2011-05-01T07:12:44Z</time>
      </trkpt>
      <trkpt lat="43.83788" lon="4.21339">
        <ele>140.48986816406</ele>
        <time>2011-05-01T07:12:47Z</time>
      </trkpt>
      <trkpt lat="43.83788" lon="4.21324">
        <ele>140.97045898438</ele>
        <time>2011-05-01T07:12:51Z</time>
      </trkpt>
      <trkpt lat="43.8379" lon="4.21312">
        <ele>140.97045898438</ele>
        <time>2011-05-01T07:12:54Z</time>
      </trkpt>
      <trkpt lat="43.83784" lon="4.213">
        <ele>139.52844238281</ele>
        <time>2011-05-01T07:12:58Z</time>
      </trkpt>
      <trkpt lat="43.83779" lon="4.21287">
        <ele>137.12524414062</ele>
        <time>2011-05-01T07:13:02Z</time>
      </trkpt>
      <trkpt lat="43.8378" lon="4.21274">
        <ele>135.20251464844</ele>
        <time>2011-05-01T07:13:05Z</time>
      </trkpt>
      <trkpt lat="43.83782" lon="4.21261">
        <ele>135.68310546875</ele>
        <time>2011-05-01T07:13:08Z</time>
      </trkpt>
      <trkpt lat="43.83786" lon="4.21246">
        <ele>137.12524414062</ele>
        <time>2011-05-01T07:13:14Z</time>
      </trkpt>
      <trkpt lat="43.8379" lon="4.21231">
        <ele>138.08654785156</ele>
        <time>2011-05-01T07:13:18Z</time>
      </trkpt>
      <trkpt lat="43.83791" lon="4.21214">
        <ele>137.12524414062</ele>
        <time>2011-05-01T07:13:22Z</time>
      </trkpt>
      <trkpt lat="43.83791" lon="4.21199">
        <ele>136.64465332031</ele>
        <time>2011-05-01T07:13:25Z</time>
      </trkpt>
      <trkpt lat="43.83793" lon="4.21183">
        <ele>135.20251464844</ele>
        <time>2011-05-01T07:13:28Z</time>
      </trkpt>
      <trkpt lat="43.83795" lon="4.21169">
        <ele>135.20251464844</ele>
        <time>2011-05-01T07:13:31Z</time>
      </trkpt>
      <trkpt lat="43.83799" lon="4.21155">
        <ele>135.20251464844</ele>
        <time>2011-05-01T07:13:34Z</time>
      </trkpt>
      <trkpt lat="43.83802" lon="4.21141">
        <ele>135.20251464844</ele>
        <time>2011-05-01T07:13:38Z</time>
      </trkpt>
      <trkpt lat="43.83802" lon="4.21127">
        <ele>134.2412109375</ele>
        <time>2011-05-01T07:13:42Z</time>
      </trkpt>
      <trkpt lat="43.83805" lon="4.21114">
        <ele>134.2412109375</ele>
        <time>2011-05-01T07:13:45Z</time>
      </trkpt>
      <trkpt lat="43.8381" lon="4.21101">
        <ele>133.76049804688</ele>
        <time>2011-05-01T07:13:49Z</time>
      </trkpt>
      <trkpt lat="43.83811" lon="4.21086">
        <ele>133.27990722656</ele>
        <time>2011-05-01T07:13:53Z</time>
      </trkpt>
      <trkpt lat="43.83809" lon="4.21071">
        <ele>132.79931640625</ele>
        <time>2011-05-01T07:13:57Z</time>
      </trkpt>
      <trkpt lat="43.83811" lon="4.21059">
        <ele>132.79931640625</ele>
        <time>2011-05-01T07:14:01Z</time>
      </trkpt>
      <trkpt lat="43.83814" lon="4.21049">
        <ele>134.72192382812</ele>
        <time>2011-05-01T07:14:07Z</time>
      </trkpt>
      <trkpt lat="43.83815" lon="4.21039">
        <ele>134.2412109375</ele>
        <time>2011-05-01T07:14:12Z</time>
      </trkpt>
      <trkpt lat="43.83829" lon="4.21022">
        <ele>136.64465332031</ele>
        <time>2011-05-01T07:14:22Z</time>
      </trkpt>
      <trkpt lat="43.83831" lon="4.21009">
        <ele>137.60583496094</ele>
        <time>2011-05-01T07:14:26Z</time>
      </trkpt>
      <trkpt lat="43.83834" lon="4.20997">
        <ele>138.08654785156</ele>
        <time>2011-05-01T07:14:30Z</time>
      </trkpt>
      <trkpt lat="43.83837" lon="4.20986">
        <ele>138.08654785156</ele>
        <time>2011-05-01T07:14:34Z</time>
      </trkpt>
      <trkpt lat="43.83841" lon="4.20972">
        <ele>139.0478515625</ele>
        <time>2011-05-01T07:14:39Z</time>
      </trkpt>
      <trkpt lat="43.83841" lon="4.20959">
        <ele>139.0478515625</ele>
        <time>2011-05-01T07:14:43Z</time>
      </trkpt>
      <trkpt lat="43.83844" lon="4.20945">
        <ele>139.0478515625</ele>
        <time>2011-05-01T07:14:47Z</time>
      </trkpt>
      <trkpt lat="43.83845" lon="4.20929">
        <ele>138.56726074219</ele>
        <time>2011-05-01T07:14:52Z</time>
      </trkpt>
      <trkpt lat="43.83845" lon="4.20917">
        <ele>138.56726074219</ele>
        <time>2011-05-01T07:14:55Z</time>
      </trkpt>
      <trkpt lat="43.83847" lon="4.20901">
        <ele>138.08654785156</ele>
        <time>2011-05-01T07:14:58Z</time>
      </trkpt>
      <trkpt lat="43.83845" lon="4.20887">
        <ele>137.60583496094</ele>
        <time>2011-05-01T07:15:01Z</time>
      </trkpt>
      <trkpt lat="43.83841" lon="4.2087">
        <ele>135.20251464844</ele>
        <time>2011-05-01T07:15:05Z</time>
      </trkpt>
      <trkpt lat="43.83841" lon="4.20854">
        <ele>134.72192382812</ele>
        <time>2011-05-01T07:15:08Z</time>
      </trkpt>
      <trkpt lat="43.83842" lon="4.20838">
        <ele>133.27990722656</ele>
        <time>2011-05-01T07:15:11Z</time>
      </trkpt>
      <trkpt lat="43.83841" lon="4.2082">
        <ele>132.31860351562</ele>
        <time>2011-05-01T07:15:14Z</time>
      </trkpt>
      <trkpt lat="43.83841" lon="4.20807">
        <ele>131.837890625</ele>
        <time>2011-05-01T07:15:16Z</time>
      </trkpt>
      <trkpt lat="43.83839" lon="4.2079">
        <ele>129.91528320312</ele>
        <time>2011-05-01T07:15:19Z</time>
      </trkpt>
      <trkpt lat="43.83839" lon="4.20776">
        <ele>129.43469238281</ele>
        <time>2011-05-01T07:15:21Z</time>
      </trkpt>
      <trkpt lat="43.83845" lon="4.20765">
        <ele>128.9541015625</ele>
        <time>2011-05-01T07:15:23Z</time>
      </trkpt>
      <trkpt lat="43.83853" lon="4.20754">
        <ele>130.39599609375</ele>
        <time>2011-05-01T07:15:26Z</time>
      </trkpt>
      <trkpt lat="43.8386" lon="4.20745">
        <ele>131.837890625</ele>
        <time>2011-05-01T07:15:30Z</time>
      </trkpt>
      <trkpt lat="43.83865" lon="4.20728">
        <ele>131.837890625</ele>
        <time>2011-05-01T07:15:34Z</time>
      </trkpt>
      <trkpt lat="43.83868" lon="4.20713">
        <ele>132.31860351562</ele>
        <time>2011-05-01T07:15:38Z</time>
      </trkpt>
      <trkpt lat="43.83871" lon="4.20699">
        <ele>132.79931640625</ele>
        <time>2011-05-01T07:15:41Z</time>
      </trkpt>
      <trkpt lat="43.83875" lon="4.20684">
        <ele>132.79931640625</ele>
        <time>2011-05-01T07:15:45Z</time>
      </trkpt>
      <trkpt lat="43.83879" lon="4.20668">
        <ele>132.31860351562</ele>
        <time>2011-05-01T07:15:48Z</time>
      </trkpt>
      <trkpt lat="43.83884" lon="4.20655">
        <ele>132.31860351562</ele>
        <time>2011-05-01T07:15:51Z</time>
      </trkpt>
      <trkpt lat="43.83889" lon="4.20639">
        <ele>132.31860351562</ele>
        <time>2011-05-01T07:15:54Z</time>
      </trkpt>
      <trkpt lat="43.83893" lon="4.20625">
        <ele>132.79931640625</ele>
        <time>2011-05-01T07:15:58Z</time>
      </trkpt>
      <trkpt lat="43.83897" lon="4.20613">
        <ele>133.27990722656</ele>
        <time>2011-05-01T07:16:01Z</time>
      </trkpt>
      <trkpt lat="43.839" lon="4.20601">
        <ele>133.27990722656</ele>
        <time>2011-05-01T07:16:04Z</time>
      </trkpt>
      <trkpt lat="43.83903" lon="4.20588">
        <ele>132.79931640625</ele>
        <time>2011-05-01T07:16:07Z</time>
      </trkpt>
      <trkpt lat="43.83904" lon="4.2057">
        <ele>132.31860351562</ele>
        <time>2011-05-01T07:16:11Z</time>
      </trkpt>
      <trkpt lat="43.83898" lon="4.20559">
        <ele>131.35729980469</ele>
        <time>2011-05-01T07:16:19Z</time>
      </trkpt>
      <trkpt lat="43.83886" lon="4.20572">
        <ele>131.35729980469</ele>
        <time>2011-05-01T07:16:25Z</time>
      </trkpt>
      <trkpt lat="43.83879" lon="4.20583">
        <ele>132.31860351562</ele>
        <time>2011-05-01T07:16:29Z</time>
      </trkpt>
      <trkpt lat="43.83871" lon="4.20595">
        <ele>131.35729980469</ele>
        <time>2011-05-01T07:16:32Z</time>
      </trkpt>
      <trkpt lat="43.83864" lon="4.20605">
        <ele>131.35729980469</ele>
        <time>2011-05-01T07:16:34Z</time>
      </trkpt>
      <trkpt lat="43.83859" lon="4.20615">
        <ele>130.39599609375</ele>
        <time>2011-05-01T07:16:36Z</time>
      </trkpt>
      <trkpt lat="43.83854" lon="4.20627">
        <ele>129.43469238281</ele>
        <time>2011-05-01T07:16:38Z</time>
      </trkpt>
      <trkpt lat="43.83848" lon="4.2064">
        <ele>127.51196289062</ele>
        <time>2011-05-01T07:16:40Z</time>
      </trkpt>
      <trkpt lat="43.83842" lon="4.20653">
        <ele>127.03137207031</ele>
        <time>2011-05-01T07:16:42Z</time>
      </trkpt>
      <trkpt lat="43.83837" lon="4.20664">
        <ele>126.06994628906</ele>
        <time>2011-05-01T07:16:44Z</time>
      </trkpt>
      <trkpt lat="43.83831" lon="4.20678">
        <ele>124.14733886719</ele>
        <time>2011-05-01T07:16:47Z</time>
      </trkpt>
      <trkpt lat="43.83824" lon="4.20692">
        <ele>122.70544433594</ele>
        <time>2011-05-01T07:16:53Z</time>
      </trkpt>
      <trkpt lat="43.83818" lon="4.20705">
        <ele>121.26354980469</ele>
        <time>2011-05-01T07:16:56Z</time>
      </trkpt>
      <trkpt lat="43.83809" lon="4.20717">
        <ele>120.78283691406</ele>
        <time>2011-05-01T07:16:59Z</time>
      </trkpt>
      <trkpt lat="43.83802" lon="4.20727">
        <ele>119.82141113281</ele>
        <time>2011-05-01T07:17:02Z</time>
      </trkpt>
      <trkpt lat="43.83795" lon="4.20736">
        <ele>119.3408203125</ele>
        <time>2011-05-01T07:17:04Z</time>
      </trkpt>
      <trkpt lat="43.83787" lon="4.20745">
        <ele>118.37939453125</ele>
        <time>2011-05-01T07:17:06Z</time>
      </trkpt>
      <trkpt lat="43.83779" lon="4.20758">
        <ele>116.9375</ele>
        <time>2011-05-01T07:17:09Z</time>
      </trkpt>
      <trkpt lat="43.83771" lon="4.20771">
        <ele>116.45678710938</ele>
        <time>2011-05-01T07:17:12Z</time>
      </trkpt>
      <trkpt lat="43.83762" lon="4.20782">
        <ele>115.01489257812</ele>
        <time>2011-05-01T07:17:15Z</time>
      </trkpt>
      <trkpt lat="43.83753" lon="4.20794">
        <ele>114.5341796875</ele>
        <time>2011-05-01T07:17:18Z</time>
      </trkpt>
      <trkpt lat="43.83744" lon="4.20806">
        <ele>113.57299804688</ele>
        <time>2011-05-01T07:17:21Z</time>
      </trkpt>
      <trkpt lat="43.83735" lon="4.20818">
        <ele>112.13098144531</ele>
        <time>2011-05-01T07:17:24Z</time>
      </trkpt>
      <trkpt lat="43.83728" lon="4.20831">
        <ele>111.65026855469</ele>
        <time>2011-05-01T07:17:27Z</time>
      </trkpt>
      <trkpt lat="43.83724" lon="4.20841">
        <ele>113.09228515625</ele>
        <time>2011-05-01T07:17:30Z</time>
      </trkpt>
      <trkpt lat="43.83717" lon="4.20851">
        <ele>114.05358886719</ele>
        <time>2011-05-01T07:17:34Z</time>
      </trkpt>
      <trkpt lat="43.8371" lon="4.20861">
        <ele>114.5341796875</ele>
        <time>2011-05-01T07:17:38Z</time>
      </trkpt>
      <trkpt lat="43.83705" lon="4.20868">
        <ele>115.01489257812</ele>
        <time>2011-05-01T07:17:42Z</time>
      </trkpt>
      <trkpt lat="43.83699" lon="4.20877">
        <ele>116.45678710938</ele>
        <time>2011-05-01T07:17:46Z</time>
      </trkpt>
      <trkpt lat="43.83699" lon="4.20877">
        <ele>117.41821289062</ele>
        <time>2011-05-01T07:17:52Z</time>
      </trkpt>
      <trkpt lat="43.83695" lon="4.20885">
        <ele>117.89880371094</ele>
        <time>2011-05-01T07:17:57Z</time>
      </trkpt>
      <trkpt lat="43.83685" lon="4.20902">
        <ele>117.89880371094</ele>
        <time>2011-05-01T07:18:01Z</time>
      </trkpt>
      <trkpt lat="43.83677" lon="4.20911">
        <ele>117.89880371094</ele>
        <time>2011-05-01T07:18:05Z</time>
      </trkpt>
      <trkpt lat="43.83646" lon="4.20937">
        <ele>118.37939453125</ele>
        <time>2011-05-01T07:18:09Z</time>
      </trkpt>
      <trkpt lat="43.83646" lon="4.20937">
        <ele>118.37939453125</ele>
        <time>2011-05-01T07:18:13Z</time>
      </trkpt>
      <trkpt lat="43.83611" lon="4.20873">
        <ele>117.41821289062</ele>
        <time>2011-05-01T07:18:17Z</time>
      </trkpt>
      <trkpt lat="43.83607" lon="4.20869">
        <ele>117.89880371094</ele>
        <time>2011-05-01T07:18:20Z</time>
      </trkpt>
      <trkpt lat="43.836" lon="4.20862">
        <ele>118.37939453125</ele>
        <time>2011-05-01T07:18:24Z</time>
      </trkpt>
      <trkpt lat="43.83594" lon="4.20851">
        <ele>117.89880371094</ele>
        <time>2011-05-01T07:18:28Z</time>
      </trkpt>
      <trkpt lat="43.83583" lon="4.20846">
        <ele>116.9375</ele>
        <time>2011-05-01T07:18:31Z</time>
      </trkpt>
      <trkpt lat="43.83574" lon="4.20846">
        <ele>117.89880371094</ele>
        <time>2011-05-01T07:18:35Z</time>
      </trkpt>
      <trkpt lat="43.83563" lon="4.20852">
        <ele>119.82141113281</ele>
        <time>2011-05-01T07:18:40Z</time>
      </trkpt>
      <trkpt lat="43.83554" lon="4.2085">
        <ele>121.744140625</ele>
        <time>2011-05-01T07:18:45Z</time>
      </trkpt>
      <trkpt lat="43.83546" lon="4.20847">
        <ele>123.18615722656</ele>
        <time>2011-05-01T07:18:50Z</time>
      </trkpt>
      <trkpt lat="43.83536" lon="4.20842">
        <ele>124.14733886719</ele>
        <time>2011-05-01T07:18:55Z</time>
      </trkpt>
      <trkpt lat="43.83527" lon="4.20836">
        <ele>126.06994628906</ele>
        <time>2011-05-01T07:19:00Z</time>
      </trkpt>
      <trkpt lat="43.83516" lon="4.20832">
        <ele>125.58935546875</ele>
        <time>2011-05-01T07:19:05Z</time>
      </trkpt>
      <trkpt lat="43.83507" lon="4.20825">
        <ele>126.06994628906</ele>
        <time>2011-05-01T07:19:11Z</time>
      </trkpt>
      <trkpt lat="43.83499" lon="4.20821">
        <ele>126.55065917969</ele>
        <time>2011-05-01T07:19:16Z</time>
      </trkpt>
      <trkpt lat="43.83492" lon="4.20809">
        <ele>126.55065917969</ele>
        <time>2011-05-01T07:19:21Z</time>
      </trkpt>
      <trkpt lat="43.83483" lon="4.20801">
        <ele>127.99255371094</ele>
        <time>2011-05-01T07:19:26Z</time>
      </trkpt>
      <trkpt lat="43.83475" lon="4.20794">
        <ele>127.99255371094</ele>
        <time>2011-05-01T07:19:30Z</time>
      </trkpt>
      <trkpt lat="43.83467" lon="4.20782">
        <ele>127.51196289062</ele>
        <time>2011-05-01T07:19:36Z</time>
      </trkpt>
      <trkpt lat="43.83462" lon="4.20771">
        <ele>128.47338867188</ele>
        <time>2011-05-01T07:19:40Z</time>
      </trkpt>
      <trkpt lat="43.83455" lon="4.20761">
        <ele>128.9541015625</ele>
        <time>2011-05-01T07:19:44Z</time>
      </trkpt>
      <trkpt lat="43.8345" lon="4.20748">
        <ele>129.43469238281</ele>
        <time>2011-05-01T07:19:47Z</time>
      </trkpt>
      <trkpt lat="43.83444" lon="4.20734">
        <ele>130.39599609375</ele>
        <time>2011-05-01T07:19:51Z</time>
      </trkpt>
      <trkpt lat="43.83439" lon="4.20722">
        <ele>130.39599609375</ele>
        <time>2011-05-01T07:19:55Z</time>
      </trkpt>
      <trkpt lat="43.83435" lon="4.20711">
        <ele>130.87670898438</ele>
        <time>2011-05-01T07:20:01Z</time>
      </trkpt>
      <trkpt lat="43.83426" lon="4.20706">
        <ele>128.9541015625</ele>
        <time>2011-05-01T07:20:06Z</time>
      </trkpt>
      <trkpt lat="43.83417" lon="4.207">
        <ele>127.03137207031</ele>
        <time>2011-05-01T07:20:09Z</time>
      </trkpt>
      <trkpt lat="43.8341" lon="4.20686">
        <ele>126.55065917969</ele>
        <time>2011-05-01T07:20:13Z</time>
      </trkpt>
      <trkpt lat="43.83404" lon="4.20675">
        <ele>124.14733886719</ele>
        <time>2011-05-01T07:20:18Z</time>
      </trkpt>
      <trkpt lat="43.83396" lon="4.20669">
        <ele>123.18615722656</ele>
        <time>2011-05-01T07:20:22Z</time>
      </trkpt>
      <trkpt lat="43.83392" lon="4.20655">
        <ele>123.66674804688</ele>
        <time>2011-05-01T07:20:26Z</time>
      </trkpt>
      <trkpt lat="43.83386" lon="4.20645">
        <ele>125.10876464844</ele>
        <time>2011-05-01T07:20:30Z</time>
      </trkpt>
      <trkpt lat="43.83379" lon="4.20634">
        <ele>125.10876464844</ele>
        <time>2011-05-01T07:20:34Z</time>
      </trkpt>
      <trkpt lat="43.83373" lon="4.20619">
        <ele>127.03137207031</ele>
        <time>2011-05-01T07:20:39Z</time>
      </trkpt>
      <trkpt lat="43.83369" lon="4.20607">
        <ele>128.47338867188</ele>
        <time>2011-05-01T07:20:44Z</time>
      </trkpt>
      <trkpt lat="43.83367" lon="4.206">
        <ele>129.43469238281</ele>
        <time>2011-05-01T07:20:49Z</time>
      </trkpt>
      <trkpt lat="43.83367" lon="4.206">
        <ele>129.43469238281</ele>
        <time>2011-05-01T07:20:53Z</time>
      </trkpt>
      <trkpt lat="43.83367" lon="4.206">
        <ele>130.39599609375</ele>
        <time>2011-05-01T07:20:57Z</time>
      </trkpt>
      <trkpt lat="43.83367" lon="4.206">
        <ele>130.87670898438</ele>
        <time>2011-05-01T07:21:02Z</time>
      </trkpt>
      <trkpt lat="43.83367" lon="4.206">
        <ele>132.79931640625</ele>
        <time>2011-05-01T07:21:08Z</time>
      </trkpt>
      <trkpt lat="43.83375" lon="4.20533">
        <ele>132.31860351562</ele>
        <time>2011-05-01T07:21:12Z</time>
      </trkpt>
      <trkpt lat="43.83373" lon="4.20521">
        <ele>131.35729980469</ele>
        <time>2011-05-01T07:21:15Z</time>
      </trkpt>
      <trkpt lat="43.83368" lon="4.20509">
        <ele>128.9541015625</ele>
        <time>2011-05-01T07:21:20Z</time>
      </trkpt>
      <trkpt lat="43.83366" lon="4.20496">
        <ele>126.55065917969</ele>
        <time>2011-05-01T07:21:43Z</time>
      </trkpt>
      <trkpt lat="43.83363" lon="4.20483">
        <ele>127.03137207031</ele>
        <time>2011-05-01T07:22:02Z</time>
      </trkpt>
      <trkpt lat="43.8336" lon="4.2047">
        <ele>126.06994628906</ele>
        <time>2011-05-01T07:22:11Z</time>
      </trkpt>
      <trkpt lat="43.83356" lon="4.20456">
        <ele>125.58935546875</ele>
        <time>2011-05-01T07:22:16Z</time>
      </trkpt>
      <trkpt lat="43.83354" lon="4.20442">
        <ele>124.62805175781</ele>
        <time>2011-05-01T07:22:20Z</time>
      </trkpt>
      <trkpt lat="43.83352" lon="4.20429">
        <ele>125.58935546875</ele>
        <time>2011-05-01T07:22:24Z</time>
      </trkpt>
      <trkpt lat="43.8335" lon="4.20417">
        <ele>125.58935546875</ele>
        <time>2011-05-01T07:22:27Z</time>
      </trkpt>
      <trkpt lat="43.83348" lon="4.20404">
        <ele>125.10876464844</ele>
        <time>2011-05-01T07:22:30Z</time>
      </trkpt>
      <trkpt lat="43.8335" lon="4.20391">
        <ele>126.06994628906</ele>
        <time>2011-05-01T07:22:37Z</time>
      </trkpt>
      <trkpt lat="43.83344" lon="4.2038">
        <ele>125.10876464844</ele>
        <time>2011-05-01T07:22:42Z</time>
      </trkpt>
      <trkpt lat="43.83339" lon="4.2037">
        <ele>125.58935546875</ele>
        <time>2011-05-01T07:22:46Z</time>
      </trkpt>
      <trkpt lat="43.83343" lon="4.20358">
        <ele>125.58935546875</ele>
        <time>2011-05-01T07:22:51Z</time>
      </trkpt>
      <trkpt lat="43.83345" lon="4.20346">
        <ele>127.99255371094</ele>
        <time>2011-05-01T07:22:55Z</time>
      </trkpt>
      <trkpt lat="43.83349" lon="4.20336">
        <ele>129.91528320312</ele>
        <time>2011-05-01T07:23:04Z</time>
      </trkpt>
      <trkpt lat="43.83356" lon="4.20329">
        <ele>132.79931640625</ele>
        <time>2011-05-01T07:23:17Z</time>
      </trkpt>
      <trkpt lat="43.8336" lon="4.20317">
        <ele>134.2412109375</ele>
        <time>2011-05-01T07:23:26Z</time>
      </trkpt>
      <trkpt lat="43.83365" lon="4.20306">
        <ele>131.837890625</ele>
        <time>2011-05-01T07:23:35Z</time>
      </trkpt>
      <trkpt lat="43.83362" lon="4.20294">
        <ele>132.31860351562</ele>
        <time>2011-05-01T07:23:51Z</time>
      </trkpt>
      <trkpt lat="43.8336" lon="4.20279">
        <ele>133.27990722656</ele>
        <time>2011-05-01T07:23:57Z</time>
      </trkpt>
      <trkpt lat="43.83362" lon="4.20266">
        <ele>132.31860351562</ele>
        <time>2011-05-01T07:24:01Z</time>
      </trkpt>
      <trkpt lat="43.83368" lon="4.20256">
        <ele>134.2412109375</ele>
        <time>2011-05-01T07:24:07Z</time>
      </trkpt>
      <trkpt lat="43.83373" lon="4.20242">
        <ele>135.68310546875</ele>
        <time>2011-05-01T07:24:12Z</time>
      </trkpt>
      <trkpt lat="43.83376" lon="4.20228">
        <ele>136.16394042969</ele>
        <time>2011-05-01T07:24:19Z</time>
      </trkpt>
      <trkpt lat="43.83384" lon="4.20217">
        <ele>137.12524414062</ele>
        <time>2011-05-01T07:24:25Z</time>
      </trkpt>
      <trkpt lat="43.83392" lon="4.20202">
        <ele>137.12524414062</ele>
        <time>2011-05-01T07:24:30Z</time>
      </trkpt>
      <trkpt lat="43.834" lon="4.20193">
        <ele>134.2412109375</ele>
        <time>2011-05-01T07:24:34Z</time>
      </trkpt>
      <trkpt lat="43.83402" lon="4.2018">
        <ele>133.76049804688</ele>
        <time>2011-05-01T07:24:38Z</time>
      </trkpt>
      <trkpt lat="43.83407" lon="4.20168">
        <ele>133.76049804688</ele>
        <time>2011-05-01T07:24:42Z</time>
      </trkpt>
      <trkpt lat="43.83408" lon="4.20153">
        <ele>134.72192382812</ele>
        <time>2011-05-01T07:24:47Z</time>
      </trkpt>
      <trkpt lat="43.83407" lon="4.20135">
        <ele>137.12524414062</ele>
        <time>2011-05-01T07:24:52Z</time>
      </trkpt>
      <trkpt lat="43.83412" lon="4.20123">
        <ele>136.64465332031</ele>
        <time>2011-05-01T07:24:56Z</time>
      </trkpt>
      <trkpt lat="43.83419" lon="4.2011">
        <ele>134.72192382812</ele>
        <time>2011-05-01T07:25:00Z</time>
      </trkpt>
      <trkpt lat="43.83416" lon="4.20095">
        <ele>131.35729980469</ele>
        <time>2011-05-01T07:25:04Z</time>
      </trkpt>
      <trkpt lat="43.8341" lon="4.20083">
        <ele>128.9541015625</ele>
        <time>2011-05-01T07:25:08Z</time>
      </trkpt>
      <trkpt lat="43.83404" lon="4.20074">
        <ele>126.06994628906</ele>
        <time>2011-05-01T07:25:12Z</time>
      </trkpt>
      <trkpt lat="43.83403" lon="4.20059">
        <ele>125.10876464844</ele>
        <time>2011-05-01T07:25:17Z</time>
      </trkpt>
      <trkpt lat="43.83403" lon="4.20045">
        <ele>121.744140625</ele>
        <time>2011-05-01T07:25:20Z</time>
      </trkpt>
      <trkpt lat="43.83409" lon="4.20032">
        <ele>120.30212402344</ele>
        <time>2011-05-01T07:25:23Z</time>
      </trkpt>
      <trkpt lat="43.83407" lon="4.20019">
        <ele>118.37939453125</ele>
        <time>2011-05-01T07:25:26Z</time>
      </trkpt>
      <trkpt lat="43.834" lon="4.20007">
        <ele>117.41821289062</ele>
        <time>2011-05-01T07:25:29Z</time>
      </trkpt>
      <trkpt lat="43.83363" lon="4.19966">
        <ele>117.41821289062</ele>
        <time>2011-05-01T07:25:32Z</time>
      </trkpt>
      <trkpt lat="43.83366" lon="4.19957">
        <ele>116.9375</ele>
        <time>2011-05-01T07:25:37Z</time>
      </trkpt>
      <trkpt lat="43.83409" lon="4.19973">
        <ele>118.37939453125</ele>
        <time>2011-05-01T07:25:49Z</time>
      </trkpt>
      <trkpt lat="43.83411" lon="4.19968">
        <ele>119.3408203125</ele>
        <time>2011-05-01T07:26:59Z</time>
      </trkpt>
      <trkpt lat="43.83418" lon="4.19962">
        <ele>120.78283691406</ele>
        <time>2011-05-01T07:27:09Z</time>
      </trkpt>
      <trkpt lat="43.83427" lon="4.19962">
        <ele>123.18615722656</ele>
        <time>2011-05-01T07:27:18Z</time>
      </trkpt>
      <trkpt lat="43.83431" lon="4.19954">
        <ele>124.62805175781</ele>
        <time>2011-05-01T07:27:27Z</time>
      </trkpt>
      <trkpt lat="43.83425" lon="4.19943">
        <ele>126.06994628906</ele>
        <time>2011-05-01T07:27:36Z</time>
      </trkpt>
      <trkpt lat="43.83431" lon="4.19933">
        <ele>128.47338867188</ele>
        <time>2011-05-01T07:27:45Z</time>
      </trkpt>
      <trkpt lat="43.8343" lon="4.19921">
        <ele>129.91528320312</ele>
        <time>2011-05-01T07:27:54Z</time>
      </trkpt>
      <trkpt lat="43.83431" lon="4.19908">
        <ele>131.35729980469</ele>
        <time>2011-05-01T07:28:00Z</time>
      </trkpt>
      <trkpt lat="43.83428" lon="4.19896">
        <ele>132.31860351562</ele>
        <time>2011-05-01T07:28:06Z</time>
      </trkpt>
      <trkpt lat="43.83426" lon="4.19881">
        <ele>132.31860351562</ele>
        <time>2011-05-01T07:28:11Z</time>
      </trkpt>
      <trkpt lat="43.83427" lon="4.19869">
        <ele>133.76049804688</ele>
        <time>2011-05-01T07:28:16Z</time>
      </trkpt>
      <trkpt lat="43.83426" lon="4.19855">
        <ele>134.72192382812</ele>
        <time>2011-05-01T07:28:22Z</time>
      </trkpt>
      <trkpt lat="43.8343" lon="4.19842">
        <ele>137.60583496094</ele>
        <time>2011-05-01T07:28:35Z</time>
      </trkpt>
      <trkpt lat="43.83428" lon="4.19829">
        <ele>138.08654785156</ele>
        <time>2011-05-01T07:28:40Z</time>
      </trkpt>
      <trkpt lat="43.83427" lon="4.19815">
        <ele>137.12524414062</ele>
        <time>2011-05-01T07:28:44Z</time>
      </trkpt>
      <trkpt lat="43.83426" lon="4.19802">
        <ele>138.56726074219</ele>
        <time>2011-05-01T07:28:47Z</time>
      </trkpt>
      <trkpt lat="43.83425" lon="4.19789">
        <ele>137.60583496094</ele>
        <time>2011-05-01T07:28:51Z</time>
      </trkpt>
      <trkpt lat="43.83425" lon="4.19776">
        <ele>137.60583496094</ele>
        <time>2011-05-01T07:28:57Z</time>
      </trkpt>
      <trkpt lat="43.83422" lon="4.1976">
        <ele>135.20251464844</ele>
        <time>2011-05-01T07:29:02Z</time>
      </trkpt>
      <trkpt lat="43.83423" lon="4.19746">
        <ele>134.72192382812</ele>
        <time>2011-05-01T07:29:06Z</time>
      </trkpt>
      <trkpt lat="43.83373" lon="4.19726">
        <ele>133.27990722656</ele>
        <time>2011-05-01T07:29:10Z</time>
      </trkpt>
      <trkpt lat="43.83374" lon="4.19713">
        <ele>132.79931640625</ele>
        <time>2011-05-01T07:29:14Z</time>
      </trkpt>
      <trkpt lat="43.83375" lon="4.19702">
        <ele>132.31860351562</ele>
        <time>2011-05-01T07:29:17Z</time>
      </trkpt>
      <trkpt lat="43.83377" lon="4.19686">
        <ele>132.31860351562</ele>
        <time>2011-05-01T07:29:21Z</time>
      </trkpt>
      <trkpt lat="43.83379" lon="4.19679">
        <ele>132.79931640625</ele>
        <time>2011-05-01T07:29:27Z</time>
      </trkpt>
      <trkpt lat="43.83375" lon="4.19693">
        <ele>130.39599609375</ele>
        <time>2011-05-01T07:29:31Z</time>
      </trkpt>
      <trkpt lat="43.83375" lon="4.19704">
        <ele>129.43469238281</ele>
        <time>2011-05-01T07:29:34Z</time>
      </trkpt>
      <trkpt lat="43.83374" lon="4.19719">
        <ele>127.51196289062</ele>
        <time>2011-05-01T07:29:37Z</time>
      </trkpt>
      <trkpt lat="43.83373" lon="4.1973">
        <ele>127.03137207031</ele>
        <time>2011-05-01T07:29:48Z</time>
      </trkpt>
      <trkpt lat="43.83371" lon="4.19742">
        <ele>125.58935546875</ele>
        <time>2011-05-01T07:29:50Z</time>
      </trkpt>
      <trkpt lat="43.83368" lon="4.19759">
        <ele>123.66674804688</ele>
        <time>2011-05-01T07:29:53Z</time>
      </trkpt>
      <trkpt lat="43.83367" lon="4.19772">
        <ele>122.22473144531</ele>
        <time>2011-05-01T07:29:56Z</time>
      </trkpt>
      <trkpt lat="43.83367" lon="4.19787">
        <ele>121.744140625</ele>
        <time>2011-05-01T07:30:01Z</time>
      </trkpt>
      <trkpt lat="43.83366" lon="4.19794">
        <ele>119.82141113281</ele>
        <time>2011-05-01T07:30:07Z</time>
      </trkpt>
      <trkpt lat="43.83371" lon="4.19788">
        <ele>118.37939453125</ele>
        <time>2011-05-01T07:30:12Z</time>
      </trkpt>
      <trkpt lat="43.83365" lon="4.1979">
        <ele>119.3408203125</ele>
        <time>2011-05-01T07:32:09Z</time>
      </trkpt>
      <trkpt lat="43.83354" lon="4.19789">
        <ele>116.9375</ele>
        <time>2011-05-01T07:32:14Z</time>
      </trkpt>
      <trkpt lat="43.83349" lon="4.19777">
        <ele>115.01489257812</ele>
        <time>2011-05-01T07:32:18Z</time>
      </trkpt>
      <trkpt lat="43.83337" lon="4.19769">
        <ele>112.61157226562</ele>
        <time>2011-05-01T07:32:23Z</time>
      </trkpt>
      <trkpt lat="43.83333" lon="4.19759">
        <ele>111.16955566406</ele>
        <time>2011-05-01T07:32:26Z</time>
      </trkpt>
      <trkpt lat="43.8333" lon="4.19745">
        <ele>110.20825195312</ele>
        <time>2011-05-01T07:32:29Z</time>
      </trkpt>
      <trkpt lat="43.83329" lon="4.19732">
        <ele>111.16955566406</ele>
        <time>2011-05-01T07:32:32Z</time>
      </trkpt>
      <trkpt lat="43.83323" lon="4.19718">
        <ele>112.13098144531</ele>
        <time>2011-05-01T07:32:39Z</time>
      </trkpt>
      <trkpt lat="43.83331" lon="4.19715">
        <ele>113.57299804688</ele>
        <time>2011-05-01T07:32:45Z</time>
      </trkpt>
      <trkpt lat="43.83341" lon="4.19718">
        <ele>115.49560546875</ele>
        <time>2011-05-01T07:32:57Z</time>
      </trkpt>
      <trkpt lat="43.83346" lon="4.19729">
        <ele>115.97619628906</ele>
        <time>2011-05-01T07:33:01Z</time>
      </trkpt>
      <trkpt lat="43.83346" lon="4.19744">
        <ele>115.97619628906</ele>
        <time>2011-05-01T07:33:06Z</time>
      </trkpt>
      <trkpt lat="43.83355" lon="4.19741">
        <ele>115.97619628906</ele>
        <time>2011-05-01T07:33:11Z</time>
      </trkpt>
      <trkpt lat="43.83359" lon="4.1973">
        <ele>117.89880371094</ele>
        <time>2011-05-01T07:33:43Z</time>
      </trkpt>
      <trkpt lat="43.83364" lon="4.19718">
        <ele>121.744140625</ele>
        <time>2011-05-01T07:33:54Z</time>
      </trkpt>
      <trkpt lat="43.83358" lon="4.19714">
        <ele>121.26354980469</ele>
        <time>2011-05-01T07:34:42Z</time>
      </trkpt>
      <trkpt lat="43.8335" lon="4.19705">
        <ele>120.78283691406</ele>
        <time>2011-05-01T07:34:46Z</time>
      </trkpt>
      <trkpt lat="43.83345" lon="4.19693">
        <ele>120.30212402344</ele>
        <time>2011-05-01T07:34:53Z</time>
      </trkpt>
      <trkpt lat="43.83336" lon="4.19697">
        <ele>116.9375</ele>
        <time>2011-05-01T07:34:58Z</time>
      </trkpt>
      <trkpt lat="43.83327" lon="4.19696">
        <ele>114.5341796875</ele>
        <time>2011-05-01T07:35:03Z</time>
      </trkpt>
      <trkpt lat="43.83319" lon="4.19689">
        <ele>114.05358886719</ele>
        <time>2011-05-01T07:35:06Z</time>
      </trkpt>
      <trkpt lat="43.83307" lon="4.19689">
        <ele>110.20825195312</ele>
        <time>2011-05-01T07:35:10Z</time>
      </trkpt>
      <trkpt lat="43.83299" lon="4.19692">
        <ele>109.72766113281</ele>
        <time>2011-05-01T07:35:12Z</time>
      </trkpt>
      <trkpt lat="43.83291" lon="4.19684">
        <ele>109.24694824219</ele>
        <time>2011-05-01T07:35:15Z</time>
      </trkpt>
      <trkpt lat="43.83284" lon="4.19672">
        <ele>106.84362792969</ele>
        <time>2011-05-01T07:35:19Z</time>
      </trkpt>
      <trkpt lat="43.83276" lon="4.19673">
        <ele>106.84362792969</ele>
        <time>2011-05-01T07:35:23Z</time>
      </trkpt>
      <trkpt lat="43.8328" lon="4.19682">
        <ele>106.84362792969</ele>
        <time>2011-05-01T07:35:58Z</time>
      </trkpt>
      <trkpt lat="43.8328" lon="4.19695">
        <ele>108.28564453125</ele>
        <time>2011-05-01T07:36:04Z</time>
      </trkpt>
      <trkpt lat="43.83274" lon="4.19707">
        <ele>106.84362792969</ele>
        <time>2011-05-01T07:36:09Z</time>
      </trkpt>
      <trkpt lat="43.83266" lon="4.19699">
        <ele>107.32434082031</ele>
        <time>2011-05-01T07:36:13Z</time>
      </trkpt>
      <trkpt lat="43.83267" lon="4.19686">
        <ele>105.88244628906</ele>
        <time>2011-05-01T07:36:17Z</time>
      </trkpt>
      <trkpt lat="43.83265" lon="4.19671">
        <ele>104.92102050781</ele>
        <time>2011-05-01T07:36:20Z</time>
      </trkpt>
      <trkpt lat="43.83259" lon="4.19663">
        <ele>104.92102050781</ele>
        <time>2011-05-01T07:36:23Z</time>
      </trkpt>
      <trkpt lat="43.83254" lon="4.19675">
        <ele>103.95971679688</ele>
        <time>2011-05-01T07:36:26Z</time>
      </trkpt>
      <trkpt lat="43.83247" lon="4.19684">
        <ele>102.99829101562</ele>
        <time>2011-05-01T07:36:30Z</time>
      </trkpt>
      <trkpt lat="43.83234" lon="4.19686">
        <ele>102.99829101562</ele>
        <time>2011-05-01T07:36:33Z</time>
      </trkpt>
      <trkpt lat="43.83225" lon="4.1969">
        <ele>102.037109375</ele>
        <time>2011-05-01T07:36:35Z</time>
      </trkpt>
      <trkpt lat="43.83216" lon="4.19697">
        <ele>100.11450195312</ele>
        <time>2011-05-01T07:36:39Z</time>
      </trkpt>
      <trkpt lat="43.83214" lon="4.19707">
        <ele>99.153076171875</ele>
        <time>2011-05-01T07:36:43Z</time>
      </trkpt>
      <trkpt lat="43.8322" lon="4.19716">
        <ele>99.6337890625</ele>
        <time>2011-05-01T07:36:48Z</time>
      </trkpt>
      <trkpt lat="43.83221" lon="4.19729">
        <ele>97.23046875</ele>
        <time>2011-05-01T07:36:51Z</time>
      </trkpt>
      <trkpt lat="43.83224" lon="4.19743">
        <ele>96.749877929688</ele>
        <time>2011-05-01T07:36:55Z</time>
      </trkpt>
      <trkpt lat="43.83225" lon="4.19761">
        <ele>94.8271484375</ele>
        <time>2011-05-01T07:36:59Z</time>
      </trkpt>
      <trkpt lat="43.83219" lon="4.19767">
        <ele>94.346557617188</ele>
        <time>2011-05-01T07:37:04Z</time>
      </trkpt>
      <trkpt lat="43.83208" lon="4.19778">
        <ele>92.904541015625</ele>
        <time>2011-05-01T07:37:10Z</time>
      </trkpt>
      <trkpt lat="43.83197" lon="4.19779">
        <ele>91.943237304688</ele>
        <time>2011-05-01T07:37:15Z</time>
      </trkpt>
      <trkpt lat="43.83182" lon="4.19784">
        <ele>90.501342773438</ele>
        <time>2011-05-01T07:37:23Z</time>
      </trkpt>
      <trkpt lat="43.83169" lon="4.19788">
        <ele>90.020629882812</ele>
        <time>2011-05-01T07:37:28Z</time>
      </trkpt>
      <trkpt lat="43.83156" lon="4.19792">
        <ele>89.059326171875</ele>
        <time>2011-05-01T07:37:33Z</time>
      </trkpt>
      <trkpt lat="43.83142" lon="4.198">
        <ele>88.098022460938</ele>
        <time>2011-05-01T07:37:48Z</time>
      </trkpt>
      <trkpt lat="43.8313" lon="4.19808">
        <ele>88.098022460938</ele>
        <time>2011-05-01T07:37:55Z</time>
      </trkpt>
      <trkpt lat="43.83121" lon="4.19816">
        <ele>87.6171875</ele>
        <time>2011-05-01T07:37:58Z</time>
      </trkpt>
      <trkpt lat="43.8311" lon="4.19823">
        <ele>87.136596679688</ele>
        <time>2011-05-01T07:38:01Z</time>
      </trkpt>
      <trkpt lat="43.831" lon="4.19831">
        <ele>86.656005859375</ele>
        <time>2011-05-01T07:38:04Z</time>
      </trkpt>
      <trkpt lat="43.8309" lon="4.19834">
        <ele>84.7333984375</ele>
        <time>2011-05-01T07:38:07Z</time>
      </trkpt>
      <trkpt lat="43.83079" lon="4.1983">
        <ele>84.7333984375</ele>
        <time>2011-05-01T07:38:11Z</time>
      </trkpt>
      <trkpt lat="43.83068" lon="4.1983">
        <ele>84.7333984375</ele>
        <time>2011-05-01T07:38:14Z</time>
      </trkpt>
      <trkpt lat="43.83057" lon="4.19833">
        <ele>84.252685546875</ele>
        <time>2011-05-01T07:38:17Z</time>
      </trkpt>
      <trkpt lat="43.83045" lon="4.19838">
        <ele>84.7333984375</ele>
        <time>2011-05-01T07:38:20Z</time>
      </trkpt>
      <trkpt lat="43.83036" lon="4.19843">
        <ele>83.77197265625</ele>
        <time>2011-05-01T07:38:22Z</time>
      </trkpt>
      <trkpt lat="43.83028" lon="4.19851">
        <ele>82.810791015625</ele>
        <time>2011-05-01T07:38:24Z</time>
      </trkpt>
      <trkpt lat="43.8302" lon="4.19862">
        <ele>81.849365234375</ele>
        <time>2011-05-01T07:38:26Z</time>
      </trkpt>
      <trkpt lat="43.83012" lon="4.19875">
        <ele>80.88818359375</ele>
        <time>2011-05-01T07:38:28Z</time>
      </trkpt>
      <trkpt lat="43.83003" lon="4.19883">
        <ele>79.446044921875</ele>
        <time>2011-05-01T07:38:30Z</time>
      </trkpt>
      <trkpt lat="43.82992" lon="4.19876">
        <ele>77.5234375</ele>
        <time>2011-05-01T07:38:33Z</time>
      </trkpt>
      <trkpt lat="43.82982" lon="4.19867">
        <ele>76.562133789062</ele>
        <time>2011-05-01T07:38:36Z</time>
      </trkpt>
      <trkpt lat="43.82969" lon="4.19869">
        <ele>77.042846679688</ele>
        <time>2011-05-01T07:38:39Z</time>
      </trkpt>
      <trkpt lat="43.8296" lon="4.19866">
        <ele>76.562133789062</ele>
        <time>2011-05-01T07:38:41Z</time>
      </trkpt>
      <trkpt lat="43.82948" lon="4.1986">
        <ele>75.600830078125</ele>
        <time>2011-05-01T07:38:44Z</time>
      </trkpt>
      <trkpt lat="43.82941" lon="4.19863">
        <ele>75.120239257812</ele>
        <time>2011-05-01T07:38:47Z</time>
      </trkpt>
      <trkpt lat="43.82936" lon="4.19844">
        <ele>75.600830078125</ele>
        <time>2011-05-01T07:38:51Z</time>
      </trkpt>
      <trkpt lat="43.82935" lon="4.19831">
        <ele>76.081420898438</ele>
        <time>2011-05-01T07:38:54Z</time>
      </trkpt>
      <trkpt lat="43.82934" lon="4.19818">
        <ele>76.081420898438</ele>
        <time>2011-05-01T07:38:57Z</time>
      </trkpt>
      <trkpt lat="43.82934" lon="4.19805">
        <ele>76.562133789062</ele>
        <time>2011-05-01T07:39:00Z</time>
      </trkpt>
      <trkpt lat="43.82933" lon="4.19791">
        <ele>77.042846679688</ele>
        <time>2011-05-01T07:39:03Z</time>
      </trkpt>
      <trkpt lat="43.82932" lon="4.19777">
        <ele>77.5234375</ele>
        <time>2011-05-01T07:39:06Z</time>
      </trkpt>
      <trkpt lat="43.82932" lon="4.1976">
        <ele>77.042846679688</ele>
        <time>2011-05-01T07:39:09Z</time>
      </trkpt>
      <trkpt lat="43.82931" lon="4.19744">
        <ele>77.042846679688</ele>
        <time>2011-05-01T07:39:12Z</time>
      </trkpt>
      <trkpt lat="43.82931" lon="4.19727">
        <ele>77.042846679688</ele>
        <time>2011-05-01T07:39:15Z</time>
      </trkpt>
      <trkpt lat="43.82931" lon="4.1971">
        <ele>77.5234375</ele>
        <time>2011-05-01T07:39:18Z</time>
      </trkpt>
      <trkpt lat="43.82934" lon="4.19697">
        <ele>77.5234375</ele>
        <time>2011-05-01T07:39:21Z</time>
      </trkpt>
      <trkpt lat="43.82931" lon="4.19682">
        <ele>78.004028320312</ele>
        <time>2011-05-01T07:39:23Z</time>
      </trkpt>
      <trkpt lat="43.8293" lon="4.19664">
        <ele>77.5234375</ele>
        <time>2011-05-01T07:39:26Z</time>
      </trkpt>
      <trkpt lat="43.8293" lon="4.19647">
        <ele>78.484741210938</ele>
        <time>2011-05-01T07:39:29Z</time>
      </trkpt>
      <trkpt lat="43.82929" lon="4.19631">
        <ele>78.004028320312</ele>
        <time>2011-05-01T07:39:32Z</time>
      </trkpt>
      <trkpt lat="43.82928" lon="4.19616">
        <ele>78.484741210938</ele>
        <time>2011-05-01T07:39:35Z</time>
      </trkpt>
      <trkpt lat="43.82927" lon="4.19602">
        <ele>79.446044921875</ele>
        <time>2011-05-01T07:39:38Z</time>
      </trkpt>
      <trkpt lat="43.82926" lon="4.19588">
        <ele>79.926635742188</ele>
        <time>2011-05-01T07:39:41Z</time>
      </trkpt>
      <trkpt lat="43.82925" lon="4.19575">
        <ele>80.407470703125</ele>
        <time>2011-05-01T07:39:44Z</time>
      </trkpt>
      <trkpt lat="43.82924" lon="4.19558">
        <ele>80.407470703125</ele>
        <time>2011-05-01T07:39:48Z</time>
      </trkpt>
      <trkpt lat="43.82922" lon="4.19546">
        <ele>80.88818359375</ele>
        <time>2011-05-01T07:39:51Z</time>
      </trkpt>
      <trkpt lat="43.8292" lon="4.19533">
        <ele>81.368774414062</ele>
        <time>2011-05-01T07:39:54Z</time>
      </trkpt>
      <trkpt lat="43.82918" lon="4.1952">
        <ele>81.849365234375</ele>
        <time>2011-05-01T07:39:57Z</time>
      </trkpt>
      <trkpt lat="43.82915" lon="4.19507">
        <ele>82.330078125</ele>
        <time>2011-05-01T07:40:00Z</time>
      </trkpt>
      <trkpt lat="43.82912" lon="4.19495">
        <ele>83.291381835938</ele>
        <time>2011-05-01T07:40:03Z</time>
      </trkpt>
      <trkpt lat="43.8291" lon="4.19483">
        <ele>83.291381835938</ele>
        <time>2011-05-01T07:40:06Z</time>
      </trkpt>
      <trkpt lat="43.82906" lon="4.19471">
        <ele>83.77197265625</ele>
        <time>2011-05-01T07:40:09Z</time>
      </trkpt>
      <trkpt lat="43.82902" lon="4.19459">
        <ele>84.7333984375</ele>
        <time>2011-05-01T07:40:12Z</time>
      </trkpt>
      <trkpt lat="43.82899" lon="4.19443">
        <ele>85.213989257812</ele>
        <time>2011-05-01T07:40:16Z</time>
      </trkpt>
      <trkpt lat="43.82896" lon="4.19428">
        <ele>85.213989257812</ele>
        <time>2011-05-01T07:40:20Z</time>
      </trkpt>
      <trkpt lat="43.82892" lon="4.19415">
        <ele>86.17529296875</ele>
        <time>2011-05-01T07:40:24Z</time>
      </trkpt>
      <trkpt lat="43.8289" lon="4.19402">
        <ele>85.694580078125</ele>
        <time>2011-05-01T07:40:28Z</time>
      </trkpt>
      <trkpt lat="43.82889" lon="4.19387">
        <ele>86.17529296875</ele>
        <time>2011-05-01T07:40:32Z</time>
      </trkpt>
      <trkpt lat="43.82887" lon="4.19372">
        <ele>86.17529296875</ele>
        <time>2011-05-01T07:40:36Z</time>
      </trkpt>
      <trkpt lat="43.82891" lon="4.1936">
        <ele>86.17529296875</ele>
        <time>2011-05-01T07:40:40Z</time>
      </trkpt>
      <trkpt lat="43.82893" lon="4.19348">
        <ele>86.17529296875</ele>
        <time>2011-05-01T07:40:45Z</time>
      </trkpt>
      <trkpt lat="43.8289" lon="4.19336">
        <ele>86.656005859375</ele>
        <time>2011-05-01T07:40:49Z</time>
      </trkpt>
      <trkpt lat="43.82887" lon="4.19322">
        <ele>87.136596679688</ele>
        <time>2011-05-01T07:40:53Z</time>
      </trkpt>
      <trkpt lat="43.82883" lon="4.19309">
        <ele>88.098022460938</ele>
        <time>2011-05-01T07:40:57Z</time>
      </trkpt>
      <trkpt lat="43.82878" lon="4.19298">
        <ele>88.098022460938</ele>
        <time>2011-05-01T07:41:01Z</time>
      </trkpt>
      <trkpt lat="43.82874" lon="4.19287">
        <ele>89.539916992188</ele>
        <time>2011-05-01T07:41:05Z</time>
      </trkpt>
      <trkpt lat="43.82869" lon="4.19276">
        <ele>90.020629882812</ele>
        <time>2011-05-01T07:41:09Z</time>
      </trkpt>
      <trkpt lat="43.82865" lon="4.19265">
        <ele>90.020629882812</ele>
        <time>2011-05-01T07:41:13Z</time>
      </trkpt>
      <trkpt lat="43.82861" lon="4.19254">
        <ele>90.98193359375</ele>
        <time>2011-05-01T07:41:17Z</time>
      </trkpt>
      <trkpt lat="43.82856" lon="4.19243">
        <ele>90.98193359375</ele>
        <time>2011-05-01T07:41:21Z</time>
      </trkpt>
      <trkpt lat="43.82851" lon="4.19232">
        <ele>91.462524414062</ele>
        <time>2011-05-01T07:41:25Z</time>
      </trkpt>
      <trkpt lat="43.82844" lon="4.1922">
        <ele>91.462524414062</ele>
        <time>2011-05-01T07:41:29Z</time>
      </trkpt>
      <trkpt lat="43.82838" lon="4.19207">
        <ele>91.462524414062</ele>
        <time>2011-05-01T07:41:33Z</time>
      </trkpt>
      <trkpt lat="43.82832" lon="4.19193">
        <ele>91.462524414062</ele>
        <time>2011-05-01T07:41:37Z</time>
      </trkpt>
      <trkpt lat="43.82827" lon="4.19182">
        <ele>91.462524414062</ele>
        <time>2011-05-01T07:41:40Z</time>
      </trkpt>
      <trkpt lat="43.82823" lon="4.19171">
        <ele>91.943237304688</ele>
        <time>2011-05-01T07:41:43Z</time>
      </trkpt>
      <trkpt lat="43.82819" lon="4.19159">
        <ele>92.423950195312</ele>
        <time>2011-05-01T07:41:46Z</time>
      </trkpt>
      <trkpt lat="43.82816" lon="4.19145">
        <ele>93.385131835938</ele>
        <time>2011-05-01T07:41:50Z</time>
      </trkpt>
      <trkpt lat="43.82813" lon="4.19131">
        <ele>93.865844726562</ele>
        <time>2011-05-01T07:41:54Z</time>
      </trkpt>
      <trkpt lat="43.82813" lon="4.19115">
        <ele>93.385131835938</ele>
        <time>2011-05-01T07:41:58Z</time>
      </trkpt>
      <trkpt lat="43.82814" lon="4.19099">
        <ele>94.346557617188</ele>
        <time>2011-05-01T07:42:02Z</time>
      </trkpt>
      <trkpt lat="43.82815" lon="4.19084">
        <ele>94.8271484375</ele>
        <time>2011-05-01T07:42:06Z</time>
      </trkpt>
      <trkpt lat="43.82815" lon="4.1907">
        <ele>95.307739257812</ele>
        <time>2011-05-01T07:42:10Z</time>
      </trkpt>
      <trkpt lat="43.82821" lon="4.19057">
        <ele>95.788452148438</ele>
        <time>2011-05-01T07:42:14Z</time>
      </trkpt>
      <trkpt lat="43.82829" lon="4.19046">
        <ele>95.788452148438</ele>
        <time>2011-05-01T07:42:18Z</time>
      </trkpt>
      <trkpt lat="43.82837" lon="4.19035">
        <ele>96.269287109375</ele>
        <time>2011-05-01T07:42:22Z</time>
      </trkpt>
      <trkpt lat="43.82845" lon="4.19026">
        <ele>97.711181640625</ele>
        <time>2011-05-01T07:42:26Z</time>
      </trkpt>
      <trkpt lat="43.82852" lon="4.19016">
        <ele>97.23046875</ele>
        <time>2011-05-01T07:42:30Z</time>
      </trkpt>
      <trkpt lat="43.82856" lon="4.19004">
        <ele>97.711181640625</ele>
        <time>2011-05-01T07:42:34Z</time>
      </trkpt>
      <trkpt lat="43.82856" lon="4.18998">
        <ele>99.6337890625</ele>
        <time>2011-05-01T07:43:41Z</time>
      </trkpt>
      <trkpt lat="43.82866" lon="4.18988">
        <ele>100.11450195312</ele>
        <time>2011-05-01T07:44:36Z</time>
      </trkpt>
      <trkpt lat="43.82874" lon="4.18983">
        <ele>101.55639648438</ele>
        <time>2011-05-01T07:44:41Z</time>
      </trkpt>
      <trkpt lat="43.8288" lon="4.18972">
        <ele>101.07568359375</ele>
        <time>2011-05-01T07:44:46Z</time>
      </trkpt>
      <trkpt lat="43.82886" lon="4.18961">
        <ele>102.99829101562</ele>
        <time>2011-05-01T07:44:51Z</time>
      </trkpt>
      <trkpt lat="43.82891" lon="4.18951">
        <ele>103.47900390625</ele>
        <time>2011-05-01T07:44:56Z</time>
      </trkpt>
      <trkpt lat="43.82898" lon="4.1894">
        <ele>103.47900390625</ele>
        <time>2011-05-01T07:45:01Z</time>
      </trkpt>
      <trkpt lat="43.82904" lon="4.18927">
        <ele>104.4404296875</ele>
        <time>2011-05-01T07:45:06Z</time>
      </trkpt>
      <trkpt lat="43.82909" lon="4.18916">
        <ele>104.4404296875</ele>
        <time>2011-05-01T07:45:10Z</time>
      </trkpt>
      <trkpt lat="43.82915" lon="4.18903">
        <ele>104.92102050781</ele>
        <time>2011-05-01T07:45:14Z</time>
      </trkpt>
      <trkpt lat="43.82922" lon="4.18891">
        <ele>105.40173339844</ele>
        <time>2011-05-01T07:45:18Z</time>
      </trkpt>
      <trkpt lat="43.82929" lon="4.18879">
        <ele>105.88244628906</ele>
        <time>2011-05-01T07:45:22Z</time>
      </trkpt>
      <trkpt lat="43.82935" lon="4.18867">
        <ele>106.36303710938</ele>
        <time>2011-05-01T07:45:26Z</time>
      </trkpt>
      <trkpt lat="43.8294" lon="4.18853">
        <ele>106.36303710938</ele>
        <time>2011-05-01T07:45:30Z</time>
      </trkpt>
      <trkpt lat="43.82945" lon="4.1884">
        <ele>106.84362792969</ele>
        <time>2011-05-01T07:45:34Z</time>
      </trkpt>
      <trkpt lat="43.82949" lon="4.18827">
        <ele>107.80505371094</ele>
        <time>2011-05-01T07:45:38Z</time>
      </trkpt>
      <trkpt lat="43.82954" lon="4.18815">
        <ele>107.80505371094</ele>
        <time>2011-05-01T07:45:42Z</time>
      </trkpt>
      <trkpt lat="43.8296" lon="4.18802">
        <ele>109.72766113281</ele>
        <time>2011-05-01T07:45:47Z</time>
      </trkpt>
      <trkpt lat="43.82966" lon="4.18789">
        <ele>109.24694824219</ele>
        <time>2011-05-01T07:45:52Z</time>
      </trkpt>
      <trkpt lat="43.82972" lon="4.18776">
        <ele>111.16955566406</ele>
        <time>2011-05-01T07:45:57Z</time>
      </trkpt>
      <trkpt lat="43.82978" lon="4.18763">
        <ele>112.13098144531</ele>
        <time>2011-05-01T07:46:02Z</time>
      </trkpt>
      <trkpt lat="43.82984" lon="4.1875">
        <ele>112.13098144531</ele>
        <time>2011-05-01T07:46:07Z</time>
      </trkpt>
      <trkpt lat="43.82991" lon="4.18739">
        <ele>112.13098144531</ele>
        <time>2011-05-01T07:46:12Z</time>
      </trkpt>
      <trkpt lat="43.82999" lon="4.18733">
        <ele>113.09228515625</ele>
        <time>2011-05-01T07:46:16Z</time>
      </trkpt>
      <trkpt lat="43.83007" lon="4.18727">
        <ele>113.57299804688</ele>
        <time>2011-05-01T07:46:20Z</time>
      </trkpt>
      <trkpt lat="43.83018" lon="4.1872">
        <ele>114.5341796875</ele>
        <time>2011-05-01T07:46:25Z</time>
      </trkpt>
      <trkpt lat="43.83028" lon="4.18715">
        <ele>115.01489257812</ele>
        <time>2011-05-01T07:46:30Z</time>
      </trkpt>
      <trkpt lat="43.83037" lon="4.1871">
        <ele>115.97619628906</ele>
        <time>2011-05-01T07:46:35Z</time>
      </trkpt>
      <trkpt lat="43.83045" lon="4.18705">
        <ele>116.45678710938</ele>
        <time>2011-05-01T07:46:39Z</time>
      </trkpt>
      <trkpt lat="43.83053" lon="4.18699">
        <ele>117.41821289062</ele>
        <time>2011-05-01T07:46:43Z</time>
      </trkpt>
      <trkpt lat="43.83063" lon="4.18691">
        <ele>116.9375</ele>
        <time>2011-05-01T07:46:48Z</time>
      </trkpt>
      <trkpt lat="43.8307" lon="4.18684">
        <ele>117.41821289062</ele>
        <time>2011-05-01T07:46:52Z</time>
      </trkpt>
      <trkpt lat="43.83081" lon="4.18674">
        <ele>116.9375</ele>
        <time>2011-05-01T07:46:56Z</time>
      </trkpt>
      <trkpt lat="43.83088" lon="4.18668">
        <ele>116.45678710938</ele>
        <time>2011-05-01T07:46:59Z</time>
      </trkpt>
      <trkpt lat="43.83097" lon="4.1866">
        <ele>116.45678710938</ele>
        <time>2011-05-01T07:47:02Z</time>
      </trkpt>
      <trkpt lat="43.83105" lon="4.18654">
        <ele>115.97619628906</ele>
        <time>2011-05-01T07:47:05Z</time>
      </trkpt>
      <trkpt lat="43.83114" lon="4.18646">
        <ele>116.9375</ele>
        <time>2011-05-01T07:47:08Z</time>
      </trkpt>
      <trkpt lat="43.83123" lon="4.18641">
        <ele>116.45678710938</ele>
        <time>2011-05-01T07:47:11Z</time>
      </trkpt>
      <trkpt lat="43.83133" lon="4.18635">
        <ele>115.97619628906</ele>
        <time>2011-05-01T07:47:14Z</time>
      </trkpt>
      <trkpt lat="43.83141" lon="4.18632">
        <ele>115.97619628906</ele>
        <time>2011-05-01T07:47:17Z</time>
      </trkpt>
      <trkpt lat="43.83149" lon="4.18628">
        <ele>116.45678710938</ele>
        <time>2011-05-01T07:47:20Z</time>
      </trkpt>
      <trkpt lat="43.83161" lon="4.18624">
        <ele>116.45678710938</ele>
        <time>2011-05-01T07:47:24Z</time>
      </trkpt>
      <trkpt lat="43.83171" lon="4.18621">
        <ele>116.45678710938</ele>
        <time>2011-05-01T07:47:28Z</time>
      </trkpt>
      <trkpt lat="43.83181" lon="4.18619">
        <ele>116.45678710938</ele>
        <time>2011-05-01T07:47:31Z</time>
      </trkpt>
      <trkpt lat="43.83194" lon="4.18617">
        <ele>116.9375</ele>
        <time>2011-05-01T07:47:35Z</time>
      </trkpt>
      <trkpt lat="43.83207" lon="4.18615">
        <ele>116.9375</ele>
        <time>2011-05-01T07:47:39Z</time>
      </trkpt>
      <trkpt lat="43.83219" lon="4.18613">
        <ele>116.9375</ele>
        <time>2011-05-01T07:47:42Z</time>
      </trkpt>
      <trkpt lat="43.83229" lon="4.18613">
        <ele>117.41821289062</ele>
        <time>2011-05-01T07:47:45Z</time>
      </trkpt>
      <trkpt lat="43.83241" lon="4.18612">
        <ele>116.9375</ele>
        <time>2011-05-01T07:47:49Z</time>
      </trkpt>
      <trkpt lat="43.83254" lon="4.18608">
        <ele>117.89880371094</ele>
        <time>2011-05-01T07:47:53Z</time>
      </trkpt>
      <trkpt lat="43.83265" lon="4.18602">
        <ele>117.41821289062</ele>
        <time>2011-05-01T07:47:57Z</time>
      </trkpt>
      <trkpt lat="43.83276" lon="4.18598">
        <ele>117.41821289062</ele>
        <time>2011-05-01T07:48:01Z</time>
      </trkpt>
      <trkpt lat="43.83283" lon="4.18598">
        <ele>117.89880371094</ele>
        <time>2011-05-01T07:48:17Z</time>
      </trkpt>
      <trkpt lat="43.83283" lon="4.18598">
        <ele>116.9375</ele>
        <time>2011-05-01T07:49:34Z</time>
      </trkpt>
      <trkpt lat="43.83283" lon="4.18598">
        <ele>116.45678710938</ele>
        <time>2011-05-01T07:51:08Z</time>
      </trkpt>
      <trkpt lat="43.83283" lon="4.18598">
        <ele>118.37939453125</ele>
        <time>2011-05-01T07:57:54Z</time>
      </trkpt>
      <trkpt lat="43.83317" lon="4.18601">
        <ele>117.41821289062</ele>
        <time>2011-05-01T07:58:09Z</time>
      </trkpt>
      <trkpt lat="43.83317" lon="4.18601">
        <ele>117.41821289062</ele>
        <time>2011-05-01T07:58:13Z</time>
      </trkpt>
      <trkpt lat="43.83317" lon="4.18601">
        <ele>116.45678710938</ele>
        <time>2011-05-01T07:58:18Z</time>
      </trkpt>
      <trkpt lat="43.83317" lon="4.18601">
        <ele>115.97619628906</ele>
        <time>2011-05-01T07:58:23Z</time>
      </trkpt>
      <trkpt lat="43.83287" lon="4.18598">
        <ele>116.45678710938</ele>
        <time>2011-05-01T07:58:28Z</time>
      </trkpt>
      <trkpt lat="43.83295" lon="4.18528">
        <ele>116.9375</ele>
        <time>2011-05-01T07:58:34Z</time>
      </trkpt>
      <trkpt lat="43.83286" lon="4.18527">
        <ele>116.45678710938</ele>
        <time>2011-05-01T07:59:02Z</time>
      </trkpt>
      <trkpt lat="43.83276" lon="4.18526">
        <ele>116.45678710938</ele>
        <time>2011-05-01T07:59:06Z</time>
      </trkpt>
      <trkpt lat="43.83264" lon="4.18523">
        <ele>115.97619628906</ele>
        <time>2011-05-01T07:59:10Z</time>
      </trkpt>
      <trkpt lat="43.83254" lon="4.18519">
        <ele>116.45678710938</ele>
        <time>2011-05-01T07:59:13Z</time>
      </trkpt>
      <trkpt lat="43.83246" lon="4.18512">
        <ele>115.49560546875</ele>
        <time>2011-05-01T07:59:16Z</time>
      </trkpt>
      <trkpt lat="43.83238" lon="4.18508">
        <ele>115.01489257812</ele>
        <time>2011-05-01T07:59:19Z</time>
      </trkpt>
      <trkpt lat="43.8324" lon="4.18494">
        <ele>115.49560546875</ele>
        <time>2011-05-01T07:59:24Z</time>
      </trkpt>
      <trkpt lat="43.83239" lon="4.18479">
        <ele>116.9375</ele>
        <time>2011-05-01T07:59:29Z</time>
      </trkpt>
      <trkpt lat="43.83235" lon="4.18467">
        <ele>116.9375</ele>
        <time>2011-05-01T07:59:33Z</time>
      </trkpt>
      <trkpt lat="43.83232" lon="4.18455">
        <ele>117.41821289062</ele>
        <time>2011-05-01T07:59:37Z</time>
      </trkpt>
      <trkpt lat="43.83224" lon="4.1845">
        <ele>117.89880371094</ele>
        <time>2011-05-01T07:59:41Z</time>
      </trkpt>
      <trkpt lat="43.83213" lon="4.18447">
        <ele>116.9375</ele>
        <time>2011-05-01T07:59:45Z</time>
      </trkpt>
      <trkpt lat="43.83204" lon="4.18446">
        <ele>116.9375</ele>
        <time>2011-05-01T07:59:48Z</time>
      </trkpt>
      <trkpt lat="43.83195" lon="4.18445">
        <ele>116.9375</ele>
        <time>2011-05-01T07:59:51Z</time>
      </trkpt>
      <trkpt lat="43.83184" lon="4.18446">
        <ele>115.97619628906</ele>
        <time>2011-05-01T07:59:54Z</time>
      </trkpt>
      <trkpt lat="43.83173" lon="4.18444">
        <ele>115.49560546875</ele>
        <time>2011-05-01T07:59:57Z</time>
      </trkpt>
      <trkpt lat="43.83156" lon="4.18432">
        <ele>115.01489257812</ele>
        <time>2011-05-01T08:00:00Z</time>
      </trkpt>
      <trkpt lat="43.83156" lon="4.1843">
        <ele>114.05358886719</ele>
        <time>2011-05-01T08:00:05Z</time>
      </trkpt>
      <trkpt lat="43.83159" lon="4.18411">
        <ele>113.57299804688</ele>
        <time>2011-05-01T08:00:08Z</time>
      </trkpt>
      <trkpt lat="43.83159" lon="4.18397">
        <ele>113.09228515625</ele>
        <time>2011-05-01T08:00:10Z</time>
      </trkpt>
      <trkpt lat="43.83159" lon="4.18384">
        <ele>113.57299804688</ele>
        <time>2011-05-01T08:00:12Z</time>
      </trkpt>
      <trkpt lat="43.83159" lon="4.18371">
        <ele>112.61157226562</ele>
        <time>2011-05-01T08:00:14Z</time>
      </trkpt>
      <trkpt lat="43.83161" lon="4.18354">
        <ele>112.13098144531</ele>
        <time>2011-05-01T08:00:17Z</time>
      </trkpt>
      <trkpt lat="43.83163" lon="4.18345">
        <ele>112.61157226562</ele>
        <time>2011-05-01T08:00:20Z</time>
      </trkpt>
      <trkpt lat="43.83163" lon="4.18345">
        <ele>113.09228515625</ele>
        <time>2011-05-01T08:00:24Z</time>
      </trkpt>
      <trkpt lat="43.83163" lon="4.18345">
        <ele>113.57299804688</ele>
        <time>2011-05-01T08:00:28Z</time>
      </trkpt>
      <trkpt lat="43.83175" lon="4.18308">
        <ele>115.49560546875</ele>
        <time>2011-05-01T08:00:33Z</time>
      </trkpt>
      <trkpt lat="43.83196" lon="4.18321">
        <ele>116.45678710938</ele>
        <time>2011-05-01T08:00:38Z</time>
      </trkpt>
      <trkpt lat="43.832" lon="4.18334">
        <ele>117.41821289062</ele>
        <time>2011-05-01T08:00:44Z</time>
      </trkpt>
      <trkpt lat="43.83205" lon="4.18346">
        <ele>117.89880371094</ele>
        <time>2011-05-01T08:00:49Z</time>
      </trkpt>
      <trkpt lat="43.83213" lon="4.18356">
        <ele>119.3408203125</ele>
        <time>2011-05-01T08:00:55Z</time>
      </trkpt>
      <trkpt lat="43.83216" lon="4.18368">
        <ele>120.30212402344</ele>
        <time>2011-05-01T08:01:00Z</time>
      </trkpt>
      <trkpt lat="43.8321" lon="4.1838">
        <ele>119.82141113281</ele>
        <time>2011-05-01T08:01:04Z</time>
      </trkpt>
      <trkpt lat="43.83201" lon="4.1838">
        <ele>119.82141113281</ele>
        <time>2011-05-01T08:01:08Z</time>
      </trkpt>
      <trkpt lat="43.83197" lon="4.18369">
        <ele>117.41821289062</ele>
        <time>2011-05-01T08:01:11Z</time>
      </trkpt>
      <trkpt lat="43.83187" lon="4.18359">
        <ele>116.45678710938</ele>
        <time>2011-05-01T08:01:14Z</time>
      </trkpt>
      <trkpt lat="43.83187" lon="4.1837">
        <ele>115.49560546875</ele>
        <time>2011-05-01T08:01:18Z</time>
      </trkpt>
      <trkpt lat="43.83184" lon="4.18382">
        <ele>116.45678710938</ele>
        <time>2011-05-01T08:01:22Z</time>
      </trkpt>
      <trkpt lat="43.83175" lon="4.18381">
        <ele>115.01489257812</ele>
        <time>2011-05-01T08:01:26Z</time>
      </trkpt>
      <trkpt lat="43.83178" lon="4.18394">
        <ele>114.5341796875</ele>
        <time>2011-05-01T08:01:30Z</time>
      </trkpt>
      <trkpt lat="43.83184" lon="4.18403">
        <ele>115.49560546875</ele>
        <time>2011-05-01T08:01:34Z</time>
      </trkpt>
      <trkpt lat="43.83194" lon="4.18407">
        <ele>116.9375</ele>
        <time>2011-05-01T08:01:39Z</time>
      </trkpt>
      <trkpt lat="43.83198" lon="4.18396">
        <ele>118.37939453125</ele>
        <time>2011-05-01T08:01:45Z</time>
      </trkpt>
      <trkpt lat="43.83208" lon="4.18398">
        <ele>118.86010742188</ele>
        <time>2011-05-01T08:01:50Z</time>
      </trkpt>
      <trkpt lat="43.83216" lon="4.18401">
        <ele>120.30212402344</ele>
        <time>2011-05-01T08:01:55Z</time>
      </trkpt>
      <trkpt lat="43.83223" lon="4.18393">
        <ele>120.78283691406</ele>
        <time>2011-05-01T08:02:00Z</time>
      </trkpt>
      <trkpt lat="43.83231" lon="4.18384">
        <ele>122.22473144531</ele>
        <time>2011-05-01T08:02:08Z</time>
      </trkpt>
      <trkpt lat="43.83232" lon="4.1837">
        <ele>122.22473144531</ele>
        <time>2011-05-01T08:02:13Z</time>
      </trkpt>
      <trkpt lat="43.8323" lon="4.18358">
        <ele>122.22473144531</ele>
        <time>2011-05-01T08:02:18Z</time>
      </trkpt>
      <trkpt lat="43.83229" lon="4.18345">
        <ele>122.70544433594</ele>
        <time>2011-05-01T08:02:23Z</time>
      </trkpt>
      <trkpt lat="43.83229" lon="4.18333">
        <ele>123.18615722656</ele>
        <time>2011-05-01T08:02:29Z</time>
      </trkpt>
      <trkpt lat="43.83232" lon="4.18321">
        <ele>124.62805175781</ele>
        <time>2011-05-01T08:02:34Z</time>
      </trkpt>
      <trkpt lat="43.83224" lon="4.18313">
        <ele>123.66674804688</ele>
        <time>2011-05-01T08:02:38Z</time>
      </trkpt>
      <trkpt lat="43.83215" lon="4.18312">
        <ele>121.26354980469</ele>
        <time>2011-05-01T08:02:41Z</time>
      </trkpt>
      <trkpt lat="43.83216" lon="4.18302">
        <ele>119.3408203125</ele>
        <time>2011-05-01T08:02:47Z</time>
      </trkpt>
      <trkpt lat="43.8322" lon="4.18291">
        <ele>120.30212402344</ele>
        <time>2011-05-01T08:02:55Z</time>
      </trkpt>
      <trkpt lat="43.83218" lon="4.18279">
        <ele>118.37939453125</ele>
        <time>2011-05-01T08:03:00Z</time>
      </trkpt>
      <trkpt lat="43.83224" lon="4.18267">
        <ele>119.3408203125</ele>
        <time>2011-05-01T08:03:05Z</time>
      </trkpt>
      <trkpt lat="43.83213" lon="4.18266">
        <ele>116.45678710938</ele>
        <time>2011-05-01T08:03:11Z</time>
      </trkpt>
      <trkpt lat="43.83208" lon="4.18257">
        <ele>114.5341796875</ele>
        <time>2011-05-01T08:03:14Z</time>
      </trkpt>
      <trkpt lat="43.8321" lon="4.18242">
        <ele>115.49560546875</ele>
        <time>2011-05-01T08:03:18Z</time>
      </trkpt>
      <trkpt lat="43.83204" lon="4.18233">
        <ele>115.01489257812</ele>
        <time>2011-05-01T08:03:21Z</time>
      </trkpt>
      <trkpt lat="43.83195" lon="4.18228">
        <ele>114.05358886719</ele>
        <time>2011-05-01T08:03:24Z</time>
      </trkpt>
      <trkpt lat="43.83188" lon="4.18215">
        <ele>113.09228515625</ele>
        <time>2011-05-01T08:03:27Z</time>
      </trkpt>
      <trkpt lat="43.83181" lon="4.18205">
        <ele>111.16955566406</ele>
        <time>2011-05-01T08:03:31Z</time>
      </trkpt>
      <trkpt lat="43.83174" lon="4.18203">
        <ele>111.16955566406</ele>
        <time>2011-05-01T08:03:40Z</time>
      </trkpt>
      <trkpt lat="43.83161" lon="4.1821">
        <ele>112.61157226562</ele>
        <time>2011-05-01T08:03:51Z</time>
      </trkpt>
      <trkpt lat="43.83147" lon="4.18224">
        <ele>111.65026855469</ele>
        <time>2011-05-01T08:04:02Z</time>
      </trkpt>
      <trkpt lat="43.83137" lon="4.18234">
        <ele>111.65026855469</ele>
        <time>2011-05-01T08:04:06Z</time>
      </trkpt>
      <trkpt lat="43.83124" lon="4.18244">
        <ele>110.20825195312</ele>
        <time>2011-05-01T08:04:11Z</time>
      </trkpt>
      <trkpt lat="43.83107" lon="4.18249">
        <ele>110.20825195312</ele>
        <time>2011-05-01T08:04:17Z</time>
      </trkpt>
      <trkpt lat="43.83096" lon="4.18246">
        <ele>110.20825195312</ele>
        <time>2011-05-01T08:04:21Z</time>
      </trkpt>
      <trkpt lat="43.83086" lon="4.18249">
        <ele>109.72766113281</ele>
        <time>2011-05-01T08:04:24Z</time>
      </trkpt>
      <trkpt lat="43.83075" lon="4.18249">
        <ele>109.72766113281</ele>
        <time>2011-05-01T08:04:27Z</time>
      </trkpt>
      <trkpt lat="43.8307" lon="4.18238">
        <ele>110.20825195312</ele>
        <time>2011-05-01T08:04:31Z</time>
      </trkpt>
      <trkpt lat="43.83078" lon="4.18232">
        <ele>110.20825195312</ele>
        <time>2011-05-01T08:04:36Z</time>
      </trkpt>
      <trkpt lat="43.83078" lon="4.1822">
        <ele>111.16955566406</ele>
        <time>2011-05-01T08:04:41Z</time>
      </trkpt>
      <trkpt lat="43.83085" lon="4.18215">
        <ele>111.65026855469</ele>
        <time>2011-05-01T08:04:46Z</time>
      </trkpt>
      <trkpt lat="43.83083" lon="4.18204">
        <ele>113.09228515625</ele>
        <time>2011-05-01T08:04:53Z</time>
      </trkpt>
      <trkpt lat="43.83082" lon="4.18193">
        <ele>112.61157226562</ele>
        <time>2011-05-01T08:04:59Z</time>
      </trkpt>
      <trkpt lat="43.83074" lon="4.18189">
        <ele>112.61157226562</ele>
        <time>2011-05-01T08:05:04Z</time>
      </trkpt>
      <trkpt lat="43.83065" lon="4.18179">
        <ele>112.61157226562</ele>
        <time>2011-05-01T08:05:09Z</time>
      </trkpt>
      <trkpt lat="43.83055" lon="4.18174">
        <ele>111.65026855469</ele>
        <time>2011-05-01T08:05:14Z</time>
      </trkpt>
      <trkpt lat="43.83052" lon="4.18162">
        <ele>111.65026855469</ele>
        <time>2011-05-01T08:05:18Z</time>
      </trkpt>
      <trkpt lat="43.83047" lon="4.18151">
        <ele>110.68884277344</ele>
        <time>2011-05-01T08:05:22Z</time>
      </trkpt>
      <trkpt lat="43.83052" lon="4.18142">
        <ele>110.20825195312</ele>
        <time>2011-05-01T08:05:28Z</time>
      </trkpt>
      <trkpt lat="43.8306" lon="4.18134">
        <ele>111.16955566406</ele>
        <time>2011-05-01T08:05:33Z</time>
      </trkpt>
      <trkpt lat="43.83066" lon="4.18124">
        <ele>110.68884277344</ele>
        <time>2011-05-01T08:05:38Z</time>
      </trkpt>
      <trkpt lat="43.83066" lon="4.18111">
        <ele>111.65026855469</ele>
        <time>2011-05-01T08:05:42Z</time>
      </trkpt>
      <trkpt lat="43.83063" lon="4.18099">
        <ele>110.68884277344</ele>
        <time>2011-05-01T08:05:45Z</time>
      </trkpt>
      <trkpt lat="43.8306" lon="4.18085">
        <ele>110.20825195312</ele>
        <time>2011-05-01T08:05:48Z</time>
      </trkpt>
      <trkpt lat="43.83053" lon="4.18072">
        <ele>110.68884277344</ele>
        <time>2011-05-01T08:05:51Z</time>
      </trkpt>
      <trkpt lat="43.83045" lon="4.18061">
        <ele>111.65026855469</ele>
        <time>2011-05-01T08:05:54Z</time>
      </trkpt>
      <trkpt lat="43.83038" lon="4.18051">
        <ele>112.61157226562</ele>
        <time>2011-05-01T08:05:58Z</time>
      </trkpt>
      <trkpt lat="43.83047" lon="4.18042">
        <ele>113.09228515625</ele>
        <time>2011-05-01T08:06:03Z</time>
      </trkpt>
      <trkpt lat="43.8305" lon="4.18029">
        <ele>113.57299804688</ele>
        <time>2011-05-01T08:06:07Z</time>
      </trkpt>
      <trkpt lat="43.83046" lon="4.18016">
        <ele>114.05358886719</ele>
        <time>2011-05-01T08:06:11Z</time>
      </trkpt>
      <trkpt lat="43.83043" lon="4.18006">
        <ele>115.01489257812</ele>
        <time>2011-05-01T08:06:15Z</time>
      </trkpt>
      <trkpt lat="43.83032" lon="4.18003">
        <ele>114.5341796875</ele>
        <time>2011-05-01T08:06:19Z</time>
      </trkpt>
      <trkpt lat="43.83026" lon="4.17992">
        <ele>114.5341796875</ele>
        <time>2011-05-01T08:06:22Z</time>
      </trkpt>
      <trkpt lat="43.83016" lon="4.17989">
        <ele>114.5341796875</ele>
        <time>2011-05-01T08:06:26Z</time>
      </trkpt>
      <trkpt lat="43.83004" lon="4.17987">
        <ele>114.05358886719</ele>
        <time>2011-05-01T08:06:30Z</time>
      </trkpt>
      <trkpt lat="43.82997" lon="4.17977">
        <ele>114.5341796875</ele>
        <time>2011-05-01T08:06:33Z</time>
      </trkpt>
      <trkpt lat="43.82996" lon="4.17962">
        <ele>114.05358886719</ele>
        <time>2011-05-01T08:06:37Z</time>
      </trkpt>
      <trkpt lat="43.82993" lon="4.1795">
        <ele>114.5341796875</ele>
        <time>2011-05-01T08:06:40Z</time>
      </trkpt>
      <trkpt lat="43.82988" lon="4.17934">
        <ele>115.49560546875</ele>
        <time>2011-05-01T08:06:44Z</time>
      </trkpt>
      <trkpt lat="43.82981" lon="4.17924">
        <ele>115.97619628906</ele>
        <time>2011-05-01T08:06:48Z</time>
      </trkpt>
      <trkpt lat="43.82976" lon="4.17914">
        <ele>115.49560546875</ele>
        <time>2011-05-01T08:06:52Z</time>
      </trkpt>
      <trkpt lat="43.82966" lon="4.17914">
        <ele>115.49560546875</ele>
        <time>2011-05-01T08:06:55Z</time>
      </trkpt>
      <trkpt lat="43.82955" lon="4.17915">
        <ele>115.01489257812</ele>
        <time>2011-05-01T08:06:59Z</time>
      </trkpt>
      <trkpt lat="43.82939" lon="4.17878">
        <ele>113.57299804688</ele>
        <time>2011-05-01T08:07:02Z</time>
      </trkpt>
      <trkpt lat="43.82933" lon="4.1788">
        <ele>113.09228515625</ele>
        <time>2011-05-01T08:07:05Z</time>
      </trkpt>
      <trkpt lat="43.82925" lon="4.17877">
        <ele>112.61157226562</ele>
        <time>2011-05-01T08:07:08Z</time>
      </trkpt>
      <trkpt lat="43.82923" lon="4.17877">
        <ele>112.61157226562</ele>
        <time>2011-05-01T08:07:11Z</time>
      </trkpt>
      <trkpt lat="43.82913" lon="4.17872">
        <ele>114.05358886719</ele>
        <time>2011-05-01T08:07:16Z</time>
      </trkpt>
      <trkpt lat="43.82902" lon="4.17869">
        <ele>112.61157226562</ele>
        <time>2011-05-01T08:07:21Z</time>
      </trkpt>
      <trkpt lat="43.82894" lon="4.17857">
        <ele>112.13098144531</ele>
        <time>2011-05-01T08:07:25Z</time>
      </trkpt>
      <trkpt lat="43.8289" lon="4.17847">
        <ele>112.13098144531</ele>
        <time>2011-05-01T08:07:28Z</time>
      </trkpt>
      <trkpt lat="43.82886" lon="4.17833">
        <ele>112.61157226562</ele>
        <time>2011-05-01T08:07:32Z</time>
      </trkpt>
      <trkpt lat="43.82881" lon="4.1782">
        <ele>112.61157226562</ele>
        <time>2011-05-01T08:07:36Z</time>
      </trkpt>
      <trkpt lat="43.82874" lon="4.17807">
        <ele>113.09228515625</ele>
        <time>2011-05-01T08:07:40Z</time>
      </trkpt>
      <trkpt lat="43.8287" lon="4.17795">
        <ele>113.09228515625</ele>
        <time>2011-05-01T08:07:43Z</time>
      </trkpt>
      <trkpt lat="43.82864" lon="4.17782">
        <ele>113.09228515625</ele>
        <time>2011-05-01T08:07:47Z</time>
      </trkpt>
      <trkpt lat="43.82865" lon="4.17769">
        <ele>113.57299804688</ele>
        <time>2011-05-01T08:07:51Z</time>
      </trkpt>
      <trkpt lat="43.8286" lon="4.17755">
        <ele>113.57299804688</ele>
        <time>2011-05-01T08:07:55Z</time>
      </trkpt>
      <trkpt lat="43.82851" lon="4.17754">
        <ele>112.61157226562</ele>
        <time>2011-05-01T08:08:00Z</time>
      </trkpt>
      <trkpt lat="43.82847" lon="4.17742">
        <ele>112.13098144531</ele>
        <time>2011-05-01T08:08:05Z</time>
      </trkpt>
      <trkpt lat="43.82824" lon="4.17749">
        <ele>110.68884277344</ele>
        <time>2011-05-01T08:08:08Z</time>
      </trkpt>
      <trkpt lat="43.82818" lon="4.17721">
        <ele>112.13098144531</ele>
        <time>2011-05-01T08:08:13Z</time>
      </trkpt>
      <trkpt lat="43.82822" lon="4.17695">
        <ele>115.01489257812</ele>
        <time>2011-05-01T08:08:29Z</time>
      </trkpt>
      <trkpt lat="43.82822" lon="4.17688">
        <ele>115.49560546875</ele>
        <time>2011-05-01T08:08:35Z</time>
      </trkpt>
      <trkpt lat="43.82824" lon="4.17672">
        <ele>116.45678710938</ele>
        <time>2011-05-01T08:08:42Z</time>
      </trkpt>
      <trkpt lat="43.82823" lon="4.17659">
        <ele>116.45678710938</ele>
        <time>2011-05-01T08:08:47Z</time>
      </trkpt>
      <trkpt lat="43.8282" lon="4.17647">
        <ele>117.41821289062</ele>
        <time>2011-05-01T08:08:52Z</time>
      </trkpt>
      <trkpt lat="43.82818" lon="4.17635">
        <ele>119.3408203125</ele>
        <time>2011-05-01T08:08:57Z</time>
      </trkpt>
      <trkpt lat="43.82817" lon="4.17624">
        <ele>119.82141113281</ele>
        <time>2011-05-01T08:09:02Z</time>
      </trkpt>
      <trkpt lat="43.82836" lon="4.17629">
        <ele>120.30212402344</ele>
        <time>2011-05-01T08:09:08Z</time>
      </trkpt>
      <trkpt lat="43.82843" lon="4.17638">
        <ele>121.26354980469</ele>
        <time>2011-05-01T08:09:13Z</time>
      </trkpt>
      <trkpt lat="43.82847" lon="4.17653">
        <ele>121.744140625</ele>
        <time>2011-05-01T08:09:18Z</time>
      </trkpt>
      <trkpt lat="43.82855" lon="4.1766">
        <ele>122.22473144531</ele>
        <time>2011-05-01T08:09:22Z</time>
      </trkpt>
      <trkpt lat="43.82863" lon="4.17666">
        <ele>123.66674804688</ele>
        <time>2011-05-01T08:09:26Z</time>
      </trkpt>
      <trkpt lat="43.82871" lon="4.17678">
        <ele>123.66674804688</ele>
        <time>2011-05-01T08:09:30Z</time>
      </trkpt>
      <trkpt lat="43.82875" lon="4.17688">
        <ele>123.18615722656</ele>
        <time>2011-05-01T08:09:33Z</time>
      </trkpt>
      <trkpt lat="43.82883" lon="4.17696">
        <ele>123.66674804688</ele>
        <time>2011-05-01T08:09:37Z</time>
      </trkpt>
      <trkpt lat="43.82893" lon="4.177">
        <ele>125.10876464844</ele>
        <time>2011-05-01T08:09:42Z</time>
      </trkpt>
      <trkpt lat="43.82904" lon="4.17704">
        <ele>125.10876464844</ele>
        <time>2011-05-01T08:09:46Z</time>
      </trkpt>
      <trkpt lat="43.82912" lon="4.17706">
        <ele>127.99255371094</ele>
        <time>2011-05-01T08:09:51Z</time>
      </trkpt>
      <trkpt lat="43.8292" lon="4.17716">
        <ele>128.47338867188</ele>
        <time>2011-05-01T08:09:56Z</time>
      </trkpt>
      <trkpt lat="43.8293" lon="4.17717">
        <ele>131.35729980469</ele>
        <time>2011-05-01T08:10:02Z</time>
      </trkpt>
      <trkpt lat="43.8294" lon="4.17723">
        <ele>131.837890625</ele>
        <time>2011-05-01T08:10:10Z</time>
      </trkpt>
      <trkpt lat="43.82952" lon="4.17728">
        <ele>134.2412109375</ele>
        <time>2011-05-01T08:10:16Z</time>
      </trkpt>
      <trkpt lat="43.82962" lon="4.17728">
        <ele>135.68310546875</ele>
        <time>2011-05-01T08:10:21Z</time>
      </trkpt>
      <trkpt lat="43.82969" lon="4.17736">
        <ele>136.64465332031</ele>
        <time>2011-05-01T08:10:26Z</time>
      </trkpt>
      <trkpt lat="43.82977" lon="4.17747">
        <ele>135.68310546875</ele>
        <time>2011-05-01T08:10:31Z</time>
      </trkpt>
      <trkpt lat="43.82982" lon="4.1776">
        <ele>136.16394042969</ele>
        <time>2011-05-01T08:10:35Z</time>
      </trkpt>
      <trkpt lat="43.82991" lon="4.17772">
        <ele>135.68310546875</ele>
        <time>2011-05-01T08:10:39Z</time>
      </trkpt>
      <trkpt lat="43.83001" lon="4.17777">
        <ele>137.60583496094</ele>
        <time>2011-05-01T08:10:44Z</time>
      </trkpt>
      <trkpt lat="43.83011" lon="4.17783">
        <ele>139.0478515625</ele>
        <time>2011-05-01T08:10:50Z</time>
      </trkpt>
      <trkpt lat="43.8302" lon="4.17793">
        <ele>138.56726074219</ele>
        <time>2011-05-01T08:10:55Z</time>
      </trkpt>
      <trkpt lat="43.83022" lon="4.17806">
        <ele>137.60583496094</ele>
        <time>2011-05-01T08:10:58Z</time>
      </trkpt>
      <trkpt lat="43.83023" lon="4.1782">
        <ele>137.60583496094</ele>
        <time>2011-05-01T08:11:02Z</time>
      </trkpt>
      <trkpt lat="43.83015" lon="4.17899">
        <ele>136.64465332031</ele>
        <time>2011-05-01T08:11:06Z</time>
      </trkpt>
      <trkpt lat="43.83015" lon="4.17899">
        <ele>136.64465332031</ele>
        <time>2011-05-01T08:11:09Z</time>
      </trkpt>
      <trkpt lat="43.83015" lon="4.17899">
        <ele>136.64465332031</ele>
        <time>2011-05-01T08:11:12Z</time>
      </trkpt>
      <trkpt lat="43.8302" lon="4.17908">
        <ele>138.56726074219</ele>
        <time>2011-05-01T08:11:16Z</time>
      </trkpt>
      <trkpt lat="43.83025" lon="4.17919">
        <ele>139.0478515625</ele>
        <time>2011-05-01T08:11:21Z</time>
      </trkpt>
      <trkpt lat="43.8303" lon="4.17926">
        <ele>140.48986816406</ele>
        <time>2011-05-01T08:11:26Z</time>
      </trkpt>
      <trkpt lat="43.83037" lon="4.17939">
        <ele>140.97045898438</ele>
        <time>2011-05-01T08:11:30Z</time>
      </trkpt>
      <trkpt lat="43.83055" lon="4.17955">
        <ele>141.93176269531</ele>
        <time>2011-05-01T08:11:35Z</time>
      </trkpt>
      <trkpt lat="43.83065" lon="4.17964">
        <ele>142.41247558594</ele>
        <time>2011-05-01T08:11:40Z</time>
      </trkpt>
      <trkpt lat="43.83075" lon="4.17972">
        <ele>143.37365722656</ele>
        <time>2011-05-01T08:11:45Z</time>
      </trkpt>
      <trkpt lat="43.83116" lon="4.17912">
        <ele>143.85437011719</ele>
        <time>2011-05-01T08:11:50Z</time>
      </trkpt>
      <trkpt lat="43.83126" lon="4.17916">
        <ele>144.81579589844</ele>
        <time>2011-05-01T08:11:55Z</time>
      </trkpt>
      <trkpt lat="43.83135" lon="4.1792">
        <ele>145.77709960938</ele>
        <time>2011-05-01T08:12:00Z</time>
      </trkpt>
      <trkpt lat="43.83143" lon="4.17928">
        <ele>146.2578125</ele>
        <time>2011-05-01T08:12:05Z</time>
      </trkpt>
      <trkpt lat="43.83151" lon="4.17935">
        <ele>145.77709960938</ele>
        <time>2011-05-01T08:12:08Z</time>
      </trkpt>
      <trkpt lat="43.83161" lon="4.17941">
        <ele>143.85437011719</ele>
        <time>2011-05-01T08:12:12Z</time>
      </trkpt>
      <trkpt lat="43.83172" lon="4.1794">
        <ele>145.29638671875</ele>
        <time>2011-05-01T08:12:16Z</time>
      </trkpt>
      <trkpt lat="43.83181" lon="4.17936">
        <ele>146.2578125</ele>
        <time>2011-05-01T08:12:20Z</time>
      </trkpt>
      <trkpt lat="43.83193" lon="4.17934">
        <ele>145.77709960938</ele>
        <time>2011-05-01T08:12:24Z</time>
      </trkpt>
      <trkpt lat="43.83204" lon="4.17934">
        <ele>144.33520507812</ele>
        <time>2011-05-01T08:12:27Z</time>
      </trkpt>
      <trkpt lat="43.83214" lon="4.17928">
        <ele>144.81579589844</ele>
        <time>2011-05-01T08:12:30Z</time>
      </trkpt>
      <trkpt lat="43.83222" lon="4.17923">
        <ele>145.29638671875</ele>
        <time>2011-05-01T08:12:33Z</time>
      </trkpt>
      <trkpt lat="43.83229" lon="4.17912">
        <ele>146.73840332031</ele>
        <time>2011-05-01T08:12:37Z</time>
      </trkpt>
      <trkpt lat="43.83234" lon="4.17902">
        <ele>147.69970703125</ele>
        <time>2011-05-01T08:12:41Z</time>
      </trkpt>
      <trkpt lat="43.83239" lon="4.17891">
        <ele>147.69970703125</ele>
        <time>2011-05-01T08:12:45Z</time>
      </trkpt>
      <trkpt lat="43.83245" lon="4.1788">
        <ele>149.1416015625</ele>
        <time>2011-05-01T08:12:50Z</time>
      </trkpt>
      <trkpt lat="43.83252" lon="4.17871">
        <ele>148.66101074219</ele>
        <time>2011-05-01T08:12:54Z</time>
      </trkpt>
      <trkpt lat="43.83255" lon="4.17858">
        <ele>147.69970703125</ele>
        <time>2011-05-01T08:12:57Z</time>
      </trkpt>
      <trkpt lat="43.83253" lon="4.17846">
        <ele>150.58361816406</ele>
        <time>2011-05-01T08:13:02Z</time>
      </trkpt>
      <trkpt lat="43.83258" lon="4.17834">
        <ele>150.58361816406</ele>
        <time>2011-05-01T08:13:06Z</time>
      </trkpt>
      <trkpt lat="43.83258" lon="4.17821">
        <ele>150.10302734375</ele>
        <time>2011-05-01T08:13:10Z</time>
      </trkpt>
      <trkpt lat="43.83258" lon="4.17807">
        <ele>150.58361816406</ele>
        <time>2011-05-01T08:13:14Z</time>
      </trkpt>
      <trkpt lat="43.83258" lon="4.17792">
        <ele>151.06420898438</ele>
        <time>2011-05-01T08:13:18Z</time>
      </trkpt>
      <trkpt lat="43.83259" lon="4.17777">
        <ele>151.544921875</ele>
        <time>2011-05-01T08:13:23Z</time>
      </trkpt>
      <trkpt lat="43.83257" lon="4.17761">
        <ele>151.544921875</ele>
        <time>2011-05-01T08:13:27Z</time>
      </trkpt>
      <trkpt lat="43.83255" lon="4.17746">
        <ele>152.02575683594</ele>
        <time>2011-05-01T08:13:31Z</time>
      </trkpt>
      <trkpt lat="43.83256" lon="4.17731">
        <ele>151.544921875</ele>
        <time>2011-05-01T08:13:35Z</time>
      </trkpt>
      <trkpt lat="43.83265" lon="4.17737">
        <ele>151.06420898438</ele>
        <time>2011-05-01T08:13:40Z</time>
      </trkpt>
      <trkpt lat="43.83269" lon="4.17749">
        <ele>150.10302734375</ele>
        <time>2011-05-01T08:13:43Z</time>
      </trkpt>
      <trkpt lat="43.83273" lon="4.17765">
        <ele>145.77709960938</ele>
        <time>2011-05-01T08:13:47Z</time>
      </trkpt>
      <trkpt lat="43.83255" lon="4.17777">
        <ele>144.81579589844</ele>
        <time>2011-05-01T08:13:49Z</time>
      </trkpt>
      <trkpt lat="43.83255" lon="4.17794">
        <ele>144.33520507812</ele>
        <time>2011-05-01T08:13:51Z</time>
      </trkpt>
      <trkpt lat="43.83255" lon="4.17802">
        <ele>143.37365722656</ele>
        <time>2011-05-01T08:13:53Z</time>
      </trkpt>
      <trkpt lat="43.83255" lon="4.17815">
        <ele>143.37365722656</ele>
        <time>2011-05-01T08:13:55Z</time>
      </trkpt>
      <trkpt lat="43.83255" lon="4.17829">
        <ele>142.89306640625</ele>
        <time>2011-05-01T08:13:57Z</time>
      </trkpt>
      <trkpt lat="43.83255" lon="4.17837">
        <ele>142.41247558594</ele>
        <time>2011-05-01T08:13:59Z</time>
      </trkpt>
      <trkpt lat="43.83255" lon="4.17837">
        <ele>142.41247558594</ele>
        <time>2011-05-01T08:14:01Z</time>
      </trkpt>
      <trkpt lat="43.83253" lon="4.17865">
        <ele>141.93176269531</ele>
        <time>2011-05-01T08:14:03Z</time>
      </trkpt>
      <trkpt lat="43.83318" lon="4.17878">
        <ele>141.45104980469</ele>
        <time>2011-05-01T08:14:05Z</time>
      </trkpt>
      <trkpt lat="43.83324" lon="4.17887">
        <ele>140.48986816406</ele>
        <time>2011-05-01T08:14:07Z</time>
      </trkpt>
      <trkpt lat="43.83331" lon="4.17896">
        <ele>139.52844238281</ele>
        <time>2011-05-01T08:14:09Z</time>
      </trkpt>
      <trkpt lat="43.83338" lon="4.17903">
        <ele>138.08654785156</ele>
        <time>2011-05-01T08:14:11Z</time>
      </trkpt>
      <trkpt lat="43.83343" lon="4.17913">
        <ele>135.20251464844</ele>
        <time>2011-05-01T08:14:16Z</time>
      </trkpt>
      <trkpt lat="43.83336" lon="4.17923">
        <ele>136.16394042969</ele>
        <time>2011-05-01T08:14:34Z</time>
      </trkpt>
      <trkpt lat="43.83328" lon="4.17928">
        <ele>138.56726074219</ele>
        <time>2011-05-01T08:14:44Z</time>
      </trkpt>
      <trkpt lat="43.83318" lon="4.17931">
        <ele>137.60583496094</ele>
        <time>2011-05-01T08:14:49Z</time>
      </trkpt>
      <trkpt lat="43.8331" lon="4.17942">
        <ele>136.64465332031</ele>
        <time>2011-05-01T08:14:53Z</time>
      </trkpt>
      <trkpt lat="43.83303" lon="4.1795">
        <ele>133.27990722656</ele>
        <time>2011-05-01T08:14:58Z</time>
      </trkpt>
      <trkpt lat="43.83297" lon="4.17962">
        <ele>132.31860351562</ele>
        <time>2011-05-01T08:15:02Z</time>
      </trkpt>
      <trkpt lat="43.83289" lon="4.17968">
        <ele>129.43469238281</ele>
        <time>2011-05-01T08:15:06Z</time>
      </trkpt>
      <trkpt lat="43.83285" lon="4.1798">
        <ele>126.55065917969</ele>
        <time>2011-05-01T08:15:09Z</time>
      </trkpt>
      <trkpt lat="43.83286" lon="4.17993">
        <ele>126.55065917969</ele>
        <time>2011-05-01T08:15:13Z</time>
      </trkpt>
      <trkpt lat="43.83283" lon="4.18005">
        <ele>126.06994628906</ele>
        <time>2011-05-01T08:15:16Z</time>
      </trkpt>
      <trkpt lat="43.83283" lon="4.1802">
        <ele>126.06994628906</ele>
        <time>2011-05-01T08:15:19Z</time>
      </trkpt>
      <trkpt lat="43.83285" lon="4.18034">
        <ele>125.58935546875</ele>
        <time>2011-05-01T08:15:22Z</time>
      </trkpt>
      <trkpt lat="43.83284" lon="4.18049">
        <ele>127.03137207031</ele>
        <time>2011-05-01T08:15:26Z</time>
      </trkpt>
      <trkpt lat="43.83289" lon="4.18061">
        <ele>126.06994628906</ele>
        <time>2011-05-01T08:15:30Z</time>
      </trkpt>
      <trkpt lat="43.83298" lon="4.18067">
        <ele>127.51196289062</ele>
        <time>2011-05-01T08:15:34Z</time>
      </trkpt>
      <trkpt lat="43.83305" lon="4.18081">
        <ele>127.03137207031</ele>
        <time>2011-05-01T08:15:38Z</time>
      </trkpt>
      <trkpt lat="43.83313" lon="4.18073">
        <ele>127.03137207031</ele>
        <time>2011-05-01T08:15:41Z</time>
      </trkpt>
      <trkpt lat="43.83319" lon="4.18073">
        <ele>126.06994628906</ele>
        <time>2011-05-01T08:15:44Z</time>
      </trkpt>
      <trkpt lat="43.83326" lon="4.18073">
        <ele>127.03137207031</ele>
        <time>2011-05-01T08:15:48Z</time>
      </trkpt>
      <trkpt lat="43.83287" lon="4.18115">
        <ele>127.51196289062</ele>
        <time>2011-05-01T08:15:54Z</time>
      </trkpt>
      <trkpt lat="43.83285" lon="4.18126">
        <ele>127.51196289062</ele>
        <time>2011-05-01T08:15:58Z</time>
      </trkpt>
      <trkpt lat="43.83283" lon="4.18139">
        <ele>127.03137207031</ele>
        <time>2011-05-01T08:16:05Z</time>
      </trkpt>
      <trkpt lat="43.83282" lon="4.1814">
        <ele>127.99255371094</ele>
        <time>2011-05-01T08:16:10Z</time>
      </trkpt>
      <trkpt lat="43.83276" lon="4.1815">
        <ele>128.47338867188</ele>
        <time>2011-05-01T08:16:14Z</time>
      </trkpt>
      <trkpt lat="43.83272" lon="4.18156">
        <ele>128.47338867188</ele>
        <time>2011-05-01T08:16:19Z</time>
      </trkpt>
      <trkpt lat="43.83262" lon="4.18163">
        <ele>125.58935546875</ele>
        <time>2011-05-01T08:16:22Z</time>
      </trkpt>
      <trkpt lat="43.83254" lon="4.1817">
        <ele>122.70544433594</ele>
        <time>2011-05-01T08:16:25Z</time>
      </trkpt>
      <trkpt lat="43.83262" lon="4.18197">
        <ele>124.14733886719</ele>
        <time>2011-05-01T08:16:29Z</time>
      </trkpt>
      <trkpt lat="43.83262" lon="4.1821">
        <ele>124.62805175781</ele>
        <time>2011-05-01T08:16:33Z</time>
      </trkpt>
      <trkpt lat="43.83262" lon="4.18224">
        <ele>125.58935546875</ele>
        <time>2011-05-01T08:16:38Z</time>
      </trkpt>
      <trkpt lat="43.83258" lon="4.18236">
        <ele>127.99255371094</ele>
        <time>2011-05-01T08:16:43Z</time>
      </trkpt>
      <trkpt lat="43.83255" lon="4.18251">
        <ele>128.47338867188</ele>
        <time>2011-05-01T08:16:48Z</time>
      </trkpt>
      <trkpt lat="43.83253" lon="4.18264">
        <ele>128.9541015625</ele>
        <time>2011-05-01T08:16:52Z</time>
      </trkpt>
      <trkpt lat="43.83252" lon="4.18276">
        <ele>129.43469238281</ele>
        <time>2011-05-01T08:16:56Z</time>
      </trkpt>
      <trkpt lat="43.83252" lon="4.18289">
        <ele>130.39599609375</ele>
        <time>2011-05-01T08:17:01Z</time>
      </trkpt>
      <trkpt lat="43.83254" lon="4.18302">
        <ele>131.35729980469</ele>
        <time>2011-05-01T08:17:06Z</time>
      </trkpt>
      <trkpt lat="43.83259" lon="4.18316">
        <ele>132.31860351562</ele>
        <time>2011-05-01T08:17:11Z</time>
      </trkpt>
      <trkpt lat="43.83262" lon="4.18328">
        <ele>131.837890625</ele>
        <time>2011-05-01T08:17:15Z</time>
      </trkpt>
      <trkpt lat="43.83266" lon="4.18343">
        <ele>132.31860351562</ele>
        <time>2011-05-01T08:17:19Z</time>
      </trkpt>
      <trkpt lat="43.8327" lon="4.18355">
        <ele>132.31860351562</ele>
        <time>2011-05-01T08:17:23Z</time>
      </trkpt>
      <trkpt lat="43.83273" lon="4.1837">
        <ele>133.76049804688</ele>
        <time>2011-05-01T08:17:28Z</time>
      </trkpt>
      <trkpt lat="43.83278" lon="4.18385">
        <ele>132.79931640625</ele>
        <time>2011-05-01T08:17:32Z</time>
      </trkpt>
      <trkpt lat="43.83281" lon="4.18397">
        <ele>133.76049804688</ele>
        <time>2011-05-01T08:17:35Z</time>
      </trkpt>
      <trkpt lat="43.83285" lon="4.1841">
        <ele>133.76049804688</ele>
        <time>2011-05-01T08:17:39Z</time>
      </trkpt>
      <trkpt lat="43.83289" lon="4.18423">
        <ele>133.76049804688</ele>
        <time>2011-05-01T08:17:42Z</time>
      </trkpt>
      <trkpt lat="43.83295" lon="4.18435">
        <ele>133.76049804688</ele>
        <time>2011-05-01T08:17:46Z</time>
      </trkpt>
      <trkpt lat="43.83299" lon="4.18442">
        <ele>131.35729980469</ele>
        <time>2011-05-01T08:17:49Z</time>
      </trkpt>
      <trkpt lat="43.83304" lon="4.18453">
        <ele>129.43469238281</ele>
        <time>2011-05-01T08:17:53Z</time>
      </trkpt>
      <trkpt lat="43.8331" lon="4.18468">
        <ele>127.99255371094</ele>
        <time>2011-05-01T08:17:56Z</time>
      </trkpt>
      <trkpt lat="43.83316" lon="4.18484">
        <ele>127.03137207031</ele>
        <time>2011-05-01T08:17:59Z</time>
      </trkpt>
      <trkpt lat="43.8332" lon="4.18493">
        <ele>126.06994628906</ele>
        <time>2011-05-01T08:18:02Z</time>
      </trkpt>
      <trkpt lat="43.83323" lon="4.18493">
        <ele>124.62805175781</ele>
        <time>2011-05-01T08:18:06Z</time>
      </trkpt>
      <trkpt lat="43.83332" lon="4.18495">
        <ele>124.14733886719</ele>
        <time>2011-05-01T08:18:09Z</time>
      </trkpt>
      <trkpt lat="43.83343" lon="4.18501">
        <ele>122.22473144531</ele>
        <time>2011-05-01T08:18:13Z</time>
      </trkpt>
      <trkpt lat="43.8335" lon="4.18506">
        <ele>121.744140625</ele>
        <time>2011-05-01T08:18:16Z</time>
      </trkpt>
      <trkpt lat="43.83336" lon="4.18564">
        <ele>121.26354980469</ele>
        <time>2011-05-01T08:18:20Z</time>
      </trkpt>
      <trkpt lat="43.8334" lon="4.18579">
        <ele>120.78283691406</ele>
        <time>2011-05-01T08:18:24Z</time>
      </trkpt>
      <trkpt lat="43.83341" lon="4.18591">
        <ele>119.3408203125</ele>
        <time>2011-05-01T08:18:29Z</time>
      </trkpt>
      <trkpt lat="43.8333" lon="4.18595">
        <ele>120.78283691406</ele>
        <time>2011-05-01T08:18:34Z</time>
      </trkpt>
      <trkpt lat="43.8332" lon="4.18597">
        <ele>120.78283691406</ele>
        <time>2011-05-01T08:18:38Z</time>
      </trkpt>
      <trkpt lat="43.83311" lon="4.18599">
        <ele>121.26354980469</ele>
        <time>2011-05-01T08:18:43Z</time>
      </trkpt>
      <trkpt lat="43.83301" lon="4.18606">
        <ele>120.30212402344</ele>
        <time>2011-05-01T08:18:48Z</time>
      </trkpt>
      <trkpt lat="43.83296" lon="4.18614">
        <ele>119.82141113281</ele>
        <time>2011-05-01T08:19:50Z</time>
      </trkpt>
      <trkpt lat="43.833" lon="4.18628">
        <ele>120.30212402344</ele>
        <time>2011-05-01T08:19:55Z</time>
      </trkpt>
      <trkpt lat="43.83307" lon="4.18638">
        <ele>121.26354980469</ele>
        <time>2011-05-01T08:20:01Z</time>
      </trkpt>
      <trkpt lat="43.83311" lon="4.18653">
        <ele>122.70544433594</ele>
        <time>2011-05-01T08:20:07Z</time>
      </trkpt>
      <trkpt lat="43.83316" lon="4.18666">
        <ele>124.14733886719</ele>
        <time>2011-05-01T08:20:12Z</time>
      </trkpt>
      <trkpt lat="43.8332" lon="4.18678">
        <ele>124.14733886719</ele>
        <time>2011-05-01T08:20:18Z</time>
      </trkpt>
      <trkpt lat="43.83315" lon="4.18693">
        <ele>126.55065917969</ele>
        <time>2011-05-01T08:20:28Z</time>
      </trkpt>
      <trkpt lat="43.83319" lon="4.18704">
        <ele>126.55065917969</ele>
        <time>2011-05-01T08:20:36Z</time>
      </trkpt>
      <trkpt lat="43.83319" lon="4.18719">
        <ele>127.03137207031</ele>
        <time>2011-05-01T08:20:45Z</time>
      </trkpt>
      <trkpt lat="43.83315" lon="4.18735">
        <ele>128.47338867188</ele>
        <time>2011-05-01T08:20:51Z</time>
      </trkpt>
      <trkpt lat="43.83312" lon="4.1875">
        <ele>128.47338867188</ele>
        <time>2011-05-01T08:20:57Z</time>
      </trkpt>
      <trkpt lat="43.83306" lon="4.18768">
        <ele>129.91528320312</ele>
        <time>2011-05-01T08:21:03Z</time>
      </trkpt>
      <trkpt lat="43.83304" lon="4.18783">
        <ele>128.9541015625</ele>
        <time>2011-05-01T08:21:09Z</time>
      </trkpt>
      <trkpt lat="43.83304" lon="4.18801">
        <ele>129.91528320312</ele>
        <time>2011-05-01T08:21:14Z</time>
      </trkpt>
      <trkpt lat="43.83306" lon="4.18816">
        <ele>130.87670898438</ele>
        <time>2011-05-01T08:21:20Z</time>
      </trkpt>
      <trkpt lat="43.83308" lon="4.1883">
        <ele>131.837890625</ele>
        <time>2011-05-01T08:21:26Z</time>
      </trkpt>
      <trkpt lat="43.83303" lon="4.1885">
        <ele>132.79931640625</ele>
        <time>2011-05-01T08:21:32Z</time>
      </trkpt>
      <trkpt lat="43.83293" lon="4.18844">
        <ele>133.27990722656</ele>
        <time>2011-05-01T08:21:38Z</time>
      </trkpt>
      <trkpt lat="43.83288" lon="4.18833">
        <ele>135.20251464844</ele>
        <time>2011-05-01T08:21:43Z</time>
      </trkpt>
      <trkpt lat="43.83281" lon="4.18824">
        <ele>135.68310546875</ele>
        <time>2011-05-01T08:21:48Z</time>
      </trkpt>
      <trkpt lat="43.83276" lon="4.18811">
        <ele>137.12524414062</ele>
        <time>2011-05-01T08:21:53Z</time>
      </trkpt>
      <trkpt lat="43.83266" lon="4.18804">
        <ele>138.08654785156</ele>
        <time>2011-05-01T08:21:58Z</time>
      </trkpt>
      <trkpt lat="43.83258" lon="4.18795">
        <ele>138.56726074219</ele>
        <time>2011-05-01T08:22:04Z</time>
      </trkpt>
      <trkpt lat="43.83253" lon="4.18785">
        <ele>139.52844238281</ele>
        <time>2011-05-01T08:22:11Z</time>
      </trkpt>
      <trkpt lat="43.83245" lon="4.18777">
        <ele>141.93176269531</ele>
        <time>2011-05-01T08:22:18Z</time>
      </trkpt>
      <trkpt lat="43.83237" lon="4.18766">
        <ele>144.33520507812</ele>
        <time>2011-05-01T08:22:26Z</time>
      </trkpt>
      <trkpt lat="43.8323" lon="4.18757">
        <ele>145.77709960938</ele>
        <time>2011-05-01T08:22:37Z</time>
      </trkpt>
      <trkpt lat="43.83225" lon="4.18756">
        <ele>147.69970703125</ele>
        <time>2011-05-01T08:22:45Z</time>
      </trkpt>
      <trkpt lat="43.83225" lon="4.18768">
        <ele>149.1416015625</ele>
        <time>2011-05-01T08:22:54Z</time>
      </trkpt>
      <trkpt lat="43.83224" lon="4.18782">
        <ele>151.06420898438</ele>
        <time>2011-05-01T08:23:01Z</time>
      </trkpt>
      <trkpt lat="43.83228" lon="4.18795">
        <ele>152.02575683594</ele>
        <time>2011-05-01T08:23:09Z</time>
      </trkpt>
      <trkpt lat="43.83229" lon="4.18809">
        <ele>153.94836425781</ele>
        <time>2011-05-01T08:23:17Z</time>
      </trkpt>
      <trkpt lat="43.83236" lon="4.18819">
        <ele>150.58361816406</ele>
        <time>2011-05-01T08:23:24Z</time>
      </trkpt>
      <trkpt lat="43.83245" lon="4.18828">
        <ele>146.2578125</ele>
        <time>2011-05-01T08:23:30Z</time>
      </trkpt>
      <trkpt lat="43.83247" lon="4.1884">
        <ele>144.81579589844</ele>
        <time>2011-05-01T08:23:35Z</time>
      </trkpt>
      <trkpt lat="43.83258" lon="4.18849">
        <ele>142.89306640625</ele>
        <time>2011-05-01T08:23:40Z</time>
      </trkpt>
      <trkpt lat="43.83265" lon="4.18863">
        <ele>141.45104980469</ele>
        <time>2011-05-01T08:23:44Z</time>
      </trkpt>
      <trkpt lat="43.83266" lon="4.18878">
        <ele>142.41247558594</ele>
        <time>2011-05-01T08:23:49Z</time>
      </trkpt>
      <trkpt lat="43.83263" lon="4.18892">
        <ele>143.85437011719</ele>
        <time>2011-05-01T08:23:54Z</time>
      </trkpt>
      <trkpt lat="43.8326" lon="4.18904">
        <ele>145.77709960938</ele>
        <time>2011-05-01T08:23:59Z</time>
      </trkpt>
      <trkpt lat="43.8326" lon="4.18917">
        <ele>146.2578125</ele>
        <time>2011-05-01T08:24:04Z</time>
      </trkpt>
      <trkpt lat="43.83259" lon="4.1893">
        <ele>146.2578125</ele>
        <time>2011-05-01T08:24:09Z</time>
      </trkpt>
      <trkpt lat="43.83257" lon="4.18944">
        <ele>146.73840332031</ele>
        <time>2011-05-01T08:24:20Z</time>
      </trkpt>
      <trkpt lat="43.83257" lon="4.18956">
        <ele>147.21899414062</ele>
        <time>2011-05-01T08:24:24Z</time>
      </trkpt>
      <trkpt lat="43.83252" lon="4.18972">
        <ele>146.73840332031</ele>
        <time>2011-05-01T08:24:28Z</time>
      </trkpt>
      <trkpt lat="43.83248" lon="4.18984">
        <ele>145.77709960938</ele>
        <time>2011-05-01T08:24:31Z</time>
      </trkpt>
      <trkpt lat="43.83245" lon="4.18998">
        <ele>144.33520507812</ele>
        <time>2011-05-01T08:24:35Z</time>
      </trkpt>
      <trkpt lat="43.83239" lon="4.19012">
        <ele>145.29638671875</ele>
        <time>2011-05-01T08:24:40Z</time>
      </trkpt>
      <trkpt lat="43.83231" lon="4.19029">
        <ele>145.77709960938</ele>
        <time>2011-05-01T08:24:45Z</time>
      </trkpt>
      <trkpt lat="43.83225" lon="4.1904">
        <ele>147.21899414062</ele>
        <time>2011-05-01T08:24:49Z</time>
      </trkpt>
      <trkpt lat="43.83222" lon="4.19053">
        <ele>147.21899414062</ele>
        <time>2011-05-01T08:24:53Z</time>
      </trkpt>
      <trkpt lat="43.83213" lon="4.19063">
        <ele>147.69970703125</ele>
        <time>2011-05-01T08:24:57Z</time>
      </trkpt>
      <trkpt lat="43.83203" lon="4.19075">
        <ele>147.21899414062</ele>
        <time>2011-05-01T08:25:01Z</time>
      </trkpt>
      <trkpt lat="43.83195" lon="4.19082">
        <ele>146.73840332031</ele>
        <time>2011-05-01T08:25:05Z</time>
      </trkpt>
      <trkpt lat="43.83187" lon="4.19093">
        <ele>145.77709960938</ele>
        <time>2011-05-01T08:25:08Z</time>
      </trkpt>
      <trkpt lat="43.83178" lon="4.19101">
        <ele>143.37365722656</ele>
        <time>2011-05-01T08:25:11Z</time>
      </trkpt>
      <trkpt lat="43.8317" lon="4.19107">
        <ele>143.37365722656</ele>
        <time>2011-05-01T08:25:14Z</time>
      </trkpt>
      <trkpt lat="43.83162" lon="4.19116">
        <ele>141.93176269531</ele>
        <time>2011-05-01T08:25:19Z</time>
      </trkpt>
      <trkpt lat="43.83162" lon="4.19125">
        <ele>139.0478515625</ele>
        <time>2011-05-01T08:26:06Z</time>
      </trkpt>
      <trkpt lat="43.8317" lon="4.19133">
        <ele>136.64465332031</ele>
        <time>2011-05-01T08:26:17Z</time>
      </trkpt>
      <trkpt lat="43.83179" lon="4.19127">
        <ele>136.64465332031</ele>
        <time>2011-05-01T08:26:21Z</time>
      </trkpt>
      <trkpt lat="43.83187" lon="4.19127">
        <ele>135.68310546875</ele>
        <time>2011-05-01T08:26:26Z</time>
      </trkpt>
      <trkpt lat="43.83184" lon="4.19141">
        <ele>131.837890625</ele>
        <time>2011-05-01T08:26:32Z</time>
      </trkpt>
      <trkpt lat="43.83179" lon="4.1915">
        <ele>130.87670898438</ele>
        <time>2011-05-01T08:26:39Z</time>
      </trkpt>
      <trkpt lat="43.83178" lon="4.19164">
        <ele>127.03137207031</ele>
        <time>2011-05-01T08:26:45Z</time>
      </trkpt>
      <trkpt lat="43.83167" lon="4.19175">
        <ele>124.62805175781</ele>
        <time>2011-05-01T08:26:51Z</time>
      </trkpt>
      <trkpt lat="43.83188" lon="4.19215">
        <ele>124.14733886719</ele>
        <time>2011-05-01T08:26:54Z</time>
      </trkpt>
      <trkpt lat="43.83179" lon="4.19232">
        <ele>125.10876464844</ele>
        <time>2011-05-01T08:26:58Z</time>
      </trkpt>
      <trkpt lat="43.83165" lon="4.19249">
        <ele>125.10876464844</ele>
        <time>2011-05-01T08:27:02Z</time>
      </trkpt>
      <trkpt lat="43.83151" lon="4.19262">
        <ele>124.14733886719</ele>
        <time>2011-05-01T08:27:07Z</time>
      </trkpt>
      <trkpt lat="43.83122" lon="4.19272">
        <ele>123.18615722656</ele>
        <time>2011-05-01T08:27:14Z</time>
      </trkpt>
      <trkpt lat="43.83102" lon="4.19204">
        <ele>123.66674804688</ele>
        <time>2011-05-01T08:27:20Z</time>
      </trkpt>
      <trkpt lat="43.83088" lon="4.19202">
        <ele>124.62805175781</ele>
        <time>2011-05-01T08:27:26Z</time>
      </trkpt>
      <trkpt lat="43.83081" lon="4.19209">
        <ele>123.18615722656</ele>
        <time>2011-05-01T08:27:30Z</time>
      </trkpt>
      <trkpt lat="43.83079" lon="4.19222">
        <ele>119.3408203125</ele>
        <time>2011-05-01T08:27:35Z</time>
      </trkpt>
      <trkpt lat="43.83071" lon="4.19229">
        <ele>117.89880371094</ele>
        <time>2011-05-01T08:27:40Z</time>
      </trkpt>
      <trkpt lat="43.83062" lon="4.19239">
        <ele>113.57299804688</ele>
        <time>2011-05-01T08:27:45Z</time>
      </trkpt>
      <trkpt lat="43.8305" lon="4.19248">
        <ele>110.68884277344</ele>
        <time>2011-05-01T08:27:50Z</time>
      </trkpt>
      <trkpt lat="43.83038" lon="4.19247">
        <ele>109.24694824219</ele>
        <time>2011-05-01T08:27:58Z</time>
      </trkpt>
      <trkpt lat="43.83029" lon="4.19256">
        <ele>107.80505371094</ele>
        <time>2011-05-01T08:28:02Z</time>
      </trkpt>
      <trkpt lat="43.83017" lon="4.19258">
        <ele>105.88244628906</ele>
        <time>2011-05-01T08:28:06Z</time>
      </trkpt>
      <trkpt lat="43.83007" lon="4.19262">
        <ele>105.40173339844</ele>
        <time>2011-05-01T08:28:14Z</time>
      </trkpt>
      <trkpt lat="43.83017" lon="4.19268">
        <ele>102.99829101562</ele>
        <time>2011-05-01T08:28:18Z</time>
      </trkpt>
      <trkpt lat="43.83024" lon="4.19273">
        <ele>103.95971679688</ele>
        <time>2011-05-01T08:28:21Z</time>
      </trkpt>
      <trkpt lat="43.83031" lon="4.19277">
        <ele>102.99829101562</ele>
        <time>2011-05-01T08:28:27Z</time>
      </trkpt>
      <trkpt lat="43.83042" lon="4.19278">
        <ele>103.95971679688</ele>
        <time>2011-05-01T08:28:32Z</time>
      </trkpt>
      <trkpt lat="43.83053" lon="4.19276">
        <ele>102.99829101562</ele>
        <time>2011-05-01T08:28:35Z</time>
      </trkpt>
      <trkpt lat="43.83062" lon="4.19274">
        <ele>104.92102050781</ele>
        <time>2011-05-01T08:28:39Z</time>
      </trkpt>
      <trkpt lat="43.83071" lon="4.19273">
        <ele>103.95971679688</ele>
        <time>2011-05-01T08:28:42Z</time>
      </trkpt>
      <trkpt lat="43.8308" lon="4.19272">
        <ele>103.95971679688</ele>
        <time>2011-05-01T08:28:45Z</time>
      </trkpt>
      <trkpt lat="43.83088" lon="4.19279">
        <ele>103.95971679688</ele>
        <time>2011-05-01T08:28:49Z</time>
      </trkpt>
      <trkpt lat="43.83098" lon="4.19275">
        <ele>103.47900390625</ele>
        <time>2011-05-01T08:28:53Z</time>
      </trkpt>
      <trkpt lat="43.83108" lon="4.19272">
        <ele>105.40173339844</ele>
        <time>2011-05-01T08:29:03Z</time>
      </trkpt>
      <trkpt lat="43.83118" lon="4.19271">
        <ele>103.95971679688</ele>
        <time>2011-05-01T08:29:06Z</time>
      </trkpt>
      <trkpt lat="43.83127" lon="4.19274">
        <ele>106.36303710938</ele>
        <time>2011-05-01T08:29:10Z</time>
      </trkpt>
      <trkpt lat="43.83138" lon="4.19276">
        <ele>106.84362792969</ele>
        <time>2011-05-01T08:29:14Z</time>
      </trkpt>
      <trkpt lat="43.8315" lon="4.19277">
        <ele>106.84362792969</ele>
        <time>2011-05-01T08:29:18Z</time>
      </trkpt>
      <trkpt lat="43.83161" lon="4.1928">
        <ele>106.36303710938</ele>
        <time>2011-05-01T08:29:21Z</time>
      </trkpt>
      <trkpt lat="43.83159" lon="4.19254">
        <ele>105.88244628906</ele>
        <time>2011-05-01T08:29:24Z</time>
      </trkpt>
      <trkpt lat="43.83168" lon="4.19245">
        <ele>104.92102050781</ele>
        <time>2011-05-01T08:29:28Z</time>
      </trkpt>
      <trkpt lat="43.83175" lon="4.19237">
        <ele>104.92102050781</ele>
        <time>2011-05-01T08:29:31Z</time>
      </trkpt>
      <trkpt lat="43.83179" lon="4.19231">
        <ele>105.88244628906</ele>
        <time>2011-05-01T08:29:40Z</time>
      </trkpt>
      <trkpt lat="43.83179" lon="4.19231">
        <ele>108.28564453125</ele>
        <time>2011-05-01T08:29:54Z</time>
      </trkpt>
      <trkpt lat="43.83188" lon="4.19215">
        <ele>108.76623535156</ele>
        <time>2011-05-01T08:30:06Z</time>
      </trkpt>
      <trkpt lat="43.83191" lon="4.1921">
        <ele>108.76623535156</ele>
        <time>2011-05-01T08:30:11Z</time>
      </trkpt>
      <trkpt lat="43.83233" lon="4.19242">
        <ele>109.24694824219</ele>
        <time>2011-05-01T08:30:16Z</time>
      </trkpt>
      <trkpt lat="43.83237" lon="4.19228">
        <ele>110.68884277344</ele>
        <time>2011-05-01T08:30:21Z</time>
      </trkpt>
      <trkpt lat="43.83241" lon="4.19217">
        <ele>111.16955566406</ele>
        <time>2011-05-01T08:30:25Z</time>
      </trkpt>
      <trkpt lat="43.83244" lon="4.19204">
        <ele>111.65026855469</ele>
        <time>2011-05-01T08:30:28Z</time>
      </trkpt>
      <trkpt lat="43.83245" lon="4.19192">
        <ele>113.57299804688</ele>
        <time>2011-05-01T08:30:33Z</time>
      </trkpt>
      <trkpt lat="43.83252" lon="4.19181">
        <ele>112.61157226562</ele>
        <time>2011-05-01T08:30:37Z</time>
      </trkpt>
      <trkpt lat="43.83263" lon="4.19173">
        <ele>112.61157226562</ele>
        <time>2011-05-01T08:30:43Z</time>
      </trkpt>
      <trkpt lat="43.83272" lon="4.19163">
        <ele>112.13098144531</ele>
        <time>2011-05-01T08:30:47Z</time>
      </trkpt>
      <trkpt lat="43.8328" lon="4.19158">
        <ele>111.16955566406</ele>
        <time>2011-05-01T08:30:50Z</time>
      </trkpt>
      <trkpt lat="43.83292" lon="4.19154">
        <ele>111.65026855469</ele>
        <time>2011-05-01T08:30:58Z</time>
      </trkpt>
      <trkpt lat="43.833" lon="4.1916">
        <ele>111.16955566406</ele>
        <time>2011-05-01T08:31:02Z</time>
      </trkpt>
      <trkpt lat="43.83311" lon="4.19157">
        <ele>112.13098144531</ele>
        <time>2011-05-01T08:31:06Z</time>
      </trkpt>
      <trkpt lat="43.83319" lon="4.19148">
        <ele>112.61157226562</ele>
        <time>2011-05-01T08:31:10Z</time>
      </trkpt>
      <trkpt lat="43.83319" lon="4.19137">
        <ele>113.57299804688</ele>
        <time>2011-05-01T08:31:14Z</time>
      </trkpt>
      <trkpt lat="43.83329" lon="4.19132">
        <ele>113.57299804688</ele>
        <time>2011-05-01T08:31:18Z</time>
      </trkpt>
      <trkpt lat="43.83338" lon="4.19122">
        <ele>115.49560546875</ele>
        <time>2011-05-01T08:31:23Z</time>
      </trkpt>
      <trkpt lat="43.83341" lon="4.19111">
        <ele>115.97619628906</ele>
        <time>2011-05-01T08:31:28Z</time>
      </trkpt>
      <trkpt lat="43.83345" lon="4.19099">
        <ele>117.41821289062</ele>
        <time>2011-05-01T08:31:34Z</time>
      </trkpt>
      <trkpt lat="43.83345" lon="4.19084">
        <ele>117.89880371094</ele>
        <time>2011-05-01T08:31:39Z</time>
      </trkpt>
      <trkpt lat="43.83343" lon="4.19071">
        <ele>118.37939453125</ele>
        <time>2011-05-01T08:31:43Z</time>
      </trkpt>
      <trkpt lat="43.83346" lon="4.19061">
        <ele>118.86010742188</ele>
        <time>2011-05-01T08:31:47Z</time>
      </trkpt>
      <trkpt lat="43.83345" lon="4.19047">
        <ele>119.82141113281</ele>
        <time>2011-05-01T08:31:52Z</time>
      </trkpt>
      <trkpt lat="43.83339" lon="4.19038">
        <ele>120.30212402344</ele>
        <time>2011-05-01T08:31:56Z</time>
      </trkpt>
      <trkpt lat="43.83332" lon="4.1903">
        <ele>120.78283691406</ele>
        <time>2011-05-01T08:32:00Z</time>
      </trkpt>
      <trkpt lat="43.83333" lon="4.19017">
        <ele>122.22473144531</ele>
        <time>2011-05-01T08:32:05Z</time>
      </trkpt>
      <trkpt lat="43.83331" lon="4.19007">
        <ele>122.70544433594</ele>
        <time>2011-05-01T08:32:10Z</time>
      </trkpt>
      <trkpt lat="43.83323" lon="4.19004">
        <ele>123.18615722656</ele>
        <time>2011-05-01T08:32:14Z</time>
      </trkpt>
      <trkpt lat="43.83313" lon="4.19008">
        <ele>123.66674804688</ele>
        <time>2011-05-01T08:32:18Z</time>
      </trkpt>
      <trkpt lat="43.83305" lon="4.19018">
        <ele>123.18615722656</ele>
        <time>2011-05-01T08:32:23Z</time>
      </trkpt>
      <trkpt lat="43.833" lon="4.19008">
        <ele>124.62805175781</ele>
        <time>2011-05-01T08:32:28Z</time>
      </trkpt>
      <trkpt lat="43.83296" lon="4.18996">
        <ele>126.06994628906</ele>
        <time>2011-05-01T08:32:34Z</time>
      </trkpt>
      <trkpt lat="43.83294" lon="4.18983">
        <ele>127.99255371094</ele>
        <time>2011-05-01T08:32:45Z</time>
      </trkpt>
      <trkpt lat="43.83292" lon="4.18972">
        <ele>129.43469238281</ele>
        <time>2011-05-01T08:32:54Z</time>
      </trkpt>
      <trkpt lat="43.83297" lon="4.18958">
        <ele>130.39599609375</ele>
        <time>2011-05-01T08:33:00Z</time>
      </trkpt>
      <trkpt lat="43.83303" lon="4.18945">
        <ele>131.35729980469</ele>
        <time>2011-05-01T08:33:05Z</time>
      </trkpt>
      <trkpt lat="43.83312" lon="4.18936">
        <ele>130.87670898438</ele>
        <time>2011-05-01T08:33:09Z</time>
      </trkpt>
      <trkpt lat="43.83319" lon="4.18927">
        <ele>130.87670898438</ele>
        <time>2011-05-01T08:33:12Z</time>
      </trkpt>
      <trkpt lat="43.83328" lon="4.1892">
        <ele>130.87670898438</ele>
        <time>2011-05-01T08:33:15Z</time>
      </trkpt>
      <trkpt lat="43.83338" lon="4.18914">
        <ele>131.35729980469</ele>
        <time>2011-05-01T08:33:18Z</time>
      </trkpt>
      <trkpt lat="43.83346" lon="4.18907">
        <ele>131.35729980469</ele>
        <time>2011-05-01T08:33:21Z</time>
      </trkpt>
      <trkpt lat="43.83356" lon="4.18897">
        <ele>131.837890625</ele>
        <time>2011-05-01T08:33:25Z</time>
      </trkpt>
      <trkpt lat="43.83367" lon="4.18892">
        <ele>132.79931640625</ele>
        <time>2011-05-01T08:33:30Z</time>
      </trkpt>
      <trkpt lat="43.83364" lon="4.18884">
        <ele>134.2412109375</ele>
        <time>2011-05-01T08:33:35Z</time>
      </trkpt>
      <trkpt lat="43.83361" lon="4.18871">
        <ele>132.31860351562</ele>
        <time>2011-05-01T08:33:40Z</time>
      </trkpt>
      <trkpt lat="43.83361" lon="4.18858">
        <ele>131.35729980469</ele>
        <time>2011-05-01T08:33:45Z</time>
      </trkpt>
      <trkpt lat="43.83371" lon="4.18851">
        <ele>133.76049804688</ele>
        <time>2011-05-01T08:33:51Z</time>
      </trkpt>
      <trkpt lat="43.83376" lon="4.18859">
        <ele>134.72192382812</ele>
        <time>2011-05-01T08:33:56Z</time>
      </trkpt>
      <trkpt lat="43.83384" lon="4.18865">
        <ele>135.68310546875</ele>
        <time>2011-05-01T08:34:01Z</time>
      </trkpt>
      <trkpt lat="43.83387" lon="4.18877">
        <ele>136.64465332031</ele>
        <time>2011-05-01T08:34:06Z</time>
      </trkpt>
      <trkpt lat="43.83394" lon="4.18884">
        <ele>137.12524414062</ele>
        <time>2011-05-01T08:34:11Z</time>
      </trkpt>
      <trkpt lat="43.83403" lon="4.18875">
        <ele>139.0478515625</ele>
        <time>2011-05-01T08:34:20Z</time>
      </trkpt>
      <trkpt lat="43.83411" lon="4.18866">
        <ele>140.48986816406</ele>
        <time>2011-05-01T08:34:26Z</time>
      </trkpt>
      <trkpt lat="43.83413" lon="4.18855">
        <ele>140.97045898438</ele>
        <time>2011-05-01T08:34:32Z</time>
      </trkpt>
      <trkpt lat="43.8342" lon="4.18847">
        <ele>141.93176269531</ele>
        <time>2011-05-01T08:34:37Z</time>
      </trkpt>
      <trkpt lat="43.83425" lon="4.18837">
        <ele>142.89306640625</ele>
        <time>2011-05-01T08:34:43Z</time>
      </trkpt>
      <trkpt lat="43.83431" lon="4.18827">
        <ele>144.81579589844</ele>
        <time>2011-05-01T08:34:49Z</time>
      </trkpt>
      <trkpt lat="43.8343" lon="4.18812">
        <ele>142.41247558594</ele>
        <time>2011-05-01T08:34:54Z</time>
      </trkpt>
      <trkpt lat="43.83429" lon="4.18796">
        <ele>141.93176269531</ele>
        <time>2011-05-01T08:34:59Z</time>
      </trkpt>
      <trkpt lat="43.8343" lon="4.18783">
        <ele>140.97045898438</ele>
        <time>2011-05-01T08:35:03Z</time>
      </trkpt>
      <trkpt lat="43.83426" lon="4.18766">
        <ele>140.97045898438</ele>
        <time>2011-05-01T08:35:08Z</time>
      </trkpt>
      <trkpt lat="43.83419" lon="4.18752">
        <ele>138.08654785156</ele>
        <time>2011-05-01T08:35:20Z</time>
      </trkpt>
      <trkpt lat="43.83423" lon="4.18736">
        <ele>138.56726074219</ele>
        <time>2011-05-01T08:35:27Z</time>
      </trkpt>
      <trkpt lat="43.8343" lon="4.1874">
        <ele>140.48986816406</ele>
        <time>2011-05-01T08:35:35Z</time>
      </trkpt>
      <trkpt lat="43.83433" lon="4.18752">
        <ele>140.97045898438</ele>
        <time>2011-05-01T08:35:41Z</time>
      </trkpt>
      <trkpt lat="43.8344" lon="4.1876">
        <ele>144.33520507812</ele>
        <time>2011-05-01T08:35:57Z</time>
      </trkpt>
      <trkpt lat="43.83442" lon="4.18773">
        <ele>144.81579589844</ele>
        <time>2011-05-01T08:36:12Z</time>
      </trkpt>
      <trkpt lat="43.83447" lon="4.18785">
        <ele>145.77709960938</ele>
        <time>2011-05-01T08:36:18Z</time>
      </trkpt>
      <trkpt lat="43.83451" lon="4.18798">
        <ele>147.69970703125</ele>
        <time>2011-05-01T08:36:25Z</time>
      </trkpt>
      <trkpt lat="43.83454" lon="4.1881">
        <ele>149.1416015625</ele>
        <time>2011-05-01T08:36:33Z</time>
      </trkpt>
      <trkpt lat="43.83461" lon="4.18812">
        <ele>150.58361816406</ele>
        <time>2011-05-01T08:36:39Z</time>
      </trkpt>
      <trkpt lat="43.83464" lon="4.18799">
        <ele>151.06420898438</ele>
        <time>2011-05-01T08:36:46Z</time>
      </trkpt>
      <trkpt lat="43.83466" lon="4.18787">
        <ele>152.98693847656</ele>
        <time>2011-05-01T08:36:53Z</time>
      </trkpt>
      <trkpt lat="43.83471" lon="4.18773">
        <ele>154.42895507812</ele>
        <time>2011-05-01T08:37:00Z</time>
      </trkpt>
      <trkpt lat="43.8347" lon="4.1876">
        <ele>154.90954589844</ele>
        <time>2011-05-01T08:37:07Z</time>
      </trkpt>
      <trkpt lat="43.83471" lon="4.18746">
        <ele>156.83215332031</ele>
        <time>2011-05-01T08:37:14Z</time>
      </trkpt>
      <trkpt lat="43.83472" lon="4.18733">
        <ele>157.79357910156</ele>
        <time>2011-05-01T08:37:21Z</time>
      </trkpt>
      <trkpt lat="43.83475" lon="4.18719">
        <ele>159.23547363281</ele>
        <time>2011-05-01T08:37:28Z</time>
      </trkpt>
      <trkpt lat="43.83479" lon="4.18709">
        <ele>161.158203125</ele>
        <time>2011-05-01T08:37:36Z</time>
      </trkpt>
      <trkpt lat="43.83484" lon="4.18696">
        <ele>162.60009765625</ele>
        <time>2011-05-01T08:38:03Z</time>
      </trkpt>
      <trkpt lat="43.83486" lon="4.18682">
        <ele>164.52270507812</ele>
        <time>2011-05-01T08:38:12Z</time>
      </trkpt>
      <trkpt lat="43.83491" lon="4.18671">
        <ele>165.48413085938</ele>
        <time>2011-05-01T08:38:20Z</time>
      </trkpt>
      <trkpt lat="43.83493" lon="4.18659">
        <ele>166.92602539062</ele>
        <time>2011-05-01T08:38:28Z</time>
      </trkpt>
      <trkpt lat="43.83497" lon="4.18648">
        <ele>167.88732910156</ele>
        <time>2011-05-01T08:38:35Z</time>
      </trkpt>
      <trkpt lat="43.83503" lon="4.18638">
        <ele>169.32946777344</ele>
        <time>2011-05-01T08:38:41Z</time>
      </trkpt>
      <trkpt lat="43.83508" lon="4.18627">
        <ele>170.29064941406</ele>
        <time>2011-05-01T08:38:47Z</time>
      </trkpt>
      <trkpt lat="43.83514" lon="4.18615">
        <ele>170.77136230469</ele>
        <time>2011-05-01T08:38:53Z</time>
      </trkpt>
      <trkpt lat="43.83521" lon="4.18606">
        <ele>172.21325683594</ele>
        <time>2011-05-01T08:38:59Z</time>
      </trkpt>
      <trkpt lat="43.83529" lon="4.186">
        <ele>173.17468261719</ele>
        <time>2011-05-01T08:39:05Z</time>
      </trkpt>
      <trkpt lat="43.83539" lon="4.186">
        <ele>174.61657714844</ele>
        <time>2011-05-01T08:39:11Z</time>
      </trkpt>
      <trkpt lat="43.83546" lon="4.18607">
        <ele>175.57788085938</ele>
        <time>2011-05-01T08:39:17Z</time>
      </trkpt>
      <trkpt lat="43.8355" lon="4.18617">
        <ele>177.02001953125</ele>
        <time>2011-05-01T08:39:23Z</time>
      </trkpt>
      <trkpt lat="43.83553" lon="4.1863">
        <ele>177.98120117188</ele>
        <time>2011-05-01T08:39:29Z</time>
      </trkpt>
      <trkpt lat="43.83553" lon="4.18644">
        <ele>179.42321777344</ele>
        <time>2011-05-01T08:39:35Z</time>
      </trkpt>
      <trkpt lat="43.83558" lon="4.18655">
        <ele>180.38452148438</ele>
        <time>2011-05-01T08:39:40Z</time>
      </trkpt>
      <trkpt lat="43.83562" lon="4.18667">
        <ele>181.34582519531</ele>
        <time>2011-05-01T08:39:46Z</time>
      </trkpt>
      <trkpt lat="43.83561" lon="4.18679">
        <ele>182.78784179688</ele>
        <time>2011-05-01T08:39:52Z</time>
      </trkpt>
      <trkpt lat="43.83555" lon="4.18688">
        <ele>183.7490234375</ele>
        <time>2011-05-01T08:40:00Z</time>
      </trkpt>
      <trkpt lat="43.83558" lon="4.18698">
        <ele>184.22985839844</ele>
        <time>2011-05-01T08:40:50Z</time>
      </trkpt>
      <trkpt lat="43.83563" lon="4.18708">
        <ele>183.26843261719</ele>
        <time>2011-05-01T08:40:57Z</time>
      </trkpt>
      <trkpt lat="43.83569" lon="4.18719">
        <ele>182.30712890625</ele>
        <time>2011-05-01T08:41:02Z</time>
      </trkpt>
      <trkpt lat="43.8357" lon="4.1873">
        <ele>182.30712890625</ele>
        <time>2011-05-01T08:41:08Z</time>
      </trkpt>
      <trkpt lat="43.8357" lon="4.18744">
        <ele>183.26843261719</ele>
        <time>2011-05-01T08:41:15Z</time>
      </trkpt>
      <trkpt lat="43.83569" lon="4.18759">
        <ele>184.71057128906</ele>
        <time>2011-05-01T08:41:21Z</time>
      </trkpt>
      <trkpt lat="43.83576" lon="4.18768">
        <ele>183.26843261719</ele>
        <time>2011-05-01T08:41:25Z</time>
      </trkpt>
      <trkpt lat="43.83575" lon="4.18777">
        <ele>184.22985839844</ele>
        <time>2011-05-01T08:41:31Z</time>
      </trkpt>
      <trkpt lat="43.83567" lon="4.18782">
        <ele>186.15246582031</ele>
        <time>2011-05-01T08:41:38Z</time>
      </trkpt>
      <trkpt lat="43.83565" lon="4.18795">
        <ele>186.15246582031</ele>
        <time>2011-05-01T08:42:03Z</time>
      </trkpt>
      <trkpt lat="43.83569" lon="4.18808">
        <ele>185.19116210938</ele>
        <time>2011-05-01T08:42:07Z</time>
      </trkpt>
      <trkpt lat="43.83573" lon="4.18823">
        <ele>185.67175292969</ele>
        <time>2011-05-01T08:42:13Z</time>
      </trkpt>
      <trkpt lat="43.83581" lon="4.18825">
        <ele>186.15246582031</ele>
        <time>2011-05-01T08:42:19Z</time>
      </trkpt>
      <trkpt lat="43.83581" lon="4.18838">
        <ele>187.59436035156</ele>
        <time>2011-05-01T08:42:26Z</time>
      </trkpt>
      <trkpt lat="43.8358" lon="4.18853">
        <ele>188.07507324219</ele>
        <time>2011-05-01T08:42:32Z</time>
      </trkpt>
      <trkpt lat="43.83585" lon="4.18865">
        <ele>188.07507324219</ele>
        <time>2011-05-01T08:42:37Z</time>
      </trkpt>
      <trkpt lat="43.83587" lon="4.18877">
        <ele>189.03637695312</ele>
        <time>2011-05-01T08:42:42Z</time>
      </trkpt>
      <trkpt lat="43.8359" lon="4.18889">
        <ele>189.03637695312</ele>
        <time>2011-05-01T08:42:46Z</time>
      </trkpt>
      <trkpt lat="43.83598" lon="4.18899">
        <ele>188.55578613281</ele>
        <time>2011-05-01T08:42:50Z</time>
      </trkpt>
      <trkpt lat="43.83607" lon="4.18908">
        <ele>188.07507324219</ele>
        <time>2011-05-01T08:42:54Z</time>
      </trkpt>
      <trkpt lat="43.83616" lon="4.18917">
        <ele>188.07507324219</ele>
        <time>2011-05-01T08:42:58Z</time>
      </trkpt>
      <trkpt lat="43.83623" lon="4.18926">
        <ele>189.03637695312</ele>
        <time>2011-05-01T08:43:01Z</time>
      </trkpt>
      <trkpt lat="43.83631" lon="4.18934">
        <ele>189.03637695312</ele>
        <time>2011-05-01T08:43:04Z</time>
      </trkpt>
      <trkpt lat="43.83637" lon="4.18945">
        <ele>189.51696777344</ele>
        <time>2011-05-01T08:43:07Z</time>
      </trkpt>
      <trkpt lat="43.83644" lon="4.18954">
        <ele>189.99768066406</ele>
        <time>2011-05-01T08:43:10Z</time>
      </trkpt>
      <trkpt lat="43.83652" lon="4.18963">
        <ele>189.99768066406</ele>
        <time>2011-05-01T08:43:13Z</time>
      </trkpt>
      <trkpt lat="43.8366" lon="4.18972">
        <ele>190.47839355469</ele>
        <time>2011-05-01T08:43:16Z</time>
      </trkpt>
      <trkpt lat="43.8367" lon="4.18979">
        <ele>190.958984375</ele>
        <time>2011-05-01T08:43:20Z</time>
      </trkpt>
      <trkpt lat="43.83678" lon="4.18987">
        <ele>191.43957519531</ele>
        <time>2011-05-01T08:43:24Z</time>
      </trkpt>
      <trkpt lat="43.83688" lon="4.18989">
        <ele>192.88171386719</ele>
        <time>2011-05-01T08:43:29Z</time>
      </trkpt>
      <trkpt lat="43.83697" lon="4.18988">
        <ele>192.88171386719</ele>
        <time>2011-05-01T08:43:33Z</time>
      </trkpt>
      <trkpt lat="43.83708" lon="4.18987">
        <ele>192.40112304688</ele>
        <time>2011-05-01T08:43:37Z</time>
      </trkpt>
      <trkpt lat="43.83715" lon="4.18977">
        <ele>193.3623046875</ele>
        <time>2011-05-01T08:43:41Z</time>
      </trkpt>
      <trkpt lat="43.8372" lon="4.18968">
        <ele>193.84301757812</ele>
        <time>2011-05-01T08:43:44Z</time>
      </trkpt>
      <trkpt lat="43.83727" lon="4.18957">
        <ele>194.80432128906</ele>
        <time>2011-05-01T08:43:47Z</time>
      </trkpt>
      <trkpt lat="43.83735" lon="4.18948">
        <ele>194.32373046875</ele>
        <time>2011-05-01T08:43:50Z</time>
      </trkpt>
      <trkpt lat="43.83743" lon="4.1894">
        <ele>194.32373046875</ele>
        <time>2011-05-01T08:43:53Z</time>
      </trkpt>
      <trkpt lat="43.83749" lon="4.18929">
        <ele>194.80432128906</ele>
        <time>2011-05-01T08:43:56Z</time>
      </trkpt>
      <trkpt lat="43.83756" lon="4.18918">
        <ele>194.80432128906</ele>
        <time>2011-05-01T08:43:59Z</time>
      </trkpt>
      <trkpt lat="43.83762" lon="4.18906">
        <ele>194.80432128906</ele>
        <time>2011-05-01T08:44:02Z</time>
      </trkpt>
      <trkpt lat="43.83768" lon="4.18892">
        <ele>195.28491210938</ele>
        <time>2011-05-01T08:44:05Z</time>
      </trkpt>
      <trkpt lat="43.83776" lon="4.18879">
        <ele>194.80432128906</ele>
        <time>2011-05-01T08:44:08Z</time>
      </trkpt>
      <trkpt lat="43.83783" lon="4.18866">
        <ele>195.28491210938</ele>
        <time>2011-05-01T08:44:11Z</time>
      </trkpt>
      <trkpt lat="43.83791" lon="4.18854">
        <ele>195.28491210938</ele>
        <time>2011-05-01T08:44:14Z</time>
      </trkpt>
      <trkpt lat="43.83798" lon="4.18842">
        <ele>195.28491210938</ele>
        <time>2011-05-01T08:44:17Z</time>
      </trkpt>
      <trkpt lat="43.83806" lon="4.18829">
        <ele>194.80432128906</ele>
        <time>2011-05-01T08:44:20Z</time>
      </trkpt>
      <trkpt lat="43.83813" lon="4.18816">
        <ele>195.28491210938</ele>
        <time>2011-05-01T08:44:23Z</time>
      </trkpt>
      <trkpt lat="43.83821" lon="4.18804">
        <ele>195.28491210938</ele>
        <time>2011-05-01T08:44:26Z</time>
      </trkpt>
      <trkpt lat="43.83829" lon="4.18794">
        <ele>195.28491210938</ele>
        <time>2011-05-01T08:44:29Z</time>
      </trkpt>
      <trkpt lat="43.83836" lon="4.18784">
        <ele>194.80432128906</ele>
        <time>2011-05-01T08:44:32Z</time>
      </trkpt>
      <trkpt lat="43.83843" lon="4.18773">
        <ele>195.28491210938</ele>
        <time>2011-05-01T08:44:36Z</time>
      </trkpt>
      <trkpt lat="43.83847" lon="4.18777">
        <ele>195.765625</ele>
        <time>2011-05-01T08:44:49Z</time>
      </trkpt>
      <trkpt lat="43.83853" lon="4.18779">
        <ele>194.80432128906</ele>
        <time>2011-05-01T08:58:33Z</time>
      </trkpt>
      <trkpt lat="43.83846" lon="4.18777">
        <ele>193.84301757812</ele>
        <time>2011-05-01T08:58:46Z</time>
      </trkpt>
      <trkpt lat="43.83845" lon="4.18761">
        <ele>192.40112304688</ele>
        <time>2011-05-01T08:58:49Z</time>
      </trkpt>
      <trkpt lat="43.83849" lon="4.1875">
        <ele>193.3623046875</ele>
        <time>2011-05-01T08:58:52Z</time>
      </trkpt>
      <trkpt lat="43.83837" lon="4.18732">
        <ele>193.3623046875</ele>
        <time>2011-05-01T08:58:55Z</time>
      </trkpt>
      <trkpt lat="43.83833" lon="4.18716">
        <ele>192.88171386719</ele>
        <time>2011-05-01T08:58:58Z</time>
      </trkpt>
      <trkpt lat="43.83831" lon="4.18699">
        <ele>192.88171386719</ele>
        <time>2011-05-01T08:59:01Z</time>
      </trkpt>
      <trkpt lat="43.83827" lon="4.18682">
        <ele>192.88171386719</ele>
        <time>2011-05-01T08:59:04Z</time>
      </trkpt>
      <trkpt lat="43.83825" lon="4.18664">
        <ele>192.40112304688</ele>
        <time>2011-05-01T08:59:07Z</time>
      </trkpt>
      <trkpt lat="43.83823" lon="4.18645">
        <ele>192.40112304688</ele>
        <time>2011-05-01T08:59:10Z</time>
      </trkpt>
      <trkpt lat="43.8382" lon="4.18632">
        <ele>192.40112304688</ele>
        <time>2011-05-01T08:59:12Z</time>
      </trkpt>
      <trkpt lat="43.83817" lon="4.18619">
        <ele>190.958984375</ele>
        <time>2011-05-01T08:59:14Z</time>
      </trkpt>
      <trkpt lat="43.83811" lon="4.18607">
        <ele>190.958984375</ele>
        <time>2011-05-01T08:59:16Z</time>
      </trkpt>
      <trkpt lat="43.83804" lon="4.18596">
        <ele>190.958984375</ele>
        <time>2011-05-01T08:59:18Z</time>
      </trkpt>
      <trkpt lat="43.83797" lon="4.18584">
        <ele>190.47839355469</ele>
        <time>2011-05-01T08:59:20Z</time>
      </trkpt>
      <trkpt lat="43.8379" lon="4.18571">
        <ele>189.99768066406</ele>
        <time>2011-05-01T08:59:22Z</time>
      </trkpt>
      <trkpt lat="43.83782" lon="4.18558">
        <ele>189.51696777344</ele>
        <time>2011-05-01T08:59:24Z</time>
      </trkpt>
      <trkpt lat="43.8378" lon="4.18553">
        <ele>189.51696777344</ele>
        <time>2011-05-01T08:59:31Z</time>
      </trkpt>
      <trkpt lat="43.83771" lon="4.18567">
        <ele>189.03637695312</ele>
        <time>2011-05-01T08:59:37Z</time>
      </trkpt>
      <trkpt lat="43.83762" lon="4.18578">
        <ele>189.99768066406</ele>
        <time>2011-05-01T08:59:43Z</time>
      </trkpt>
      <trkpt lat="43.83756" lon="4.18588">
        <ele>189.03637695312</ele>
        <time>2011-05-01T08:59:47Z</time>
      </trkpt>
      <trkpt lat="43.83747" lon="4.18596">
        <ele>189.51696777344</ele>
        <time>2011-05-01T08:59:51Z</time>
      </trkpt>
      <trkpt lat="43.83739" lon="4.186">
        <ele>188.07507324219</ele>
        <time>2011-05-01T08:59:56Z</time>
      </trkpt>
      <trkpt lat="43.83732" lon="4.1859">
        <ele>188.07507324219</ele>
        <time>2011-05-01T09:00:01Z</time>
      </trkpt>
      <trkpt lat="43.83727" lon="4.18574">
        <ele>189.51696777344</ele>
        <time>2011-05-01T09:00:06Z</time>
      </trkpt>
      <trkpt lat="43.83722" lon="4.1856">
        <ele>188.55578613281</ele>
        <time>2011-05-01T09:00:11Z</time>
      </trkpt>
      <trkpt lat="43.83719" lon="4.18547">
        <ele>188.07507324219</ele>
        <time>2011-05-01T09:00:15Z</time>
      </trkpt>
      <trkpt lat="43.83718" lon="4.18533">
        <ele>188.07507324219</ele>
        <time>2011-05-01T09:00:19Z</time>
      </trkpt>
      <trkpt lat="43.83713" lon="4.18521">
        <ele>188.55578613281</ele>
        <time>2011-05-01T09:00:23Z</time>
      </trkpt>
      <trkpt lat="43.83711" lon="4.18506">
        <ele>188.07507324219</ele>
        <time>2011-05-01T09:00:27Z</time>
      </trkpt>
      <trkpt lat="43.83711" lon="4.18494">
        <ele>187.59436035156</ele>
        <time>2011-05-01T09:00:31Z</time>
      </trkpt>
      <trkpt lat="43.83712" lon="4.18481">
        <ele>187.11376953125</ele>
        <time>2011-05-01T09:00:34Z</time>
      </trkpt>
      <trkpt lat="43.83711" lon="4.18466">
        <ele>186.15246582031</ele>
        <time>2011-05-01T09:00:38Z</time>
      </trkpt>
      <trkpt lat="43.8371" lon="4.18454">
        <ele>185.19116210938</ele>
        <time>2011-05-01T09:00:42Z</time>
      </trkpt>
      <trkpt lat="43.83711" lon="4.18439">
        <ele>184.71057128906</ele>
        <time>2011-05-01T09:00:45Z</time>
      </trkpt>
      <trkpt lat="43.83712" lon="4.18424">
        <ele>181.34582519531</ele>
        <time>2011-05-01T09:00:48Z</time>
      </trkpt>
      <trkpt lat="43.83717" lon="4.18407">
        <ele>180.865234375</ele>
        <time>2011-05-01T09:00:51Z</time>
      </trkpt>
      <trkpt lat="43.83723" lon="4.18395">
        <ele>180.38452148438</ele>
        <time>2011-05-01T09:00:54Z</time>
      </trkpt>
      <trkpt lat="43.8372" lon="4.18381">
        <ele>178.4619140625</ele>
        <time>2011-05-01T09:00:57Z</time>
      </trkpt>
      <trkpt lat="43.83714" lon="4.18368">
        <ele>176.05859375</ele>
        <time>2011-05-01T09:01:02Z</time>
      </trkpt>
      <trkpt lat="43.8371" lon="4.18352">
        <ele>174.61657714844</ele>
        <time>2011-05-01T09:01:06Z</time>
      </trkpt>
      <trkpt lat="43.83701" lon="4.18341">
        <ele>170.29064941406</ele>
        <time>2011-05-01T09:01:10Z</time>
      </trkpt>
      <trkpt lat="43.83695" lon="4.18327">
        <ele>168.84875488281</ele>
        <time>2011-05-01T09:01:13Z</time>
      </trkpt>
      <trkpt lat="43.83693" lon="4.18311">
        <ele>167.40673828125</ele>
        <time>2011-05-01T09:01:16Z</time>
      </trkpt>
      <trkpt lat="43.83692" lon="4.18304">
        <ele>166.4453125</ele>
        <time>2011-05-01T09:01:33Z</time>
      </trkpt>
      <trkpt lat="43.83693" lon="4.18291">
        <ele>166.4453125</ele>
        <time>2011-05-01T09:01:42Z</time>
      </trkpt>
      <trkpt lat="43.83697" lon="4.18277">
        <ele>166.92602539062</ele>
        <time>2011-05-01T09:01:46Z</time>
      </trkpt>
      <trkpt lat="43.83697" lon="4.18262">
        <ele>165.96472167969</ele>
        <time>2011-05-01T09:01:50Z</time>
      </trkpt>
      <trkpt lat="43.83691" lon="4.1825">
        <ele>165.00341796875</ele>
        <time>2011-05-01T09:01:53Z</time>
      </trkpt>
      <trkpt lat="43.83687" lon="4.18236">
        <ele>165.48413085938</ele>
        <time>2011-05-01T09:01:56Z</time>
      </trkpt>
      <trkpt lat="43.83687" lon="4.18223">
        <ele>165.00341796875</ele>
        <time>2011-05-01T09:01:59Z</time>
      </trkpt>
      <trkpt lat="43.83679" lon="4.18213">
        <ele>163.5615234375</ele>
        <time>2011-05-01T09:02:03Z</time>
      </trkpt>
      <trkpt lat="43.83676" lon="4.18197">
        <ele>164.52270507812</ele>
        <time>2011-05-01T09:02:07Z</time>
      </trkpt>
      <trkpt lat="43.83676" lon="4.18182">
        <ele>164.52270507812</ele>
        <time>2011-05-01T09:02:11Z</time>
      </trkpt>
      <trkpt lat="43.83675" lon="4.18168">
        <ele>163.08081054688</ele>
        <time>2011-05-01T09:02:14Z</time>
      </trkpt>
      <trkpt lat="43.83663" lon="4.18163">
        <ele>162.11950683594</ele>
        <time>2011-05-01T09:02:17Z</time>
      </trkpt>
      <trkpt lat="43.83652" lon="4.18167">
        <ele>160.67749023438</ele>
        <time>2011-05-01T09:02:19Z</time>
      </trkpt>
      <trkpt lat="43.83639" lon="4.18172">
        <ele>160.67749023438</ele>
        <time>2011-05-01T09:02:22Z</time>
      </trkpt>
      <trkpt lat="43.8363" lon="4.18175">
        <ele>161.63891601562</ele>
        <time>2011-05-01T09:02:25Z</time>
      </trkpt>
      <trkpt lat="43.83624" lon="4.1818">
        <ele>161.158203125</ele>
        <time>2011-05-01T09:02:28Z</time>
      </trkpt>
      <trkpt lat="43.83624" lon="4.1818">
        <ele>160.67749023438</ele>
        <time>2011-05-01T09:02:31Z</time>
      </trkpt>
      <trkpt lat="43.83624" lon="4.1818">
        <ele>161.158203125</ele>
        <time>2011-05-01T09:02:34Z</time>
      </trkpt>
      <trkpt lat="43.83624" lon="4.1818">
        <ele>161.158203125</ele>
        <time>2011-05-01T09:02:38Z</time>
      </trkpt>
      <trkpt lat="43.83593" lon="4.18114">
        <ele>162.60009765625</ele>
        <time>2011-05-01T09:02:42Z</time>
      </trkpt>
      <trkpt lat="43.83584" lon="4.18107">
        <ele>163.5615234375</ele>
        <time>2011-05-01T09:02:46Z</time>
      </trkpt>
      <trkpt lat="43.83574" lon="4.18099">
        <ele>165.00341796875</ele>
        <time>2011-05-01T09:02:51Z</time>
      </trkpt>
      <trkpt lat="43.83567" lon="4.18092">
        <ele>165.96472167969</ele>
        <time>2011-05-01T09:02:57Z</time>
      </trkpt>
      <trkpt lat="43.83574" lon="4.18084">
        <ele>165.00341796875</ele>
        <time>2011-05-01T09:03:01Z</time>
      </trkpt>
      <trkpt lat="43.83584" lon="4.18079">
        <ele>163.08081054688</ele>
        <time>2011-05-01T09:03:05Z</time>
      </trkpt>
      <trkpt lat="43.83595" lon="4.18078">
        <ele>161.158203125</ele>
        <time>2011-05-01T09:03:08Z</time>
      </trkpt>
      <trkpt lat="43.83606" lon="4.18075">
        <ele>160.67749023438</ele>
        <time>2011-05-01T09:03:11Z</time>
      </trkpt>
      <trkpt lat="43.83608" lon="4.18063">
        <ele>159.71618652344</ele>
        <time>2011-05-01T09:03:14Z</time>
      </trkpt>
      <trkpt lat="43.83611" lon="4.18049">
        <ele>159.71618652344</ele>
        <time>2011-05-01T09:03:18Z</time>
      </trkpt>
      <trkpt lat="43.83621" lon="4.18043">
        <ele>160.19689941406</ele>
        <time>2011-05-01T09:03:22Z</time>
      </trkpt>
      <trkpt lat="43.83633" lon="4.18038">
        <ele>159.23547363281</ele>
        <time>2011-05-01T09:03:26Z</time>
      </trkpt>
      <trkpt lat="43.83642" lon="4.18044">
        <ele>158.27416992188</ele>
        <time>2011-05-01T09:03:29Z</time>
      </trkpt>
      <trkpt lat="43.8365" lon="4.18051">
        <ele>157.79357910156</ele>
        <time>2011-05-01T09:03:32Z</time>
      </trkpt>
      <trkpt lat="43.83661" lon="4.18047">
        <ele>157.31286621094</ele>
        <time>2011-05-01T09:03:36Z</time>
      </trkpt>
      <trkpt lat="43.83663" lon="4.18035">
        <ele>156.3515625</ele>
        <time>2011-05-01T09:03:39Z</time>
      </trkpt>
      <trkpt lat="43.83708" lon="4.18021">
        <ele>155.39025878906</ele>
        <time>2011-05-01T09:03:42Z</time>
      </trkpt>
      <trkpt lat="43.83674" lon="4.17998">
        <ele>154.90954589844</ele>
        <time>2011-05-01T09:03:45Z</time>
      </trkpt>
      <trkpt lat="43.83672" lon="4.17987">
        <ele>153.94836425781</ele>
        <time>2011-05-01T09:03:49Z</time>
      </trkpt>
      <trkpt lat="43.83671" lon="4.17972">
        <ele>153.46765136719</ele>
        <time>2011-05-01T09:03:52Z</time>
      </trkpt>
      <trkpt lat="43.83669" lon="4.17958">
        <ele>152.98693847656</ele>
        <time>2011-05-01T09:03:55Z</time>
      </trkpt>
      <trkpt lat="43.83664" lon="4.17945">
        <ele>152.98693847656</ele>
        <time>2011-05-01T09:03:58Z</time>
      </trkpt>
      <trkpt lat="43.83659" lon="4.17931">
        <ele>152.50634765625</ele>
        <time>2011-05-01T09:04:01Z</time>
      </trkpt>
      <trkpt lat="43.83655" lon="4.17914">
        <ele>151.06420898438</ele>
        <time>2011-05-01T09:04:04Z</time>
      </trkpt>
      <trkpt lat="43.83652" lon="4.17902">
        <ele>150.58361816406</ele>
        <time>2011-05-01T09:04:06Z</time>
      </trkpt>
      <trkpt lat="43.8365" lon="4.17889">
        <ele>149.1416015625</ele>
        <time>2011-05-01T09:04:09Z</time>
      </trkpt>
      <trkpt lat="43.8365" lon="4.17875">
        <ele>148.66101074219</ele>
        <time>2011-05-01T09:04:12Z</time>
      </trkpt>
      <trkpt lat="43.8365" lon="4.17861">
        <ele>149.1416015625</ele>
        <time>2011-05-01T09:04:15Z</time>
      </trkpt>
      <trkpt lat="43.83648" lon="4.17847">
        <ele>148.66101074219</ele>
        <time>2011-05-01T09:04:17Z</time>
      </trkpt>
      <trkpt lat="43.83643" lon="4.17835">
        <ele>147.69970703125</ele>
        <time>2011-05-01T09:04:19Z</time>
      </trkpt>
      <trkpt lat="43.83639" lon="4.17822">
        <ele>148.18041992188</ele>
        <time>2011-05-01T09:04:21Z</time>
      </trkpt>
      <trkpt lat="43.83634" lon="4.17812">
        <ele>147.69970703125</ele>
        <time>2011-05-01T09:04:23Z</time>
      </trkpt>
      <trkpt lat="43.83638" lon="4.17792">
        <ele>146.73840332031</ele>
        <time>2011-05-01T09:04:25Z</time>
      </trkpt>
      <trkpt lat="43.83643" lon="4.1778">
        <ele>146.73840332031</ele>
        <time>2011-05-01T09:04:28Z</time>
      </trkpt>
      <trkpt lat="43.83655" lon="4.17772">
        <ele>146.73840332031</ele>
        <time>2011-05-01T09:04:31Z</time>
      </trkpt>
      <trkpt lat="43.83664" lon="4.1777">
        <ele>146.2578125</ele>
        <time>2011-05-01T09:04:34Z</time>
      </trkpt>
      <trkpt lat="43.83674" lon="4.1777">
        <ele>147.21899414062</ele>
        <time>2011-05-01T09:04:37Z</time>
      </trkpt>
      <trkpt lat="43.83684" lon="4.17772">
        <ele>147.69970703125</ele>
        <time>2011-05-01T09:04:40Z</time>
      </trkpt>
      <trkpt lat="43.83694" lon="4.17776">
        <ele>148.18041992188</ele>
        <time>2011-05-01T09:04:43Z</time>
      </trkpt>
      <trkpt lat="43.83703" lon="4.17779">
        <ele>148.18041992188</ele>
        <time>2011-05-01T09:04:46Z</time>
      </trkpt>
      <trkpt lat="43.83713" lon="4.17783">
        <ele>148.18041992188</ele>
        <time>2011-05-01T09:04:49Z</time>
      </trkpt>
      <trkpt lat="43.83722" lon="4.17791">
        <ele>148.66101074219</ele>
        <time>2011-05-01T09:04:52Z</time>
      </trkpt>
      <trkpt lat="43.83729" lon="4.17799">
        <ele>147.69970703125</ele>
        <time>2011-05-01T09:04:55Z</time>
      </trkpt>
      <trkpt lat="43.83735" lon="4.17808">
        <ele>149.1416015625</ele>
        <time>2011-05-01T09:04:59Z</time>
      </trkpt>
      <trkpt lat="43.83741" lon="4.17821">
        <ele>149.62231445312</ele>
        <time>2011-05-01T09:05:03Z</time>
      </trkpt>
      <trkpt lat="43.83744" lon="4.17832">
        <ele>149.62231445312</ele>
        <time>2011-05-01T09:05:07Z</time>
      </trkpt>
      <trkpt lat="43.83747" lon="4.17844">
        <ele>150.58361816406</ele>
        <time>2011-05-01T09:05:20Z</time>
      </trkpt>
      <trkpt lat="43.83754" lon="4.17853">
        <ele>152.50634765625</ele>
        <time>2011-05-01T09:05:25Z</time>
      </trkpt>
      <trkpt lat="43.83766" lon="4.17857">
        <ele>152.50634765625</ele>
        <time>2011-05-01T09:05:29Z</time>
      </trkpt>
      <trkpt lat="43.83775" lon="4.17859">
        <ele>152.02575683594</ele>
        <time>2011-05-01T09:05:32Z</time>
      </trkpt>
      <trkpt lat="43.83783" lon="4.17864">
        <ele>151.544921875</ele>
        <time>2011-05-01T09:05:35Z</time>
      </trkpt>
      <trkpt lat="43.83793" lon="4.1786">
        <ele>151.544921875</ele>
        <time>2011-05-01T09:05:39Z</time>
      </trkpt>
      <trkpt lat="43.83803" lon="4.17854">
        <ele>152.50634765625</ele>
        <time>2011-05-01T09:05:43Z</time>
      </trkpt>
      <trkpt lat="43.83816" lon="4.1785">
        <ele>154.90954589844</ele>
        <time>2011-05-01T09:05:48Z</time>
      </trkpt>
      <trkpt lat="43.83804" lon="4.17854">
        <ele>156.3515625</ele>
        <time>2011-05-01T09:05:54Z</time>
      </trkpt>
      <trkpt lat="43.83802" lon="4.17854">
        <ele>157.79357910156</ele>
        <time>2011-05-01T09:06:01Z</time>
      </trkpt>
      <trkpt lat="43.83802" lon="4.17888">
        <ele>158.27416992188</ele>
        <time>2011-05-01T09:06:07Z</time>
      </trkpt>
      <trkpt lat="43.83802" lon="4.17854">
        <ele>160.67749023438</ele>
        <time>2011-05-01T09:06:20Z</time>
      </trkpt>
      <trkpt lat="43.83822" lon="4.17838">
        <ele>161.158203125</ele>
        <time>2011-05-01T09:06:25Z</time>
      </trkpt>
      <trkpt lat="43.83831" lon="4.17817">
        <ele>163.08081054688</ele>
        <time>2011-05-01T09:06:31Z</time>
      </trkpt>
      <trkpt lat="43.8382" lon="4.17795">
        <ele>164.04211425781</ele>
        <time>2011-05-01T09:06:44Z</time>
      </trkpt>
      <trkpt lat="43.83817" lon="4.17783">
        <ele>167.40673828125</ele>
        <time>2011-05-01T09:06:58Z</time>
      </trkpt>
      <trkpt lat="43.83818" lon="4.17771">
        <ele>169.32946777344</ele>
        <time>2011-05-01T09:07:08Z</time>
      </trkpt>
      <trkpt lat="43.8382" lon="4.17759">
        <ele>170.77136230469</ele>
        <time>2011-05-01T09:07:27Z</time>
      </trkpt>
      <trkpt lat="43.83821" lon="4.17748">
        <ele>172.69396972656</ele>
        <time>2011-05-01T09:07:36Z</time>
      </trkpt>
      <trkpt lat="43.83818" lon="4.17737">
        <ele>174.61657714844</ele>
        <time>2011-05-01T09:07:45Z</time>
      </trkpt>
      <trkpt lat="43.8382" lon="4.17724">
        <ele>176.53930664062</ele>
        <time>2011-05-01T09:08:00Z</time>
      </trkpt>
      <trkpt lat="43.8382" lon="4.17712">
        <ele>177.50061035156</ele>
        <time>2011-05-01T09:08:06Z</time>
      </trkpt>
      <trkpt lat="43.8382" lon="4.17699">
        <ele>178.4619140625</ele>
        <time>2011-05-01T09:08:16Z</time>
      </trkpt>
      <trkpt lat="43.83813" lon="4.1769">
        <ele>179.42321777344</ele>
        <time>2011-05-01T09:08:21Z</time>
      </trkpt>
      <trkpt lat="43.83804" lon="4.17683">
        <ele>179.90380859375</ele>
        <time>2011-05-01T09:08:26Z</time>
      </trkpt>
      <trkpt lat="43.83795" lon="4.17677">
        <ele>179.42321777344</ele>
        <time>2011-05-01T09:08:30Z</time>
      </trkpt>
      <trkpt lat="43.83786" lon="4.1767">
        <ele>178.94262695312</ele>
        <time>2011-05-01T09:08:34Z</time>
      </trkpt>
      <trkpt lat="43.83777" lon="4.17664">
        <ele>178.94262695312</ele>
        <time>2011-05-01T09:08:38Z</time>
      </trkpt>
      <trkpt lat="43.83764" lon="4.1766">
        <ele>178.94262695312</ele>
        <time>2011-05-01T09:08:42Z</time>
      </trkpt>
      <trkpt lat="43.83756" lon="4.17649">
        <ele>178.94262695312</ele>
        <time>2011-05-01T09:08:45Z</time>
      </trkpt>
      <trkpt lat="43.8375" lon="4.17635">
        <ele>178.94262695312</ele>
        <time>2011-05-01T09:08:49Z</time>
      </trkpt>
      <trkpt lat="43.83742" lon="4.17621">
        <ele>179.42321777344</ele>
        <time>2011-05-01T09:08:53Z</time>
      </trkpt>
      <trkpt lat="43.8374" lon="4.17608">
        <ele>178.94262695312</ele>
        <time>2011-05-01T09:08:56Z</time>
      </trkpt>
      <trkpt lat="43.83741" lon="4.17594">
        <ele>178.94262695312</ele>
        <time>2011-05-01T09:08:59Z</time>
      </trkpt>
      <trkpt lat="43.83746" lon="4.17583">
        <ele>179.42321777344</ele>
        <time>2011-05-01T09:09:02Z</time>
      </trkpt>
      <trkpt lat="43.83754" lon="4.17576">
        <ele>178.4619140625</ele>
        <time>2011-05-01T09:09:05Z</time>
      </trkpt>
      <trkpt lat="43.83762" lon="4.17562">
        <ele>177.98120117188</ele>
        <time>2011-05-01T09:09:08Z</time>
      </trkpt>
      <trkpt lat="43.83766" lon="4.17555">
        <ele>177.50061035156</ele>
        <time>2011-05-01T09:09:12Z</time>
      </trkpt>
      <trkpt lat="43.83778" lon="4.17567">
        <ele>177.50061035156</ele>
        <time>2011-05-01T09:09:17Z</time>
      </trkpt>
      <trkpt lat="43.83786" lon="4.17576">
        <ele>177.98120117188</ele>
        <time>2011-05-01T09:09:21Z</time>
      </trkpt>
      <trkpt lat="43.83795" lon="4.17582">
        <ele>177.98120117188</ele>
        <time>2011-05-01T09:09:27Z</time>
      </trkpt>
      <trkpt lat="43.83797" lon="4.17573">
        <ele>177.98120117188</ele>
        <time>2011-05-01T09:09:33Z</time>
      </trkpt>
      <trkpt lat="43.83802" lon="4.17561">
        <ele>177.50061035156</ele>
        <time>2011-05-01T09:09:37Z</time>
      </trkpt>
      <trkpt lat="43.83813" lon="4.17556">
        <ele>177.02001953125</ele>
        <time>2011-05-01T09:09:42Z</time>
      </trkpt>
      <trkpt lat="43.83824" lon="4.17561">
        <ele>177.98120117188</ele>
        <time>2011-05-01T09:09:46Z</time>
      </trkpt>
      <trkpt lat="43.83834" lon="4.17567">
        <ele>178.4619140625</ele>
        <time>2011-05-01T09:09:51Z</time>
      </trkpt>
      <trkpt lat="43.83841" lon="4.17555">
        <ele>178.94262695312</ele>
        <time>2011-05-01T09:09:55Z</time>
      </trkpt>
      <trkpt lat="43.83849" lon="4.1755">
        <ele>177.50061035156</ele>
        <time>2011-05-01T09:09:59Z</time>
      </trkpt>
      <trkpt lat="43.83858" lon="4.17554">
        <ele>177.98120117188</ele>
        <time>2011-05-01T09:10:03Z</time>
      </trkpt>
      <trkpt lat="43.83864" lon="4.17545">
        <ele>177.98120117188</ele>
        <time>2011-05-01T09:10:06Z</time>
      </trkpt>
      <trkpt lat="43.83873" lon="4.17537">
        <ele>176.53930664062</ele>
        <time>2011-05-01T09:10:11Z</time>
      </trkpt>
      <trkpt lat="43.83881" lon="4.17526">
        <ele>174.61657714844</ele>
        <time>2011-05-01T09:10:15Z</time>
      </trkpt>
      <trkpt lat="43.83888" lon="4.17516">
        <ele>173.6552734375</ele>
        <time>2011-05-01T09:10:18Z</time>
      </trkpt>
      <trkpt lat="43.83896" lon="4.17509">
        <ele>170.29064941406</ele>
        <time>2011-05-01T09:10:21Z</time>
      </trkpt>
      <trkpt lat="43.83907" lon="4.17512">
        <ele>167.40673828125</ele>
        <time>2011-05-01T09:10:25Z</time>
      </trkpt>
      <trkpt lat="43.83918" lon="4.17513">
        <ele>165.96472167969</ele>
        <time>2011-05-01T09:10:32Z</time>
      </trkpt>
      <trkpt lat="43.83928" lon="4.17512">
        <ele>167.40673828125</ele>
        <time>2011-05-01T09:10:36Z</time>
      </trkpt>
      <trkpt lat="43.83936" lon="4.17505">
        <ele>167.88732910156</ele>
        <time>2011-05-01T09:10:40Z</time>
      </trkpt>
      <trkpt lat="43.8394" lon="4.17493">
        <ele>169.32946777344</ele>
        <time>2011-05-01T09:10:44Z</time>
      </trkpt>
      <trkpt lat="43.83947" lon="4.17481">
        <ele>170.29064941406</ele>
        <time>2011-05-01T09:10:49Z</time>
      </trkpt>
      <trkpt lat="43.83947" lon="4.17468">
        <ele>168.36804199219</ele>
        <time>2011-05-01T09:10:52Z</time>
      </trkpt>
      <trkpt lat="43.83953" lon="4.17458">
        <ele>167.40673828125</ele>
        <time>2011-05-01T09:10:56Z</time>
      </trkpt>
      <trkpt lat="43.83958" lon="4.17446">
        <ele>165.48413085938</ele>
        <time>2011-05-01T09:10:59Z</time>
      </trkpt>
      <trkpt lat="43.83964" lon="4.17436">
        <ele>165.48413085938</ele>
        <time>2011-05-01T09:11:03Z</time>
      </trkpt>
      <trkpt lat="43.8398" lon="4.17439">
        <ele>166.4453125</ele>
        <time>2011-05-01T09:11:09Z</time>
      </trkpt>
      <trkpt lat="43.83993" lon="4.17441">
        <ele>166.92602539062</ele>
        <time>2011-05-01T09:11:17Z</time>
      </trkpt>
      <trkpt lat="43.84007" lon="4.17441">
        <ele>167.88732910156</ele>
        <time>2011-05-01T09:11:26Z</time>
      </trkpt>
      <trkpt lat="43.84024" lon="4.17452">
        <ele>168.84875488281</ele>
        <time>2011-05-01T09:11:31Z</time>
      </trkpt>
      <trkpt lat="43.84034" lon="4.17458">
        <ele>169.32946777344</ele>
        <time>2011-05-01T09:11:36Z</time>
      </trkpt>
      <trkpt lat="43.84044" lon="4.17467">
        <ele>169.81005859375</ele>
        <time>2011-05-01T09:11:41Z</time>
      </trkpt>
      <trkpt lat="43.84055" lon="4.17474">
        <ele>169.81005859375</ele>
        <time>2011-05-01T09:11:45Z</time>
      </trkpt>
      <trkpt lat="43.84065" lon="4.17482">
        <ele>170.29064941406</ele>
        <time>2011-05-01T09:11:49Z</time>
      </trkpt>
      <trkpt lat="43.84079" lon="4.17487">
        <ele>170.77136230469</ele>
        <time>2011-05-01T09:11:54Z</time>
      </trkpt>
      <trkpt lat="43.84091" lon="4.17494">
        <ele>172.21325683594</ele>
        <time>2011-05-01T09:11:59Z</time>
      </trkpt>
      <trkpt lat="43.84103" lon="4.175">
        <ele>172.21325683594</ele>
        <time>2011-05-01T09:12:06Z</time>
      </trkpt>
      <trkpt lat="43.84114" lon="4.17509">
        <ele>173.17468261719</ele>
        <time>2011-05-01T09:12:10Z</time>
      </trkpt>
      <trkpt lat="43.84124" lon="4.17516">
        <ele>174.13586425781</ele>
        <time>2011-05-01T09:12:14Z</time>
      </trkpt>
      <trkpt lat="43.84137" lon="4.17524">
        <ele>174.61657714844</ele>
        <time>2011-05-01T09:12:19Z</time>
      </trkpt>
      <trkpt lat="43.8415" lon="4.17532">
        <ele>175.09729003906</ele>
        <time>2011-05-01T09:12:24Z</time>
      </trkpt>
      <trkpt lat="43.8416" lon="4.17545">
        <ele>175.09729003906</ele>
        <time>2011-05-01T09:12:30Z</time>
      </trkpt>
      <trkpt lat="43.8417" lon="4.17554">
        <ele>175.57788085938</ele>
        <time>2011-05-01T09:12:34Z</time>
      </trkpt>
      <trkpt lat="43.8418" lon="4.17562">
        <ele>176.05859375</ele>
        <time>2011-05-01T09:12:38Z</time>
      </trkpt>
      <trkpt lat="43.84188" lon="4.1757">
        <ele>177.02001953125</ele>
        <time>2011-05-01T09:12:42Z</time>
      </trkpt>
      <trkpt lat="43.84197" lon="4.17579">
        <ele>177.02001953125</ele>
        <time>2011-05-01T09:12:46Z</time>
      </trkpt>
      <trkpt lat="43.84203" lon="4.1758">
        <ele>177.50061035156</ele>
        <time>2011-05-01T09:12:51Z</time>
      </trkpt>
      <trkpt lat="43.84209" lon="4.17567">
        <ele>177.50061035156</ele>
        <time>2011-05-01T09:12:56Z</time>
      </trkpt>
      <trkpt lat="43.84216" lon="4.17557">
        <ele>177.98120117188</ele>
        <time>2011-05-01T09:13:01Z</time>
      </trkpt>
      <trkpt lat="43.84226" lon="4.17552">
        <ele>178.94262695312</ele>
        <time>2011-05-01T09:13:05Z</time>
      </trkpt>
      <trkpt lat="43.84235" lon="4.17542">
        <ele>179.42321777344</ele>
        <time>2011-05-01T09:13:09Z</time>
      </trkpt>
      <trkpt lat="43.84235" lon="4.17525">
        <ele>179.90380859375</ele>
        <time>2011-05-01T09:13:13Z</time>
      </trkpt>
      <trkpt lat="43.84231" lon="4.17509">
        <ele>179.90380859375</ele>
        <time>2011-05-01T09:13:17Z</time>
      </trkpt>
      <trkpt lat="43.84226" lon="4.17493">
        <ele>180.865234375</ele>
        <time>2011-05-01T09:13:21Z</time>
      </trkpt>
      <trkpt lat="43.8422" lon="4.17483">
        <ele>181.34582519531</ele>
        <time>2011-05-01T09:13:24Z</time>
      </trkpt>
      <trkpt lat="43.84213" lon="4.17473">
        <ele>180.865234375</ele>
        <time>2011-05-01T09:13:27Z</time>
      </trkpt>
      <trkpt lat="43.84204" lon="4.17464">
        <ele>181.34582519531</ele>
        <time>2011-05-01T09:13:30Z</time>
      </trkpt>
      <trkpt lat="43.84195" lon="4.17454">
        <ele>180.865234375</ele>
        <time>2011-05-01T09:13:33Z</time>
      </trkpt>
      <trkpt lat="43.84186" lon="4.17446">
        <ele>180.38452148438</ele>
        <time>2011-05-01T09:13:36Z</time>
      </trkpt>
      <trkpt lat="43.84174" lon="4.17437">
        <ele>181.34582519531</ele>
        <time>2011-05-01T09:13:39Z</time>
      </trkpt>
      <trkpt lat="43.84167" lon="4.17424">
        <ele>181.34582519531</ele>
        <time>2011-05-01T09:13:42Z</time>
      </trkpt>
      <trkpt lat="43.84159" lon="4.17411">
        <ele>181.82641601562</ele>
        <time>2011-05-01T09:13:45Z</time>
      </trkpt>
      <trkpt lat="43.84152" lon="4.17397">
        <ele>181.82641601562</ele>
        <time>2011-05-01T09:13:48Z</time>
      </trkpt>
      <trkpt lat="43.84145" lon="4.17383">
        <ele>182.30712890625</ele>
        <time>2011-05-01T09:13:51Z</time>
      </trkpt>
      <trkpt lat="43.84138" lon="4.17368">
        <ele>181.82641601562</ele>
        <time>2011-05-01T09:13:54Z</time>
      </trkpt>
      <trkpt lat="43.84132" lon="4.17354">
        <ele>182.30712890625</ele>
        <time>2011-05-01T09:13:57Z</time>
      </trkpt>
      <trkpt lat="43.84125" lon="4.17338">
        <ele>182.30712890625</ele>
        <time>2011-05-01T09:14:00Z</time>
      </trkpt>
      <trkpt lat="43.84121" lon="4.17327">
        <ele>181.34582519531</ele>
        <time>2011-05-01T09:14:02Z</time>
      </trkpt>
      <trkpt lat="43.84114" lon="4.17311">
        <ele>181.82641601562</ele>
        <time>2011-05-01T09:14:05Z</time>
      </trkpt>
      <trkpt lat="43.84108" lon="4.17301">
        <ele>181.34582519531</ele>
        <time>2011-05-01T09:14:07Z</time>
      </trkpt>
      <trkpt lat="43.84104" lon="4.17288">
        <ele>181.34582519531</ele>
        <time>2011-05-01T09:14:09Z</time>
      </trkpt>
      <trkpt lat="43.84099" lon="4.17275">
        <ele>179.90380859375</ele>
        <time>2011-05-01T09:14:11Z</time>
      </trkpt>
      <trkpt lat="43.84095" lon="4.17261">
        <ele>180.38452148438</ele>
        <time>2011-05-01T09:14:13Z</time>
      </trkpt>
      <trkpt lat="43.84089" lon="4.17248">
        <ele>180.38452148438</ele>
        <time>2011-05-01T09:14:15Z</time>
      </trkpt>
      <trkpt lat="43.84083" lon="4.17235">
        <ele>179.42321777344</ele>
        <time>2011-05-01T09:14:17Z</time>
      </trkpt>
      <trkpt lat="43.84076" lon="4.17223">
        <ele>179.90380859375</ele>
        <time>2011-05-01T09:14:19Z</time>
      </trkpt>
      <trkpt lat="43.84069" lon="4.17211">
        <ele>179.90380859375</ele>
        <time>2011-05-01T09:14:21Z</time>
      </trkpt>
      <trkpt lat="43.84063" lon="4.17198">
        <ele>179.90380859375</ele>
        <time>2011-05-01T09:14:23Z</time>
      </trkpt>
      <trkpt lat="43.84057" lon="4.17184">
        <ele>179.90380859375</ele>
        <time>2011-05-01T09:14:25Z</time>
      </trkpt>
      <trkpt lat="43.84052" lon="4.17171">
        <ele>179.90380859375</ele>
        <time>2011-05-01T09:14:27Z</time>
      </trkpt>
      <trkpt lat="43.84045" lon="4.17159">
        <ele>179.90380859375</ele>
        <time>2011-05-01T09:14:29Z</time>
      </trkpt>
      <trkpt lat="43.84038" lon="4.17148">
        <ele>179.90380859375</ele>
        <time>2011-05-01T09:14:31Z</time>
      </trkpt>
      <trkpt lat="43.84031" lon="4.17137">
        <ele>179.90380859375</ele>
        <time>2011-05-01T09:14:33Z</time>
      </trkpt>
      <trkpt lat="43.84024" lon="4.17126">
        <ele>179.42321777344</ele>
        <time>2011-05-01T09:14:35Z</time>
      </trkpt>
      <trkpt lat="43.84016" lon="4.17115">
        <ele>179.90380859375</ele>
        <time>2011-05-01T09:14:37Z</time>
      </trkpt>
      <trkpt lat="43.84009" lon="4.17104">
        <ele>179.42321777344</ele>
        <time>2011-05-01T09:14:39Z</time>
      </trkpt>
      <trkpt lat="43.84002" lon="4.17091">
        <ele>179.42321777344</ele>
        <time>2011-05-01T09:14:41Z</time>
      </trkpt>
      <trkpt lat="43.83996" lon="4.17078">
        <ele>179.42321777344</ele>
        <time>2011-05-01T09:14:43Z</time>
      </trkpt>
      <trkpt lat="43.8399" lon="4.17065">
        <ele>180.38452148438</ele>
        <time>2011-05-01T09:14:45Z</time>
      </trkpt>
      <trkpt lat="43.83986" lon="4.17052">
        <ele>179.42321777344</ele>
        <time>2011-05-01T09:14:47Z</time>
      </trkpt>
      <trkpt lat="43.83982" lon="4.17038">
        <ele>179.90380859375</ele>
        <time>2011-05-01T09:14:49Z</time>
      </trkpt>
      <trkpt lat="43.83978" lon="4.17024">
        <ele>179.42321777344</ele>
        <time>2011-05-01T09:14:51Z</time>
      </trkpt>
      <trkpt lat="43.83974" lon="4.17011">
        <ele>179.90380859375</ele>
        <time>2011-05-01T09:14:53Z</time>
      </trkpt>
      <trkpt lat="43.83971" lon="4.16999">
        <ele>179.90380859375</ele>
        <time>2011-05-01T09:14:55Z</time>
      </trkpt>
      <trkpt lat="43.83967" lon="4.16987">
        <ele>179.90380859375</ele>
        <time>2011-05-01T09:14:57Z</time>
      </trkpt>
      <trkpt lat="43.83964" lon="4.16975">
        <ele>179.90380859375</ele>
        <time>2011-05-01T09:14:59Z</time>
      </trkpt>
      <trkpt lat="43.83961" lon="4.16963">
        <ele>179.42321777344</ele>
        <time>2011-05-01T09:15:01Z</time>
      </trkpt>
      <trkpt lat="43.83958" lon="4.16951">
        <ele>179.90380859375</ele>
        <time>2011-05-01T09:15:03Z</time>
      </trkpt>
      <trkpt lat="43.83954" lon="4.16939">
        <ele>179.90380859375</ele>
        <time>2011-05-01T09:15:05Z</time>
      </trkpt>
      <trkpt lat="43.83951" lon="4.16927">
        <ele>179.42321777344</ele>
        <time>2011-05-01T09:15:07Z</time>
      </trkpt>
      <trkpt lat="43.83947" lon="4.16915">
        <ele>180.38452148438</ele>
        <time>2011-05-01T09:15:09Z</time>
      </trkpt>
      <trkpt lat="43.83943" lon="4.16904">
        <ele>179.90380859375</ele>
        <time>2011-05-01T09:15:11Z</time>
      </trkpt>
      <trkpt lat="43.83938" lon="4.16892">
        <ele>179.90380859375</ele>
        <time>2011-05-01T09:15:13Z</time>
      </trkpt>
      <trkpt lat="43.83933" lon="4.16881">
        <ele>179.42321777344</ele>
        <time>2011-05-01T09:15:15Z</time>
      </trkpt>
      <trkpt lat="43.83928" lon="4.1687">
        <ele>178.94262695312</ele>
        <time>2011-05-01T09:15:17Z</time>
      </trkpt>
      <trkpt lat="43.83922" lon="4.16859">
        <ele>179.42321777344</ele>
        <time>2011-05-01T09:15:19Z</time>
      </trkpt>
      <trkpt lat="43.83917" lon="4.16847">
        <ele>178.4619140625</ele>
        <time>2011-05-01T09:15:21Z</time>
      </trkpt>
      <trkpt lat="43.83912" lon="4.16835">
        <ele>179.42321777344</ele>
        <time>2011-05-01T09:15:23Z</time>
      </trkpt>
      <trkpt lat="43.83907" lon="4.16824">
        <ele>179.42321777344</ele>
        <time>2011-05-01T09:15:25Z</time>
      </trkpt>
      <trkpt lat="43.83902" lon="4.16813">
        <ele>178.94262695312</ele>
        <time>2011-05-01T09:15:27Z</time>
      </trkpt>
      <trkpt lat="43.83898" lon="4.16802">
        <ele>178.94262695312</ele>
        <time>2011-05-01T09:15:29Z</time>
      </trkpt>
      <trkpt lat="43.83893" lon="4.16791">
        <ele>178.94262695312</ele>
        <time>2011-05-01T09:15:31Z</time>
      </trkpt>
      <trkpt lat="43.83889" lon="4.16779">
        <ele>178.94262695312</ele>
        <time>2011-05-01T09:15:33Z</time>
      </trkpt>
      <trkpt lat="43.83884" lon="4.16768">
        <ele>178.94262695312</ele>
        <time>2011-05-01T09:15:35Z</time>
      </trkpt>
      <trkpt lat="43.8388" lon="4.16757">
        <ele>178.94262695312</ele>
        <time>2011-05-01T09:15:37Z</time>
      </trkpt>
      <trkpt lat="43.83875" lon="4.16744">
        <ele>177.98120117188</ele>
        <time>2011-05-01T09:15:39Z</time>
      </trkpt>
      <trkpt lat="43.83871" lon="4.16732">
        <ele>178.4619140625</ele>
        <time>2011-05-01T09:15:41Z</time>
      </trkpt>
      <trkpt lat="43.83868" lon="4.16721">
        <ele>177.98120117188</ele>
        <time>2011-05-01T09:15:43Z</time>
      </trkpt>
      <trkpt lat="43.83866" lon="4.16706">
        <ele>177.50061035156</ele>
        <time>2011-05-01T09:15:46Z</time>
      </trkpt>
      <trkpt lat="43.83856" lon="4.16714">
        <ele>177.98120117188</ele>
        <time>2011-05-01T09:15:49Z</time>
      </trkpt>
      <trkpt lat="43.83849" lon="4.16726">
        <ele>177.50061035156</ele>
        <time>2011-05-01T09:15:52Z</time>
      </trkpt>
      <trkpt lat="43.83841" lon="4.16742">
        <ele>177.50061035156</ele>
        <time>2011-05-01T09:15:55Z</time>
      </trkpt>
      <trkpt lat="43.83836" lon="4.16754">
        <ele>177.50061035156</ele>
        <time>2011-05-01T09:15:57Z</time>
      </trkpt>
      <trkpt lat="43.83831" lon="4.16766">
        <ele>177.50061035156</ele>
        <time>2011-05-01T09:15:59Z</time>
      </trkpt>
      <trkpt lat="43.83825" lon="4.16778">
        <ele>177.98120117188</ele>
        <time>2011-05-01T09:16:01Z</time>
      </trkpt>
      <trkpt lat="43.8382" lon="4.16788">
        <ele>177.50061035156</ele>
        <time>2011-05-01T09:16:03Z</time>
      </trkpt>
      <trkpt lat="43.83814" lon="4.16799">
        <ele>175.57788085938</ele>
        <time>2011-05-01T09:16:06Z</time>
      </trkpt>
      <trkpt lat="43.83839" lon="4.16749">
        <ele>174.13586425781</ele>
        <time>2011-05-01T09:16:11Z</time>
      </trkpt>
      <trkpt lat="43.83799" lon="4.16791">
        <ele>173.17468261719</ele>
        <time>2011-05-01T09:16:16Z</time>
      </trkpt>
      <trkpt lat="43.83791" lon="4.16786">
        <ele>172.69396972656</ele>
        <time>2011-05-01T09:16:19Z</time>
      </trkpt>
      <trkpt lat="43.8378" lon="4.16779">
        <ele>172.21325683594</ele>
        <time>2011-05-01T09:16:23Z</time>
      </trkpt>
      <trkpt lat="43.83785" lon="4.16822">
        <ele>171.25207519531</ele>
        <time>2011-05-01T09:16:26Z</time>
      </trkpt>
      <trkpt lat="43.83753" lon="4.16721">
        <ele>171.73266601562</ele>
        <time>2011-05-01T09:16:29Z</time>
      </trkpt>
      <trkpt lat="43.83755" lon="4.16752">
        <ele>170.29064941406</ele>
        <time>2011-05-01T09:16:32Z</time>
      </trkpt>
      <trkpt lat="43.83752" lon="4.16738">
        <ele>169.32946777344</ele>
        <time>2011-05-01T09:16:35Z</time>
      </trkpt>
      <trkpt lat="43.83743" lon="4.16729">
        <ele>168.84875488281</ele>
        <time>2011-05-01T09:16:39Z</time>
      </trkpt>
      <trkpt lat="43.83733" lon="4.16714">
        <ele>167.40673828125</ele>
        <time>2011-05-01T09:16:42Z</time>
      </trkpt>
      <trkpt lat="43.83725" lon="4.16709">
        <ele>166.4453125</ele>
        <time>2011-05-01T09:16:45Z</time>
      </trkpt>
      <trkpt lat="43.83713" lon="4.16699">
        <ele>165.00341796875</ele>
        <time>2011-05-01T09:16:49Z</time>
      </trkpt>
      <trkpt lat="43.83703" lon="4.1669">
        <ele>164.52270507812</ele>
        <time>2011-05-01T09:16:52Z</time>
      </trkpt>
      <trkpt lat="43.83694" lon="4.16681">
        <ele>163.5615234375</ele>
        <time>2011-05-01T09:16:55Z</time>
      </trkpt>
      <trkpt lat="43.83684" lon="4.16671">
        <ele>163.08081054688</ele>
        <time>2011-05-01T09:16:58Z</time>
      </trkpt>
      <trkpt lat="43.83673" lon="4.16664">
        <ele>162.60009765625</ele>
        <time>2011-05-01T09:17:01Z</time>
      </trkpt>
      <trkpt lat="43.83661" lon="4.16658">
        <ele>161.158203125</ele>
        <time>2011-05-01T09:17:04Z</time>
      </trkpt>
      <trkpt lat="43.83649" lon="4.1665">
        <ele>160.67749023438</ele>
        <time>2011-05-01T09:17:07Z</time>
      </trkpt>
      <trkpt lat="43.83638" lon="4.16646">
        <ele>159.23547363281</ele>
        <time>2011-05-01T09:17:10Z</time>
      </trkpt>
      <trkpt lat="43.83633" lon="4.16636">
        <ele>159.23547363281</ele>
        <time>2011-05-01T09:17:13Z</time>
      </trkpt>
      <trkpt lat="43.83622" lon="4.1663">
        <ele>157.79357910156</ele>
        <time>2011-05-01T09:17:16Z</time>
      </trkpt>
      <trkpt lat="43.83611" lon="4.16624">
        <ele>157.31286621094</ele>
        <time>2011-05-01T09:17:19Z</time>
      </trkpt>
      <trkpt lat="43.83603" lon="4.16618">
        <ele>157.31286621094</ele>
        <time>2011-05-01T09:17:22Z</time>
      </trkpt>
      <trkpt lat="43.83595" lon="4.16605">
        <ele>156.83215332031</ele>
        <time>2011-05-01T09:17:25Z</time>
      </trkpt>
      <trkpt lat="43.83588" lon="4.16596">
        <ele>155.87097167969</ele>
        <time>2011-05-01T09:17:29Z</time>
      </trkpt>
      <trkpt lat="43.83577" lon="4.16582">
        <ele>154.90954589844</ele>
        <time>2011-05-01T09:17:33Z</time>
      </trkpt>
      <trkpt lat="43.83569" lon="4.16572">
        <ele>153.46765136719</ele>
        <time>2011-05-01T09:17:37Z</time>
      </trkpt>
      <trkpt lat="43.83558" lon="4.16565">
        <ele>153.94836425781</ele>
        <time>2011-05-01T09:17:41Z</time>
      </trkpt>
      <trkpt lat="43.83547" lon="4.16559">
        <ele>153.46765136719</ele>
        <time>2011-05-01T09:17:44Z</time>
      </trkpt>
      <trkpt lat="43.83533" lon="4.16551">
        <ele>152.98693847656</ele>
        <time>2011-05-01T09:17:47Z</time>
      </trkpt>
      <trkpt lat="43.83523" lon="4.16554">
        <ele>152.98693847656</ele>
        <time>2011-05-01T09:17:50Z</time>
      </trkpt>
      <trkpt lat="43.83512" lon="4.16555">
        <ele>154.42895507812</ele>
        <time>2011-05-01T09:17:55Z</time>
      </trkpt>
      <trkpt lat="43.83502" lon="4.16553">
        <ele>154.42895507812</ele>
        <time>2011-05-01T09:17:59Z</time>
      </trkpt>
      <trkpt lat="43.83498" lon="4.16551">
        <ele>155.39025878906</ele>
        <time>2011-05-01T09:18:03Z</time>
      </trkpt>
      <trkpt lat="43.83498" lon="4.16551">
        <ele>155.39025878906</ele>
        <time>2011-05-01T09:18:06Z</time>
      </trkpt>
      <trkpt lat="43.83498" lon="4.16551">
        <ele>154.42895507812</ele>
        <time>2011-05-01T09:18:09Z</time>
      </trkpt>
      <trkpt lat="43.83478" lon="4.16511">
        <ele>153.46765136719</ele>
        <time>2011-05-01T09:18:12Z</time>
      </trkpt>
      <trkpt lat="43.83457" lon="4.16567">
        <ele>154.90954589844</ele>
        <time>2011-05-01T09:18:16Z</time>
      </trkpt>
      <trkpt lat="43.83464" lon="4.16578">
        <ele>155.87097167969</ele>
        <time>2011-05-01T09:18:20Z</time>
      </trkpt>
      <trkpt lat="43.8347" lon="4.16588">
        <ele>156.83215332031</ele>
        <time>2011-05-01T09:18:24Z</time>
      </trkpt>
      <trkpt lat="43.83471" lon="4.16602">
        <ele>158.27416992188</ele>
        <time>2011-05-01T09:18:29Z</time>
      </trkpt>
      <trkpt lat="43.83466" lon="4.16615">
        <ele>159.23547363281</ele>
        <time>2011-05-01T09:18:34Z</time>
      </trkpt>
      <trkpt lat="43.83468" lon="4.16627">
        <ele>159.23547363281</ele>
        <time>2011-05-01T09:18:38Z</time>
      </trkpt>
      <trkpt lat="43.8347" lon="4.1664">
        <ele>160.19689941406</ele>
        <time>2011-05-01T09:18:42Z</time>
      </trkpt>
      <trkpt lat="43.83468" lon="4.16655">
        <ele>160.67749023438</ele>
        <time>2011-05-01T09:18:47Z</time>
      </trkpt>
      <trkpt lat="43.83465" lon="4.16668">
        <ele>160.67749023438</ele>
        <time>2011-05-01T09:18:51Z</time>
      </trkpt>
      <trkpt lat="43.83461" lon="4.16681">
        <ele>161.158203125</ele>
        <time>2011-05-01T09:18:54Z</time>
      </trkpt>
      <trkpt lat="43.83459" lon="4.16694">
        <ele>160.19689941406</ele>
        <time>2011-05-01T09:18:57Z</time>
      </trkpt>
      <trkpt lat="43.83456" lon="4.16707">
        <ele>159.23547363281</ele>
        <time>2011-05-01T09:19:00Z</time>
      </trkpt>
      <trkpt lat="43.8345" lon="4.16716">
        <ele>158.75476074219</ele>
        <time>2011-05-01T09:19:03Z</time>
      </trkpt>
      <trkpt lat="43.83441" lon="4.16725">
        <ele>155.87097167969</ele>
        <time>2011-05-01T09:19:07Z</time>
      </trkpt>
      <trkpt lat="43.83432" lon="4.16725">
        <ele>154.90954589844</ele>
        <time>2011-05-01T09:19:10Z</time>
      </trkpt>
      <trkpt lat="43.83431" lon="4.16737">
        <ele>152.50634765625</ele>
        <time>2011-05-01T09:19:15Z</time>
      </trkpt>
      <trkpt lat="43.83425" lon="4.16733">
        <ele>152.98693847656</ele>
        <time>2011-05-01T09:19:20Z</time>
      </trkpt>
      <trkpt lat="43.83417" lon="4.16724">
        <ele>152.02575683594</ele>
        <time>2011-05-01T09:19:24Z</time>
      </trkpt>
      <trkpt lat="43.83408" lon="4.16728">
        <ele>151.544921875</ele>
        <time>2011-05-01T09:19:28Z</time>
      </trkpt>
      <trkpt lat="43.83396" lon="4.16727">
        <ele>151.544921875</ele>
        <time>2011-05-01T09:19:33Z</time>
      </trkpt>
      <trkpt lat="43.83384" lon="4.16729">
        <ele>151.06420898438</ele>
        <time>2011-05-01T09:19:38Z</time>
      </trkpt>
      <trkpt lat="43.83377" lon="4.16722">
        <ele>151.06420898438</ele>
        <time>2011-05-01T09:19:41Z</time>
      </trkpt>
      <trkpt lat="43.8337" lon="4.16714">
        <ele>149.1416015625</ele>
        <time>2011-05-01T09:19:44Z</time>
      </trkpt>
      <trkpt lat="43.83364" lon="4.16705">
        <ele>149.62231445312</ele>
        <time>2011-05-01T09:19:48Z</time>
      </trkpt>
      <trkpt lat="43.8336" lon="4.16688">
        <ele>149.1416015625</ele>
        <time>2011-05-01T09:19:52Z</time>
      </trkpt>
      <trkpt lat="43.83361" lon="4.16675">
        <ele>149.1416015625</ele>
        <time>2011-05-01T09:19:55Z</time>
      </trkpt>
      <trkpt lat="43.83362" lon="4.16662">
        <ele>148.66101074219</ele>
        <time>2011-05-01T09:19:59Z</time>
      </trkpt>
      <trkpt lat="43.83363" lon="4.16649">
        <ele>147.69970703125</ele>
        <time>2011-05-01T09:20:03Z</time>
      </trkpt>
      <trkpt lat="43.83364" lon="4.16635">
        <ele>147.69970703125</ele>
        <time>2011-05-01T09:20:07Z</time>
      </trkpt>
      <trkpt lat="43.83361" lon="4.16619">
        <ele>147.21899414062</ele>
        <time>2011-05-01T09:20:11Z</time>
      </trkpt>
      <trkpt lat="43.8336" lon="4.16606">
        <ele>147.69970703125</ele>
        <time>2011-05-01T09:20:14Z</time>
      </trkpt>
      <trkpt lat="43.83362" lon="4.16589">
        <ele>146.2578125</ele>
        <time>2011-05-01T09:20:18Z</time>
      </trkpt>
      <trkpt lat="43.83359" lon="4.16577">
        <ele>146.2578125</ele>
        <time>2011-05-01T09:20:21Z</time>
      </trkpt>
      <trkpt lat="43.83357" lon="4.16563">
        <ele>145.77709960938</ele>
        <time>2011-05-01T09:20:24Z</time>
      </trkpt>
      <trkpt lat="43.83354" lon="4.16551">
        <ele>146.2578125</ele>
        <time>2011-05-01T09:20:27Z</time>
      </trkpt>
      <trkpt lat="43.83354" lon="4.16537">
        <ele>145.77709960938</ele>
        <time>2011-05-01T09:20:30Z</time>
      </trkpt>
      <trkpt lat="43.83354" lon="4.16524">
        <ele>145.77709960938</ele>
        <time>2011-05-01T09:20:33Z</time>
      </trkpt>
      <trkpt lat="43.83345" lon="4.16525">
        <ele>145.29638671875</ele>
        <time>2011-05-01T09:20:37Z</time>
      </trkpt>
      <trkpt lat="43.83335" lon="4.16525">
        <ele>146.73840332031</ele>
        <time>2011-05-01T09:20:42Z</time>
      </trkpt>
      <trkpt lat="43.83327" lon="4.16519">
        <ele>148.66101074219</ele>
        <time>2011-05-01T09:20:48Z</time>
      </trkpt>
      <trkpt lat="43.83319" lon="4.1651">
        <ele>150.58361816406</ele>
        <time>2011-05-01T09:20:54Z</time>
      </trkpt>
      <trkpt lat="43.83311" lon="4.16518">
        <ele>151.06420898438</ele>
        <time>2011-05-01T09:20:59Z</time>
      </trkpt>
      <trkpt lat="43.83302" lon="4.16526">
        <ele>152.02575683594</ele>
        <time>2011-05-01T09:21:05Z</time>
      </trkpt>
      <trkpt lat="43.83293" lon="4.1652">
        <ele>154.42895507812</ele>
        <time>2011-05-01T09:21:10Z</time>
      </trkpt>
      <trkpt lat="43.83284" lon="4.16515">
        <ele>154.42895507812</ele>
        <time>2011-05-01T09:21:15Z</time>
      </trkpt>
      <trkpt lat="43.83274" lon="4.16507">
        <ele>154.42895507812</ele>
        <time>2011-05-01T09:21:20Z</time>
      </trkpt>
      <trkpt lat="43.83269" lon="4.16497">
        <ele>154.42895507812</ele>
        <time>2011-05-01T09:21:24Z</time>
      </trkpt>
      <trkpt lat="43.83262" lon="4.16488">
        <ele>152.50634765625</ele>
        <time>2011-05-01T09:21:27Z</time>
      </trkpt>
      <trkpt lat="43.83251" lon="4.1648">
        <ele>152.50634765625</ele>
        <time>2011-05-01T09:21:30Z</time>
      </trkpt>
      <trkpt lat="43.83243" lon="4.1648">
        <ele>152.02575683594</ele>
        <time>2011-05-01T09:21:33Z</time>
      </trkpt>
      <trkpt lat="43.83234" lon="4.16472">
        <ele>152.50634765625</ele>
        <time>2011-05-01T09:21:36Z</time>
      </trkpt>
      <trkpt lat="43.83225" lon="4.16463">
        <ele>152.50634765625</ele>
        <time>2011-05-01T09:21:39Z</time>
      </trkpt>
      <trkpt lat="43.83216" lon="4.16459">
        <ele>152.02575683594</ele>
        <time>2011-05-01T09:21:42Z</time>
      </trkpt>
      <trkpt lat="43.83211" lon="4.16447">
        <ele>152.02575683594</ele>
        <time>2011-05-01T09:21:45Z</time>
      </trkpt>
      <trkpt lat="43.83213" lon="4.16434">
        <ele>150.58361816406</ele>
        <time>2011-05-01T09:21:48Z</time>
      </trkpt>
      <trkpt lat="43.83212" lon="4.1642">
        <ele>149.62231445312</ele>
        <time>2011-05-01T09:21:51Z</time>
      </trkpt>
      <trkpt lat="43.83212" lon="4.16403">
        <ele>147.69970703125</ele>
        <time>2011-05-01T09:21:54Z</time>
      </trkpt>
      <trkpt lat="43.83212" lon="4.16388">
        <ele>144.81579589844</ele>
        <time>2011-05-01T09:21:57Z</time>
      </trkpt>
      <trkpt lat="43.83206" lon="4.16374">
        <ele>144.33520507812</ele>
        <time>2011-05-01T09:22:00Z</time>
      </trkpt>
      <trkpt lat="43.83199" lon="4.1636">
        <ele>141.93176269531</ele>
        <time>2011-05-01T09:22:03Z</time>
      </trkpt>
      <trkpt lat="43.83193" lon="4.16352">
        <ele>140.97045898438</ele>
        <time>2011-05-01T09:22:07Z</time>
      </trkpt>
      <trkpt lat="43.83183" lon="4.16348">
        <ele>143.85437011719</ele>
        <time>2011-05-01T09:22:13Z</time>
      </trkpt>
      <trkpt lat="43.83177" lon="4.16339">
        <ele>143.85437011719</ele>
        <time>2011-05-01T09:22:18Z</time>
      </trkpt>
      <trkpt lat="43.8317" lon="4.16332">
        <ele>144.33520507812</ele>
        <time>2011-05-01T09:22:22Z</time>
      </trkpt>
      <trkpt lat="43.83167" lon="4.16317">
        <ele>143.85437011719</ele>
        <time>2011-05-01T09:22:26Z</time>
      </trkpt>
      <trkpt lat="43.83167" lon="4.16301">
        <ele>142.41247558594</ele>
        <time>2011-05-01T09:22:30Z</time>
      </trkpt>
      <trkpt lat="43.83168" lon="4.16288">
        <ele>140.00915527344</ele>
        <time>2011-05-01T09:22:35Z</time>
      </trkpt>
      <trkpt lat="43.83168" lon="4.16276">
        <ele>139.52844238281</ele>
        <time>2011-05-01T09:22:39Z</time>
      </trkpt>
      <trkpt lat="43.83167" lon="4.16263">
        <ele>140.97045898438</ele>
        <time>2011-05-01T09:22:43Z</time>
      </trkpt>
      <trkpt lat="43.8317" lon="4.1625">
        <ele>139.52844238281</ele>
        <time>2011-05-01T09:22:47Z</time>
      </trkpt>
      <trkpt lat="43.83164" lon="4.16243">
        <ele>139.52844238281</ele>
        <time>2011-05-01T09:22:52Z</time>
      </trkpt>
      <trkpt lat="43.83155" lon="4.16236">
        <ele>140.97045898438</ele>
        <time>2011-05-01T09:22:57Z</time>
      </trkpt>
      <trkpt lat="43.83148" lon="4.16226">
        <ele>142.41247558594</ele>
        <time>2011-05-01T09:23:03Z</time>
      </trkpt>
      <trkpt lat="43.83144" lon="4.16217">
        <ele>144.33520507812</ele>
        <time>2011-05-01T09:23:11Z</time>
      </trkpt>
      <trkpt lat="43.83152" lon="4.16207">
        <ele>145.29638671875</ele>
        <time>2011-05-01T09:23:17Z</time>
      </trkpt>
      <trkpt lat="43.83153" lon="4.16195">
        <ele>147.21899414062</ele>
        <time>2011-05-01T09:23:24Z</time>
      </trkpt>
      <trkpt lat="43.83155" lon="4.16182">
        <ele>147.21899414062</ele>
        <time>2011-05-01T09:23:30Z</time>
      </trkpt>
      <trkpt lat="43.83159" lon="4.16167">
        <ele>146.2578125</ele>
        <time>2011-05-01T09:23:36Z</time>
      </trkpt>
      <trkpt lat="43.8316" lon="4.16152">
        <ele>145.29638671875</ele>
        <time>2011-05-01T09:23:40Z</time>
      </trkpt>
      <trkpt lat="43.83156" lon="4.1614">
        <ele>146.73840332031</ele>
        <time>2011-05-01T09:23:46Z</time>
      </trkpt>
      <trkpt lat="43.83158" lon="4.16125">
        <ele>146.2578125</ele>
        <time>2011-05-01T09:23:53Z</time>
      </trkpt>
      <trkpt lat="43.83159" lon="4.16112">
        <ele>146.2578125</ele>
        <time>2011-05-01T09:23:57Z</time>
      </trkpt>
      <trkpt lat="43.83165" lon="4.16101">
        <ele>143.85437011719</ele>
        <time>2011-05-01T09:24:02Z</time>
      </trkpt>
      <trkpt lat="43.83164" lon="4.16088">
        <ele>142.89306640625</ele>
        <time>2011-05-01T09:24:06Z</time>
      </trkpt>
      <trkpt lat="43.83161" lon="4.16063">
        <ele>142.89306640625</ele>
        <time>2011-05-01T09:24:12Z</time>
      </trkpt>
      <trkpt lat="43.83158" lon="4.16051">
        <ele>143.85437011719</ele>
        <time>2011-05-01T09:24:17Z</time>
      </trkpt>
      <trkpt lat="43.83166" lon="4.16046">
        <ele>140.48986816406</ele>
        <time>2011-05-01T09:24:22Z</time>
      </trkpt>
      <trkpt lat="43.83175" lon="4.16039">
        <ele>137.12524414062</ele>
        <time>2011-05-01T09:24:27Z</time>
      </trkpt>
      <trkpt lat="43.83185" lon="4.16029">
        <ele>135.20251464844</ele>
        <time>2011-05-01T09:24:31Z</time>
      </trkpt>
      <trkpt lat="43.83185" lon="4.16015">
        <ele>134.2412109375</ele>
        <time>2011-05-01T09:24:34Z</time>
      </trkpt>
      <trkpt lat="43.83188" lon="4.15996">
        <ele>133.27990722656</ele>
        <time>2011-05-01T09:24:37Z</time>
      </trkpt>
      <trkpt lat="43.8319" lon="4.15984">
        <ele>131.837890625</ele>
        <time>2011-05-01T09:24:39Z</time>
      </trkpt>
      <trkpt lat="43.8319" lon="4.15969">
        <ele>131.35729980469</ele>
        <time>2011-05-01T09:24:42Z</time>
      </trkpt>
      <trkpt lat="43.83185" lon="4.15956">
        <ele>131.837890625</ele>
        <time>2011-05-01T09:24:45Z</time>
      </trkpt>
      <trkpt lat="43.83182" lon="4.15943">
        <ele>131.837890625</ele>
        <time>2011-05-01T09:24:48Z</time>
      </trkpt>
      <trkpt lat="43.8318" lon="4.15927">
        <ele>131.35729980469</ele>
        <time>2011-05-01T09:24:51Z</time>
      </trkpt>
      <trkpt lat="43.83179" lon="4.15909">
        <ele>131.35729980469</ele>
        <time>2011-05-01T09:24:54Z</time>
      </trkpt>
      <trkpt lat="43.83176" lon="4.15892">
        <ele>130.39599609375</ele>
        <time>2011-05-01T09:24:57Z</time>
      </trkpt>
      <trkpt lat="43.83166" lon="4.15886">
        <ele>129.91528320312</ele>
        <time>2011-05-01T09:25:00Z</time>
      </trkpt>
      <trkpt lat="43.83157" lon="4.15882">
        <ele>129.91528320312</ele>
        <time>2011-05-01T09:25:04Z</time>
      </trkpt>
      <trkpt lat="43.83147" lon="4.15878">
        <ele>129.43469238281</ele>
        <time>2011-05-01T09:25:07Z</time>
      </trkpt>
      <trkpt lat="43.83141" lon="4.15865">
        <ele>129.91528320312</ele>
        <time>2011-05-01T09:25:10Z</time>
      </trkpt>
      <trkpt lat="43.83111" lon="4.15852">
        <ele>128.47338867188</ele>
        <time>2011-05-01T09:25:13Z</time>
      </trkpt>
      <trkpt lat="43.83121" lon="4.15853">
        <ele>128.9541015625</ele>
        <time>2011-05-01T09:25:16Z</time>
      </trkpt>
      <trkpt lat="43.83111" lon="4.15851">
        <ele>129.43469238281</ele>
        <time>2011-05-01T09:25:20Z</time>
      </trkpt>
      <trkpt lat="43.83111" lon="4.15852">
        <ele>128.47338867188</ele>
        <time>2011-05-01T09:25:23Z</time>
      </trkpt>
      <trkpt lat="43.83111" lon="4.15852">
        <ele>127.99255371094</ele>
        <time>2011-05-01T09:25:25Z</time>
      </trkpt>
      <trkpt lat="43.83111" lon="4.15852">
        <ele>127.03137207031</ele>
        <time>2011-05-01T09:25:27Z</time>
      </trkpt>
      <trkpt lat="43.83111" lon="4.15852">
        <ele>127.03137207031</ele>
        <time>2011-05-01T09:25:29Z</time>
      </trkpt>
      <trkpt lat="43.83095" lon="4.15782">
        <ele>126.55065917969</ele>
        <time>2011-05-01T09:25:32Z</time>
      </trkpt>
      <trkpt lat="43.83092" lon="4.15766">
        <ele>126.06994628906</ele>
        <time>2011-05-01T09:25:35Z</time>
      </trkpt>
      <trkpt lat="43.83088" lon="4.1575">
        <ele>125.58935546875</ele>
        <time>2011-05-01T09:25:38Z</time>
      </trkpt>
      <trkpt lat="43.83081" lon="4.15735">
        <ele>126.06994628906</ele>
        <time>2011-05-01T09:25:41Z</time>
      </trkpt>
      <trkpt lat="43.83071" lon="4.15724">
        <ele>125.58935546875</ele>
        <time>2011-05-01T09:25:44Z</time>
      </trkpt>
      <trkpt lat="43.83064" lon="4.15715">
        <ele>124.62805175781</ele>
        <time>2011-05-01T09:25:46Z</time>
      </trkpt>
      <trkpt lat="43.83056" lon="4.15705">
        <ele>124.14733886719</ele>
        <time>2011-05-01T09:25:48Z</time>
      </trkpt>
      <trkpt lat="43.8305" lon="4.15692">
        <ele>123.66674804688</ele>
        <time>2011-05-01T09:25:51Z</time>
      </trkpt>
      <trkpt lat="43.83047" lon="4.15681">
        <ele>123.66674804688</ele>
        <time>2011-05-01T09:25:54Z</time>
      </trkpt>
      <trkpt lat="43.8304" lon="4.15668">
        <ele>123.66674804688</ele>
        <time>2011-05-01T09:25:57Z</time>
      </trkpt>
      <trkpt lat="43.83035" lon="4.15654">
        <ele>122.70544433594</ele>
        <time>2011-05-01T09:26:00Z</time>
      </trkpt>
      <trkpt lat="43.8303" lon="4.1564">
        <ele>122.70544433594</ele>
        <time>2011-05-01T09:26:03Z</time>
      </trkpt>
      <trkpt lat="43.83024" lon="4.15626">
        <ele>122.22473144531</ele>
        <time>2011-05-01T09:26:06Z</time>
      </trkpt>
      <trkpt lat="43.83019" lon="4.15611">
        <ele>121.744140625</ele>
        <time>2011-05-01T09:26:09Z</time>
      </trkpt>
      <trkpt lat="43.83015" lon="4.15595">
        <ele>121.26354980469</ele>
        <time>2011-05-01T09:26:12Z</time>
      </trkpt>
      <trkpt lat="43.83011" lon="4.1558">
        <ele>120.78283691406</ele>
        <time>2011-05-01T09:26:15Z</time>
      </trkpt>
      <trkpt lat="43.83012" lon="4.15566">
        <ele>120.78283691406</ele>
        <time>2011-05-01T09:26:18Z</time>
      </trkpt>
      <trkpt lat="43.8301" lon="4.15552">
        <ele>121.26354980469</ele>
        <time>2011-05-01T09:26:21Z</time>
      </trkpt>
      <trkpt lat="43.83018" lon="4.15545">
        <ele>121.744140625</ele>
        <time>2011-05-01T09:26:25Z</time>
      </trkpt>
      <trkpt lat="43.83026" lon="4.15539">
        <ele>122.22473144531</ele>
        <time>2011-05-01T09:26:29Z</time>
      </trkpt>
      <trkpt lat="43.8303" lon="4.15525">
        <ele>123.18615722656</ele>
        <time>2011-05-01T09:26:33Z</time>
      </trkpt>
      <trkpt lat="43.83032" lon="4.1551">
        <ele>123.66674804688</ele>
        <time>2011-05-01T09:26:37Z</time>
      </trkpt>
      <trkpt lat="43.83028" lon="4.15497">
        <ele>123.66674804688</ele>
        <time>2011-05-01T09:26:40Z</time>
      </trkpt>
      <trkpt lat="43.83021" lon="4.15483">
        <ele>123.18615722656</ele>
        <time>2011-05-01T09:26:43Z</time>
      </trkpt>
      <trkpt lat="43.83015" lon="4.15467">
        <ele>123.18615722656</ele>
        <time>2011-05-01T09:26:46Z</time>
      </trkpt>
      <trkpt lat="43.83006" lon="4.15453">
        <ele>122.22473144531</ele>
        <time>2011-05-01T09:26:49Z</time>
      </trkpt>
      <trkpt lat="43.83" lon="4.15438">
        <ele>122.22473144531</ele>
        <time>2011-05-01T09:26:52Z</time>
      </trkpt>
      <trkpt lat="43.82992" lon="4.15422">
        <ele>122.70544433594</ele>
        <time>2011-05-01T09:26:55Z</time>
      </trkpt>
      <trkpt lat="43.82985" lon="4.15408">
        <ele>124.62805175781</ele>
        <time>2011-05-01T09:26:58Z</time>
      </trkpt>
      <trkpt lat="43.82979" lon="4.15397">
        <ele>124.62805175781</ele>
        <time>2011-05-01T09:27:01Z</time>
      </trkpt>
      <trkpt lat="43.82972" lon="4.15384">
        <ele>125.10876464844</ele>
        <time>2011-05-01T09:27:04Z</time>
      </trkpt>
      <trkpt lat="43.82967" lon="4.15367">
        <ele>125.10876464844</ele>
        <time>2011-05-01T09:27:07Z</time>
      </trkpt>
      <trkpt lat="43.82966" lon="4.15353">
        <ele>123.18615722656</ele>
        <time>2011-05-01T09:27:10Z</time>
      </trkpt>
      <trkpt lat="43.82975" lon="4.1535">
        <ele>123.66674804688</ele>
        <time>2011-05-01T09:27:15Z</time>
      </trkpt>
      <trkpt lat="43.82966" lon="4.15352">
        <ele>125.58935546875</ele>
        <time>2011-05-01T09:27:22Z</time>
      </trkpt>
      <trkpt lat="43.82981" lon="4.15354">
        <ele>124.14733886719</ele>
        <time>2011-05-01T09:27:27Z</time>
      </trkpt>
      <trkpt lat="43.82994" lon="4.15306">
        <ele>125.58935546875</ele>
        <time>2011-05-01T09:27:32Z</time>
      </trkpt>
      <trkpt lat="43.83003" lon="4.15303">
        <ele>127.03137207031</ele>
        <time>2011-05-01T09:27:37Z</time>
      </trkpt>
      <trkpt lat="43.82987" lon="4.15365">
        <ele>127.99255371094</ele>
        <time>2011-05-01T09:27:44Z</time>
      </trkpt>
      <trkpt lat="43.82987" lon="4.15365">
        <ele>128.9541015625</ele>
        <time>2011-05-01T09:27:50Z</time>
      </trkpt>
      <trkpt lat="43.82995" lon="4.15306">
        <ele>129.91528320312</ele>
        <time>2011-05-01T09:27:56Z</time>
      </trkpt>
      <trkpt lat="43.82999" lon="4.1539">
        <ele>130.39599609375</ele>
        <time>2011-05-01T09:28:02Z</time>
      </trkpt>
      <trkpt lat="43.83024" lon="4.15298">
        <ele>132.79931640625</ele>
        <time>2011-05-01T09:28:09Z</time>
      </trkpt>
      <trkpt lat="43.83031" lon="4.15298">
        <ele>134.72192382812</ele>
        <time>2011-05-01T09:28:29Z</time>
      </trkpt>
      <trkpt lat="43.83031" lon="4.15298">
        <ele>137.60583496094</ele>
        <time>2011-05-01T09:28:39Z</time>
      </trkpt>
      <trkpt lat="43.83046" lon="4.15296">
        <ele>139.52844238281</ele>
        <time>2011-05-01T09:28:47Z</time>
      </trkpt>
      <trkpt lat="43.8307" lon="4.15367">
        <ele>141.93176269531</ele>
        <time>2011-05-01T09:28:54Z</time>
      </trkpt>
      <trkpt lat="43.83078" lon="4.15371">
        <ele>142.89306640625</ele>
        <time>2011-05-01T09:29:00Z</time>
      </trkpt>
      <trkpt lat="43.83087" lon="4.15379">
        <ele>144.81579589844</ele>
        <time>2011-05-01T09:29:07Z</time>
      </trkpt>
      <trkpt lat="43.83094" lon="4.15388">
        <ele>145.77709960938</ele>
        <time>2011-05-01T09:29:14Z</time>
      </trkpt>
      <trkpt lat="43.83099" lon="4.154">
        <ele>148.66101074219</ele>
        <time>2011-05-01T09:29:26Z</time>
      </trkpt>
      <trkpt lat="43.83096" lon="4.15412">
        <ele>151.06420898438</ele>
        <time>2011-05-01T09:29:38Z</time>
      </trkpt>
      <trkpt lat="43.831" lon="4.15424">
        <ele>151.544921875</ele>
        <time>2011-05-01T09:29:45Z</time>
      </trkpt>
      <trkpt lat="43.83101" lon="4.15438">
        <ele>151.544921875</ele>
        <time>2011-05-01T09:29:52Z</time>
      </trkpt>
      <trkpt lat="43.83101" lon="4.15451">
        <ele>150.58361816406</ele>
        <time>2011-05-01T09:29:57Z</time>
      </trkpt>
      <trkpt lat="43.83108" lon="4.1546">
        <ele>151.06420898438</ele>
        <time>2011-05-01T09:30:02Z</time>
      </trkpt>
      <trkpt lat="43.83115" lon="4.15471">
        <ele>152.02575683594</ele>
        <time>2011-05-01T09:30:08Z</time>
      </trkpt>
      <trkpt lat="43.83119" lon="4.15483">
        <ele>152.02575683594</ele>
        <time>2011-05-01T09:30:13Z</time>
      </trkpt>
      <trkpt lat="43.83126" lon="4.15488">
        <ele>153.94836425781</ele>
        <time>2011-05-01T09:30:28Z</time>
      </trkpt>
      <trkpt lat="43.83133" lon="4.15485">
        <ele>154.42895507812</ele>
        <time>2011-05-01T09:30:52Z</time>
      </trkpt>
      <trkpt lat="43.83143" lon="4.1549">
        <ele>155.39025878906</ele>
        <time>2011-05-01T09:30:59Z</time>
      </trkpt>
      <trkpt lat="43.83149" lon="4.155">
        <ele>156.3515625</ele>
        <time>2011-05-01T09:31:25Z</time>
      </trkpt>
      <trkpt lat="43.83145" lon="4.1551">
        <ele>157.31286621094</ele>
        <time>2011-05-01T09:31:31Z</time>
      </trkpt>
      <trkpt lat="43.83145" lon="4.15522">
        <ele>157.79357910156</ele>
        <time>2011-05-01T09:31:45Z</time>
      </trkpt>
      <trkpt lat="43.83145" lon="4.15535">
        <ele>158.27416992188</ele>
        <time>2011-05-01T09:31:53Z</time>
      </trkpt>
      <trkpt lat="43.83139" lon="4.15547">
        <ele>158.27416992188</ele>
        <time>2011-05-01T09:31:59Z</time>
      </trkpt>
      <trkpt lat="43.83145" lon="4.15556">
        <ele>158.27416992188</ele>
        <time>2011-05-01T09:32:05Z</time>
      </trkpt>
      <trkpt lat="43.83153" lon="4.15559">
        <ele>159.23547363281</ele>
        <time>2011-05-01T09:32:10Z</time>
      </trkpt>
      <trkpt lat="43.8316" lon="4.15557">
        <ele>159.23547363281</ele>
        <time>2011-05-01T09:32:15Z</time>
      </trkpt>
      <trkpt lat="43.83165" lon="4.15568">
        <ele>160.67749023438</ele>
        <time>2011-05-01T09:32:20Z</time>
      </trkpt>
      <trkpt lat="43.8317" lon="4.15578">
        <ele>162.60009765625</ele>
        <time>2011-05-01T09:32:25Z</time>
      </trkpt>
      <trkpt lat="43.83168" lon="4.15592">
        <ele>162.11950683594</ele>
        <time>2011-05-01T09:32:30Z</time>
      </trkpt>
      <trkpt lat="43.83173" lon="4.15607">
        <ele>162.60009765625</ele>
        <time>2011-05-01T09:32:35Z</time>
      </trkpt>
      <trkpt lat="43.8318" lon="4.15618">
        <ele>162.60009765625</ele>
        <time>2011-05-01T09:32:40Z</time>
      </trkpt>
      <trkpt lat="43.83189" lon="4.15624">
        <ele>163.5615234375</ele>
        <time>2011-05-01T09:32:44Z</time>
      </trkpt>
      <trkpt lat="43.83196" lon="4.15633">
        <ele>164.04211425781</ele>
        <time>2011-05-01T09:32:48Z</time>
      </trkpt>
      <trkpt lat="43.83204" lon="4.15639">
        <ele>164.04211425781</ele>
        <time>2011-05-01T09:32:52Z</time>
      </trkpt>
      <trkpt lat="43.83214" lon="4.15645">
        <ele>164.52270507812</ele>
        <time>2011-05-01T09:32:56Z</time>
      </trkpt>
      <trkpt lat="43.83214" lon="4.15634">
        <ele>165.96472167969</ele>
        <time>2011-05-01T09:33:02Z</time>
      </trkpt>
      <trkpt lat="43.83218" lon="4.15625">
        <ele>165.96472167969</ele>
        <time>2011-05-01T09:33:07Z</time>
      </trkpt>
      <trkpt lat="43.83228" lon="4.15626">
        <ele>166.4453125</ele>
        <time>2011-05-01T09:33:12Z</time>
      </trkpt>
      <trkpt lat="43.83237" lon="4.15624">
        <ele>166.92602539062</ele>
        <time>2011-05-01T09:33:17Z</time>
      </trkpt>
      <trkpt lat="43.83248" lon="4.15628">
        <ele>166.92602539062</ele>
        <time>2011-05-01T09:33:22Z</time>
      </trkpt>
      <trkpt lat="43.83256" lon="4.15633">
        <ele>166.92602539062</ele>
        <time>2011-05-01T09:33:27Z</time>
      </trkpt>
      <trkpt lat="43.83263" lon="4.15643">
        <ele>166.92602539062</ele>
        <time>2011-05-01T09:33:32Z</time>
      </trkpt>
      <trkpt lat="43.83268" lon="4.15657">
        <ele>166.92602539062</ele>
        <time>2011-05-01T09:33:37Z</time>
      </trkpt>
      <trkpt lat="43.83268" lon="4.15674">
        <ele>165.00341796875</ele>
        <time>2011-05-01T09:33:43Z</time>
      </trkpt>
      <trkpt lat="43.83264" lon="4.15687">
        <ele>164.52270507812</ele>
        <time>2011-05-01T09:33:46Z</time>
      </trkpt>
      <trkpt lat="43.83259" lon="4.15699">
        <ele>163.08081054688</ele>
        <time>2011-05-01T09:33:49Z</time>
      </trkpt>
      <trkpt lat="43.83256" lon="4.1571">
        <ele>163.08081054688</ele>
        <time>2011-05-01T09:33:52Z</time>
      </trkpt>
      <trkpt lat="43.83254" lon="4.15722">
        <ele>162.11950683594</ele>
        <time>2011-05-01T09:33:54Z</time>
      </trkpt>
      <trkpt lat="43.83261" lon="4.15731">
        <ele>161.158203125</ele>
        <time>2011-05-01T09:33:57Z</time>
      </trkpt>
      <trkpt lat="43.83254" lon="4.15749">
        <ele>160.67749023438</ele>
        <time>2011-05-01T09:34:01Z</time>
      </trkpt>
      <trkpt lat="43.83258" lon="4.15762">
        <ele>160.19689941406</ele>
        <time>2011-05-01T09:34:04Z</time>
      </trkpt>
      <trkpt lat="43.83264" lon="4.15771">
        <ele>159.71618652344</ele>
        <time>2011-05-01T09:34:08Z</time>
      </trkpt>
      <trkpt lat="43.8327" lon="4.15782">
        <ele>159.71618652344</ele>
        <time>2011-05-01T09:34:14Z</time>
      </trkpt>
      <trkpt lat="43.83276" lon="4.15792">
        <ele>159.23547363281</ele>
        <time>2011-05-01T09:34:19Z</time>
      </trkpt>
      <trkpt lat="43.83274" lon="4.15806">
        <ele>157.31286621094</ele>
        <time>2011-05-01T09:34:23Z</time>
      </trkpt>
      <trkpt lat="43.83279" lon="4.15819">
        <ele>158.27416992188</ele>
        <time>2011-05-01T09:34:27Z</time>
      </trkpt>
      <trkpt lat="43.83289" lon="4.15824">
        <ele>159.23547363281</ele>
        <time>2011-05-01T09:34:33Z</time>
      </trkpt>
      <trkpt lat="43.83296" lon="4.15832">
        <ele>161.158203125</ele>
        <time>2011-05-01T09:34:40Z</time>
      </trkpt>
      <trkpt lat="43.83304" lon="4.15845">
        <ele>162.60009765625</ele>
        <time>2011-05-01T09:36:16Z</time>
      </trkpt>
      <trkpt lat="43.83317" lon="4.15861">
        <ele>164.04211425781</ele>
        <time>2011-05-01T09:36:27Z</time>
      </trkpt>
      <trkpt lat="43.83321" lon="4.15875">
        <ele>164.04211425781</ele>
        <time>2011-05-01T09:36:33Z</time>
      </trkpt>
      <trkpt lat="43.8332" lon="4.15893">
        <ele>165.00341796875</ele>
        <time>2011-05-01T09:36:40Z</time>
      </trkpt>
      <trkpt lat="43.83321" lon="4.15909">
        <ele>165.48413085938</ele>
        <time>2011-05-01T09:36:45Z</time>
      </trkpt>
      <trkpt lat="43.83324" lon="4.15923">
        <ele>164.52270507812</ele>
        <time>2011-05-01T09:36:50Z</time>
      </trkpt>
      <trkpt lat="43.83325" lon="4.15943">
        <ele>164.04211425781</ele>
        <time>2011-05-01T09:36:57Z</time>
      </trkpt>
      <trkpt lat="43.83333" lon="4.15955">
        <ele>164.52270507812</ele>
        <time>2011-05-01T09:37:02Z</time>
      </trkpt>
      <trkpt lat="43.8334" lon="4.15963">
        <ele>165.00341796875</ele>
        <time>2011-05-01T09:37:06Z</time>
      </trkpt>
      <trkpt lat="43.83351" lon="4.15958">
        <ele>165.96472167969</ele>
        <time>2011-05-01T09:37:11Z</time>
      </trkpt>
      <trkpt lat="43.83357" lon="4.15949">
        <ele>166.92602539062</ele>
        <time>2011-05-01T09:37:15Z</time>
      </trkpt>
      <trkpt lat="43.83366" lon="4.1595">
        <ele>166.92602539062</ele>
        <time>2011-05-01T09:37:20Z</time>
      </trkpt>
      <trkpt lat="43.83366" lon="4.15961">
        <ele>167.88732910156</ele>
        <time>2011-05-01T09:37:24Z</time>
      </trkpt>
      <trkpt lat="43.83363" lon="4.15977">
        <ele>167.88732910156</ele>
        <time>2011-05-01T09:37:28Z</time>
      </trkpt>
      <trkpt lat="43.83365" lon="4.15992">
        <ele>167.88732910156</ele>
        <time>2011-05-01T09:37:32Z</time>
      </trkpt>
      <trkpt lat="43.8337" lon="4.16007">
        <ele>168.36804199219</ele>
        <time>2011-05-01T09:37:36Z</time>
      </trkpt>
      <trkpt lat="43.83375" lon="4.16021">
        <ele>168.84875488281</ele>
        <time>2011-05-01T09:37:40Z</time>
      </trkpt>
      <trkpt lat="43.83381" lon="4.16033">
        <ele>168.84875488281</ele>
        <time>2011-05-01T09:37:43Z</time>
      </trkpt>
      <trkpt lat="43.83386" lon="4.16044">
        <ele>169.32946777344</ele>
        <time>2011-05-01T09:37:46Z</time>
      </trkpt>
      <trkpt lat="43.83393" lon="4.16057">
        <ele>169.32946777344</ele>
        <time>2011-05-01T09:37:49Z</time>
      </trkpt>
      <trkpt lat="43.83399" lon="4.16069">
        <ele>169.81005859375</ele>
        <time>2011-05-01T09:37:52Z</time>
      </trkpt>
      <trkpt lat="43.83404" lon="4.16082">
        <ele>170.77136230469</ele>
        <time>2011-05-01T09:37:55Z</time>
      </trkpt>
      <trkpt lat="43.83409" lon="4.16097">
        <ele>169.81005859375</ele>
        <time>2011-05-01T09:37:58Z</time>
      </trkpt>
      <trkpt lat="43.83415" lon="4.1611">
        <ele>170.77136230469</ele>
        <time>2011-05-01T09:38:01Z</time>
      </trkpt>
      <trkpt lat="43.83419" lon="4.16126">
        <ele>169.81005859375</ele>
        <time>2011-05-01T09:38:04Z</time>
      </trkpt>
      <trkpt lat="43.83425" lon="4.1614">
        <ele>170.29064941406</ele>
        <time>2011-05-01T09:38:07Z</time>
      </trkpt>
      <trkpt lat="43.83431" lon="4.16156">
        <ele>170.77136230469</ele>
        <time>2011-05-01T09:38:10Z</time>
      </trkpt>
      <trkpt lat="43.83437" lon="4.16171">
        <ele>170.77136230469</ele>
        <time>2011-05-01T09:38:13Z</time>
      </trkpt>
      <trkpt lat="43.83442" lon="4.16185">
        <ele>170.77136230469</ele>
        <time>2011-05-01T09:38:16Z</time>
      </trkpt>
      <trkpt lat="43.83447" lon="4.16199">
        <ele>171.25207519531</ele>
        <time>2011-05-01T09:38:19Z</time>
      </trkpt>
      <trkpt lat="43.83456" lon="4.16211">
        <ele>171.25207519531</ele>
        <time>2011-05-01T09:38:22Z</time>
      </trkpt>
      <trkpt lat="43.83467" lon="4.16216">
        <ele>171.25207519531</ele>
        <time>2011-05-01T09:38:25Z</time>
      </trkpt>
      <trkpt lat="43.8348" lon="4.16222">
        <ele>171.73266601562</ele>
        <time>2011-05-01T09:38:28Z</time>
      </trkpt>
      <trkpt lat="43.83492" lon="4.16228">
        <ele>171.25207519531</ele>
        <time>2011-05-01T09:38:31Z</time>
      </trkpt>
      <trkpt lat="43.83502" lon="4.16238">
        <ele>171.73266601562</ele>
        <time>2011-05-01T09:38:34Z</time>
      </trkpt>
      <trkpt lat="43.83508" lon="4.16249">
        <ele>170.77136230469</ele>
        <time>2011-05-01T09:38:36Z</time>
      </trkpt>
      <trkpt lat="43.83513" lon="4.1626">
        <ele>171.25207519531</ele>
        <time>2011-05-01T09:38:38Z</time>
      </trkpt>
      <trkpt lat="43.8352" lon="4.16269">
        <ele>169.32946777344</ele>
        <time>2011-05-01T09:38:40Z</time>
      </trkpt>
      <trkpt lat="43.83529" lon="4.16272">
        <ele>168.84875488281</ele>
        <time>2011-05-01T09:38:43Z</time>
      </trkpt>
      <trkpt lat="43.8354" lon="4.16263">
        <ele>168.84875488281</ele>
        <time>2011-05-01T09:38:46Z</time>
      </trkpt>
      <trkpt lat="43.83547" lon="4.16255">
        <ele>169.32946777344</ele>
        <time>2011-05-01T09:38:48Z</time>
      </trkpt>
      <trkpt lat="43.83554" lon="4.16247">
        <ele>169.81005859375</ele>
        <time>2011-05-01T09:38:50Z</time>
      </trkpt>
      <trkpt lat="43.83561" lon="4.16239">
        <ele>169.32946777344</ele>
        <time>2011-05-01T09:38:52Z</time>
      </trkpt>
      <trkpt lat="43.8357" lon="4.16232">
        <ele>169.32946777344</ele>
        <time>2011-05-01T09:38:54Z</time>
      </trkpt>
      <trkpt lat="43.83579" lon="4.16226">
        <ele>169.32946777344</ele>
        <time>2011-05-01T09:38:56Z</time>
      </trkpt>
      <trkpt lat="43.83592" lon="4.16223">
        <ele>169.81005859375</ele>
        <time>2011-05-01T09:38:59Z</time>
      </trkpt>
      <trkpt lat="43.83605" lon="4.16226">
        <ele>170.29064941406</ele>
        <time>2011-05-01T09:39:02Z</time>
      </trkpt>
      <trkpt lat="43.83616" lon="4.16231">
        <ele>170.29064941406</ele>
        <time>2011-05-01T09:39:05Z</time>
      </trkpt>
      <trkpt lat="43.83627" lon="4.16236">
        <ele>171.25207519531</ele>
        <time>2011-05-01T09:39:08Z</time>
      </trkpt>
      <trkpt lat="43.8364" lon="4.16238">
        <ele>171.73266601562</ele>
        <time>2011-05-01T09:39:11Z</time>
      </trkpt>
      <trkpt lat="43.83653" lon="4.16238">
        <ele>172.21325683594</ele>
        <time>2011-05-01T09:39:14Z</time>
      </trkpt>
      <trkpt lat="43.83666" lon="4.16238">
        <ele>171.73266601562</ele>
        <time>2011-05-01T09:39:17Z</time>
      </trkpt>
      <trkpt lat="43.83679" lon="4.16238">
        <ele>172.21325683594</ele>
        <time>2011-05-01T09:39:20Z</time>
      </trkpt>
      <trkpt lat="43.83692" lon="4.16242">
        <ele>172.21325683594</ele>
        <time>2011-05-01T09:39:23Z</time>
      </trkpt>
      <trkpt lat="43.83703" lon="4.1625">
        <ele>172.21325683594</ele>
        <time>2011-05-01T09:39:26Z</time>
      </trkpt>
      <trkpt lat="43.83713" lon="4.1626">
        <ele>172.21325683594</ele>
        <time>2011-05-01T09:39:29Z</time>
      </trkpt>
      <trkpt lat="43.83724" lon="4.16267">
        <ele>172.69396972656</ele>
        <time>2011-05-01T09:39:32Z</time>
      </trkpt>
      <trkpt lat="43.83732" lon="4.16277">
        <ele>172.69396972656</ele>
        <time>2011-05-01T09:39:35Z</time>
      </trkpt>
      <trkpt lat="43.83742" lon="4.16287">
        <ele>173.6552734375</ele>
        <time>2011-05-01T09:39:38Z</time>
      </trkpt>
      <trkpt lat="43.83751" lon="4.16297">
        <ele>174.13586425781</ele>
        <time>2011-05-01T09:39:41Z</time>
      </trkpt>
      <trkpt lat="43.83759" lon="4.16309">
        <ele>175.09729003906</ele>
        <time>2011-05-01T09:39:44Z</time>
      </trkpt>
      <trkpt lat="43.83768" lon="4.16321">
        <ele>174.13586425781</ele>
        <time>2011-05-01T09:39:47Z</time>
      </trkpt>
      <trkpt lat="43.83777" lon="4.16333">
        <ele>174.13586425781</ele>
        <time>2011-05-01T09:39:50Z</time>
      </trkpt>
      <trkpt lat="43.83785" lon="4.16346">
        <ele>173.6552734375</ele>
        <time>2011-05-01T09:39:53Z</time>
      </trkpt>
      <trkpt lat="43.83793" lon="4.16359">
        <ele>174.13586425781</ele>
        <time>2011-05-01T09:39:56Z</time>
      </trkpt>
      <trkpt lat="43.83801" lon="4.16372">
        <ele>173.6552734375</ele>
        <time>2011-05-01T09:39:59Z</time>
      </trkpt>
      <trkpt lat="43.83811" lon="4.16385">
        <ele>174.13586425781</ele>
        <time>2011-05-01T09:40:02Z</time>
      </trkpt>
      <trkpt lat="43.83817" lon="4.16388">
        <ele>174.13586425781</ele>
        <time>2011-05-01T09:40:05Z</time>
      </trkpt>
      <trkpt lat="43.83819" lon="4.16412">
        <ele>174.13586425781</ele>
        <time>2011-05-01T09:40:07Z</time>
      </trkpt>
      <trkpt lat="43.83821" lon="4.16425">
        <ele>174.61657714844</ele>
        <time>2011-05-01T09:40:09Z</time>
      </trkpt>
      <trkpt lat="43.83823" lon="4.16438">
        <ele>174.61657714844</ele>
        <time>2011-05-01T09:40:11Z</time>
      </trkpt>
      <trkpt lat="43.83827" lon="4.1645">
        <ele>174.13586425781</ele>
        <time>2011-05-01T09:40:13Z</time>
      </trkpt>
      <trkpt lat="43.8383" lon="4.16463">
        <ele>174.13586425781</ele>
        <time>2011-05-01T09:40:15Z</time>
      </trkpt>
      <trkpt lat="43.83832" lon="4.16476">
        <ele>174.13586425781</ele>
        <time>2011-05-01T09:40:17Z</time>
      </trkpt>
      <trkpt lat="43.83836" lon="4.16489">
        <ele>175.09729003906</ele>
        <time>2011-05-01T09:40:19Z</time>
      </trkpt>
      <trkpt lat="43.8384" lon="4.16502">
        <ele>174.13586425781</ele>
        <time>2011-05-01T09:40:21Z</time>
      </trkpt>
      <trkpt lat="43.83843" lon="4.16515">
        <ele>174.61657714844</ele>
        <time>2011-05-01T09:40:23Z</time>
      </trkpt>
      <trkpt lat="43.83845" lon="4.16528">
        <ele>174.61657714844</ele>
        <time>2011-05-01T09:40:25Z</time>
      </trkpt>
      <trkpt lat="43.83847" lon="4.1654">
        <ele>175.09729003906</ele>
        <time>2011-05-01T09:40:27Z</time>
      </trkpt>
      <trkpt lat="43.83849" lon="4.16553">
        <ele>175.09729003906</ele>
        <time>2011-05-01T09:40:29Z</time>
      </trkpt>
      <trkpt lat="43.83851" lon="4.16566">
        <ele>175.57788085938</ele>
        <time>2011-05-01T09:40:31Z</time>
      </trkpt>
      <trkpt lat="43.83852" lon="4.16579">
        <ele>175.57788085938</ele>
        <time>2011-05-01T09:40:33Z</time>
      </trkpt>
      <trkpt lat="43.83854" lon="4.16592">
        <ele>176.53930664062</ele>
        <time>2011-05-01T09:40:35Z</time>
      </trkpt>
      <trkpt lat="43.83855" lon="4.16605">
        <ele>176.05859375</ele>
        <time>2011-05-01T09:40:37Z</time>
      </trkpt>
      <trkpt lat="43.83856" lon="4.16617">
        <ele>176.05859375</ele>
        <time>2011-05-01T09:40:39Z</time>
      </trkpt>
      <trkpt lat="43.83858" lon="4.1663">
        <ele>176.53930664062</ele>
        <time>2011-05-01T09:40:41Z</time>
      </trkpt>
      <trkpt lat="43.83859" lon="4.16642">
        <ele>177.02001953125</ele>
        <time>2011-05-01T09:40:43Z</time>
      </trkpt>
      <trkpt lat="43.83861" lon="4.16661">
        <ele>176.53930664062</ele>
        <time>2011-05-01T09:40:46Z</time>
      </trkpt>
      <trkpt lat="43.83863" lon="4.16679">
        <ele>176.53930664062</ele>
        <time>2011-05-01T09:40:49Z</time>
      </trkpt>
      <trkpt lat="43.83864" lon="4.16696">
        <ele>177.02001953125</ele>
        <time>2011-05-01T09:40:52Z</time>
      </trkpt>
      <trkpt lat="43.83868" lon="4.16695">
        <ele>177.02001953125</ele>
        <time>2011-05-01T09:40:55Z</time>
      </trkpt>
      <trkpt lat="43.83877" lon="4.16685">
        <ele>177.02001953125</ele>
        <time>2011-05-01T09:40:58Z</time>
      </trkpt>
      <trkpt lat="43.83887" lon="4.16675">
        <ele>176.53930664062</ele>
        <time>2011-05-01T09:41:01Z</time>
      </trkpt>
      <trkpt lat="43.83898" lon="4.16662">
        <ele>176.53930664062</ele>
        <time>2011-05-01T09:41:04Z</time>
      </trkpt>
      <trkpt lat="43.83911" lon="4.16654">
        <ele>176.05859375</ele>
        <time>2011-05-01T09:41:07Z</time>
      </trkpt>
      <trkpt lat="43.83921" lon="4.16647">
        <ele>175.57788085938</ele>
        <time>2011-05-01T09:41:09Z</time>
      </trkpt>
      <trkpt lat="43.8393" lon="4.1664">
        <ele>174.61657714844</ele>
        <time>2011-05-01T09:41:11Z</time>
      </trkpt>
      <trkpt lat="43.83942" lon="4.16633">
        <ele>174.61657714844</ele>
        <time>2011-05-01T09:41:13Z</time>
      </trkpt>
      <trkpt lat="43.83955" lon="4.16629">
        <ele>173.17468261719</ele>
        <time>2011-05-01T09:41:15Z</time>
      </trkpt>
      <trkpt lat="43.83968" lon="4.16624">
        <ele>172.69396972656</ele>
        <time>2011-05-01T09:41:17Z</time>
      </trkpt>
      <trkpt lat="43.83979" lon="4.16617">
        <ele>172.69396972656</ele>
        <time>2011-05-01T09:41:19Z</time>
      </trkpt>
      <trkpt lat="43.83988" lon="4.16608">
        <ele>172.69396972656</ele>
        <time>2011-05-01T09:41:21Z</time>
      </trkpt>
      <trkpt lat="43.83996" lon="4.166">
        <ele>171.25207519531</ele>
        <time>2011-05-01T09:41:23Z</time>
      </trkpt>
      <trkpt lat="43.84006" lon="4.16613">
        <ele>171.25207519531</ele>
        <time>2011-05-01T09:41:27Z</time>
      </trkpt>
      <trkpt lat="43.84004" lon="4.16626">
        <ele>170.77136230469</ele>
        <time>2011-05-01T09:41:31Z</time>
      </trkpt>
      <trkpt lat="43.84002" lon="4.16641">
        <ele>169.81005859375</ele>
        <time>2011-05-01T09:41:39Z</time>
      </trkpt>
      <trkpt lat="43.84001" lon="4.16656">
        <ele>168.84875488281</ele>
        <time>2011-05-01T09:41:46Z</time>
      </trkpt>
      <trkpt lat="43.84002" lon="4.1667">
        <ele>168.36804199219</ele>
        <time>2011-05-01T09:41:50Z</time>
      </trkpt>
      <trkpt lat="43.8401" lon="4.16683">
        <ele>163.5615234375</ele>
        <time>2011-05-01T09:41:56Z</time>
      </trkpt>
      <trkpt lat="43.84021" lon="4.16686">
        <ele>162.60009765625</ele>
        <time>2011-05-01T09:41:59Z</time>
      </trkpt>
      <trkpt lat="43.84031" lon="4.16682">
        <ele>161.63891601562</ele>
        <time>2011-05-01T09:42:04Z</time>
      </trkpt>
      <trkpt lat="43.84044" lon="4.16678">
        <ele>159.23547363281</ele>
        <time>2011-05-01T09:42:08Z</time>
      </trkpt>
      <trkpt lat="43.84056" lon="4.16678">
        <ele>157.79357910156</ele>
        <time>2011-05-01T09:42:11Z</time>
      </trkpt>
      <trkpt lat="43.84107" lon="4.16678">
        <ele>154.90954589844</ele>
        <time>2011-05-01T09:42:14Z</time>
      </trkpt>
      <trkpt lat="43.8408" lon="4.16686">
        <ele>155.87097167969</ele>
        <time>2011-05-01T09:42:17Z</time>
      </trkpt>
      <trkpt lat="43.84107" lon="4.16678">
        <ele>152.98693847656</ele>
        <time>2011-05-01T09:42:20Z</time>
      </trkpt>
      <trkpt lat="43.84106" lon="4.16682">
        <ele>152.98693847656</ele>
        <time>2011-05-01T09:42:24Z</time>
      </trkpt>
      <trkpt lat="43.84117" lon="4.1669">
        <ele>152.98693847656</ele>
        <time>2011-05-01T09:42:27Z</time>
      </trkpt>
      <trkpt lat="43.84133" lon="4.16692">
        <ele>152.50634765625</ele>
        <time>2011-05-01T09:42:30Z</time>
      </trkpt>
      <trkpt lat="43.84144" lon="4.167">
        <ele>152.50634765625</ele>
        <time>2011-05-01T09:42:33Z</time>
      </trkpt>
      <trkpt lat="43.84156" lon="4.16708">
        <ele>152.98693847656</ele>
        <time>2011-05-01T09:42:36Z</time>
      </trkpt>
      <trkpt lat="43.84166" lon="4.16718">
        <ele>153.46765136719</ele>
        <time>2011-05-01T09:42:39Z</time>
      </trkpt>
      <trkpt lat="43.84173" lon="4.16727">
        <ele>153.94836425781</ele>
        <time>2011-05-01T09:42:42Z</time>
      </trkpt>
      <trkpt lat="43.8418" lon="4.16736">
        <ele>155.87097167969</ele>
        <time>2011-05-01T09:42:45Z</time>
      </trkpt>
      <trkpt lat="43.84187" lon="4.16744">
        <ele>156.3515625</ele>
        <time>2011-05-01T09:42:49Z</time>
      </trkpt>
      <trkpt lat="43.84194" lon="4.16753">
        <ele>157.31286621094</ele>
        <time>2011-05-01T09:42:53Z</time>
      </trkpt>
      <trkpt lat="43.84202" lon="4.16758">
        <ele>157.79357910156</ele>
        <time>2011-05-01T09:42:57Z</time>
      </trkpt>
      <trkpt lat="43.8421" lon="4.16766">
        <ele>158.27416992188</ele>
        <time>2011-05-01T09:43:01Z</time>
      </trkpt>
      <trkpt lat="43.84217" lon="4.16774">
        <ele>158.27416992188</ele>
        <time>2011-05-01T09:43:04Z</time>
      </trkpt>
      <trkpt lat="43.84225" lon="4.16787">
        <ele>157.79357910156</ele>
        <time>2011-05-01T09:43:07Z</time>
      </trkpt>
      <trkpt lat="43.8423" lon="4.16796">
        <ele>157.31286621094</ele>
        <time>2011-05-01T09:43:09Z</time>
      </trkpt>
      <trkpt lat="43.84235" lon="4.16807">
        <ele>155.87097167969</ele>
        <time>2011-05-01T09:43:11Z</time>
      </trkpt>
      <trkpt lat="43.84238" lon="4.1682">
        <ele>155.39025878906</ele>
        <time>2011-05-01T09:43:13Z</time>
      </trkpt>
      <trkpt lat="43.8424" lon="4.16832">
        <ele>153.94836425781</ele>
        <time>2011-05-01T09:43:15Z</time>
      </trkpt>
      <trkpt lat="43.8424" lon="4.16845">
        <ele>153.94836425781</ele>
        <time>2011-05-01T09:43:17Z</time>
      </trkpt>
      <trkpt lat="43.84249" lon="4.16857">
        <ele>152.50634765625</ele>
        <time>2011-05-01T09:43:20Z</time>
      </trkpt>
      <trkpt lat="43.84253" lon="4.16869">
        <ele>152.50634765625</ele>
        <time>2011-05-01T09:43:23Z</time>
      </trkpt>
      <trkpt lat="43.84262" lon="4.16882">
        <ele>151.544921875</ele>
        <time>2011-05-01T09:43:26Z</time>
      </trkpt>
      <trkpt lat="43.84266" lon="4.16894">
        <ele>151.544921875</ele>
        <time>2011-05-01T09:43:28Z</time>
      </trkpt>
      <trkpt lat="43.84266" lon="4.16911">
        <ele>151.06420898438</ele>
        <time>2011-05-01T09:43:31Z</time>
      </trkpt>
      <trkpt lat="43.84266" lon="4.16927">
        <ele>151.544921875</ele>
        <time>2011-05-01T09:43:34Z</time>
      </trkpt>
      <trkpt lat="43.84264" lon="4.1694">
        <ele>152.50634765625</ele>
        <time>2011-05-01T09:43:37Z</time>
      </trkpt>
      <trkpt lat="43.84267" lon="4.16955">
        <ele>152.50634765625</ele>
        <time>2011-05-01T09:43:40Z</time>
      </trkpt>
      <trkpt lat="43.84271" lon="4.1697">
        <ele>152.02575683594</ele>
        <time>2011-05-01T09:43:43Z</time>
      </trkpt>
      <trkpt lat="43.84274" lon="4.16987">
        <ele>152.98693847656</ele>
        <time>2011-05-01T09:43:46Z</time>
      </trkpt>
      <trkpt lat="43.84274" lon="4.17002">
        <ele>152.02575683594</ele>
        <time>2011-05-01T09:43:49Z</time>
      </trkpt>
      <trkpt lat="43.84271" lon="4.17016">
        <ele>152.50634765625</ele>
        <time>2011-05-01T09:43:52Z</time>
      </trkpt>
      <trkpt lat="43.84268" lon="4.17028">
        <ele>152.98693847656</ele>
        <time>2011-05-01T09:43:55Z</time>
      </trkpt>
      <trkpt lat="43.84265" lon="4.17039">
        <ele>153.94836425781</ele>
        <time>2011-05-01T09:43:59Z</time>
      </trkpt>
      <trkpt lat="43.84261" lon="4.17052">
        <ele>153.94836425781</ele>
        <time>2011-05-01T09:44:03Z</time>
      </trkpt>
      <trkpt lat="43.84257" lon="4.17068">
        <ele>154.90954589844</ele>
        <time>2011-05-01T09:44:06Z</time>
      </trkpt>
      <trkpt lat="43.84255" lon="4.17083">
        <ele>154.90954589844</ele>
        <time>2011-05-01T09:44:09Z</time>
      </trkpt>
      <trkpt lat="43.84255" lon="4.17102">
        <ele>155.87097167969</ele>
        <time>2011-05-01T09:44:13Z</time>
      </trkpt>
      <trkpt lat="43.84257" lon="4.17115">
        <ele>155.87097167969</ele>
        <time>2011-05-01T09:44:16Z</time>
      </trkpt>
      <trkpt lat="43.84257" lon="4.17122">
        <ele>157.31286621094</ele>
        <time>2011-05-01T09:44:20Z</time>
      </trkpt>
      <trkpt lat="43.84257" lon="4.17122">
        <ele>157.79357910156</ele>
        <time>2011-05-01T09:44:24Z</time>
      </trkpt>
      <trkpt lat="43.84257" lon="4.17122">
        <ele>158.27416992188</ele>
        <time>2011-05-01T09:44:28Z</time>
      </trkpt>
      <trkpt lat="43.84257" lon="4.17122">
        <ele>158.27416992188</ele>
        <time>2011-05-01T09:44:32Z</time>
      </trkpt>
      <trkpt lat="43.84295" lon="4.17178">
        <ele>159.71618652344</ele>
        <time>2011-05-01T09:44:36Z</time>
      </trkpt>
      <trkpt lat="43.84298" lon="4.17192">
        <ele>160.19689941406</ele>
        <time>2011-05-01T09:44:40Z</time>
      </trkpt>
      <trkpt lat="43.843" lon="4.17206">
        <ele>160.67749023438</ele>
        <time>2011-05-01T09:44:44Z</time>
      </trkpt>
      <trkpt lat="43.84304" lon="4.17219">
        <ele>161.158203125</ele>
        <time>2011-05-01T09:44:48Z</time>
      </trkpt>
      <trkpt lat="43.8431" lon="4.17232">
        <ele>161.63891601562</ele>
        <time>2011-05-01T09:44:52Z</time>
      </trkpt>
      <trkpt lat="43.84316" lon="4.17245">
        <ele>161.158203125</ele>
        <time>2011-05-01T09:44:56Z</time>
      </trkpt>
      <trkpt lat="43.84321" lon="4.1726">
        <ele>161.63891601562</ele>
        <time>2011-05-01T09:45:01Z</time>
      </trkpt>
      <trkpt lat="43.84325" lon="4.17273">
        <ele>164.04211425781</ele>
        <time>2011-05-01T09:45:06Z</time>
      </trkpt>
      <trkpt lat="43.84329" lon="4.17286">
        <ele>164.04211425781</ele>
        <time>2011-05-01T09:45:11Z</time>
      </trkpt>
      <trkpt lat="43.84329" lon="4.17301">
        <ele>164.52270507812</ele>
        <time>2011-05-01T09:45:16Z</time>
      </trkpt>
      <trkpt lat="43.84331" lon="4.17317">
        <ele>165.00341796875</ele>
        <time>2011-05-01T09:45:21Z</time>
      </trkpt>
      <trkpt lat="43.84333" lon="4.17331">
        <ele>165.00341796875</ele>
        <time>2011-05-01T09:45:25Z</time>
      </trkpt>
      <trkpt lat="43.84337" lon="4.17342">
        <ele>166.4453125</ele>
        <time>2011-05-01T09:45:29Z</time>
      </trkpt>
      <trkpt lat="43.8434" lon="4.17355">
        <ele>166.4453125</ele>
        <time>2011-05-01T09:45:33Z</time>
      </trkpt>
      <trkpt lat="43.84344" lon="4.17368">
        <ele>167.40673828125</ele>
        <time>2011-05-01T09:45:37Z</time>
      </trkpt>
      <trkpt lat="43.84349" lon="4.17377">
        <ele>167.88732910156</ele>
        <time>2011-05-01T09:45:41Z</time>
      </trkpt>
      <trkpt lat="43.84358" lon="4.17385">
        <ele>168.36804199219</ele>
        <time>2011-05-01T09:45:46Z</time>
      </trkpt>
      <trkpt lat="43.84367" lon="4.1739">
        <ele>169.32946777344</ele>
        <time>2011-05-01T09:45:50Z</time>
      </trkpt>
      <trkpt lat="43.84375" lon="4.17395">
        <ele>169.81005859375</ele>
        <time>2011-05-01T09:45:54Z</time>
      </trkpt>
      <trkpt lat="43.84383" lon="4.17405">
        <ele>170.77136230469</ele>
        <time>2011-05-01T09:45:58Z</time>
      </trkpt>
      <trkpt lat="43.84394" lon="4.1741">
        <ele>171.73266601562</ele>
        <time>2011-05-01T09:46:03Z</time>
      </trkpt>
      <trkpt lat="43.84404" lon="4.17413">
        <ele>172.69396972656</ele>
        <time>2011-05-01T09:46:08Z</time>
      </trkpt>
      <trkpt lat="43.84397" lon="4.17422">
        <ele>172.69396972656</ele>
        <time>2011-05-01T09:46:14Z</time>
      </trkpt>
      <trkpt lat="43.84387" lon="4.17427">
        <ele>174.13586425781</ele>
        <time>2011-05-01T09:46:19Z</time>
      </trkpt>
      <trkpt lat="43.84379" lon="4.17435">
        <ele>174.13586425781</ele>
        <time>2011-05-01T09:46:24Z</time>
      </trkpt>
      <trkpt lat="43.8437" lon="4.17444">
        <ele>175.57788085938</ele>
        <time>2011-05-01T09:46:29Z</time>
      </trkpt>
      <trkpt lat="43.84361" lon="4.17451">
        <ele>176.05859375</ele>
        <time>2011-05-01T09:46:34Z</time>
      </trkpt>
      <trkpt lat="43.84354" lon="4.17458">
        <ele>176.53930664062</ele>
        <time>2011-05-01T09:46:38Z</time>
      </trkpt>
      <trkpt lat="43.84347" lon="4.17469">
        <ele>176.05859375</ele>
        <time>2011-05-01T09:46:42Z</time>
      </trkpt>
      <trkpt lat="43.84341" lon="4.17482">
        <ele>176.53930664062</ele>
        <time>2011-05-01T09:46:46Z</time>
      </trkpt>
      <trkpt lat="43.84335" lon="4.17495">
        <ele>176.53930664062</ele>
        <time>2011-05-01T09:46:50Z</time>
      </trkpt>
      <trkpt lat="43.8433" lon="4.17509">
        <ele>177.02001953125</ele>
        <time>2011-05-01T09:46:54Z</time>
      </trkpt>
      <trkpt lat="43.84324" lon="4.17523">
        <ele>177.50061035156</ele>
        <time>2011-05-01T09:46:58Z</time>
      </trkpt>
      <trkpt lat="43.84319" lon="4.17535">
        <ele>177.50061035156</ele>
        <time>2011-05-01T09:47:02Z</time>
      </trkpt>
      <trkpt lat="43.84314" lon="4.17548">
        <ele>177.98120117188</ele>
        <time>2011-05-01T09:47:06Z</time>
      </trkpt>
      <trkpt lat="43.84309" lon="4.17562">
        <ele>178.94262695312</ele>
        <time>2011-05-01T09:47:10Z</time>
      </trkpt>
      <trkpt lat="43.84305" lon="4.17575">
        <ele>179.42321777344</ele>
        <time>2011-05-01T09:47:14Z</time>
      </trkpt>
      <trkpt lat="43.84305" lon="4.17588">
        <ele>179.90380859375</ele>
        <time>2011-05-01T09:47:18Z</time>
      </trkpt>
      <trkpt lat="43.84309" lon="4.17602">
        <ele>179.42321777344</ele>
        <time>2011-05-01T09:47:22Z</time>
      </trkpt>
      <trkpt lat="43.84313" lon="4.17615">
        <ele>180.865234375</ele>
        <time>2011-05-01T09:47:26Z</time>
      </trkpt>
      <trkpt lat="43.84318" lon="4.17631">
        <ele>180.865234375</ele>
        <time>2011-05-01T09:47:30Z</time>
      </trkpt>
      <trkpt lat="43.84321" lon="4.17642">
        <ele>181.34582519531</ele>
        <time>2011-05-01T09:47:33Z</time>
      </trkpt>
      <trkpt lat="43.84323" lon="4.17655">
        <ele>181.34582519531</ele>
        <time>2011-05-01T09:47:36Z</time>
      </trkpt>
      <trkpt lat="43.84325" lon="4.1767">
        <ele>180.865234375</ele>
        <time>2011-05-01T09:47:39Z</time>
      </trkpt>
      <trkpt lat="43.84327" lon="4.17685">
        <ele>181.34582519531</ele>
        <time>2011-05-01T09:47:42Z</time>
      </trkpt>
      <trkpt lat="43.84328" lon="4.17701">
        <ele>180.865234375</ele>
        <time>2011-05-01T09:47:45Z</time>
      </trkpt>
      <trkpt lat="43.84327" lon="4.17717">
        <ele>181.82641601562</ele>
        <time>2011-05-01T09:47:48Z</time>
      </trkpt>
      <trkpt lat="43.84334" lon="4.17725">
        <ele>181.34582519531</ele>
        <time>2011-05-01T09:47:51Z</time>
      </trkpt>
      <trkpt lat="43.8434" lon="4.17736">
        <ele>180.865234375</ele>
        <time>2011-05-01T09:47:54Z</time>
      </trkpt>
      <trkpt lat="43.84344" lon="4.17749">
        <ele>180.865234375</ele>
        <time>2011-05-01T09:47:57Z</time>
      </trkpt>
      <trkpt lat="43.8435" lon="4.17759">
        <ele>180.865234375</ele>
        <time>2011-05-01T09:48:00Z</time>
      </trkpt>
      <trkpt lat="43.8436" lon="4.17762">
        <ele>180.865234375</ele>
        <time>2011-05-01T09:48:03Z</time>
      </trkpt>
      <trkpt lat="43.8437" lon="4.17767">
        <ele>179.90380859375</ele>
        <time>2011-05-01T09:48:06Z</time>
      </trkpt>
      <trkpt lat="43.84382" lon="4.17757">
        <ele>179.90380859375</ele>
        <time>2011-05-01T09:48:09Z</time>
      </trkpt>
      <trkpt lat="43.84396" lon="4.17755">
        <ele>177.98120117188</ele>
        <time>2011-05-01T09:48:12Z</time>
      </trkpt>
      <trkpt lat="43.84408" lon="4.17756">
        <ele>177.02001953125</ele>
        <time>2011-05-01T09:48:15Z</time>
      </trkpt>
      <trkpt lat="43.84419" lon="4.17759">
        <ele>176.05859375</ele>
        <time>2011-05-01T09:48:17Z</time>
      </trkpt>
      <trkpt lat="43.84432" lon="4.17763">
        <ele>174.13586425781</ele>
        <time>2011-05-01T09:48:20Z</time>
      </trkpt>
      <trkpt lat="43.84445" lon="4.17769">
        <ele>173.6552734375</ele>
        <time>2011-05-01T09:48:23Z</time>
      </trkpt>
      <trkpt lat="43.84458" lon="4.1778">
        <ele>171.73266601562</ele>
        <time>2011-05-01T09:48:26Z</time>
      </trkpt>
      <trkpt lat="43.84466" lon="4.1779">
        <ele>171.73266601562</ele>
        <time>2011-05-01T09:48:28Z</time>
      </trkpt>
      <trkpt lat="43.84475" lon="4.17803">
        <ele>170.77136230469</ele>
        <time>2011-05-01T09:48:30Z</time>
      </trkpt>
      <trkpt lat="43.84484" lon="4.17815">
        <ele>169.81005859375</ele>
        <time>2011-05-01T09:48:32Z</time>
      </trkpt>
      <trkpt lat="43.84492" lon="4.17827">
        <ele>169.81005859375</ele>
        <time>2011-05-01T09:48:34Z</time>
      </trkpt>
      <trkpt lat="43.84499" lon="4.17839">
        <ele>169.32946777344</ele>
        <time>2011-05-01T09:48:36Z</time>
      </trkpt>
      <trkpt lat="43.84505" lon="4.1785">
        <ele>168.36804199219</ele>
        <time>2011-05-01T09:48:38Z</time>
      </trkpt>
      <trkpt lat="43.84511" lon="4.17862">
        <ele>166.92602539062</ele>
        <time>2011-05-01T09:48:40Z</time>
      </trkpt>
      <trkpt lat="43.84518" lon="4.17874">
        <ele>166.92602539062</ele>
        <time>2011-05-01T09:48:42Z</time>
      </trkpt>
      <trkpt lat="43.84525" lon="4.17885">
        <ele>166.4453125</ele>
        <time>2011-05-01T09:48:44Z</time>
      </trkpt>
      <trkpt lat="43.84534" lon="4.17897">
        <ele>166.4453125</ele>
        <time>2011-05-01T09:48:46Z</time>
      </trkpt>
      <trkpt lat="43.84542" lon="4.17907">
        <ele>166.4453125</ele>
        <time>2011-05-01T09:48:48Z</time>
      </trkpt>
      <trkpt lat="43.84549" lon="4.17915">
        <ele>165.00341796875</ele>
        <time>2011-05-01T09:48:50Z</time>
      </trkpt>
      <trkpt lat="43.84556" lon="4.17925">
        <ele>164.04211425781</ele>
        <time>2011-05-01T09:48:53Z</time>
      </trkpt>
      <trkpt lat="43.84554" lon="4.17939">
        <ele>163.5615234375</ele>
        <time>2011-05-01T09:48:58Z</time>
      </trkpt>
      <trkpt lat="43.84546" lon="4.17945">
        <ele>164.04211425781</ele>
        <time>2011-05-01T09:49:02Z</time>
      </trkpt>
      <trkpt lat="43.84535" lon="4.17945">
        <ele>164.52270507812</ele>
        <time>2011-05-01T09:49:06Z</time>
      </trkpt>
      <trkpt lat="43.84525" lon="4.17949">
        <ele>166.4453125</ele>
        <time>2011-05-01T09:49:11Z</time>
      </trkpt>
      <trkpt lat="43.84517" lon="4.17958">
        <ele>166.4453125</ele>
        <time>2011-05-01T09:49:16Z</time>
      </trkpt>
      <trkpt lat="43.84507" lon="4.17961">
        <ele>167.88732910156</ele>
        <time>2011-05-01T09:49:21Z</time>
      </trkpt>
      <trkpt lat="43.84498" lon="4.17957">
        <ele>169.32946777344</ele>
        <time>2011-05-01T09:49:31Z</time>
      </trkpt>
      <trkpt lat="43.8449" lon="4.17965">
        <ele>172.21325683594</ele>
        <time>2011-05-01T09:49:38Z</time>
      </trkpt>
      <trkpt lat="43.8448" lon="4.17964">
        <ele>172.21325683594</ele>
        <time>2011-05-01T09:49:48Z</time>
      </trkpt>
      <trkpt lat="43.84472" lon="4.17956">
        <ele>174.13586425781</ele>
        <time>2011-05-01T09:49:56Z</time>
      </trkpt>
      <trkpt lat="43.84464" lon="4.1795">
        <ele>175.09729003906</ele>
        <time>2011-05-01T09:50:02Z</time>
      </trkpt>
      <trkpt lat="43.84459" lon="4.1794">
        <ele>177.02001953125</ele>
        <time>2011-05-01T09:50:08Z</time>
      </trkpt>
      <trkpt lat="43.84452" lon="4.17934">
        <ele>177.50061035156</ele>
        <time>2011-05-01T09:50:14Z</time>
      </trkpt>
      <trkpt lat="43.84447" lon="4.17944">
        <ele>177.50061035156</ele>
        <time>2011-05-01T09:50:19Z</time>
      </trkpt>
      <trkpt lat="43.84438" lon="4.17948">
        <ele>178.94262695312</ele>
        <time>2011-05-01T09:50:24Z</time>
      </trkpt>
      <trkpt lat="43.84431" lon="4.17956">
        <ele>178.94262695312</ele>
        <time>2011-05-01T09:50:30Z</time>
      </trkpt>
      <trkpt lat="43.84423" lon="4.17963">
        <ele>179.42321777344</ele>
        <time>2011-05-01T09:50:36Z</time>
      </trkpt>
      <trkpt lat="43.84419" lon="4.1798">
        <ele>179.90380859375</ele>
        <time>2011-05-01T09:50:42Z</time>
      </trkpt>
      <trkpt lat="43.8441" lon="4.17989">
        <ele>180.38452148438</ele>
        <time>2011-05-01T09:50:47Z</time>
      </trkpt>
      <trkpt lat="43.84406" lon="4.18004">
        <ele>180.865234375</ele>
        <time>2011-05-01T09:50:53Z</time>
      </trkpt>
      <trkpt lat="43.84402" lon="4.18019">
        <ele>180.865234375</ele>
        <time>2011-05-01T09:50:58Z</time>
      </trkpt>
      <trkpt lat="43.84402" lon="4.18034">
        <ele>181.34582519531</ele>
        <time>2011-05-01T09:51:03Z</time>
      </trkpt>
      <trkpt lat="43.844" lon="4.18048">
        <ele>182.78784179688</ele>
        <time>2011-05-01T09:51:07Z</time>
      </trkpt>
      <trkpt lat="43.84394" lon="4.18062">
        <ele>182.78784179688</ele>
        <time>2011-05-01T09:51:12Z</time>
      </trkpt>
      <trkpt lat="43.84386" lon="4.18069">
        <ele>183.26843261719</ele>
        <time>2011-05-01T09:51:16Z</time>
      </trkpt>
      <trkpt lat="43.84377" lon="4.18076">
        <ele>183.7490234375</ele>
        <time>2011-05-01T09:51:21Z</time>
      </trkpt>
      <trkpt lat="43.84373" lon="4.18087">
        <ele>184.22985839844</ele>
        <time>2011-05-01T09:51:27Z</time>
      </trkpt>
      <trkpt lat="43.84375" lon="4.18098">
        <ele>184.22985839844</ele>
        <time>2011-05-01T09:51:31Z</time>
      </trkpt>
      <trkpt lat="43.84373" lon="4.18112">
        <ele>185.19116210938</ele>
        <time>2011-05-01T09:51:36Z</time>
      </trkpt>
      <trkpt lat="43.84378" lon="4.18125">
        <ele>184.71057128906</ele>
        <time>2011-05-01T09:51:40Z</time>
      </trkpt>
      <trkpt lat="43.8438" lon="4.18141">
        <ele>183.26843261719</ele>
        <time>2011-05-01T09:51:44Z</time>
      </trkpt>
      <trkpt lat="43.84375" lon="4.18157">
        <ele>182.78784179688</ele>
        <time>2011-05-01T09:51:48Z</time>
      </trkpt>
      <trkpt lat="43.84376" lon="4.18171">
        <ele>182.30712890625</ele>
        <time>2011-05-01T09:51:52Z</time>
      </trkpt>
      <trkpt lat="43.84379" lon="4.18191">
        <ele>180.865234375</ele>
        <time>2011-05-01T09:51:56Z</time>
      </trkpt>
      <trkpt lat="43.8438" lon="4.18209">
        <ele>178.94262695312</ele>
        <time>2011-05-01T09:52:00Z</time>
      </trkpt>
      <trkpt lat="43.84379" lon="4.18225">
        <ele>177.98120117188</ele>
        <time>2011-05-01T09:52:03Z</time>
      </trkpt>
      <trkpt lat="43.84376" lon="4.18243">
        <ele>175.57788085938</ele>
        <time>2011-05-01T09:52:07Z</time>
      </trkpt>
      <trkpt lat="43.84368" lon="4.18262">
        <ele>176.05859375</ele>
        <time>2011-05-01T09:52:12Z</time>
      </trkpt>
      <trkpt lat="43.84362" lon="4.18277">
        <ele>177.02001953125</ele>
        <time>2011-05-01T09:52:16Z</time>
      </trkpt>
      <trkpt lat="43.84357" lon="4.18292">
        <ele>177.98120117188</ele>
        <time>2011-05-01T09:52:20Z</time>
      </trkpt>
      <trkpt lat="43.84362" lon="4.18304">
        <ele>178.4619140625</ele>
        <time>2011-05-01T09:52:24Z</time>
      </trkpt>
      <trkpt lat="43.84368" lon="4.18318">
        <ele>177.50061035156</ele>
        <time>2011-05-01T09:52:28Z</time>
      </trkpt>
      <trkpt lat="43.84368" lon="4.18332">
        <ele>177.02001953125</ele>
        <time>2011-05-01T09:52:31Z</time>
      </trkpt>
      <trkpt lat="43.84373" lon="4.18343">
        <ele>177.50061035156</ele>
        <time>2011-05-01T09:52:34Z</time>
      </trkpt>
      <trkpt lat="43.84374" lon="4.18355">
        <ele>176.53930664062</ele>
        <time>2011-05-01T09:52:38Z</time>
      </trkpt>
      <trkpt lat="43.84368" lon="4.18365">
        <ele>176.05859375</ele>
        <time>2011-05-01T09:52:43Z</time>
      </trkpt>
      <trkpt lat="43.84361" lon="4.18382">
        <ele>176.53930664062</ele>
        <time>2011-05-01T09:52:48Z</time>
      </trkpt>
      <trkpt lat="43.84351" lon="4.18392">
        <ele>177.50061035156</ele>
        <time>2011-05-01T09:52:52Z</time>
      </trkpt>
      <trkpt lat="43.84344" lon="4.18404">
        <ele>177.98120117188</ele>
        <time>2011-05-01T09:52:57Z</time>
      </trkpt>
      <trkpt lat="43.84334" lon="4.18409">
        <ele>180.38452148438</ele>
        <time>2011-05-01T09:53:02Z</time>
      </trkpt>
      <trkpt lat="43.8433" lon="4.18422">
        <ele>180.38452148438</ele>
        <time>2011-05-01T09:53:09Z</time>
      </trkpt>
      <trkpt lat="43.84339" lon="4.18428">
        <ele>179.42321777344</ele>
        <time>2011-05-01T09:53:15Z</time>
      </trkpt>
      <trkpt lat="43.84347" lon="4.18441">
        <ele>179.42321777344</ele>
        <time>2011-05-01T09:53:20Z</time>
      </trkpt>
      <trkpt lat="43.84358" lon="4.18449">
        <ele>178.4619140625</ele>
        <time>2011-05-01T09:53:24Z</time>
      </trkpt>
      <trkpt lat="43.84363" lon="4.18462">
        <ele>177.98120117188</ele>
        <time>2011-05-01T09:53:28Z</time>
      </trkpt>
      <trkpt lat="43.84365" lon="4.18479">
        <ele>177.02001953125</ele>
        <time>2011-05-01T09:53:32Z</time>
      </trkpt>
      <trkpt lat="43.84366" lon="4.18495">
        <ele>176.53930664062</ele>
        <time>2011-05-01T09:53:36Z</time>
      </trkpt>
      <trkpt lat="43.84366" lon="4.18511">
        <ele>176.05859375</ele>
        <time>2011-05-01T09:53:39Z</time>
      </trkpt>
      <trkpt lat="43.8437" lon="4.18525">
        <ele>174.13586425781</ele>
        <time>2011-05-01T09:53:43Z</time>
      </trkpt>
      <trkpt lat="43.84381" lon="4.18524">
        <ele>173.6552734375</ele>
        <time>2011-05-01T09:53:47Z</time>
      </trkpt>
      <trkpt lat="43.84388" lon="4.1853">
        <ele>172.69396972656</ele>
        <time>2011-05-01T09:53:51Z</time>
      </trkpt>
      <trkpt lat="43.84385" lon="4.18544">
        <ele>173.17468261719</ele>
        <time>2011-05-01T09:53:55Z</time>
      </trkpt>
      <trkpt lat="43.84385" lon="4.18557">
        <ele>173.17468261719</ele>
        <time>2011-05-01T09:53:59Z</time>
      </trkpt>
      <trkpt lat="43.84386" lon="4.18571">
        <ele>175.09729003906</ele>
        <time>2011-05-01T09:54:04Z</time>
      </trkpt>
      <trkpt lat="43.84378" lon="4.18577">
        <ele>176.05859375</ele>
        <time>2011-05-01T09:54:09Z</time>
      </trkpt>
      <trkpt lat="43.84371" lon="4.18582">
        <ele>176.53930664062</ele>
        <time>2011-05-01T09:54:14Z</time>
      </trkpt>
      <trkpt lat="43.84376" lon="4.18593">
        <ele>177.50061035156</ele>
        <time>2011-05-01T09:54:19Z</time>
      </trkpt>
      <trkpt lat="43.8438" lon="4.18605">
        <ele>177.98120117188</ele>
        <time>2011-05-01T09:54:24Z</time>
      </trkpt>
      <trkpt lat="43.84384" lon="4.18617">
        <ele>178.4619140625</ele>
        <time>2011-05-01T09:54:29Z</time>
      </trkpt>
      <trkpt lat="43.84388" lon="4.1863">
        <ele>178.94262695312</ele>
        <time>2011-05-01T09:54:34Z</time>
      </trkpt>
      <trkpt lat="43.84393" lon="4.18643">
        <ele>178.94262695312</ele>
        <time>2011-05-01T09:54:39Z</time>
      </trkpt>
      <trkpt lat="43.84398" lon="4.18657">
        <ele>178.94262695312</ele>
        <time>2011-05-01T09:54:44Z</time>
      </trkpt>
      <trkpt lat="43.84398" lon="4.18669">
        <ele>179.42321777344</ele>
        <time>2011-05-01T09:54:48Z</time>
      </trkpt>
      <trkpt lat="43.84397" lon="4.18681">
        <ele>179.42321777344</ele>
        <time>2011-05-01T09:54:52Z</time>
      </trkpt>
      <trkpt lat="43.844" lon="4.18694">
        <ele>179.42321777344</ele>
        <time>2011-05-01T09:54:56Z</time>
      </trkpt>
      <trkpt lat="43.844" lon="4.1871">
        <ele>178.94262695312</ele>
        <time>2011-05-01T09:55:00Z</time>
      </trkpt>
      <trkpt lat="43.84409" lon="4.1872">
        <ele>177.98120117188</ele>
        <time>2011-05-01T09:55:04Z</time>
      </trkpt>
      <trkpt lat="43.84417" lon="4.18729">
        <ele>176.53930664062</ele>
        <time>2011-05-01T09:55:07Z</time>
      </trkpt>
      <trkpt lat="43.84424" lon="4.18741">
        <ele>175.09729003906</ele>
        <time>2011-05-01T09:55:10Z</time>
      </trkpt>
      <trkpt lat="43.84418" lon="4.18754">
        <ele>175.09729003906</ele>
        <time>2011-05-01T09:55:14Z</time>
      </trkpt>
      <trkpt lat="43.84414" lon="4.18765">
        <ele>175.09729003906</ele>
        <time>2011-05-01T09:55:18Z</time>
      </trkpt>
      <trkpt lat="43.84408" lon="4.18776">
        <ele>174.61657714844</ele>
        <time>2011-05-01T09:55:22Z</time>
      </trkpt>
      <trkpt lat="43.84405" lon="4.18788">
        <ele>175.09729003906</ele>
        <time>2011-05-01T09:55:26Z</time>
      </trkpt>
      <trkpt lat="43.84409" lon="4.18801">
        <ele>176.05859375</ele>
        <time>2011-05-01T09:55:31Z</time>
      </trkpt>
      <trkpt lat="43.84414" lon="4.18813">
        <ele>177.02001953125</ele>
        <time>2011-05-01T09:55:36Z</time>
      </trkpt>
      <trkpt lat="43.84422" lon="4.18817">
        <ele>177.50061035156</ele>
        <time>2011-05-01T09:55:40Z</time>
      </trkpt>
      <trkpt lat="43.84427" lon="4.18828">
        <ele>177.98120117188</ele>
        <time>2011-05-01T09:55:45Z</time>
      </trkpt>
      <trkpt lat="43.84431" lon="4.1884">
        <ele>179.42321777344</ele>
        <time>2011-05-01T09:55:51Z</time>
      </trkpt>
      <trkpt lat="43.84434" lon="4.18849">
        <ele>179.90380859375</ele>
        <time>2011-05-01T09:55:56Z</time>
      </trkpt>
      <trkpt lat="43.84424" lon="4.18853">
        <ele>180.38452148438</ele>
        <time>2011-05-01T09:56:01Z</time>
      </trkpt>
      <trkpt lat="43.84413" lon="4.18856">
        <ele>181.34582519531</ele>
        <time>2011-05-01T09:56:06Z</time>
      </trkpt>
      <trkpt lat="43.84404" lon="4.18862">
        <ele>182.30712890625</ele>
        <time>2011-05-01T09:56:11Z</time>
      </trkpt>
      <trkpt lat="43.84394" lon="4.18868">
        <ele>183.26843261719</ele>
        <time>2011-05-01T09:56:16Z</time>
      </trkpt>
      <trkpt lat="43.84386" lon="4.18876">
        <ele>183.7490234375</ele>
        <time>2011-05-01T09:56:21Z</time>
      </trkpt>
      <trkpt lat="43.84378" lon="4.18881">
        <ele>184.71057128906</ele>
        <time>2011-05-01T09:56:26Z</time>
      </trkpt>
      <trkpt lat="43.84368" lon="4.18878">
        <ele>184.71057128906</ele>
        <time>2011-05-01T09:56:31Z</time>
      </trkpt>
      <trkpt lat="43.84357" lon="4.18873">
        <ele>184.71057128906</ele>
        <time>2011-05-01T09:56:36Z</time>
      </trkpt>
      <trkpt lat="43.84348" lon="4.18865">
        <ele>185.19116210938</ele>
        <time>2011-05-01T09:56:39Z</time>
      </trkpt>
      <trkpt lat="43.84338" lon="4.18856">
        <ele>184.22985839844</ele>
        <time>2011-05-01T09:56:42Z</time>
      </trkpt>
      <trkpt lat="43.84327" lon="4.18854">
        <ele>183.26843261719</ele>
        <time>2011-05-01T09:56:45Z</time>
      </trkpt>
      <trkpt lat="43.84317" lon="4.18853">
        <ele>181.82641601562</ele>
        <time>2011-05-01T09:56:48Z</time>
      </trkpt>
      <trkpt lat="43.84307" lon="4.1885">
        <ele>182.30712890625</ele>
        <time>2011-05-01T09:56:51Z</time>
      </trkpt>
      <trkpt lat="43.84299" lon="4.18846">
        <ele>182.30712890625</ele>
        <time>2011-05-01T09:56:56Z</time>
      </trkpt>
      <trkpt lat="43.84301" lon="4.18834">
        <ele>182.30712890625</ele>
        <time>2011-05-01T09:57:01Z</time>
      </trkpt>
      <trkpt lat="43.84301" lon="4.18817">
        <ele>181.82641601562</ele>
        <time>2011-05-01T09:57:06Z</time>
      </trkpt>
      <trkpt lat="43.84297" lon="4.18802">
        <ele>182.30712890625</ele>
        <time>2011-05-01T09:57:10Z</time>
      </trkpt>
      <trkpt lat="43.84292" lon="4.18791">
        <ele>182.78784179688</ele>
        <time>2011-05-01T09:57:14Z</time>
      </trkpt>
      <trkpt lat="43.84286" lon="4.18782">
        <ele>183.7490234375</ele>
        <time>2011-05-01T09:57:18Z</time>
      </trkpt>
      <trkpt lat="43.84277" lon="4.18774">
        <ele>184.71057128906</ele>
        <time>2011-05-01T09:57:22Z</time>
      </trkpt>
      <trkpt lat="43.84269" lon="4.18765">
        <ele>185.67175292969</ele>
        <time>2011-05-01T09:57:26Z</time>
      </trkpt>
      <trkpt lat="43.84262" lon="4.18755">
        <ele>186.63317871094</ele>
        <time>2011-05-01T09:57:30Z</time>
      </trkpt>
      <trkpt lat="43.84256" lon="4.18746">
        <ele>186.15246582031</ele>
        <time>2011-05-01T09:57:33Z</time>
      </trkpt>
      <trkpt lat="43.84249" lon="4.18732">
        <ele>186.15246582031</ele>
        <time>2011-05-01T09:57:36Z</time>
      </trkpt>
      <trkpt lat="43.84245" lon="4.18715">
        <ele>186.15246582031</ele>
        <time>2011-05-01T09:57:39Z</time>
      </trkpt>
      <trkpt lat="43.84242" lon="4.18702">
        <ele>183.7490234375</ele>
        <time>2011-05-01T09:57:41Z</time>
      </trkpt>
      <trkpt lat="43.84238" lon="4.18688">
        <ele>183.26843261719</ele>
        <time>2011-05-01T09:57:44Z</time>
      </trkpt>
      <trkpt lat="43.84235" lon="4.18678">
        <ele>181.82641601562</ele>
        <time>2011-05-01T09:57:47Z</time>
      </trkpt>
      <trkpt lat="43.84234" lon="4.18671">
        <ele>182.30712890625</ele>
        <time>2011-05-01T09:57:50Z</time>
      </trkpt>
      <trkpt lat="43.84216" lon="4.18668">
        <ele>182.30712890625</ele>
        <time>2011-05-01T09:57:53Z</time>
      </trkpt>
      <trkpt lat="43.84207" lon="4.18663">
        <ele>182.78784179688</ele>
        <time>2011-05-01T09:57:56Z</time>
      </trkpt>
      <trkpt lat="43.84196" lon="4.18662">
        <ele>182.78784179688</ele>
        <time>2011-05-01T09:57:59Z</time>
      </trkpt>
      <trkpt lat="43.84188" lon="4.18666">
        <ele>182.78784179688</ele>
        <time>2011-05-01T09:58:02Z</time>
      </trkpt>
      <trkpt lat="43.84179" lon="4.18671">
        <ele>182.78784179688</ele>
        <time>2011-05-01T09:58:05Z</time>
      </trkpt>
      <trkpt lat="43.8417" lon="4.18675">
        <ele>183.7490234375</ele>
        <time>2011-05-01T09:58:08Z</time>
      </trkpt>
      <trkpt lat="43.84161" lon="4.18681">
        <ele>183.7490234375</ele>
        <time>2011-05-01T09:58:11Z</time>
      </trkpt>
      <trkpt lat="43.84153" lon="4.18685">
        <ele>184.22985839844</ele>
        <time>2011-05-01T09:58:14Z</time>
      </trkpt>
      <trkpt lat="43.84143" lon="4.18693">
        <ele>184.71057128906</ele>
        <time>2011-05-01T09:58:18Z</time>
      </trkpt>
      <trkpt lat="43.84132" lon="4.18699">
        <ele>184.22985839844</ele>
        <time>2011-05-01T09:58:22Z</time>
      </trkpt>
      <trkpt lat="43.84121" lon="4.18704">
        <ele>185.19116210938</ele>
        <time>2011-05-01T09:58:26Z</time>
      </trkpt>
      <trkpt lat="43.8411" lon="4.187">
        <ele>185.19116210938</ele>
        <time>2011-05-01T09:58:30Z</time>
      </trkpt>
      <trkpt lat="43.84101" lon="4.18696">
        <ele>186.63317871094</ele>
        <time>2011-05-01T09:58:34Z</time>
      </trkpt>
      <trkpt lat="43.84092" lon="4.1869">
        <ele>187.11376953125</ele>
        <time>2011-05-01T09:58:38Z</time>
      </trkpt>
      <trkpt lat="43.84085" lon="4.18681">
        <ele>187.59436035156</ele>
        <time>2011-05-01T09:58:43Z</time>
      </trkpt>
      <trkpt lat="43.84078" lon="4.18672">
        <ele>189.51696777344</ele>
        <time>2011-05-01T09:58:48Z</time>
      </trkpt>
      <trkpt lat="43.84075" lon="4.18659">
        <ele>189.03637695312</ele>
        <time>2011-05-01T09:58:53Z</time>
      </trkpt>
      <trkpt lat="43.8407" lon="4.18649">
        <ele>190.47839355469</ele>
        <time>2011-05-01T09:58:58Z</time>
      </trkpt>
      <trkpt lat="43.84064" lon="4.18637">
        <ele>191.43957519531</ele>
        <time>2011-05-01T09:59:04Z</time>
      </trkpt>
      <trkpt lat="43.84057" lon="4.18632">
        <ele>192.88171386719</ele>
        <time>2011-05-01T09:59:09Z</time>
      </trkpt>
      <trkpt lat="43.84049" lon="4.18625">
        <ele>192.88171386719</ele>
        <time>2011-05-01T09:59:14Z</time>
      </trkpt>
      <trkpt lat="43.84039" lon="4.18621">
        <ele>193.3623046875</ele>
        <time>2011-05-01T09:59:19Z</time>
      </trkpt>
      <trkpt lat="43.8403" lon="4.18619">
        <ele>193.84301757812</ele>
        <time>2011-05-01T09:59:23Z</time>
      </trkpt>
      <trkpt lat="43.84022" lon="4.18614">
        <ele>193.3623046875</ele>
        <time>2011-05-01T09:59:27Z</time>
      </trkpt>
      <trkpt lat="43.84017" lon="4.18603">
        <ele>194.32373046875</ele>
        <time>2011-05-01T09:59:31Z</time>
      </trkpt>
      <trkpt lat="43.84009" lon="4.18599">
        <ele>195.765625</ele>
        <time>2011-05-01T09:59:35Z</time>
      </trkpt>
      <trkpt lat="43.83999" lon="4.18594">
        <ele>196.24633789062</ele>
        <time>2011-05-01T09:59:39Z</time>
      </trkpt>
      <trkpt lat="43.83989" lon="4.1859">
        <ele>195.765625</ele>
        <time>2011-05-01T09:59:43Z</time>
      </trkpt>
      <trkpt lat="43.83978" lon="4.18582">
        <ele>195.28491210938</ele>
        <time>2011-05-01T09:59:47Z</time>
      </trkpt>
      <trkpt lat="43.83969" lon="4.1858">
        <ele>195.765625</ele>
        <time>2011-05-01T09:59:50Z</time>
      </trkpt>
      <trkpt lat="43.83958" lon="4.18584">
        <ele>195.28491210938</ele>
        <time>2011-05-01T09:59:53Z</time>
      </trkpt>
      <trkpt lat="43.83947" lon="4.18587">
        <ele>195.765625</ele>
        <time>2011-05-01T09:59:56Z</time>
      </trkpt>
      <trkpt lat="43.83936" lon="4.18594">
        <ele>194.32373046875</ele>
        <time>2011-05-01T09:59:59Z</time>
      </trkpt>
      <trkpt lat="43.83924" lon="4.186">
        <ele>194.32373046875</ele>
        <time>2011-05-01T10:00:02Z</time>
      </trkpt>
      <trkpt lat="43.83914" lon="4.1861">
        <ele>194.32373046875</ele>
        <time>2011-05-01T10:00:05Z</time>
      </trkpt>
      <trkpt lat="43.83904" lon="4.18621">
        <ele>195.28491210938</ele>
        <time>2011-05-01T10:00:08Z</time>
      </trkpt>
      <trkpt lat="43.83896" lon="4.18634">
        <ele>194.32373046875</ele>
        <time>2011-05-01T10:00:11Z</time>
      </trkpt>
      <trkpt lat="43.83886" lon="4.18647">
        <ele>194.32373046875</ele>
        <time>2011-05-01T10:00:14Z</time>
      </trkpt>
      <trkpt lat="43.8388" lon="4.18656">
        <ele>193.84301757812</ele>
        <time>2011-05-01T10:00:16Z</time>
      </trkpt>
      <trkpt lat="43.83873" lon="4.18671">
        <ele>193.84301757812</ele>
        <time>2011-05-01T10:00:19Z</time>
      </trkpt>
      <trkpt lat="43.83866" lon="4.18683">
        <ele>193.84301757812</ele>
        <time>2011-05-01T10:00:22Z</time>
      </trkpt>
      <trkpt lat="43.83861" lon="4.18696">
        <ele>193.3623046875</ele>
        <time>2011-05-01T10:00:25Z</time>
      </trkpt>
      <trkpt lat="43.83858" lon="4.18708">
        <ele>193.84301757812</ele>
        <time>2011-05-01T10:00:28Z</time>
      </trkpt>
      <trkpt lat="43.83854" lon="4.18723">
        <ele>193.3623046875</ele>
        <time>2011-05-01T10:00:31Z</time>
      </trkpt>
      <trkpt lat="43.83851" lon="4.18738">
        <ele>192.88171386719</ele>
        <time>2011-05-01T10:00:34Z</time>
      </trkpt>
      <trkpt lat="43.83848" lon="4.18752">
        <ele>192.40112304688</ele>
        <time>2011-05-01T10:00:37Z</time>
      </trkpt>
      <trkpt lat="43.83844" lon="4.18766">
        <ele>192.40112304688</ele>
        <time>2011-05-01T10:00:40Z</time>
      </trkpt>
      <trkpt lat="43.83843" lon="4.18772">
        <ele>191.92028808594</ele>
        <time>2011-05-01T10:00:43Z</time>
      </trkpt>
      <trkpt lat="43.83843" lon="4.18772">
        <ele>192.88171386719</ele>
        <time>2011-05-01T10:09:14Z</time>
      </trkpt>
      <trkpt lat="43.83864" lon="4.18777">
        <ele>193.3623046875</ele>
        <time>2011-05-01T10:09:37Z</time>
      </trkpt>
      <trkpt lat="43.83874" lon="4.18772">
        <ele>194.32373046875</ele>
        <time>2011-05-01T10:09:42Z</time>
      </trkpt>
      <trkpt lat="43.83883" lon="4.18767">
        <ele>194.80432128906</ele>
        <time>2011-05-01T10:09:46Z</time>
      </trkpt>
      <trkpt lat="43.83893" lon="4.18761">
        <ele>194.80432128906</ele>
        <time>2011-05-01T10:09:50Z</time>
      </trkpt>
      <trkpt lat="43.83901" lon="4.18755">
        <ele>194.80432128906</ele>
        <time>2011-05-01T10:09:53Z</time>
      </trkpt>
      <trkpt lat="43.83911" lon="4.18751">
        <ele>195.28491210938</ele>
        <time>2011-05-01T10:09:56Z</time>
      </trkpt>
      <trkpt lat="43.83922" lon="4.18748">
        <ele>195.765625</ele>
        <time>2011-05-01T10:09:59Z</time>
      </trkpt>
      <trkpt lat="43.83927" lon="4.18761">
        <ele>195.28491210938</ele>
        <time>2011-05-01T10:10:02Z</time>
      </trkpt>
      <trkpt lat="43.83927" lon="4.18776">
        <ele>196.24633789062</ele>
        <time>2011-05-01T10:10:05Z</time>
      </trkpt>
      <trkpt lat="43.83925" lon="4.18793">
        <ele>195.765625</ele>
        <time>2011-05-01T10:10:08Z</time>
      </trkpt>
      <trkpt lat="43.83934" lon="4.18802">
        <ele>196.72692871094</ele>
        <time>2011-05-01T10:10:11Z</time>
      </trkpt>
      <trkpt lat="43.83945" lon="4.18802">
        <ele>196.24633789062</ele>
        <time>2011-05-01T10:10:14Z</time>
      </trkpt>
      <trkpt lat="43.83946" lon="4.18818">
        <ele>196.72692871094</ele>
        <time>2011-05-01T10:10:17Z</time>
      </trkpt>
      <trkpt lat="43.83942" lon="4.1883">
        <ele>197.68823242188</ele>
        <time>2011-05-01T10:10:20Z</time>
      </trkpt>
      <trkpt lat="43.83938" lon="4.18843">
        <ele>198.1689453125</ele>
        <time>2011-05-01T10:10:23Z</time>
      </trkpt>
      <trkpt lat="43.83935" lon="4.18856">
        <ele>197.68823242188</ele>
        <time>2011-05-01T10:10:26Z</time>
      </trkpt>
      <trkpt lat="43.83932" lon="4.18868">
        <ele>198.1689453125</ele>
        <time>2011-05-01T10:10:29Z</time>
      </trkpt>
      <trkpt lat="43.83929" lon="4.1888">
        <ele>198.64953613281</ele>
        <time>2011-05-01T10:10:32Z</time>
      </trkpt>
      <trkpt lat="43.83925" lon="4.18895">
        <ele>198.64953613281</ele>
        <time>2011-05-01T10:10:36Z</time>
      </trkpt>
      <trkpt lat="43.83921" lon="4.18907">
        <ele>199.61083984375</ele>
        <time>2011-05-01T10:10:39Z</time>
      </trkpt>
      <trkpt lat="43.83917" lon="4.1892">
        <ele>199.13012695312</ele>
        <time>2011-05-01T10:10:42Z</time>
      </trkpt>
      <trkpt lat="43.83914" lon="4.18932">
        <ele>199.61083984375</ele>
        <time>2011-05-01T10:10:45Z</time>
      </trkpt>
      <trkpt lat="43.83911" lon="4.18945">
        <ele>199.61083984375</ele>
        <time>2011-05-01T10:10:48Z</time>
      </trkpt>
      <trkpt lat="43.83908" lon="4.18959">
        <ele>201.05285644531</ele>
        <time>2011-05-01T10:10:51Z</time>
      </trkpt>
      <trkpt lat="43.83905" lon="4.18974">
        <ele>200.572265625</ele>
        <time>2011-05-01T10:10:54Z</time>
      </trkpt>
      <trkpt lat="43.83902" lon="4.18988">
        <ele>200.09167480469</ele>
        <time>2011-05-01T10:10:57Z</time>
      </trkpt>
      <trkpt lat="43.83898" lon="4.19003">
        <ele>201.05285644531</ele>
        <time>2011-05-01T10:11:00Z</time>
      </trkpt>
      <trkpt lat="43.83897" lon="4.19017">
        <ele>200.09167480469</ele>
        <time>2011-05-01T10:11:03Z</time>
      </trkpt>
      <trkpt lat="43.83908" lon="4.19015">
        <ele>200.09167480469</ele>
        <time>2011-05-01T10:11:07Z</time>
      </trkpt>
      <trkpt lat="43.83918" lon="4.1901">
        <ele>199.13012695312</ele>
        <time>2011-05-01T10:11:10Z</time>
      </trkpt>
      <trkpt lat="43.83929" lon="4.1901">
        <ele>200.09167480469</ele>
        <time>2011-05-01T10:11:13Z</time>
      </trkpt>
      <trkpt lat="43.83941" lon="4.19014">
        <ele>200.09167480469</ele>
        <time>2011-05-01T10:11:16Z</time>
      </trkpt>
      <trkpt lat="43.83954" lon="4.19018">
        <ele>199.13012695312</ele>
        <time>2011-05-01T10:11:19Z</time>
      </trkpt>
      <trkpt lat="43.83963" lon="4.1902">
        <ele>199.13012695312</ele>
        <time>2011-05-01T10:11:21Z</time>
      </trkpt>
      <trkpt lat="43.83973" lon="4.19023">
        <ele>199.13012695312</ele>
        <time>2011-05-01T10:11:23Z</time>
      </trkpt>
      <trkpt lat="43.83983" lon="4.19021">
        <ele>199.13012695312</ele>
        <time>2011-05-01T10:11:25Z</time>
      </trkpt>
      <trkpt lat="43.83995" lon="4.19018">
        <ele>199.13012695312</ele>
        <time>2011-05-01T10:11:27Z</time>
      </trkpt>
      <trkpt lat="43.84006" lon="4.19014">
        <ele>197.20751953125</ele>
        <time>2011-05-01T10:11:29Z</time>
      </trkpt>
      <trkpt lat="43.84019" lon="4.1901">
        <ele>196.24633789062</ele>
        <time>2011-05-01T10:11:31Z</time>
      </trkpt>
      <trkpt lat="43.8403" lon="4.19014">
        <ele>196.24633789062</ele>
        <time>2011-05-01T10:11:33Z</time>
      </trkpt>
      <trkpt lat="43.84041" lon="4.19022">
        <ele>196.24633789062</ele>
        <time>2011-05-01T10:11:35Z</time>
      </trkpt>
      <trkpt lat="43.84053" lon="4.19025">
        <ele>194.80432128906</ele>
        <time>2011-05-01T10:11:37Z</time>
      </trkpt>
      <trkpt lat="43.84064" lon="4.19019">
        <ele>194.32373046875</ele>
        <time>2011-05-01T10:11:39Z</time>
      </trkpt>
      <trkpt lat="43.84075" lon="4.19012">
        <ele>193.84301757812</ele>
        <time>2011-05-01T10:11:41Z</time>
      </trkpt>
      <trkpt lat="43.84087" lon="4.19005">
        <ele>192.88171386719</ele>
        <time>2011-05-01T10:11:43Z</time>
      </trkpt>
      <trkpt lat="43.84095" lon="4.18993">
        <ele>192.40112304688</ele>
        <time>2011-05-01T10:11:45Z</time>
      </trkpt>
      <trkpt lat="43.84107" lon="4.18989">
        <ele>192.40112304688</ele>
        <time>2011-05-01T10:11:47Z</time>
      </trkpt>
      <trkpt lat="43.84116" lon="4.18988">
        <ele>191.43957519531</ele>
        <time>2011-05-01T10:11:51Z</time>
      </trkpt>
      <trkpt lat="43.84119" lon="4.18986">
        <ele>190.47839355469</ele>
        <time>2011-05-01T10:11:54Z</time>
      </trkpt>
      <trkpt lat="43.84141" lon="4.19075">
        <ele>189.03637695312</ele>
        <time>2011-05-01T10:11:56Z</time>
      </trkpt>
      <trkpt lat="43.84151" lon="4.19074">
        <ele>189.51696777344</ele>
        <time>2011-05-01T10:11:58Z</time>
      </trkpt>
      <trkpt lat="43.8416" lon="4.19072">
        <ele>189.03637695312</ele>
        <time>2011-05-01T10:12:00Z</time>
      </trkpt>
      <trkpt lat="43.84173" lon="4.1907">
        <ele>188.55578613281</ele>
        <time>2011-05-01T10:12:03Z</time>
      </trkpt>
      <trkpt lat="43.84185" lon="4.19068">
        <ele>188.55578613281</ele>
        <time>2011-05-01T10:12:06Z</time>
      </trkpt>
      <trkpt lat="43.84204" lon="4.19064">
        <ele>186.63317871094</ele>
        <time>2011-05-01T10:12:09Z</time>
      </trkpt>
      <trkpt lat="43.84219" lon="4.19023">
        <ele>187.59436035156</ele>
        <time>2011-05-01T10:12:12Z</time>
      </trkpt>
      <trkpt lat="43.84222" lon="4.1901">
        <ele>187.59436035156</ele>
        <time>2011-05-01T10:12:15Z</time>
      </trkpt>
      <trkpt lat="43.84223" lon="4.19005">
        <ele>187.59436035156</ele>
        <time>2011-05-01T10:12:18Z</time>
      </trkpt>
      <trkpt lat="43.84237" lon="4.19062">
        <ele>187.59436035156</ele>
        <time>2011-05-01T10:12:21Z</time>
      </trkpt>
      <trkpt lat="43.84248" lon="4.19062">
        <ele>188.55578613281</ele>
        <time>2011-05-01T10:12:24Z</time>
      </trkpt>
      <trkpt lat="43.84252" lon="4.19062">
        <ele>189.51696777344</ele>
        <time>2011-05-01T10:12:27Z</time>
      </trkpt>
      <trkpt lat="43.84263" lon="4.19064">
        <ele>190.47839355469</ele>
        <time>2011-05-01T10:12:30Z</time>
      </trkpt>
      <trkpt lat="43.84275" lon="4.19067">
        <ele>189.51696777344</ele>
        <time>2011-05-01T10:12:33Z</time>
      </trkpt>
      <trkpt lat="43.84288" lon="4.19069">
        <ele>189.51696777344</ele>
        <time>2011-05-01T10:12:36Z</time>
      </trkpt>
      <trkpt lat="43.84299" lon="4.19071">
        <ele>189.03637695312</ele>
        <time>2011-05-01T10:12:39Z</time>
      </trkpt>
      <trkpt lat="43.8431" lon="4.19073">
        <ele>189.51696777344</ele>
        <time>2011-05-01T10:12:42Z</time>
      </trkpt>
      <trkpt lat="43.8432" lon="4.19075">
        <ele>189.03637695312</ele>
        <time>2011-05-01T10:12:45Z</time>
      </trkpt>
      <trkpt lat="43.8433" lon="4.19077">
        <ele>189.03637695312</ele>
        <time>2011-05-01T10:12:48Z</time>
      </trkpt>
      <trkpt lat="43.84341" lon="4.19079">
        <ele>189.99768066406</ele>
        <time>2011-05-01T10:12:51Z</time>
      </trkpt>
      <trkpt lat="43.84352" lon="4.19081">
        <ele>189.03637695312</ele>
        <time>2011-05-01T10:12:54Z</time>
      </trkpt>
      <trkpt lat="43.84362" lon="4.19083">
        <ele>189.51696777344</ele>
        <time>2011-05-01T10:12:57Z</time>
      </trkpt>
      <trkpt lat="43.84374" lon="4.19085">
        <ele>189.51696777344</ele>
        <time>2011-05-01T10:13:00Z</time>
      </trkpt>
      <trkpt lat="43.84385" lon="4.19086">
        <ele>188.07507324219</ele>
        <time>2011-05-01T10:13:03Z</time>
      </trkpt>
      <trkpt lat="43.84392" lon="4.19081">
        <ele>188.55578613281</ele>
        <time>2011-05-01T10:13:06Z</time>
      </trkpt>
      <trkpt lat="43.84392" lon="4.19088">
        <ele>187.59436035156</ele>
        <time>2011-05-01T10:13:12Z</time>
      </trkpt>
      <trkpt lat="43.84392" lon="4.19088">
        <ele>187.59436035156</ele>
        <time>2011-05-01T10:13:15Z</time>
      </trkpt>
      <trkpt lat="43.84406" lon="4.19123">
        <ele>187.11376953125</ele>
        <time>2011-05-01T10:13:18Z</time>
      </trkpt>
      <trkpt lat="43.84411" lon="4.19134">
        <ele>187.11376953125</ele>
        <time>2011-05-01T10:13:21Z</time>
      </trkpt>
      <trkpt lat="43.84417" lon="4.19145">
        <ele>188.07507324219</ele>
        <time>2011-05-01T10:13:24Z</time>
      </trkpt>
      <trkpt lat="43.84421" lon="4.19158">
        <ele>186.15246582031</ele>
        <time>2011-05-01T10:13:27Z</time>
      </trkpt>
      <trkpt lat="43.84423" lon="4.19167">
        <ele>186.15246582031</ele>
        <time>2011-05-01T10:13:30Z</time>
      </trkpt>
      <trkpt lat="43.84444" lon="4.19108">
        <ele>186.15246582031</ele>
        <time>2011-05-01T10:13:33Z</time>
      </trkpt>
      <trkpt lat="43.84425" lon="4.19177">
        <ele>184.71057128906</ele>
        <time>2011-05-01T10:13:36Z</time>
      </trkpt>
      <trkpt lat="43.84457" lon="4.19165">
        <ele>183.26843261719</ele>
        <time>2011-05-01T10:13:41Z</time>
      </trkpt>
      <trkpt lat="43.84468" lon="4.19161">
        <ele>183.26843261719</ele>
        <time>2011-05-01T10:13:45Z</time>
      </trkpt>
      <trkpt lat="43.84473" lon="4.19152">
        <ele>182.78784179688</ele>
        <time>2011-05-01T10:13:49Z</time>
      </trkpt>
      <trkpt lat="43.84481" lon="4.19142">
        <ele>182.30712890625</ele>
        <time>2011-05-01T10:13:53Z</time>
      </trkpt>
      <trkpt lat="43.84487" lon="4.19133">
        <ele>182.30712890625</ele>
        <time>2011-05-01T10:13:57Z</time>
      </trkpt>
      <trkpt lat="43.84497" lon="4.19127">
        <ele>181.82641601562</ele>
        <time>2011-05-01T10:14:00Z</time>
      </trkpt>
      <trkpt lat="43.84508" lon="4.19132">
        <ele>181.34582519531</ele>
        <time>2011-05-01T10:14:03Z</time>
      </trkpt>
      <trkpt lat="43.84516" lon="4.1914">
        <ele>180.38452148438</ele>
        <time>2011-05-01T10:14:06Z</time>
      </trkpt>
      <trkpt lat="43.84512" lon="4.19152">
        <ele>179.90380859375</ele>
        <time>2011-05-01T10:14:09Z</time>
      </trkpt>
      <trkpt lat="43.84507" lon="4.1916">
        <ele>180.38452148438</ele>
        <time>2011-05-01T10:14:12Z</time>
      </trkpt>
      <trkpt lat="43.84511" lon="4.19173">
        <ele>180.865234375</ele>
        <time>2011-05-01T10:14:16Z</time>
      </trkpt>
      <trkpt lat="43.84517" lon="4.19183">
        <ele>181.34582519531</ele>
        <time>2011-05-01T10:14:19Z</time>
      </trkpt>
      <trkpt lat="43.84527" lon="4.19185">
        <ele>180.865234375</ele>
        <time>2011-05-01T10:14:22Z</time>
      </trkpt>
      <trkpt lat="43.84533" lon="4.19195">
        <ele>180.38452148438</ele>
        <time>2011-05-01T10:14:26Z</time>
      </trkpt>
      <trkpt lat="43.84533" lon="4.19207">
        <ele>180.38452148438</ele>
        <time>2011-05-01T10:14:31Z</time>
      </trkpt>
      <trkpt lat="43.84526" lon="4.19218">
        <ele>180.38452148438</ele>
        <time>2011-05-01T10:14:35Z</time>
      </trkpt>
      <trkpt lat="43.84519" lon="4.19233">
        <ele>181.82641601562</ele>
        <time>2011-05-01T10:14:39Z</time>
      </trkpt>
      <trkpt lat="43.84516" lon="4.19249">
        <ele>182.30712890625</ele>
        <time>2011-05-01T10:14:43Z</time>
      </trkpt>
      <trkpt lat="43.84519" lon="4.19264">
        <ele>181.82641601562</ele>
        <time>2011-05-01T10:14:47Z</time>
      </trkpt>
      <trkpt lat="43.8452" lon="4.19278">
        <ele>181.82641601562</ele>
        <time>2011-05-01T10:14:51Z</time>
      </trkpt>
      <trkpt lat="43.84518" lon="4.19291">
        <ele>182.30712890625</ele>
        <time>2011-05-01T10:14:55Z</time>
      </trkpt>
      <trkpt lat="43.84522" lon="4.19303">
        <ele>182.30712890625</ele>
        <time>2011-05-01T10:14:58Z</time>
      </trkpt>
      <trkpt lat="43.84517" lon="4.19316">
        <ele>182.78784179688</ele>
        <time>2011-05-01T10:15:02Z</time>
      </trkpt>
      <trkpt lat="43.84514" lon="4.19329">
        <ele>183.7490234375</ele>
        <time>2011-05-01T10:15:05Z</time>
      </trkpt>
      <trkpt lat="43.84509" lon="4.1934">
        <ele>183.26843261719</ele>
        <time>2011-05-01T10:15:08Z</time>
      </trkpt>
      <trkpt lat="43.84502" lon="4.19347">
        <ele>184.71057128906</ele>
        <time>2011-05-01T10:15:12Z</time>
      </trkpt>
      <trkpt lat="43.84494" lon="4.19351">
        <ele>184.71057128906</ele>
        <time>2011-05-01T10:15:17Z</time>
      </trkpt>
      <trkpt lat="43.84489" lon="4.19365">
        <ele>184.22985839844</ele>
        <time>2011-05-01T10:15:21Z</time>
      </trkpt>
      <trkpt lat="43.84495" lon="4.19375">
        <ele>185.19116210938</ele>
        <time>2011-05-01T10:15:25Z</time>
      </trkpt>
      <trkpt lat="43.84501" lon="4.19385">
        <ele>184.22985839844</ele>
        <time>2011-05-01T10:15:28Z</time>
      </trkpt>
      <trkpt lat="43.84499" lon="4.19399">
        <ele>184.71057128906</ele>
        <time>2011-05-01T10:15:31Z</time>
      </trkpt>
      <trkpt lat="43.84501" lon="4.19412">
        <ele>184.71057128906</ele>
        <time>2011-05-01T10:15:34Z</time>
      </trkpt>
      <trkpt lat="43.84504" lon="4.19423">
        <ele>185.19116210938</ele>
        <time>2011-05-01T10:15:38Z</time>
      </trkpt>
      <trkpt lat="43.84503" lon="4.19435">
        <ele>185.19116210938</ele>
        <time>2011-05-01T10:15:41Z</time>
      </trkpt>
      <trkpt lat="43.84499" lon="4.19448">
        <ele>185.19116210938</ele>
        <time>2011-05-01T10:15:44Z</time>
      </trkpt>
      <trkpt lat="43.84498" lon="4.19465">
        <ele>185.19116210938</ele>
        <time>2011-05-01T10:15:48Z</time>
      </trkpt>
      <trkpt lat="43.84502" lon="4.19477">
        <ele>185.19116210938</ele>
        <time>2011-05-01T10:15:51Z</time>
      </trkpt>
      <trkpt lat="43.84509" lon="4.19489">
        <ele>185.19116210938</ele>
        <time>2011-05-01T10:15:54Z</time>
      </trkpt>
      <trkpt lat="43.84514" lon="4.19502">
        <ele>186.15246582031</ele>
        <time>2011-05-01T10:15:57Z</time>
      </trkpt>
      <trkpt lat="43.84521" lon="4.19513">
        <ele>185.19116210938</ele>
        <time>2011-05-01T10:16:00Z</time>
      </trkpt>
      <trkpt lat="43.84529" lon="4.19525">
        <ele>184.71057128906</ele>
        <time>2011-05-01T10:16:03Z</time>
      </trkpt>
      <trkpt lat="43.8454" lon="4.19528">
        <ele>184.22985839844</ele>
        <time>2011-05-01T10:16:06Z</time>
      </trkpt>
      <trkpt lat="43.84549" lon="4.1953">
        <ele>185.19116210938</ele>
        <time>2011-05-01T10:16:09Z</time>
      </trkpt>
      <trkpt lat="43.84556" lon="4.1954">
        <ele>184.71057128906</ele>
        <time>2011-05-01T10:16:12Z</time>
      </trkpt>
      <trkpt lat="43.84554" lon="4.19554">
        <ele>184.71057128906</ele>
        <time>2011-05-01T10:16:15Z</time>
      </trkpt>
      <trkpt lat="43.84553" lon="4.19569">
        <ele>184.22985839844</ele>
        <time>2011-05-01T10:16:18Z</time>
      </trkpt>
      <trkpt lat="43.84545" lon="4.1957">
        <ele>184.22985839844</ele>
        <time>2011-05-01T10:16:21Z</time>
      </trkpt>
      <trkpt lat="43.84535" lon="4.1957">
        <ele>185.19116210938</ele>
        <time>2011-05-01T10:16:24Z</time>
      </trkpt>
      <trkpt lat="43.84525" lon="4.19569">
        <ele>185.19116210938</ele>
        <time>2011-05-01T10:16:27Z</time>
      </trkpt>
      <trkpt lat="43.84514" lon="4.19568">
        <ele>185.19116210938</ele>
        <time>2011-05-01T10:16:30Z</time>
      </trkpt>
      <trkpt lat="43.84504" lon="4.1957">
        <ele>185.67175292969</ele>
        <time>2011-05-01T10:16:33Z</time>
      </trkpt>
      <trkpt lat="43.84497" lon="4.19578">
        <ele>186.15246582031</ele>
        <time>2011-05-01T10:16:36Z</time>
      </trkpt>
      <trkpt lat="43.845" lon="4.19591">
        <ele>185.19116210938</ele>
        <time>2011-05-01T10:16:40Z</time>
      </trkpt>
      <trkpt lat="43.8451" lon="4.19601">
        <ele>185.19116210938</ele>
        <time>2011-05-01T10:16:43Z</time>
      </trkpt>
      <trkpt lat="43.84519" lon="4.19612">
        <ele>184.71057128906</ele>
        <time>2011-05-01T10:16:46Z</time>
      </trkpt>
      <trkpt lat="43.84529" lon="4.19622">
        <ele>184.71057128906</ele>
        <time>2011-05-01T10:16:49Z</time>
      </trkpt>
      <trkpt lat="43.8454" lon="4.19632">
        <ele>185.19116210938</ele>
        <time>2011-05-01T10:16:52Z</time>
      </trkpt>
      <trkpt lat="43.84548" lon="4.19638">
        <ele>185.67175292969</ele>
        <time>2011-05-01T10:16:54Z</time>
      </trkpt>
      <trkpt lat="43.84557" lon="4.19643">
        <ele>184.22985839844</ele>
        <time>2011-05-01T10:16:56Z</time>
      </trkpt>
      <trkpt lat="43.84565" lon="4.19651">
        <ele>185.19116210938</ele>
        <time>2011-05-01T10:16:58Z</time>
      </trkpt>
      <trkpt lat="43.84573" lon="4.19659">
        <ele>184.22985839844</ele>
        <time>2011-05-01T10:17:00Z</time>
      </trkpt>
      <trkpt lat="43.8458" lon="4.19667">
        <ele>184.71057128906</ele>
        <time>2011-05-01T10:17:02Z</time>
      </trkpt>
      <trkpt lat="43.84587" lon="4.19676">
        <ele>184.71057128906</ele>
        <time>2011-05-01T10:17:04Z</time>
      </trkpt>
      <trkpt lat="43.84594" lon="4.19686">
        <ele>184.22985839844</ele>
        <time>2011-05-01T10:17:06Z</time>
      </trkpt>
      <trkpt lat="43.84601" lon="4.19696">
        <ele>184.22985839844</ele>
        <time>2011-05-01T10:17:08Z</time>
      </trkpt>
      <trkpt lat="43.84609" lon="4.19706">
        <ele>183.7490234375</ele>
        <time>2011-05-01T10:17:10Z</time>
      </trkpt>
      <trkpt lat="43.84619" lon="4.19715">
        <ele>184.22985839844</ele>
        <time>2011-05-01T10:17:12Z</time>
      </trkpt>
      <trkpt lat="43.84628" lon="4.19724">
        <ele>183.26843261719</ele>
        <time>2011-05-01T10:17:14Z</time>
      </trkpt>
      <trkpt lat="43.84638" lon="4.19733">
        <ele>182.78784179688</ele>
        <time>2011-05-01T10:17:16Z</time>
      </trkpt>
      <trkpt lat="43.84648" lon="4.19742">
        <ele>182.30712890625</ele>
        <time>2011-05-01T10:17:18Z</time>
      </trkpt>
      <trkpt lat="43.84657" lon="4.19751">
        <ele>181.34582519531</ele>
        <time>2011-05-01T10:17:20Z</time>
      </trkpt>
      <trkpt lat="43.84667" lon="4.19762">
        <ele>180.38452148438</ele>
        <time>2011-05-01T10:17:22Z</time>
      </trkpt>
      <trkpt lat="43.84674" lon="4.19774">
        <ele>181.34582519531</ele>
        <time>2011-05-01T10:17:24Z</time>
      </trkpt>
      <trkpt lat="43.84681" lon="4.19788">
        <ele>179.90380859375</ele>
        <time>2011-05-01T10:17:26Z</time>
      </trkpt>
      <trkpt lat="43.8469" lon="4.19797">
        <ele>180.38452148438</ele>
        <time>2011-05-01T10:17:28Z</time>
      </trkpt>
      <trkpt lat="43.847" lon="4.19807">
        <ele>178.94262695312</ele>
        <time>2011-05-01T10:17:30Z</time>
      </trkpt>
      <trkpt lat="43.84709" lon="4.19818">
        <ele>177.98120117188</ele>
        <time>2011-05-01T10:17:32Z</time>
      </trkpt>
      <trkpt lat="43.84718" lon="4.1983">
        <ele>177.02001953125</ele>
        <time>2011-05-01T10:17:34Z</time>
      </trkpt>
      <trkpt lat="43.84729" lon="4.19841">
        <ele>177.50061035156</ele>
        <time>2011-05-01T10:17:36Z</time>
      </trkpt>
      <trkpt lat="43.84739" lon="4.1985">
        <ele>177.02001953125</ele>
        <time>2011-05-01T10:17:38Z</time>
      </trkpt>
      <trkpt lat="43.84749" lon="4.19858">
        <ele>177.02001953125</ele>
        <time>2011-05-01T10:17:40Z</time>
      </trkpt>
      <trkpt lat="43.8476" lon="4.19865">
        <ele>176.53930664062</ele>
        <time>2011-05-01T10:17:42Z</time>
      </trkpt>
      <trkpt lat="43.84772" lon="4.19872">
        <ele>175.57788085938</ele>
        <time>2011-05-01T10:17:44Z</time>
      </trkpt>
      <trkpt lat="43.84783" lon="4.19877">
        <ele>174.13586425781</ele>
        <time>2011-05-01T10:17:46Z</time>
      </trkpt>
      <trkpt lat="43.84794" lon="4.19882">
        <ele>174.13586425781</ele>
        <time>2011-05-01T10:17:48Z</time>
      </trkpt>
      <trkpt lat="43.84802" lon="4.19886">
        <ele>174.13586425781</ele>
        <time>2011-05-01T10:17:50Z</time>
      </trkpt>
      <trkpt lat="43.84802" lon="4.19886">
        <ele>174.61657714844</ele>
        <time>2011-05-01T10:17:52Z</time>
      </trkpt>
      <trkpt lat="43.84802" lon="4.19886">
        <ele>174.61657714844</ele>
        <time>2011-05-01T10:17:54Z</time>
      </trkpt>
      <trkpt lat="43.84833" lon="4.19895">
        <ele>175.09729003906</ele>
        <time>2011-05-01T10:17:56Z</time>
      </trkpt>
      <trkpt lat="43.84847" lon="4.199">
        <ele>175.57788085938</ele>
        <time>2011-05-01T10:17:59Z</time>
      </trkpt>
      <trkpt lat="43.84859" lon="4.19906">
        <ele>175.09729003906</ele>
        <time>2011-05-01T10:18:02Z</time>
      </trkpt>
      <trkpt lat="43.84868" lon="4.1991">
        <ele>175.09729003906</ele>
        <time>2011-05-01T10:18:04Z</time>
      </trkpt>
      <trkpt lat="43.84877" lon="4.19913">
        <ele>175.09729003906</ele>
        <time>2011-05-01T10:18:06Z</time>
      </trkpt>
      <trkpt lat="43.84886" lon="4.19917">
        <ele>175.09729003906</ele>
        <time>2011-05-01T10:18:08Z</time>
      </trkpt>
      <trkpt lat="43.84895" lon="4.19922">
        <ele>174.61657714844</ele>
        <time>2011-05-01T10:18:10Z</time>
      </trkpt>
      <trkpt lat="43.84907" lon="4.19929">
        <ele>174.13586425781</ele>
        <time>2011-05-01T10:18:13Z</time>
      </trkpt>
      <trkpt lat="43.84916" lon="4.19934">
        <ele>174.13586425781</ele>
        <time>2011-05-01T10:18:15Z</time>
      </trkpt>
      <trkpt lat="43.84924" lon="4.19943">
        <ele>174.13586425781</ele>
        <time>2011-05-01T10:18:17Z</time>
      </trkpt>
      <trkpt lat="43.84931" lon="4.19954">
        <ele>174.61657714844</ele>
        <time>2011-05-01T10:18:19Z</time>
      </trkpt>
      <trkpt lat="43.84938" lon="4.19963">
        <ele>173.6552734375</ele>
        <time>2011-05-01T10:18:21Z</time>
      </trkpt>
      <trkpt lat="43.84945" lon="4.19972">
        <ele>174.13586425781</ele>
        <time>2011-05-01T10:18:23Z</time>
      </trkpt>
      <trkpt lat="43.84951" lon="4.19982">
        <ele>174.13586425781</ele>
        <time>2011-05-01T10:18:25Z</time>
      </trkpt>
      <trkpt lat="43.8496" lon="4.19996">
        <ele>173.6552734375</ele>
        <time>2011-05-01T10:18:28Z</time>
      </trkpt>
      <trkpt lat="43.84967" lon="4.20006">
        <ele>174.13586425781</ele>
        <time>2011-05-01T10:18:30Z</time>
      </trkpt>
      <trkpt lat="43.84973" lon="4.20014">
        <ele>173.6552734375</ele>
        <time>2011-05-01T10:18:32Z</time>
      </trkpt>
      <trkpt lat="43.84983" lon="4.20015">
        <ele>173.17468261719</ele>
        <time>2011-05-01T10:18:34Z</time>
      </trkpt>
      <trkpt lat="43.84992" lon="4.20018">
        <ele>172.69396972656</ele>
        <time>2011-05-01T10:18:36Z</time>
      </trkpt>
      <trkpt lat="43.85" lon="4.20025">
        <ele>173.17468261719</ele>
        <time>2011-05-01T10:18:38Z</time>
      </trkpt>
      <trkpt lat="43.85011" lon="4.20034">
        <ele>172.21325683594</ele>
        <time>2011-05-01T10:18:41Z</time>
      </trkpt>
      <trkpt lat="43.85021" lon="4.20043">
        <ele>171.25207519531</ele>
        <time>2011-05-01T10:18:44Z</time>
      </trkpt>
      <trkpt lat="43.85031" lon="4.20052">
        <ele>171.73266601562</ele>
        <time>2011-05-01T10:18:47Z</time>
      </trkpt>
      <trkpt lat="43.85038" lon="4.20058">
        <ele>171.73266601562</ele>
        <time>2011-05-01T10:18:50Z</time>
      </trkpt>
      <trkpt lat="43.8503" lon="4.20071">
        <ele>171.73266601562</ele>
        <time>2011-05-01T10:18:53Z</time>
      </trkpt>
      <trkpt lat="43.85018" lon="4.20077">
        <ele>172.21325683594</ele>
        <time>2011-05-01T10:18:56Z</time>
      </trkpt>
      <trkpt lat="43.85009" lon="4.20087">
        <ele>171.25207519531</ele>
        <time>2011-05-01T10:18:59Z</time>
      </trkpt>
      <trkpt lat="43.85005" lon="4.20104">
        <ele>169.32946777344</ele>
        <time>2011-05-01T10:19:02Z</time>
      </trkpt>
      <trkpt lat="43.85004" lon="4.20123">
        <ele>167.88732910156</ele>
        <time>2011-05-01T10:19:05Z</time>
      </trkpt>
      <trkpt lat="43.85004" lon="4.20137">
        <ele>167.88732910156</ele>
        <time>2011-05-01T10:19:07Z</time>
      </trkpt>
      <trkpt lat="43.85004" lon="4.20151">
        <ele>167.88732910156</ele>
        <time>2011-05-01T10:19:09Z</time>
      </trkpt>
      <trkpt lat="43.85004" lon="4.20164">
        <ele>166.4453125</ele>
        <time>2011-05-01T10:19:11Z</time>
      </trkpt>
      <trkpt lat="43.85002" lon="4.2018">
        <ele>164.52270507812</ele>
        <time>2011-05-01T10:19:14Z</time>
      </trkpt>
      <trkpt lat="43.84998" lon="4.2019">
        <ele>164.52270507812</ele>
        <time>2011-05-01T10:19:17Z</time>
      </trkpt>
      <trkpt lat="43.84993" lon="4.20204">
        <ele>164.52270507812</ele>
        <time>2011-05-01T10:19:20Z</time>
      </trkpt>
      <trkpt lat="43.84998" lon="4.2022">
        <ele>164.04211425781</ele>
        <time>2011-05-01T10:19:23Z</time>
      </trkpt>
      <trkpt lat="43.84997" lon="4.20236">
        <ele>163.5615234375</ele>
        <time>2011-05-01T10:19:26Z</time>
      </trkpt>
      <trkpt lat="43.84996" lon="4.20249">
        <ele>163.5615234375</ele>
        <time>2011-05-01T10:19:29Z</time>
      </trkpt>
      <trkpt lat="43.84995" lon="4.20264">
        <ele>163.08081054688</ele>
        <time>2011-05-01T10:19:32Z</time>
      </trkpt>
      <trkpt lat="43.84999" lon="4.20283">
        <ele>161.63891601562</ele>
        <time>2011-05-01T10:19:35Z</time>
      </trkpt>
      <trkpt lat="43.85002" lon="4.20301">
        <ele>161.63891601562</ele>
        <time>2011-05-01T10:19:38Z</time>
      </trkpt>
      <trkpt lat="43.85004" lon="4.20318">
        <ele>160.19689941406</ele>
        <time>2011-05-01T10:19:41Z</time>
      </trkpt>
      <trkpt lat="43.85004" lon="4.20331">
        <ele>160.67749023438</ele>
        <time>2011-05-01T10:19:43Z</time>
      </trkpt>
      <trkpt lat="43.85004" lon="4.2035">
        <ele>159.71618652344</ele>
        <time>2011-05-01T10:19:46Z</time>
      </trkpt>
      <trkpt lat="43.84999" lon="4.20367">
        <ele>159.23547363281</ele>
        <time>2011-05-01T10:19:49Z</time>
      </trkpt>
      <trkpt lat="43.8499" lon="4.20378">
        <ele>158.75476074219</ele>
        <time>2011-05-01T10:19:52Z</time>
      </trkpt>
      <trkpt lat="43.84986" lon="4.20393">
        <ele>158.75476074219</ele>
        <time>2011-05-01T10:19:55Z</time>
      </trkpt>
      <trkpt lat="43.84985" lon="4.20409">
        <ele>158.27416992188</ele>
        <time>2011-05-01T10:19:58Z</time>
      </trkpt>
      <trkpt lat="43.84988" lon="4.20427">
        <ele>157.31286621094</ele>
        <time>2011-05-01T10:20:01Z</time>
      </trkpt>
      <trkpt lat="43.84997" lon="4.20435">
        <ele>157.31286621094</ele>
        <time>2011-05-01T10:20:03Z</time>
      </trkpt>
      <trkpt lat="43.85005" lon="4.20443">
        <ele>157.31286621094</ele>
        <time>2011-05-01T10:20:05Z</time>
      </trkpt>
      <trkpt lat="43.85016" lon="4.20456">
        <ele>157.31286621094</ele>
        <time>2011-05-01T10:20:08Z</time>
      </trkpt>
      <trkpt lat="43.85024" lon="4.20469">
        <ele>155.39025878906</ele>
        <time>2011-05-01T10:20:11Z</time>
      </trkpt>
      <trkpt lat="43.8503" lon="4.20486">
        <ele>155.87097167969</ele>
        <time>2011-05-01T10:20:14Z</time>
      </trkpt>
      <trkpt lat="43.85037" lon="4.20497">
        <ele>155.87097167969</ele>
        <time>2011-05-01T10:20:16Z</time>
      </trkpt>
      <trkpt lat="43.85042" lon="4.20509">
        <ele>155.39025878906</ele>
        <time>2011-05-01T10:20:18Z</time>
      </trkpt>
      <trkpt lat="43.85048" lon="4.20521">
        <ele>155.87097167969</ele>
        <time>2011-05-01T10:20:20Z</time>
      </trkpt>
      <trkpt lat="43.85054" lon="4.20531">
        <ele>154.90954589844</ele>
        <time>2011-05-01T10:20:22Z</time>
      </trkpt>
      <trkpt lat="43.85063" lon="4.20542">
        <ele>154.42895507812</ele>
        <time>2011-05-01T10:20:24Z</time>
      </trkpt>
      <trkpt lat="43.85069" lon="4.20554">
        <ele>154.90954589844</ele>
        <time>2011-05-01T10:20:26Z</time>
      </trkpt>
      <trkpt lat="43.85075" lon="4.20567">
        <ele>153.94836425781</ele>
        <time>2011-05-01T10:20:28Z</time>
      </trkpt>
      <trkpt lat="43.85081" lon="4.2058">
        <ele>153.94836425781</ele>
        <time>2011-05-01T10:20:30Z</time>
      </trkpt>
      <trkpt lat="43.85088" lon="4.2059">
        <ele>154.42895507812</ele>
        <time>2011-05-01T10:20:32Z</time>
      </trkpt>
      <trkpt lat="43.85094" lon="4.206">
        <ele>154.42895507812</ele>
        <time>2011-05-01T10:20:34Z</time>
      </trkpt>
      <trkpt lat="43.85097" lon="4.20616">
        <ele>153.46765136719</ele>
        <time>2011-05-01T10:20:37Z</time>
      </trkpt>
      <trkpt lat="43.85104" lon="4.20626">
        <ele>152.98693847656</ele>
        <time>2011-05-01T10:20:40Z</time>
      </trkpt>
      <trkpt lat="43.85105" lon="4.20643">
        <ele>153.94836425781</ele>
        <time>2011-05-01T10:20:43Z</time>
      </trkpt>
      <trkpt lat="43.85105" lon="4.20657">
        <ele>153.46765136719</ele>
        <time>2011-05-01T10:20:45Z</time>
      </trkpt>
      <trkpt lat="43.8511" lon="4.20672">
        <ele>153.46765136719</ele>
        <time>2011-05-01T10:20:48Z</time>
      </trkpt>
      <trkpt lat="43.85111" lon="4.20688">
        <ele>153.46765136719</ele>
        <time>2011-05-01T10:20:51Z</time>
      </trkpt>
      <trkpt lat="43.85112" lon="4.207">
        <ele>152.50634765625</ele>
        <time>2011-05-01T10:20:53Z</time>
      </trkpt>
      <trkpt lat="43.85115" lon="4.20712">
        <ele>152.02575683594</ele>
        <time>2011-05-01T10:20:55Z</time>
      </trkpt>
      <trkpt lat="43.85118" lon="4.20725">
        <ele>152.50634765625</ele>
        <time>2011-05-01T10:20:57Z</time>
      </trkpt>
      <trkpt lat="43.85116" lon="4.20738">
        <ele>152.02575683594</ele>
        <time>2011-05-01T10:20:59Z</time>
      </trkpt>
      <trkpt lat="43.85118" lon="4.20754">
        <ele>151.544921875</ele>
        <time>2011-05-01T10:21:01Z</time>
      </trkpt>
      <trkpt lat="43.85119" lon="4.2077">
        <ele>151.544921875</ele>
        <time>2011-05-01T10:21:03Z</time>
      </trkpt>
      <trkpt lat="43.85125" lon="4.20783">
        <ele>151.544921875</ele>
        <time>2011-05-01T10:21:05Z</time>
      </trkpt>
      <trkpt lat="43.85131" lon="4.20789">
        <ele>152.02575683594</ele>
        <time>2011-05-01T10:21:07Z</time>
      </trkpt>
      <trkpt lat="43.85145" lon="4.208">
        <ele>151.06420898438</ele>
        <time>2011-05-01T10:21:09Z</time>
      </trkpt>
      <trkpt lat="43.85152" lon="4.20811">
        <ele>151.06420898438</ele>
        <time>2011-05-01T10:21:11Z</time>
      </trkpt>
      <trkpt lat="43.85158" lon="4.20824">
        <ele>151.06420898438</ele>
        <time>2011-05-01T10:21:13Z</time>
      </trkpt>
      <trkpt lat="43.85164" lon="4.20835">
        <ele>151.06420898438</ele>
        <time>2011-05-01T10:21:15Z</time>
      </trkpt>
      <trkpt lat="43.85171" lon="4.20845">
        <ele>150.58361816406</ele>
        <time>2011-05-01T10:21:17Z</time>
      </trkpt>
      <trkpt lat="43.85178" lon="4.20856">
        <ele>150.10302734375</ele>
        <time>2011-05-01T10:21:19Z</time>
      </trkpt>
      <trkpt lat="43.85186" lon="4.20866">
        <ele>150.10302734375</ele>
        <time>2011-05-01T10:21:21Z</time>
      </trkpt>
      <trkpt lat="43.85194" lon="4.20874">
        <ele>150.58361816406</ele>
        <time>2011-05-01T10:21:23Z</time>
      </trkpt>
      <trkpt lat="43.852" lon="4.20884">
        <ele>150.10302734375</ele>
        <time>2011-05-01T10:21:25Z</time>
      </trkpt>
      <trkpt lat="43.85208" lon="4.20895">
        <ele>149.62231445312</ele>
        <time>2011-05-01T10:21:27Z</time>
      </trkpt>
      <trkpt lat="43.85216" lon="4.20904">
        <ele>150.10302734375</ele>
        <time>2011-05-01T10:21:29Z</time>
      </trkpt>
      <trkpt lat="43.85225" lon="4.20912">
        <ele>150.10302734375</ele>
        <time>2011-05-01T10:21:31Z</time>
      </trkpt>
      <trkpt lat="43.85234" lon="4.2092">
        <ele>149.62231445312</ele>
        <time>2011-05-01T10:21:33Z</time>
      </trkpt>
      <trkpt lat="43.8524" lon="4.20929">
        <ele>148.66101074219</ele>
        <time>2011-05-01T10:21:36Z</time>
      </trkpt>
      <trkpt lat="43.85242" lon="4.20933">
        <ele>149.1416015625</ele>
        <time>2011-05-01T10:21:45Z</time>
      </trkpt>
      <trkpt lat="43.8525" lon="4.20948">
        <ele>149.62231445312</ele>
        <time>2011-05-01T10:21:52Z</time>
      </trkpt>
      <trkpt lat="43.85254" lon="4.20957">
        <ele>150.10302734375</ele>
        <time>2011-05-01T10:21:55Z</time>
      </trkpt>
      <trkpt lat="43.8526" lon="4.20968">
        <ele>149.1416015625</ele>
        <time>2011-05-01T10:21:58Z</time>
      </trkpt>
      <trkpt lat="43.85266" lon="4.20983">
        <ele>149.62231445312</ele>
        <time>2011-05-01T10:22:02Z</time>
      </trkpt>
      <trkpt lat="43.85277" lon="4.20993">
        <ele>150.10302734375</ele>
        <time>2011-05-01T10:22:05Z</time>
      </trkpt>
      <trkpt lat="43.85284" lon="4.21002">
        <ele>148.66101074219</ele>
        <time>2011-05-01T10:22:07Z</time>
      </trkpt>
      <trkpt lat="43.85292" lon="4.2101">
        <ele>149.62231445312</ele>
        <time>2011-05-01T10:22:09Z</time>
      </trkpt>
      <trkpt lat="43.853" lon="4.21018">
        <ele>148.66101074219</ele>
        <time>2011-05-01T10:22:11Z</time>
      </trkpt>
      <trkpt lat="43.8531" lon="4.21025">
        <ele>148.66101074219</ele>
        <time>2011-05-01T10:22:13Z</time>
      </trkpt>
      <trkpt lat="43.85323" lon="4.2103">
        <ele>148.18041992188</ele>
        <time>2011-05-01T10:22:16Z</time>
      </trkpt>
      <trkpt lat="43.85336" lon="4.21033">
        <ele>148.66101074219</ele>
        <time>2011-05-01T10:22:19Z</time>
      </trkpt>
      <trkpt lat="43.85345" lon="4.21036">
        <ele>149.1416015625</ele>
        <time>2011-05-01T10:22:21Z</time>
      </trkpt>
      <trkpt lat="43.85355" lon="4.2104">
        <ele>148.18041992188</ele>
        <time>2011-05-01T10:22:23Z</time>
      </trkpt>
      <trkpt lat="43.85364" lon="4.21042">
        <ele>147.69970703125</ele>
        <time>2011-05-01T10:22:25Z</time>
      </trkpt>
      <trkpt lat="43.85375" lon="4.21046">
        <ele>147.21899414062</ele>
        <time>2011-05-01T10:22:27Z</time>
      </trkpt>
      <trkpt lat="43.85384" lon="4.21051">
        <ele>148.18041992188</ele>
        <time>2011-05-01T10:22:29Z</time>
      </trkpt>
      <trkpt lat="43.85394" lon="4.21055">
        <ele>147.69970703125</ele>
        <time>2011-05-01T10:22:31Z</time>
      </trkpt>
      <trkpt lat="43.85404" lon="4.21056">
        <ele>147.21899414062</ele>
        <time>2011-05-01T10:22:33Z</time>
      </trkpt>
      <trkpt lat="43.85413" lon="4.21058">
        <ele>147.69970703125</ele>
        <time>2011-05-01T10:22:35Z</time>
      </trkpt>
      <trkpt lat="43.85424" lon="4.21059">
        <ele>147.69970703125</ele>
        <time>2011-05-01T10:22:37Z</time>
      </trkpt>
      <trkpt lat="43.85434" lon="4.2106">
        <ele>147.69970703125</ele>
        <time>2011-05-01T10:22:39Z</time>
      </trkpt>
      <trkpt lat="43.85444" lon="4.21065">
        <ele>146.73840332031</ele>
        <time>2011-05-01T10:22:41Z</time>
      </trkpt>
      <trkpt lat="43.85453" lon="4.21071">
        <ele>146.73840332031</ele>
        <time>2011-05-01T10:22:43Z</time>
      </trkpt>
      <trkpt lat="43.85463" lon="4.21074">
        <ele>146.73840332031</ele>
        <time>2011-05-01T10:22:45Z</time>
      </trkpt>
      <trkpt lat="43.85473" lon="4.21075">
        <ele>146.73840332031</ele>
        <time>2011-05-01T10:22:47Z</time>
      </trkpt>
      <trkpt lat="43.85483" lon="4.21076">
        <ele>146.2578125</ele>
        <time>2011-05-01T10:22:49Z</time>
      </trkpt>
      <trkpt lat="43.85491" lon="4.21077">
        <ele>146.2578125</ele>
        <time>2011-05-01T10:22:51Z</time>
      </trkpt>
      <trkpt lat="43.85505" lon="4.21084">
        <ele>146.73840332031</ele>
        <time>2011-05-01T10:22:54Z</time>
      </trkpt>
      <trkpt lat="43.85513" lon="4.2109">
        <ele>145.77709960938</ele>
        <time>2011-05-01T10:22:56Z</time>
      </trkpt>
      <trkpt lat="43.85525" lon="4.21097">
        <ele>145.77709960938</ele>
        <time>2011-05-01T10:22:59Z</time>
      </trkpt>
      <trkpt lat="43.85537" lon="4.21103">
        <ele>146.2578125</ele>
        <time>2011-05-01T10:23:02Z</time>
      </trkpt>
      <trkpt lat="43.85547" lon="4.21113">
        <ele>145.77709960938</ele>
        <time>2011-05-01T10:23:05Z</time>
      </trkpt>
      <trkpt lat="43.85556" lon="4.21122">
        <ele>146.73840332031</ele>
        <time>2011-05-01T10:23:08Z</time>
      </trkpt>
      <trkpt lat="43.85567" lon="4.21125">
        <ele>146.2578125</ele>
        <time>2011-05-01T10:23:11Z</time>
      </trkpt>
      <trkpt lat="43.85578" lon="4.21131">
        <ele>145.77709960938</ele>
        <time>2011-05-01T10:23:14Z</time>
      </trkpt>
      <trkpt lat="43.85588" lon="4.21131">
        <ele>145.29638671875</ele>
        <time>2011-05-01T10:23:17Z</time>
      </trkpt>
      <trkpt lat="43.85602" lon="4.21131">
        <ele>145.77709960938</ele>
        <time>2011-05-01T10:23:20Z</time>
      </trkpt>
      <trkpt lat="43.85613" lon="4.21132">
        <ele>145.29638671875</ele>
        <time>2011-05-01T10:23:22Z</time>
      </trkpt>
      <trkpt lat="43.85625" lon="4.21138">
        <ele>144.81579589844</ele>
        <time>2011-05-01T10:23:25Z</time>
      </trkpt>
      <trkpt lat="43.85637" lon="4.21144">
        <ele>144.81579589844</ele>
        <time>2011-05-01T10:23:28Z</time>
      </trkpt>
      <trkpt lat="43.8565" lon="4.2115">
        <ele>144.33520507812</ele>
        <time>2011-05-01T10:23:31Z</time>
      </trkpt>
      <trkpt lat="43.85663" lon="4.2115">
        <ele>144.33520507812</ele>
        <time>2011-05-01T10:23:34Z</time>
      </trkpt>
      <trkpt lat="43.85676" lon="4.21151">
        <ele>144.33520507812</ele>
        <time>2011-05-01T10:23:37Z</time>
      </trkpt>
      <trkpt lat="43.85689" lon="4.21155">
        <ele>143.85437011719</ele>
        <time>2011-05-01T10:23:40Z</time>
      </trkpt>
      <trkpt lat="43.857" lon="4.21164">
        <ele>144.33520507812</ele>
        <time>2011-05-01T10:23:43Z</time>
      </trkpt>
      <trkpt lat="43.85709" lon="4.2116">
        <ele>144.33520507812</ele>
        <time>2011-05-01T10:23:45Z</time>
      </trkpt>
      <trkpt lat="43.85724" lon="4.21156">
        <ele>143.37365722656</ele>
        <time>2011-05-01T10:23:48Z</time>
      </trkpt>
      <trkpt lat="43.85737" lon="4.21156">
        <ele>143.85437011719</ele>
        <time>2011-05-01T10:23:51Z</time>
      </trkpt>
      <trkpt lat="43.85749" lon="4.21154">
        <ele>143.85437011719</ele>
        <time>2011-05-01T10:23:54Z</time>
      </trkpt>
      <trkpt lat="43.85756" lon="4.21148">
        <ele>142.41247558594</ele>
        <time>2011-05-01T10:23:58Z</time>
      </trkpt>
      <trkpt lat="43.85757" lon="4.21137">
        <ele>142.41247558594</ele>
        <time>2011-05-01T10:24:04Z</time>
      </trkpt>
      <trkpt lat="43.85766" lon="4.21125">
        <ele>142.41247558594</ele>
        <time>2011-05-01T10:24:08Z</time>
      </trkpt>
      <trkpt lat="43.85776" lon="4.21118">
        <ele>142.89306640625</ele>
        <time>2011-05-01T10:24:11Z</time>
      </trkpt>
      <trkpt lat="43.85788" lon="4.2111">
        <ele>142.89306640625</ele>
        <time>2011-05-01T10:24:14Z</time>
      </trkpt>
      <trkpt lat="43.85798" lon="4.21099">
        <ele>142.41247558594</ele>
        <time>2011-05-01T10:24:17Z</time>
      </trkpt>
      <trkpt lat="43.85805" lon="4.21089">
        <ele>142.41247558594</ele>
        <time>2011-05-01T10:24:19Z</time>
      </trkpt>
      <trkpt lat="43.85811" lon="4.2108">
        <ele>141.93176269531</ele>
        <time>2011-05-01T10:24:21Z</time>
      </trkpt>
      <trkpt lat="43.85818" lon="4.21071">
        <ele>142.41247558594</ele>
        <time>2011-05-01T10:24:23Z</time>
      </trkpt>
      <trkpt lat="43.85823" lon="4.21061">
        <ele>141.93176269531</ele>
        <time>2011-05-01T10:24:25Z</time>
      </trkpt>
      <trkpt lat="43.85829" lon="4.21051">
        <ele>142.41247558594</ele>
        <time>2011-05-01T10:24:27Z</time>
      </trkpt>
      <trkpt lat="43.85834" lon="4.2104">
        <ele>141.93176269531</ele>
        <time>2011-05-01T10:24:29Z</time>
      </trkpt>
      <trkpt lat="43.8584" lon="4.21031">
        <ele>141.45104980469</ele>
        <time>2011-05-01T10:24:31Z</time>
      </trkpt>
      <trkpt lat="43.85848" lon="4.21017">
        <ele>141.93176269531</ele>
        <time>2011-05-01T10:24:34Z</time>
      </trkpt>
      <trkpt lat="43.85858" lon="4.21008">
        <ele>141.45104980469</ele>
        <time>2011-05-01T10:24:37Z</time>
      </trkpt>
      <trkpt lat="43.85866" lon="4.20998">
        <ele>140.97045898438</ele>
        <time>2011-05-01T10:24:40Z</time>
      </trkpt>
      <trkpt lat="43.85877" lon="4.21005">
        <ele>140.48986816406</ele>
        <time>2011-05-01T10:24:44Z</time>
      </trkpt>
      <trkpt lat="43.85889" lon="4.20999">
        <ele>141.45104980469</ele>
        <time>2011-05-01T10:24:48Z</time>
      </trkpt>
      <trkpt lat="43.85901" lon="4.20998">
        <ele>140.97045898438</ele>
        <time>2011-05-01T10:24:51Z</time>
      </trkpt>
      <trkpt lat="43.85913" lon="4.21">
        <ele>140.97045898438</ele>
        <time>2011-05-01T10:24:54Z</time>
      </trkpt>
      <trkpt lat="43.85924" lon="4.21004">
        <ele>141.45104980469</ele>
        <time>2011-05-01T10:24:57Z</time>
      </trkpt>
      <trkpt lat="43.85934" lon="4.2101">
        <ele>141.45104980469</ele>
        <time>2011-05-01T10:25:00Z</time>
      </trkpt>
      <trkpt lat="43.85945" lon="4.21017">
        <ele>141.45104980469</ele>
        <time>2011-05-01T10:25:03Z</time>
      </trkpt>
      <trkpt lat="43.85956" lon="4.21023">
        <ele>141.45104980469</ele>
        <time>2011-05-01T10:25:06Z</time>
      </trkpt>
      <trkpt lat="43.85965" lon="4.21032">
        <ele>140.97045898438</ele>
        <time>2011-05-01T10:25:09Z</time>
      </trkpt>
      <trkpt lat="43.85976" lon="4.21041">
        <ele>140.97045898438</ele>
        <time>2011-05-01T10:25:12Z</time>
      </trkpt>
      <trkpt lat="43.85987" lon="4.21049">
        <ele>140.00915527344</ele>
        <time>2011-05-01T10:25:15Z</time>
      </trkpt>
      <trkpt lat="43.86008" lon="4.21014">
        <ele>139.0478515625</ele>
        <time>2011-05-01T10:25:21Z</time>
      </trkpt>
      <trkpt lat="43.8599" lon="4.21059">
        <ele>139.0478515625</ele>
        <time>2011-05-01T10:25:26Z</time>
      </trkpt>
      <trkpt lat="43.85995" lon="4.21074">
        <ele>139.0478515625</ele>
        <time>2011-05-01T10:25:30Z</time>
      </trkpt>
      <trkpt lat="43.85998" lon="4.21089">
        <ele>139.0478515625</ele>
        <time>2011-05-01T10:25:33Z</time>
      </trkpt>
      <trkpt lat="43.85998" lon="4.21105">
        <ele>139.0478515625</ele>
        <time>2011-05-01T10:25:36Z</time>
      </trkpt>
      <trkpt lat="43.86005" lon="4.21121">
        <ele>139.0478515625</ele>
        <time>2011-05-01T10:25:39Z</time>
      </trkpt>
      <trkpt lat="43.86011" lon="4.21136">
        <ele>139.0478515625</ele>
        <time>2011-05-01T10:25:42Z</time>
      </trkpt>
      <trkpt lat="43.86017" lon="4.21153">
        <ele>139.0478515625</ele>
        <time>2011-05-01T10:25:45Z</time>
      </trkpt>
      <trkpt lat="43.86032" lon="4.2121">
        <ele>139.0478515625</ele>
        <time>2011-05-01T10:25:48Z</time>
      </trkpt>
      <trkpt lat="43.86023" lon="4.21171">
        <ele>138.56726074219</ele>
        <time>2011-05-01T10:25:53Z</time>
      </trkpt>
      <trkpt lat="43.86028" lon="4.21185">
        <ele>139.0478515625</ele>
        <time>2011-05-01T10:25:57Z</time>
      </trkpt>
      <trkpt lat="43.86032" lon="4.212">
        <ele>140.48986816406</ele>
        <time>2011-05-01T10:26:01Z</time>
      </trkpt>
      <trkpt lat="43.86032" lon="4.2121">
        <ele>140.00915527344</ele>
        <time>2011-05-01T10:26:05Z</time>
      </trkpt>
      <trkpt lat="43.86032" lon="4.2121">
        <ele>139.52844238281</ele>
        <time>2011-05-01T10:26:09Z</time>
      </trkpt>
      <trkpt lat="43.86021" lon="4.2124">
        <ele>139.0478515625</ele>
        <time>2011-05-01T10:26:13Z</time>
      </trkpt>
      <trkpt lat="43.86012" lon="4.21245">
        <ele>139.52844238281</ele>
        <time>2011-05-01T10:26:16Z</time>
      </trkpt>
      <trkpt lat="43.86002" lon="4.21249">
        <ele>139.0478515625</ele>
        <time>2011-05-01T10:26:19Z</time>
      </trkpt>
      <trkpt lat="43.85992" lon="4.21254">
        <ele>139.0478515625</ele>
        <time>2011-05-01T10:26:22Z</time>
      </trkpt>
      <trkpt lat="43.85982" lon="4.21261">
        <ele>139.0478515625</ele>
        <time>2011-05-01T10:26:25Z</time>
      </trkpt>
      <trkpt lat="43.85972" lon="4.21267">
        <ele>139.52844238281</ele>
        <time>2011-05-01T10:26:28Z</time>
      </trkpt>
      <trkpt lat="43.85961" lon="4.21273">
        <ele>140.48986816406</ele>
        <time>2011-05-01T10:26:31Z</time>
      </trkpt>
      <trkpt lat="43.8595" lon="4.2128">
        <ele>140.00915527344</ele>
        <time>2011-05-01T10:26:34Z</time>
      </trkpt>
      <trkpt lat="43.85937" lon="4.21289">
        <ele>139.52844238281</ele>
        <time>2011-05-01T10:26:37Z</time>
      </trkpt>
      <trkpt lat="43.85931" lon="4.21303">
        <ele>140.48986816406</ele>
        <time>2011-05-01T10:26:40Z</time>
      </trkpt>
      <trkpt lat="43.8592" lon="4.21309">
        <ele>140.00915527344</ele>
        <time>2011-05-01T10:26:43Z</time>
      </trkpt>
      <trkpt lat="43.85914" lon="4.21322">
        <ele>139.52844238281</ele>
        <time>2011-05-01T10:26:46Z</time>
      </trkpt>
      <trkpt lat="43.85914" lon="4.21336">
        <ele>140.48986816406</ele>
        <time>2011-05-01T10:26:49Z</time>
      </trkpt>
      <trkpt lat="43.85914" lon="4.21351">
        <ele>140.48986816406</ele>
        <time>2011-05-01T10:26:52Z</time>
      </trkpt>
      <trkpt lat="43.85908" lon="4.21366">
        <ele>140.48986816406</ele>
        <time>2011-05-01T10:26:56Z</time>
      </trkpt>
      <trkpt lat="43.859" lon="4.21377">
        <ele>139.52844238281</ele>
        <time>2011-05-01T10:26:59Z</time>
      </trkpt>
      <trkpt lat="43.85893" lon="4.21387">
        <ele>140.48986816406</ele>
        <time>2011-05-01T10:27:02Z</time>
      </trkpt>
      <trkpt lat="43.85886" lon="4.21395">
        <ele>139.52844238281</ele>
        <time>2011-05-01T10:27:05Z</time>
      </trkpt>
      <trkpt lat="43.85877" lon="4.21407">
        <ele>140.00915527344</ele>
        <time>2011-05-01T10:27:09Z</time>
      </trkpt>
      <trkpt lat="43.85877" lon="4.21418">
        <ele>140.48986816406</ele>
        <time>2011-05-01T10:27:13Z</time>
      </trkpt>
      <trkpt lat="43.85871" lon="4.21429">
        <ele>140.00915527344</ele>
        <time>2011-05-01T10:27:17Z</time>
      </trkpt>
      <trkpt lat="43.85863" lon="4.21433">
        <ele>140.97045898438</ele>
        <time>2011-05-01T10:27:21Z</time>
      </trkpt>
      <trkpt lat="43.85856" lon="4.21436">
        <ele>140.97045898438</ele>
        <time>2011-05-01T10:27:25Z</time>
      </trkpt>
      <trkpt lat="43.85847" lon="4.21439">
        <ele>140.97045898438</ele>
        <time>2011-05-01T10:27:30Z</time>
      </trkpt>
      <trkpt lat="43.85838" lon="4.21442">
        <ele>141.45104980469</ele>
        <time>2011-05-01T10:27:34Z</time>
      </trkpt>
      <trkpt lat="43.85832" lon="4.21444">
        <ele>140.48986816406</ele>
        <time>2011-05-01T10:27:37Z</time>
      </trkpt>
      <trkpt lat="43.85823" lon="4.21443">
        <ele>140.48986816406</ele>
        <time>2011-05-01T10:27:40Z</time>
      </trkpt>
      <trkpt lat="43.85814" lon="4.21437">
        <ele>141.45104980469</ele>
        <time>2011-05-01T10:27:43Z</time>
      </trkpt>
      <trkpt lat="43.85807" lon="4.21429">
        <ele>141.45104980469</ele>
        <time>2011-05-01T10:27:46Z</time>
      </trkpt>
      <trkpt lat="43.85796" lon="4.2143">
        <ele>141.93176269531</ele>
        <time>2011-05-01T10:27:49Z</time>
      </trkpt>
      <trkpt lat="43.85786" lon="4.21432">
        <ele>141.93176269531</ele>
        <time>2011-05-01T10:27:52Z</time>
      </trkpt>
      <trkpt lat="43.85776" lon="4.21434">
        <ele>141.45104980469</ele>
        <time>2011-05-01T10:27:55Z</time>
      </trkpt>
      <trkpt lat="43.85765" lon="4.21437">
        <ele>141.93176269531</ele>
        <time>2011-05-01T10:27:58Z</time>
      </trkpt>
      <trkpt lat="43.85756" lon="4.21441">
        <ele>141.45104980469</ele>
        <time>2011-05-01T10:28:01Z</time>
      </trkpt>
      <trkpt lat="43.85744" lon="4.21439">
        <ele>141.93176269531</ele>
        <time>2011-05-01T10:28:04Z</time>
      </trkpt>
      <trkpt lat="43.85734" lon="4.21444">
        <ele>141.93176269531</ele>
        <time>2011-05-01T10:28:07Z</time>
      </trkpt>
      <trkpt lat="43.85725" lon="4.21442">
        <ele>141.93176269531</ele>
        <time>2011-05-01T10:28:10Z</time>
      </trkpt>
      <trkpt lat="43.85714" lon="4.21445">
        <ele>141.93176269531</ele>
        <time>2011-05-01T10:28:13Z</time>
      </trkpt>
      <trkpt lat="43.85703" lon="4.21446">
        <ele>142.41247558594</ele>
        <time>2011-05-01T10:28:16Z</time>
      </trkpt>
      <trkpt lat="43.85691" lon="4.21446">
        <ele>142.89306640625</ele>
        <time>2011-05-01T10:28:19Z</time>
      </trkpt>
      <trkpt lat="43.8568" lon="4.21451">
        <ele>141.45104980469</ele>
        <time>2011-05-01T10:28:22Z</time>
      </trkpt>
      <trkpt lat="43.85669" lon="4.21455">
        <ele>142.89306640625</ele>
        <time>2011-05-01T10:28:25Z</time>
      </trkpt>
      <trkpt lat="43.85659" lon="4.21459">
        <ele>141.93176269531</ele>
        <time>2011-05-01T10:28:28Z</time>
      </trkpt>
      <trkpt lat="43.8565" lon="4.21463">
        <ele>142.89306640625</ele>
        <time>2011-05-01T10:28:31Z</time>
      </trkpt>
      <trkpt lat="43.8564" lon="4.21466">
        <ele>142.41247558594</ele>
        <time>2011-05-01T10:28:34Z</time>
      </trkpt>
      <trkpt lat="43.85629" lon="4.21469">
        <ele>142.41247558594</ele>
        <time>2011-05-01T10:28:37Z</time>
      </trkpt>
      <trkpt lat="43.85619" lon="4.2147">
        <ele>142.89306640625</ele>
        <time>2011-05-01T10:28:40Z</time>
      </trkpt>
      <trkpt lat="43.85608" lon="4.21469">
        <ele>142.89306640625</ele>
        <time>2011-05-01T10:28:43Z</time>
      </trkpt>
      <trkpt lat="43.85597" lon="4.2147">
        <ele>143.37365722656</ele>
        <time>2011-05-01T10:28:46Z</time>
      </trkpt>
      <trkpt lat="43.85586" lon="4.21473">
        <ele>143.37365722656</ele>
        <time>2011-05-01T10:28:49Z</time>
      </trkpt>
      <trkpt lat="43.85574" lon="4.21476">
        <ele>142.89306640625</ele>
        <time>2011-05-01T10:28:52Z</time>
      </trkpt>
      <trkpt lat="43.85563" lon="4.2148">
        <ele>142.89306640625</ele>
        <time>2011-05-01T10:28:55Z</time>
      </trkpt>
      <trkpt lat="43.85555" lon="4.21487">
        <ele>143.85437011719</ele>
        <time>2011-05-01T10:28:58Z</time>
      </trkpt>
      <trkpt lat="43.85544" lon="4.21493">
        <ele>143.85437011719</ele>
        <time>2011-05-01T10:29:01Z</time>
      </trkpt>
      <trkpt lat="43.85532" lon="4.21496">
        <ele>143.37365722656</ele>
        <time>2011-05-01T10:29:04Z</time>
      </trkpt>
      <trkpt lat="43.8552" lon="4.21501">
        <ele>144.81579589844</ele>
        <time>2011-05-01T10:29:07Z</time>
      </trkpt>
      <trkpt lat="43.85511" lon="4.21509">
        <ele>144.33520507812</ele>
        <time>2011-05-01T10:29:10Z</time>
      </trkpt>
      <trkpt lat="43.85503" lon="4.21516">
        <ele>143.85437011719</ele>
        <time>2011-05-01T10:29:13Z</time>
      </trkpt>
      <trkpt lat="43.85492" lon="4.21518">
        <ele>144.33520507812</ele>
        <time>2011-05-01T10:29:17Z</time>
      </trkpt>
      <trkpt lat="43.85484" lon="4.21523">
        <ele>143.85437011719</ele>
        <time>2011-05-01T10:29:23Z</time>
      </trkpt>
      <trkpt lat="43.85476" lon="4.21529">
        <ele>143.85437011719</ele>
        <time>2011-05-01T10:29:27Z</time>
      </trkpt>
      <trkpt lat="43.85467" lon="4.21539">
        <ele>145.29638671875</ele>
        <time>2011-05-01T10:29:31Z</time>
      </trkpt>
      <trkpt lat="43.85459" lon="4.21547">
        <ele>144.33520507812</ele>
        <time>2011-05-01T10:29:34Z</time>
      </trkpt>
      <trkpt lat="43.85451" lon="4.21556">
        <ele>144.81579589844</ele>
        <time>2011-05-01T10:29:37Z</time>
      </trkpt>
      <trkpt lat="43.85444" lon="4.21569">
        <ele>145.29638671875</ele>
        <time>2011-05-01T10:29:40Z</time>
      </trkpt>
      <trkpt lat="43.85437" lon="4.21577">
        <ele>145.29638671875</ele>
        <time>2011-05-01T10:29:43Z</time>
      </trkpt>
      <trkpt lat="43.85426" lon="4.21584">
        <ele>144.81579589844</ele>
        <time>2011-05-01T10:29:46Z</time>
      </trkpt>
      <trkpt lat="43.85417" lon="4.21594">
        <ele>145.29638671875</ele>
        <time>2011-05-01T10:29:49Z</time>
      </trkpt>
      <trkpt lat="43.85408" lon="4.21604">
        <ele>145.77709960938</ele>
        <time>2011-05-01T10:29:52Z</time>
      </trkpt>
      <trkpt lat="43.85398" lon="4.21611">
        <ele>145.29638671875</ele>
        <time>2011-05-01T10:29:55Z</time>
      </trkpt>
      <trkpt lat="43.85387" lon="4.21616">
        <ele>145.29638671875</ele>
        <time>2011-05-01T10:29:58Z</time>
      </trkpt>
      <trkpt lat="43.85376" lon="4.21623">
        <ele>144.81579589844</ele>
        <time>2011-05-01T10:30:01Z</time>
      </trkpt>
      <trkpt lat="43.85364" lon="4.21626">
        <ele>145.29638671875</ele>
        <time>2011-05-01T10:30:04Z</time>
      </trkpt>
      <trkpt lat="43.85353" lon="4.2163">
        <ele>146.2578125</ele>
        <time>2011-05-01T10:30:07Z</time>
      </trkpt>
      <trkpt lat="43.85343" lon="4.21635">
        <ele>145.77709960938</ele>
        <time>2011-05-01T10:30:10Z</time>
      </trkpt>
      <trkpt lat="43.85332" lon="4.21638">
        <ele>147.21899414062</ele>
        <time>2011-05-01T10:30:13Z</time>
      </trkpt>
      <trkpt lat="43.85321" lon="4.2164">
        <ele>146.2578125</ele>
        <time>2011-05-01T10:30:16Z</time>
      </trkpt>
      <trkpt lat="43.85309" lon="4.21642">
        <ele>146.2578125</ele>
        <time>2011-05-01T10:30:19Z</time>
      </trkpt>
      <trkpt lat="43.85298" lon="4.21646">
        <ele>146.73840332031</ele>
        <time>2011-05-01T10:30:22Z</time>
      </trkpt>
      <trkpt lat="43.85286" lon="4.21652">
        <ele>146.73840332031</ele>
        <time>2011-05-01T10:30:25Z</time>
      </trkpt>
      <trkpt lat="43.85274" lon="4.21656">
        <ele>146.2578125</ele>
        <time>2011-05-01T10:30:28Z</time>
      </trkpt>
      <trkpt lat="43.85262" lon="4.2166">
        <ele>146.2578125</ele>
        <time>2011-05-01T10:30:31Z</time>
      </trkpt>
      <trkpt lat="43.8525" lon="4.21662">
        <ele>147.21899414062</ele>
        <time>2011-05-01T10:30:34Z</time>
      </trkpt>
      <trkpt lat="43.85238" lon="4.21663">
        <ele>147.21899414062</ele>
        <time>2011-05-01T10:30:37Z</time>
      </trkpt>
      <trkpt lat="43.85226" lon="4.21663">
        <ele>146.73840332031</ele>
        <time>2011-05-01T10:30:40Z</time>
      </trkpt>
      <trkpt lat="43.85214" lon="4.21666">
        <ele>146.73840332031</ele>
        <time>2011-05-01T10:30:43Z</time>
      </trkpt>
      <trkpt lat="43.85201" lon="4.21671">
        <ele>146.73840332031</ele>
        <time>2011-05-01T10:30:46Z</time>
      </trkpt>
      <trkpt lat="43.85189" lon="4.21677">
        <ele>146.73840332031</ele>
        <time>2011-05-01T10:30:49Z</time>
      </trkpt>
      <trkpt lat="43.85178" lon="4.21685">
        <ele>147.21899414062</ele>
        <time>2011-05-01T10:30:52Z</time>
      </trkpt>
      <trkpt lat="43.8517" lon="4.21699">
        <ele>147.69970703125</ele>
        <time>2011-05-01T10:30:55Z</time>
      </trkpt>
      <trkpt lat="43.85158" lon="4.21697">
        <ele>147.21899414062</ele>
        <time>2011-05-01T10:30:58Z</time>
      </trkpt>
      <trkpt lat="43.85147" lon="4.21689">
        <ele>147.21899414062</ele>
        <time>2011-05-01T10:31:01Z</time>
      </trkpt>
      <trkpt lat="43.85137" lon="4.21683">
        <ele>147.21899414062</ele>
        <time>2011-05-01T10:31:04Z</time>
      </trkpt>
      <trkpt lat="43.85124" lon="4.2168">
        <ele>146.73840332031</ele>
        <time>2011-05-01T10:31:07Z</time>
      </trkpt>
      <trkpt lat="43.85112" lon="4.21682">
        <ele>147.69970703125</ele>
        <time>2011-05-01T10:31:10Z</time>
      </trkpt>
      <trkpt lat="43.851" lon="4.2168">
        <ele>147.69970703125</ele>
        <time>2011-05-01T10:31:13Z</time>
      </trkpt>
      <trkpt lat="43.85087" lon="4.21682">
        <ele>148.18041992188</ele>
        <time>2011-05-01T10:31:16Z</time>
      </trkpt>
      <trkpt lat="43.85076" lon="4.21689">
        <ele>148.18041992188</ele>
        <time>2011-05-01T10:31:19Z</time>
      </trkpt>
      <trkpt lat="43.85064" lon="4.21696">
        <ele>147.69970703125</ele>
        <time>2011-05-01T10:31:22Z</time>
      </trkpt>
      <trkpt lat="43.85053" lon="4.21705">
        <ele>148.18041992188</ele>
        <time>2011-05-01T10:31:25Z</time>
      </trkpt>
      <trkpt lat="43.85045" lon="4.21711">
        <ele>147.69970703125</ele>
        <time>2011-05-01T10:31:27Z</time>
      </trkpt>
      <trkpt lat="43.85035" lon="4.21719">
        <ele>148.18041992188</ele>
        <time>2011-05-01T10:31:30Z</time>
      </trkpt>
      <trkpt lat="43.85025" lon="4.21728">
        <ele>148.18041992188</ele>
        <time>2011-05-01T10:31:33Z</time>
      </trkpt>
      <trkpt lat="43.85023" lon="4.21733">
        <ele>148.18041992188</ele>
        <time>2011-05-01T10:31:36Z</time>
      </trkpt>
      <trkpt lat="43.85023" lon="4.21733">
        <ele>148.18041992188</ele>
        <time>2011-05-01T10:31:39Z</time>
      </trkpt>
      <trkpt lat="43.85005" lon="4.21757">
        <ele>149.1416015625</ele>
        <time>2011-05-01T10:31:42Z</time>
      </trkpt>
      <trkpt lat="43.85002" lon="4.21769">
        <ele>149.1416015625</ele>
        <time>2011-05-01T10:31:45Z</time>
      </trkpt>
      <trkpt lat="43.84997" lon="4.21782">
        <ele>148.66101074219</ele>
        <time>2011-05-01T10:31:48Z</time>
      </trkpt>
      <trkpt lat="43.84992" lon="4.21796">
        <ele>148.18041992188</ele>
        <time>2011-05-01T10:31:51Z</time>
      </trkpt>
      <trkpt lat="43.84987" lon="4.21808">
        <ele>148.66101074219</ele>
        <time>2011-05-01T10:31:54Z</time>
      </trkpt>
      <trkpt lat="43.84981" lon="4.21821">
        <ele>149.1416015625</ele>
        <time>2011-05-01T10:31:57Z</time>
      </trkpt>
      <trkpt lat="43.84977" lon="4.21834">
        <ele>148.66101074219</ele>
        <time>2011-05-01T10:32:00Z</time>
      </trkpt>
      <trkpt lat="43.84972" lon="4.21848">
        <ele>149.1416015625</ele>
        <time>2011-05-01T10:32:03Z</time>
      </trkpt>
      <trkpt lat="43.8497" lon="4.21864">
        <ele>149.1416015625</ele>
        <time>2011-05-01T10:32:06Z</time>
      </trkpt>
      <trkpt lat="43.84969" lon="4.21872">
        <ele>149.1416015625</ele>
        <time>2011-05-01T10:32:09Z</time>
      </trkpt>
      <trkpt lat="43.8496" lon="4.21874">
        <ele>148.66101074219</ele>
        <time>2011-05-01T10:32:12Z</time>
      </trkpt>
      <trkpt lat="43.84952" lon="4.21875">
        <ele>148.66101074219</ele>
        <time>2011-05-01T10:32:15Z</time>
      </trkpt>
      <trkpt lat="43.84944" lon="4.21888">
        <ele>148.66101074219</ele>
        <time>2011-05-01T10:32:18Z</time>
      </trkpt>
      <trkpt lat="43.84937" lon="4.219">
        <ele>149.1416015625</ele>
        <time>2011-05-01T10:32:21Z</time>
      </trkpt>
      <trkpt lat="43.8493" lon="4.21911">
        <ele>149.1416015625</ele>
        <time>2011-05-01T10:32:24Z</time>
      </trkpt>
      <trkpt lat="43.84924" lon="4.21922">
        <ele>149.62231445312</ele>
        <time>2011-05-01T10:32:27Z</time>
      </trkpt>
      <trkpt lat="43.84917" lon="4.21933">
        <ele>149.62231445312</ele>
        <time>2011-05-01T10:32:30Z</time>
      </trkpt>
      <trkpt lat="43.8491" lon="4.21945">
        <ele>150.10302734375</ele>
        <time>2011-05-01T10:32:33Z</time>
      </trkpt>
      <trkpt lat="43.84903" lon="4.21956">
        <ele>150.58361816406</ele>
        <time>2011-05-01T10:32:36Z</time>
      </trkpt>
      <trkpt lat="43.84896" lon="4.21967">
        <ele>150.58361816406</ele>
        <time>2011-05-01T10:32:39Z</time>
      </trkpt>
      <trkpt lat="43.84887" lon="4.21976">
        <ele>151.06420898438</ele>
        <time>2011-05-01T10:32:42Z</time>
      </trkpt>
      <trkpt lat="43.8488" lon="4.21984">
        <ele>151.06420898438</ele>
        <time>2011-05-01T10:32:45Z</time>
      </trkpt>
      <trkpt lat="43.8487" lon="4.2199">
        <ele>151.544921875</ele>
        <time>2011-05-01T10:32:48Z</time>
      </trkpt>
      <trkpt lat="43.8486" lon="4.21999">
        <ele>151.544921875</ele>
        <time>2011-05-01T10:32:51Z</time>
      </trkpt>
      <trkpt lat="43.84851" lon="4.22007">
        <ele>151.544921875</ele>
        <time>2011-05-01T10:32:54Z</time>
      </trkpt>
      <trkpt lat="43.84842" lon="4.22016">
        <ele>150.58361816406</ele>
        <time>2011-05-01T10:32:57Z</time>
      </trkpt>
      <trkpt lat="43.84832" lon="4.22025">
        <ele>151.544921875</ele>
        <time>2011-05-01T10:33:00Z</time>
      </trkpt>
      <trkpt lat="43.84821" lon="4.22032">
        <ele>151.544921875</ele>
        <time>2011-05-01T10:33:03Z</time>
      </trkpt>
      <trkpt lat="43.8481" lon="4.22038">
        <ele>151.06420898438</ele>
        <time>2011-05-01T10:33:06Z</time>
      </trkpt>
      <trkpt lat="43.84799" lon="4.22043">
        <ele>151.544921875</ele>
        <time>2011-05-01T10:33:09Z</time>
      </trkpt>
      <trkpt lat="43.84789" lon="4.22053">
        <ele>151.544921875</ele>
        <time>2011-05-01T10:33:12Z</time>
      </trkpt>
      <trkpt lat="43.84779" lon="4.22061">
        <ele>151.06420898438</ele>
        <time>2011-05-01T10:33:15Z</time>
      </trkpt>
      <trkpt lat="43.84769" lon="4.22069">
        <ele>151.544921875</ele>
        <time>2011-05-01T10:33:18Z</time>
      </trkpt>
      <trkpt lat="43.84757" lon="4.22071">
        <ele>152.02575683594</ele>
        <time>2011-05-01T10:33:21Z</time>
      </trkpt>
      <trkpt lat="43.84747" lon="4.22074">
        <ele>152.02575683594</ele>
        <time>2011-05-01T10:33:24Z</time>
      </trkpt>
      <trkpt lat="43.84739" lon="4.2208">
        <ele>152.98693847656</ele>
        <time>2011-05-01T10:33:27Z</time>
      </trkpt>
      <trkpt lat="43.84731" lon="4.22086">
        <ele>152.98693847656</ele>
        <time>2011-05-01T10:33:30Z</time>
      </trkpt>
      <trkpt lat="43.8472" lon="4.22091">
        <ele>154.42895507812</ele>
        <time>2011-05-01T10:33:34Z</time>
      </trkpt>
      <trkpt lat="43.84709" lon="4.22096">
        <ele>153.94836425781</ele>
        <time>2011-05-01T10:33:38Z</time>
      </trkpt>
      <trkpt lat="43.84701" lon="4.221">
        <ele>154.90954589844</ele>
        <time>2011-05-01T10:33:41Z</time>
      </trkpt>
      <trkpt lat="43.84693" lon="4.22107">
        <ele>154.90954589844</ele>
        <time>2011-05-01T10:33:44Z</time>
      </trkpt>
      <trkpt lat="43.84689" lon="4.22109">
        <ele>155.39025878906</ele>
        <time>2011-05-01T10:33:47Z</time>
      </trkpt>
      <trkpt lat="43.84675" lon="4.22109">
        <ele>156.83215332031</ele>
        <time>2011-05-01T10:33:52Z</time>
      </trkpt>
      <trkpt lat="43.84666" lon="4.22113">
        <ele>157.79357910156</ele>
        <time>2011-05-01T10:33:58Z</time>
      </trkpt>
      <trkpt lat="43.84656" lon="4.22117">
        <ele>159.23547363281</ele>
        <time>2011-05-01T10:34:03Z</time>
      </trkpt>
      <trkpt lat="43.84647" lon="4.2212">
        <ele>158.27416992188</ele>
        <time>2011-05-01T10:34:07Z</time>
      </trkpt>
      <trkpt lat="43.8464" lon="4.22123">
        <ele>158.75476074219</ele>
        <time>2011-05-01T10:34:12Z</time>
      </trkpt>
      <trkpt lat="43.84636" lon="4.22124">
        <ele>158.75476074219</ele>
        <time>2011-05-01T10:34:16Z</time>
      </trkpt>
      <trkpt lat="43.84603" lon="4.22169">
        <ele>158.75476074219</ele>
        <time>2011-05-01T10:34:20Z</time>
      </trkpt>
      <trkpt lat="43.84605" lon="4.22184">
        <ele>158.75476074219</ele>
        <time>2011-05-01T10:34:24Z</time>
      </trkpt>
      <trkpt lat="43.84605" lon="4.22198">
        <ele>159.71618652344</ele>
        <time>2011-05-01T10:34:28Z</time>
      </trkpt>
      <trkpt lat="43.84603" lon="4.22217">
        <ele>159.23547363281</ele>
        <time>2011-05-01T10:34:32Z</time>
      </trkpt>
      <trkpt lat="43.84614" lon="4.22252">
        <ele>158.75476074219</ele>
        <time>2011-05-01T10:34:35Z</time>
      </trkpt>
      <trkpt lat="43.84623" lon="4.22257">
        <ele>157.79357910156</ele>
        <time>2011-05-01T10:34:38Z</time>
      </trkpt>
      <trkpt lat="43.84651" lon="4.22289">
        <ele>157.79357910156</ele>
        <time>2011-05-01T10:34:41Z</time>
      </trkpt>
      <trkpt lat="43.84647" lon="4.223">
        <ele>157.31286621094</ele>
        <time>2011-05-01T10:34:44Z</time>
      </trkpt>
      <trkpt lat="43.84641" lon="4.22313">
        <ele>156.83215332031</ele>
        <time>2011-05-01T10:34:47Z</time>
      </trkpt>
      <trkpt lat="43.84635" lon="4.22326">
        <ele>157.31286621094</ele>
        <time>2011-05-01T10:34:50Z</time>
      </trkpt>
      <trkpt lat="43.84628" lon="4.22337">
        <ele>157.31286621094</ele>
        <time>2011-05-01T10:34:53Z</time>
      </trkpt>
      <trkpt lat="43.84623" lon="4.22348">
        <ele>158.27416992188</ele>
        <time>2011-05-01T10:34:56Z</time>
      </trkpt>
      <trkpt lat="43.84617" lon="4.22359">
        <ele>158.27416992188</ele>
        <time>2011-05-01T10:34:59Z</time>
      </trkpt>
      <trkpt lat="43.84616" lon="4.22375">
        <ele>158.27416992188</ele>
        <time>2011-05-01T10:35:02Z</time>
      </trkpt>
      <trkpt lat="43.84611" lon="4.22385">
        <ele>157.79357910156</ele>
        <time>2011-05-01T10:35:05Z</time>
      </trkpt>
      <trkpt lat="43.84603" lon="4.22393">
        <ele>158.27416992188</ele>
        <time>2011-05-01T10:35:08Z</time>
      </trkpt>
      <trkpt lat="43.84595" lon="4.22402">
        <ele>158.27416992188</ele>
        <time>2011-05-01T10:35:11Z</time>
      </trkpt>
      <trkpt lat="43.84588" lon="4.22414">
        <ele>158.27416992188</ele>
        <time>2011-05-01T10:35:14Z</time>
      </trkpt>
      <trkpt lat="43.84585" lon="4.22428">
        <ele>159.23547363281</ele>
        <time>2011-05-01T10:35:17Z</time>
      </trkpt>
      <trkpt lat="43.84582" lon="4.22443">
        <ele>159.23547363281</ele>
        <time>2011-05-01T10:35:20Z</time>
      </trkpt>
      <trkpt lat="43.84581" lon="4.2246">
        <ele>159.23547363281</ele>
        <time>2011-05-01T10:35:23Z</time>
      </trkpt>
      <trkpt lat="43.84581" lon="4.22476">
        <ele>158.27416992188</ele>
        <time>2011-05-01T10:35:26Z</time>
      </trkpt>
      <trkpt lat="43.84575" lon="4.2249">
        <ele>158.27416992188</ele>
        <time>2011-05-01T10:35:29Z</time>
      </trkpt>
      <trkpt lat="43.84568" lon="4.22503">
        <ele>157.79357910156</ele>
        <time>2011-05-01T10:35:32Z</time>
      </trkpt>
      <trkpt lat="43.8456" lon="4.22513">
        <ele>158.75476074219</ele>
        <time>2011-05-01T10:35:35Z</time>
      </trkpt>
      <trkpt lat="43.84552" lon="4.2252">
        <ele>159.23547363281</ele>
        <time>2011-05-01T10:35:38Z</time>
      </trkpt>
      <trkpt lat="43.84547" lon="4.22531">
        <ele>159.71618652344</ele>
        <time>2011-05-01T10:35:41Z</time>
      </trkpt>
      <trkpt lat="43.84542" lon="4.22543">
        <ele>159.23547363281</ele>
        <time>2011-05-01T10:35:44Z</time>
      </trkpt>
      <trkpt lat="43.84538" lon="4.22557">
        <ele>159.71618652344</ele>
        <time>2011-05-01T10:35:47Z</time>
      </trkpt>
      <trkpt lat="43.84531" lon="4.22567">
        <ele>159.23547363281</ele>
        <time>2011-05-01T10:35:50Z</time>
      </trkpt>
      <trkpt lat="43.84523" lon="4.22576">
        <ele>159.23547363281</ele>
        <time>2011-05-01T10:35:53Z</time>
      </trkpt>
      <trkpt lat="43.84515" lon="4.22585">
        <ele>159.23547363281</ele>
        <time>2011-05-01T10:35:56Z</time>
      </trkpt>
      <trkpt lat="43.84505" lon="4.2259">
        <ele>159.23547363281</ele>
        <time>2011-05-01T10:35:59Z</time>
      </trkpt>
      <trkpt lat="43.84495" lon="4.22597">
        <ele>159.71618652344</ele>
        <time>2011-05-01T10:36:02Z</time>
      </trkpt>
      <trkpt lat="43.84487" lon="4.22606">
        <ele>160.19689941406</ele>
        <time>2011-05-01T10:36:05Z</time>
      </trkpt>
      <trkpt lat="43.84477" lon="4.22614">
        <ele>160.67749023438</ele>
        <time>2011-05-01T10:36:08Z</time>
      </trkpt>
      <trkpt lat="43.84469" lon="4.22619">
        <ele>160.67749023438</ele>
        <time>2011-05-01T10:36:11Z</time>
      </trkpt>
      <trkpt lat="43.84462" lon="4.22629">
        <ele>160.19689941406</ele>
        <time>2011-05-01T10:36:14Z</time>
      </trkpt>
      <trkpt lat="43.84454" lon="4.22639">
        <ele>161.158203125</ele>
        <time>2011-05-01T10:36:17Z</time>
      </trkpt>
      <trkpt lat="43.84445" lon="4.22645">
        <ele>161.158203125</ele>
        <time>2011-05-01T10:36:20Z</time>
      </trkpt>
      <trkpt lat="43.84438" lon="4.22653">
        <ele>161.158203125</ele>
        <time>2011-05-01T10:36:23Z</time>
      </trkpt>
      <trkpt lat="43.84433" lon="4.22669">
        <ele>161.63891601562</ele>
        <time>2011-05-01T10:36:26Z</time>
      </trkpt>
      <trkpt lat="43.84431" lon="4.22684">
        <ele>161.158203125</ele>
        <time>2011-05-01T10:36:29Z</time>
      </trkpt>
      <trkpt lat="43.84426" lon="4.22693">
        <ele>161.63891601562</ele>
        <time>2011-05-01T10:36:32Z</time>
      </trkpt>
      <trkpt lat="43.84422" lon="4.22705">
        <ele>161.63891601562</ele>
        <time>2011-05-01T10:36:35Z</time>
      </trkpt>
      <trkpt lat="43.84421" lon="4.22721">
        <ele>162.11950683594</ele>
        <time>2011-05-01T10:36:38Z</time>
      </trkpt>
      <trkpt lat="43.84422" lon="4.22729">
        <ele>162.11950683594</ele>
        <time>2011-05-01T10:36:41Z</time>
      </trkpt>
      <trkpt lat="43.84423" lon="4.22741">
        <ele>162.11950683594</ele>
        <time>2011-05-01T10:36:44Z</time>
      </trkpt>
      <trkpt lat="43.84404" lon="4.22749">
        <ele>163.08081054688</ele>
        <time>2011-05-01T10:36:47Z</time>
      </trkpt>
      <trkpt lat="43.84404" lon="4.22766">
        <ele>163.08081054688</ele>
        <time>2011-05-01T10:36:50Z</time>
      </trkpt>
      <trkpt lat="43.84405" lon="4.22774">
        <ele>163.5615234375</ele>
        <time>2011-05-01T10:36:53Z</time>
      </trkpt>
      <trkpt lat="43.84399" lon="4.22783">
        <ele>163.08081054688</ele>
        <time>2011-05-01T10:36:56Z</time>
      </trkpt>
      <trkpt lat="43.84391" lon="4.22792">
        <ele>163.5615234375</ele>
        <time>2011-05-01T10:37:00Z</time>
      </trkpt>
      <trkpt lat="43.84382" lon="4.228">
        <ele>164.52270507812</ele>
        <time>2011-05-01T10:37:04Z</time>
      </trkpt>
      <trkpt lat="43.84372" lon="4.22811">
        <ele>165.00341796875</ele>
        <time>2011-05-01T10:37:08Z</time>
      </trkpt>
      <trkpt lat="43.84369" lon="4.22824">
        <ele>165.00341796875</ele>
        <time>2011-05-01T10:37:11Z</time>
      </trkpt>
      <trkpt lat="43.84366" lon="4.22833">
        <ele>164.52270507812</ele>
        <time>2011-05-01T10:37:14Z</time>
      </trkpt>
      <trkpt lat="43.84361" lon="4.22841">
        <ele>165.00341796875</ele>
        <time>2011-05-01T10:37:17Z</time>
      </trkpt>
      <trkpt lat="43.84355" lon="4.22851">
        <ele>165.00341796875</ele>
        <time>2011-05-01T10:37:20Z</time>
      </trkpt>
      <trkpt lat="43.84348" lon="4.22861">
        <ele>165.00341796875</ele>
        <time>2011-05-01T10:37:23Z</time>
      </trkpt>
      <trkpt lat="43.84342" lon="4.22871">
        <ele>165.48413085938</ele>
        <time>2011-05-01T10:37:26Z</time>
      </trkpt>
      <trkpt lat="43.84337" lon="4.22885">
        <ele>165.48413085938</ele>
        <time>2011-05-01T10:37:29Z</time>
      </trkpt>
      <trkpt lat="43.84333" lon="4.22898">
        <ele>165.00341796875</ele>
        <time>2011-05-01T10:37:32Z</time>
      </trkpt>
      <trkpt lat="43.8433" lon="4.22913">
        <ele>165.48413085938</ele>
        <time>2011-05-01T10:37:35Z</time>
      </trkpt>
      <trkpt lat="43.84327" lon="4.22928">
        <ele>165.00341796875</ele>
        <time>2011-05-01T10:37:38Z</time>
      </trkpt>
      <trkpt lat="43.84325" lon="4.2294">
        <ele>165.96472167969</ele>
        <time>2011-05-01T10:37:41Z</time>
      </trkpt>
      <trkpt lat="43.84324" lon="4.22953">
        <ele>165.96472167969</ele>
        <time>2011-05-01T10:37:44Z</time>
      </trkpt>
      <trkpt lat="43.84324" lon="4.22967">
        <ele>166.4453125</ele>
        <time>2011-05-01T10:37:47Z</time>
      </trkpt>
      <trkpt lat="43.84324" lon="4.22983">
        <ele>166.92602539062</ele>
        <time>2011-05-01T10:37:51Z</time>
      </trkpt>
      <trkpt lat="43.84324" lon="4.22996">
        <ele>166.92602539062</ele>
        <time>2011-05-01T10:37:54Z</time>
      </trkpt>
      <trkpt lat="43.84324" lon="4.23009">
        <ele>167.40673828125</ele>
        <time>2011-05-01T10:37:57Z</time>
      </trkpt>
      <trkpt lat="43.84323" lon="4.23022">
        <ele>166.92602539062</ele>
        <time>2011-05-01T10:38:00Z</time>
      </trkpt>
      <trkpt lat="43.84318" lon="4.23032">
        <ele>167.40673828125</ele>
        <time>2011-05-01T10:38:03Z</time>
      </trkpt>
      <trkpt lat="43.84317" lon="4.23045">
        <ele>167.88732910156</ele>
        <time>2011-05-01T10:38:06Z</time>
      </trkpt>
      <trkpt lat="43.84319" lon="4.23057">
        <ele>168.36804199219</ele>
        <time>2011-05-01T10:38:09Z</time>
      </trkpt>
      <trkpt lat="43.8432" lon="4.23072">
        <ele>168.84875488281</ele>
        <time>2011-05-01T10:38:12Z</time>
      </trkpt>
      <trkpt lat="43.84322" lon="4.23085">
        <ele>168.36804199219</ele>
        <time>2011-05-01T10:38:15Z</time>
      </trkpt>
      <trkpt lat="43.84322" lon="4.231">
        <ele>168.84875488281</ele>
        <time>2011-05-01T10:38:18Z</time>
      </trkpt>
      <trkpt lat="43.84322" lon="4.23113">
        <ele>168.84875488281</ele>
        <time>2011-05-01T10:38:21Z</time>
      </trkpt>
      <trkpt lat="43.84315" lon="4.2312">
        <ele>169.32946777344</ele>
        <time>2011-05-01T10:38:24Z</time>
      </trkpt>
      <trkpt lat="43.84311" lon="4.23132">
        <ele>168.84875488281</ele>
        <time>2011-05-01T10:38:27Z</time>
      </trkpt>
      <trkpt lat="43.8431" lon="4.23148">
        <ele>169.81005859375</ele>
        <time>2011-05-01T10:38:30Z</time>
      </trkpt>
      <trkpt lat="43.84314" lon="4.23162">
        <ele>168.84875488281</ele>
        <time>2011-05-01T10:38:33Z</time>
      </trkpt>
      <trkpt lat="43.84318" lon="4.23179">
        <ele>168.84875488281</ele>
        <time>2011-05-01T10:38:38Z</time>
      </trkpt>
      <trkpt lat="43.84327" lon="4.23193">
        <ele>169.81005859375</ele>
        <time>2011-05-01T10:38:41Z</time>
      </trkpt>
      <trkpt lat="43.84333" lon="4.23203">
        <ele>170.29064941406</ele>
        <time>2011-05-01T10:38:44Z</time>
      </trkpt>
      <trkpt lat="43.84338" lon="4.23215">
        <ele>170.29064941406</ele>
        <time>2011-05-01T10:38:47Z</time>
      </trkpt>
      <trkpt lat="43.84343" lon="4.23228">
        <ele>170.29064941406</ele>
        <time>2011-05-01T10:38:50Z</time>
      </trkpt>
      <trkpt lat="43.84352" lon="4.23237">
        <ele>170.77136230469</ele>
        <time>2011-05-01T10:38:53Z</time>
      </trkpt>
      <trkpt lat="43.8436" lon="4.23241">
        <ele>170.29064941406</ele>
        <time>2011-05-01T10:38:56Z</time>
      </trkpt>
      <trkpt lat="43.84368" lon="4.23245">
        <ele>171.73266601562</ele>
        <time>2011-05-01T10:39:00Z</time>
      </trkpt>
      <trkpt lat="43.84366" lon="4.23277">
        <ele>171.73266601562</ele>
        <time>2011-05-01T10:39:04Z</time>
      </trkpt>
      <trkpt lat="43.84361" lon="4.23288">
        <ele>172.21325683594</ele>
        <time>2011-05-01T10:39:08Z</time>
      </trkpt>
      <trkpt lat="43.84357" lon="4.23301">
        <ele>172.21325683594</ele>
        <time>2011-05-01T10:39:12Z</time>
      </trkpt>
      <trkpt lat="43.84353" lon="4.23315">
        <ele>172.69396972656</ele>
        <time>2011-05-01T10:39:16Z</time>
      </trkpt>
      <trkpt lat="43.84349" lon="4.23326">
        <ele>173.17468261719</ele>
        <time>2011-05-01T10:39:20Z</time>
      </trkpt>
      <trkpt lat="43.84348" lon="4.2333">
        <ele>173.17468261719</ele>
        <time>2011-05-01T10:41:29Z</time>
      </trkpt>
      <trkpt lat="43.84345" lon="4.23341">
        <ele>173.17468261719</ele>
        <time>2011-05-01T10:41:36Z</time>
      </trkpt>
      <trkpt lat="43.84343" lon="4.23354">
        <ele>173.17468261719</ele>
        <time>2011-05-01T10:41:41Z</time>
      </trkpt>
      <trkpt lat="43.84337" lon="4.23362">
        <ele>173.6552734375</ele>
        <time>2011-05-01T10:41:44Z</time>
      </trkpt>
      <trkpt lat="43.8433" lon="4.23384">
        <ele>172.69396972656</ele>
        <time>2011-05-01T10:41:47Z</time>
      </trkpt>
      <trkpt lat="43.8433" lon="4.23396">
        <ele>173.17468261719</ele>
        <time>2011-05-01T10:41:50Z</time>
      </trkpt>
      <trkpt lat="43.84325" lon="4.23411">
        <ele>173.6552734375</ele>
        <time>2011-05-01T10:41:53Z</time>
      </trkpt>
      <trkpt lat="43.84322" lon="4.2343">
        <ele>173.6552734375</ele>
        <time>2011-05-01T10:41:56Z</time>
      </trkpt>
      <trkpt lat="43.84324" lon="4.23445">
        <ele>173.6552734375</ele>
        <time>2011-05-01T10:41:59Z</time>
      </trkpt>
      <trkpt lat="43.84322" lon="4.2346">
        <ele>174.13586425781</ele>
        <time>2011-05-01T10:42:02Z</time>
      </trkpt>
      <trkpt lat="43.84318" lon="4.23473">
        <ele>175.09729003906</ele>
        <time>2011-05-01T10:42:05Z</time>
      </trkpt>
      <trkpt lat="43.84313" lon="4.23492">
        <ele>175.09729003906</ele>
        <time>2011-05-01T10:42:08Z</time>
      </trkpt>
      <trkpt lat="43.84313" lon="4.23509">
        <ele>175.57788085938</ele>
        <time>2011-05-01T10:42:11Z</time>
      </trkpt>
      <trkpt lat="43.84317" lon="4.23527">
        <ele>176.53930664062</ele>
        <time>2011-05-01T10:42:14Z</time>
      </trkpt>
      <trkpt lat="43.8432" lon="4.23542">
        <ele>176.53930664062</ele>
        <time>2011-05-01T10:42:17Z</time>
      </trkpt>
      <trkpt lat="43.84324" lon="4.23558">
        <ele>175.57788085938</ele>
        <time>2011-05-01T10:42:20Z</time>
      </trkpt>
      <trkpt lat="43.84328" lon="4.23574">
        <ele>175.57788085938</ele>
        <time>2011-05-01T10:42:23Z</time>
      </trkpt>
      <trkpt lat="43.84331" lon="4.2359">
        <ele>177.02001953125</ele>
        <time>2011-05-01T10:42:26Z</time>
      </trkpt>
      <trkpt lat="43.84332" lon="4.23604">
        <ele>176.53930664062</ele>
        <time>2011-05-01T10:42:29Z</time>
      </trkpt>
      <trkpt lat="43.84335" lon="4.23616">
        <ele>177.02001953125</ele>
        <time>2011-05-01T10:42:32Z</time>
      </trkpt>
      <trkpt lat="43.84337" lon="4.23626">
        <ele>177.02001953125</ele>
        <time>2011-05-01T10:42:35Z</time>
      </trkpt>
      <trkpt lat="43.84319" lon="4.2364">
        <ele>176.53930664062</ele>
        <time>2011-05-01T10:42:38Z</time>
      </trkpt>
      <trkpt lat="43.84313" lon="4.23651">
        <ele>177.02001953125</ele>
        <time>2011-05-01T10:42:41Z</time>
      </trkpt>
      <trkpt lat="43.84313" lon="4.23664">
        <ele>177.50061035156</ele>
        <time>2011-05-01T10:42:44Z</time>
      </trkpt>
      <trkpt lat="43.8432" lon="4.23674">
        <ele>177.50061035156</ele>
        <time>2011-05-01T10:42:47Z</time>
      </trkpt>
      <trkpt lat="43.84324" lon="4.23685">
        <ele>178.4619140625</ele>
        <time>2011-05-01T10:42:51Z</time>
      </trkpt>
      <trkpt lat="43.84332" lon="4.23692">
        <ele>178.4619140625</ele>
        <time>2011-05-01T10:42:55Z</time>
      </trkpt>
      <trkpt lat="43.84337" lon="4.23697">
        <ele>179.42321777344</ele>
        <time>2011-05-01T10:42:59Z</time>
      </trkpt>
      <trkpt lat="43.84331" lon="4.23707">
        <ele>179.42321777344</ele>
        <time>2011-05-01T10:43:03Z</time>
      </trkpt>
      <trkpt lat="43.84326" lon="4.2372">
        <ele>179.90380859375</ele>
        <time>2011-05-01T10:43:07Z</time>
      </trkpt>
      <trkpt lat="43.84326" lon="4.23734">
        <ele>180.865234375</ele>
        <time>2011-05-01T10:43:11Z</time>
      </trkpt>
      <trkpt lat="43.84321" lon="4.23749">
        <ele>180.38452148438</ele>
        <time>2011-05-01T10:43:15Z</time>
      </trkpt>
      <trkpt lat="43.84321" lon="4.23757">
        <ele>180.865234375</ele>
        <time>2011-05-01T10:43:19Z</time>
      </trkpt>
      <trkpt lat="43.8431" lon="4.2375">
        <ele>180.865234375</ele>
        <time>2011-05-01T10:43:23Z</time>
      </trkpt>
      <trkpt lat="43.84299" lon="4.23749">
        <ele>179.90380859375</ele>
        <time>2011-05-01T10:43:27Z</time>
      </trkpt>
      <trkpt lat="43.84291" lon="4.23752">
        <ele>179.42321777344</ele>
        <time>2011-05-01T10:43:30Z</time>
      </trkpt>
      <trkpt lat="43.84287" lon="4.23769">
        <ele>179.90380859375</ele>
        <time>2011-05-01T10:43:34Z</time>
      </trkpt>
      <trkpt lat="43.84292" lon="4.23781">
        <ele>179.90380859375</ele>
        <time>2011-05-01T10:43:38Z</time>
      </trkpt>
      <trkpt lat="43.84294" lon="4.23791">
        <ele>180.38452148438</ele>
        <time>2011-05-01T10:43:42Z</time>
      </trkpt>
      <trkpt lat="43.8429" lon="4.23799">
        <ele>179.90380859375</ele>
        <time>2011-05-01T10:43:45Z</time>
      </trkpt>
      <trkpt lat="43.8429" lon="4.238">
        <ele>179.42321777344</ele>
        <time>2011-05-01T10:43:48Z</time>
      </trkpt>
      <trkpt lat="43.84279" lon="4.23819">
        <ele>178.94262695312</ele>
        <time>2011-05-01T10:43:51Z</time>
      </trkpt>
      <trkpt lat="43.8428" lon="4.23837">
        <ele>177.98120117188</ele>
        <time>2011-05-01T10:43:54Z</time>
      </trkpt>
      <trkpt lat="43.84281" lon="4.2385">
        <ele>177.50061035156</ele>
        <time>2011-05-01T10:43:56Z</time>
      </trkpt>
      <trkpt lat="43.84281" lon="4.23862">
        <ele>177.50061035156</ele>
        <time>2011-05-01T10:43:58Z</time>
      </trkpt>
      <trkpt lat="43.8428" lon="4.23874">
        <ele>177.02001953125</ele>
        <time>2011-05-01T10:44:00Z</time>
      </trkpt>
      <trkpt lat="43.84274" lon="4.23886">
        <ele>175.09729003906</ele>
        <time>2011-05-01T10:44:03Z</time>
      </trkpt>
      <trkpt lat="43.84265" lon="4.23883">
        <ele>174.61657714844</ele>
        <time>2011-05-01T10:44:07Z</time>
      </trkpt>
      <trkpt lat="43.84257" lon="4.23894">
        <ele>174.61657714844</ele>
        <time>2011-05-01T10:44:10Z</time>
      </trkpt>
      <trkpt lat="43.84262" lon="4.23905">
        <ele>173.6552734375</ele>
        <time>2011-05-01T10:44:13Z</time>
      </trkpt>
      <trkpt lat="43.8426" lon="4.23916">
        <ele>173.6552734375</ele>
        <time>2011-05-01T10:44:16Z</time>
      </trkpt>
      <trkpt lat="43.84256" lon="4.23927">
        <ele>172.69396972656</ele>
        <time>2011-05-01T10:44:19Z</time>
      </trkpt>
      <trkpt lat="43.84253" lon="4.23941">
        <ele>173.17468261719</ele>
        <time>2011-05-01T10:44:22Z</time>
      </trkpt>
      <trkpt lat="43.8425" lon="4.23956">
        <ele>173.6552734375</ele>
        <time>2011-05-01T10:44:25Z</time>
      </trkpt>
      <trkpt lat="43.84249" lon="4.23973">
        <ele>174.13586425781</ele>
        <time>2011-05-01T10:44:28Z</time>
      </trkpt>
      <trkpt lat="43.84248" lon="4.23986">
        <ele>173.17468261719</ele>
        <time>2011-05-01T10:44:31Z</time>
      </trkpt>
      <trkpt lat="43.84242" lon="4.23992">
        <ele>172.69396972656</ele>
        <time>2011-05-01T10:44:34Z</time>
      </trkpt>
      <trkpt lat="43.84238" lon="4.24009">
        <ele>171.73266601562</ele>
        <time>2011-05-01T10:44:38Z</time>
      </trkpt>
      <trkpt lat="43.84238" lon="4.24027">
        <ele>171.25207519531</ele>
        <time>2011-05-01T10:44:41Z</time>
      </trkpt>
      <trkpt lat="43.84242" lon="4.24034">
        <ele>171.25207519531</ele>
        <time>2011-05-01T10:44:44Z</time>
      </trkpt>
      <trkpt lat="43.8424" lon="4.24042">
        <ele>171.25207519531</ele>
        <time>2011-05-01T10:44:47Z</time>
      </trkpt>
      <trkpt lat="43.84229" lon="4.24046">
        <ele>170.77136230469</ele>
        <time>2011-05-01T10:44:50Z</time>
      </trkpt>
      <trkpt lat="43.8422" lon="4.24051">
        <ele>170.29064941406</ele>
        <time>2011-05-01T10:44:53Z</time>
      </trkpt>
      <trkpt lat="43.84212" lon="4.24058">
        <ele>170.29064941406</ele>
        <time>2011-05-01T10:44:56Z</time>
      </trkpt>
      <trkpt lat="43.84208" lon="4.24072">
        <ele>170.29064941406</ele>
        <time>2011-05-01T10:44:59Z</time>
      </trkpt>
      <trkpt lat="43.84206" lon="4.24088">
        <ele>170.29064941406</ele>
        <time>2011-05-01T10:45:02Z</time>
      </trkpt>
      <trkpt lat="43.84211" lon="4.24101">
        <ele>171.25207519531</ele>
        <time>2011-05-01T10:45:05Z</time>
      </trkpt>
      <trkpt lat="43.84218" lon="4.24106">
        <ele>172.21325683594</ele>
        <time>2011-05-01T10:45:09Z</time>
      </trkpt>
      <trkpt lat="43.84217" lon="4.24121">
        <ele>172.21325683594</ele>
        <time>2011-05-01T10:45:13Z</time>
      </trkpt>
      <trkpt lat="43.84215" lon="4.24135">
        <ele>171.73266601562</ele>
        <time>2011-05-01T10:45:16Z</time>
      </trkpt>
      <trkpt lat="43.84206" lon="4.24139">
        <ele>170.29064941406</ele>
        <time>2011-05-01T10:45:20Z</time>
      </trkpt>
      <trkpt lat="43.84202" lon="4.24153">
        <ele>169.32946777344</ele>
        <time>2011-05-01T10:45:24Z</time>
      </trkpt>
      <trkpt lat="43.84198" lon="4.24162">
        <ele>168.84875488281</ele>
        <time>2011-05-01T10:45:28Z</time>
      </trkpt>
      <trkpt lat="43.84189" lon="4.24157">
        <ele>167.88732910156</ele>
        <time>2011-05-01T10:45:33Z</time>
      </trkpt>
      <trkpt lat="43.84182" lon="4.24159">
        <ele>166.4453125</ele>
        <time>2011-05-01T10:45:37Z</time>
      </trkpt>
      <trkpt lat="43.84175" lon="4.24169">
        <ele>165.96472167969</ele>
        <time>2011-05-01T10:45:41Z</time>
      </trkpt>
      <trkpt lat="43.84169" lon="4.24177">
        <ele>164.52270507812</ele>
        <time>2011-05-01T10:45:44Z</time>
      </trkpt>
      <trkpt lat="43.84164" lon="4.24188">
        <ele>164.04211425781</ele>
        <time>2011-05-01T10:45:47Z</time>
      </trkpt>
      <trkpt lat="43.84159" lon="4.24198">
        <ele>163.5615234375</ele>
        <time>2011-05-01T10:45:50Z</time>
      </trkpt>
      <trkpt lat="43.84153" lon="4.2421">
        <ele>163.5615234375</ele>
        <time>2011-05-01T10:45:53Z</time>
      </trkpt>
      <trkpt lat="43.84154" lon="4.24221">
        <ele>164.04211425781</ele>
        <time>2011-05-01T10:45:56Z</time>
      </trkpt>
      <trkpt lat="43.84156" lon="4.24234">
        <ele>163.5615234375</ele>
        <time>2011-05-01T10:46:00Z</time>
      </trkpt>
      <trkpt lat="43.84156" lon="4.24247">
        <ele>163.5615234375</ele>
        <time>2011-05-01T10:46:03Z</time>
      </trkpt>
      <trkpt lat="43.84152" lon="4.24259">
        <ele>163.5615234375</ele>
        <time>2011-05-01T10:46:06Z</time>
      </trkpt>
      <trkpt lat="43.84152" lon="4.2427">
        <ele>163.08081054688</ele>
        <time>2011-05-01T10:46:09Z</time>
      </trkpt>
      <trkpt lat="43.84158" lon="4.24278">
        <ele>163.08081054688</ele>
        <time>2011-05-01T10:46:15Z</time>
      </trkpt>
      <trkpt lat="43.84155" lon="4.2429">
        <ele>162.60009765625</ele>
        <time>2011-05-01T10:46:19Z</time>
      </trkpt>
      <trkpt lat="43.84149" lon="4.24299">
        <ele>162.60009765625</ele>
        <time>2011-05-01T10:46:22Z</time>
      </trkpt>
      <trkpt lat="43.84146" lon="4.24311">
        <ele>163.08081054688</ele>
        <time>2011-05-01T10:46:26Z</time>
      </trkpt>
      <trkpt lat="43.84141" lon="4.24323">
        <ele>163.08081054688</ele>
        <time>2011-05-01T10:46:30Z</time>
      </trkpt>
      <trkpt lat="43.84137" lon="4.24335">
        <ele>163.08081054688</ele>
        <time>2011-05-01T10:46:34Z</time>
      </trkpt>
      <trkpt lat="43.84139" lon="4.2435">
        <ele>163.08081054688</ele>
        <time>2011-05-01T10:46:38Z</time>
      </trkpt>
      <trkpt lat="43.84147" lon="4.24354">
        <ele>164.04211425781</ele>
        <time>2011-05-01T10:46:43Z</time>
      </trkpt>
      <trkpt lat="43.84147" lon="4.24368">
        <ele>163.5615234375</ele>
        <time>2011-05-01T10:46:47Z</time>
      </trkpt>
      <trkpt lat="43.84153" lon="4.24375">
        <ele>163.5615234375</ele>
        <time>2011-05-01T10:46:51Z</time>
      </trkpt>
      <trkpt lat="43.84162" lon="4.24373">
        <ele>164.04211425781</ele>
        <time>2011-05-01T10:46:55Z</time>
      </trkpt>
      <trkpt lat="43.84169" lon="4.24363">
        <ele>164.04211425781</ele>
        <time>2011-05-01T10:46:59Z</time>
      </trkpt>
      <trkpt lat="43.84177" lon="4.24367">
        <ele>165.48413085938</ele>
        <time>2011-05-01T10:47:04Z</time>
      </trkpt>
      <trkpt lat="43.84176" lon="4.2438">
        <ele>164.52270507812</ele>
        <time>2011-05-01T10:47:07Z</time>
      </trkpt>
      <trkpt lat="43.84173" lon="4.24397">
        <ele>163.5615234375</ele>
        <time>2011-05-01T10:47:10Z</time>
      </trkpt>
      <trkpt lat="43.84173" lon="4.24413">
        <ele>163.5615234375</ele>
        <time>2011-05-01T10:47:13Z</time>
      </trkpt>
      <trkpt lat="43.84171" lon="4.24429">
        <ele>162.60009765625</ele>
        <time>2011-05-01T10:47:16Z</time>
      </trkpt>
      <trkpt lat="43.84169" lon="4.24443">
        <ele>162.11950683594</ele>
        <time>2011-05-01T10:47:19Z</time>
      </trkpt>
      <trkpt lat="43.84172" lon="4.24453">
        <ele>162.11950683594</ele>
        <time>2011-05-01T10:47:23Z</time>
      </trkpt>
      <trkpt lat="43.84171" lon="4.24469">
        <ele>162.60009765625</ele>
        <time>2011-05-01T10:47:26Z</time>
      </trkpt>
      <trkpt lat="43.84171" lon="4.2448">
        <ele>163.08081054688</ele>
        <time>2011-05-01T10:47:29Z</time>
      </trkpt>
      <trkpt lat="43.84169" lon="4.24494">
        <ele>162.60009765625</ele>
        <time>2011-05-01T10:47:32Z</time>
      </trkpt>
      <trkpt lat="43.84167" lon="4.24508">
        <ele>163.08081054688</ele>
        <time>2011-05-01T10:47:35Z</time>
      </trkpt>
      <trkpt lat="43.84173" lon="4.24521">
        <ele>163.5615234375</ele>
        <time>2011-05-01T10:47:38Z</time>
      </trkpt>
      <trkpt lat="43.84176" lon="4.24535">
        <ele>163.5615234375</ele>
        <time>2011-05-01T10:47:41Z</time>
      </trkpt>
      <trkpt lat="43.84182" lon="4.2455">
        <ele>162.60009765625</ele>
        <time>2011-05-01T10:47:44Z</time>
      </trkpt>
      <trkpt lat="43.84188" lon="4.24563">
        <ele>161.63891601562</ele>
        <time>2011-05-01T10:47:47Z</time>
      </trkpt>
      <trkpt lat="43.84199" lon="4.2457">
        <ele>161.63891601562</ele>
        <time>2011-05-01T10:47:50Z</time>
      </trkpt>
      <trkpt lat="43.84205" lon="4.24581">
        <ele>162.11950683594</ele>
        <time>2011-05-01T10:47:53Z</time>
      </trkpt>
      <trkpt lat="43.84213" lon="4.24586">
        <ele>161.63891601562</ele>
        <time>2011-05-01T10:47:56Z</time>
      </trkpt>
      <trkpt lat="43.84222" lon="4.24589">
        <ele>163.08081054688</ele>
        <time>2011-05-01T10:48:00Z</time>
      </trkpt>
      <trkpt lat="43.84225" lon="4.24602">
        <ele>163.5615234375</ele>
        <time>2011-05-01T10:48:04Z</time>
      </trkpt>
      <trkpt lat="43.84225" lon="4.24618">
        <ele>164.52270507812</ele>
        <time>2011-05-01T10:48:08Z</time>
      </trkpt>
      <trkpt lat="43.84227" lon="4.24631">
        <ele>164.04211425781</ele>
        <time>2011-05-01T10:48:11Z</time>
      </trkpt>
      <trkpt lat="43.84223" lon="4.2464">
        <ele>163.5615234375</ele>
        <time>2011-05-01T10:48:15Z</time>
      </trkpt>
      <trkpt lat="43.84213" lon="4.2465">
        <ele>162.60009765625</ele>
        <time>2011-05-01T10:48:18Z</time>
      </trkpt>
      <trkpt lat="43.84203" lon="4.24655">
        <ele>162.11950683594</ele>
        <time>2011-05-01T10:48:20Z</time>
      </trkpt>
      <trkpt lat="43.84194" lon="4.24657">
        <ele>161.158203125</ele>
        <time>2011-05-01T10:48:22Z</time>
      </trkpt>
      <trkpt lat="43.84185" lon="4.24658">
        <ele>160.19689941406</ele>
        <time>2011-05-01T10:48:24Z</time>
      </trkpt>
      <trkpt lat="43.84175" lon="4.24657">
        <ele>159.23547363281</ele>
        <time>2011-05-01T10:48:26Z</time>
      </trkpt>
      <trkpt lat="43.84166" lon="4.24655">
        <ele>158.75476074219</ele>
        <time>2011-05-01T10:48:28Z</time>
      </trkpt>
      <trkpt lat="43.84156" lon="4.24656">
        <ele>157.79357910156</ele>
        <time>2011-05-01T10:48:31Z</time>
      </trkpt>
      <trkpt lat="43.84145" lon="4.24661">
        <ele>156.83215332031</ele>
        <time>2011-05-01T10:48:34Z</time>
      </trkpt>
      <trkpt lat="43.84136" lon="4.24667">
        <ele>155.87097167969</ele>
        <time>2011-05-01T10:48:38Z</time>
      </trkpt>
      <trkpt lat="43.8413" lon="4.24676">
        <ele>155.87097167969</ele>
        <time>2011-05-01T10:48:41Z</time>
      </trkpt>
      <trkpt lat="43.84123" lon="4.24686">
        <ele>154.90954589844</ele>
        <time>2011-05-01T10:48:44Z</time>
      </trkpt>
      <trkpt lat="43.84114" lon="4.24695">
        <ele>154.90954589844</ele>
        <time>2011-05-01T10:48:48Z</time>
      </trkpt>
      <trkpt lat="43.84119" lon="4.24707">
        <ele>153.94836425781</ele>
        <time>2011-05-01T10:48:52Z</time>
      </trkpt>
      <trkpt lat="43.84121" lon="4.24721">
        <ele>153.94836425781</ele>
        <time>2011-05-01T10:48:55Z</time>
      </trkpt>
      <trkpt lat="43.84116" lon="4.24739">
        <ele>153.46765136719</ele>
        <time>2011-05-01T10:48:58Z</time>
      </trkpt>
      <trkpt lat="43.84117" lon="4.24757">
        <ele>153.46765136719</ele>
        <time>2011-05-01T10:49:01Z</time>
      </trkpt>
      <trkpt lat="43.84122" lon="4.24774">
        <ele>153.46765136719</ele>
        <time>2011-05-01T10:49:04Z</time>
      </trkpt>
      <trkpt lat="43.84124" lon="4.24789">
        <ele>152.98693847656</ele>
        <time>2011-05-01T10:49:07Z</time>
      </trkpt>
      <trkpt lat="43.84122" lon="4.24806">
        <ele>152.98693847656</ele>
        <time>2011-05-01T10:49:10Z</time>
      </trkpt>
      <trkpt lat="43.84115" lon="4.24808">
        <ele>152.50634765625</ele>
        <time>2011-05-01T10:49:13Z</time>
      </trkpt>
      <trkpt lat="43.84104" lon="4.24808">
        <ele>152.50634765625</ele>
        <time>2011-05-01T10:49:16Z</time>
      </trkpt>
      <trkpt lat="43.84091" lon="4.24807">
        <ele>151.06420898438</ele>
        <time>2011-05-01T10:49:19Z</time>
      </trkpt>
      <trkpt lat="43.84081" lon="4.24806">
        <ele>151.06420898438</ele>
        <time>2011-05-01T10:49:21Z</time>
      </trkpt>
      <trkpt lat="43.84069" lon="4.24806">
        <ele>150.58361816406</ele>
        <time>2011-05-01T10:49:24Z</time>
      </trkpt>
      <trkpt lat="43.84058" lon="4.24808">
        <ele>149.62231445312</ele>
        <time>2011-05-01T10:49:28Z</time>
      </trkpt>
      <trkpt lat="43.84058" lon="4.24808">
        <ele>149.62231445312</ele>
        <time>2011-05-01T10:49:31Z</time>
      </trkpt>
      <trkpt lat="43.84037" lon="4.24808">
        <ele>150.58361816406</ele>
        <time>2011-05-01T10:49:35Z</time>
      </trkpt>
      <trkpt lat="43.84029" lon="4.248">
        <ele>150.58361816406</ele>
        <time>2011-05-01T10:49:39Z</time>
      </trkpt>
      <trkpt lat="43.84023" lon="4.24791">
        <ele>151.544921875</ele>
        <time>2011-05-01T10:50:05Z</time>
      </trkpt>
      <trkpt lat="43.84015" lon="4.2478">
        <ele>152.50634765625</ele>
        <time>2011-05-01T10:50:11Z</time>
      </trkpt>
      <trkpt lat="43.84007" lon="4.24771">
        <ele>153.94836425781</ele>
        <time>2011-05-01T10:50:17Z</time>
      </trkpt>
      <trkpt lat="43.83998" lon="4.24766">
        <ele>154.42895507812</ele>
        <time>2011-05-01T10:50:23Z</time>
      </trkpt>
      <trkpt lat="43.8399" lon="4.24761">
        <ele>155.39025878906</ele>
        <time>2011-05-01T10:50:29Z</time>
      </trkpt>
      <trkpt lat="43.83981" lon="4.24758">
        <ele>156.83215332031</ele>
        <time>2011-05-01T10:50:35Z</time>
      </trkpt>
      <trkpt lat="43.83972" lon="4.24755">
        <ele>157.79357910156</ele>
        <time>2011-05-01T10:50:42Z</time>
      </trkpt>
      <trkpt lat="43.83962" lon="4.24749">
        <ele>159.71618652344</ele>
        <time>2011-05-01T10:50:49Z</time>
      </trkpt>
      <trkpt lat="43.83953" lon="4.24742">
        <ele>161.63891601562</ele>
        <time>2011-05-01T10:50:56Z</time>
      </trkpt>
      <trkpt lat="43.83945" lon="4.24734">
        <ele>163.08081054688</ele>
        <time>2011-05-01T10:51:03Z</time>
      </trkpt>
      <trkpt lat="43.83937" lon="4.24727">
        <ele>164.52270507812</ele>
        <time>2011-05-01T10:51:10Z</time>
      </trkpt>
      <trkpt lat="43.8393" lon="4.2472">
        <ele>165.96472167969</ele>
        <time>2011-05-01T10:51:17Z</time>
      </trkpt>
      <trkpt lat="43.83922" lon="4.24713">
        <ele>167.88732910156</ele>
        <time>2011-05-01T10:51:24Z</time>
      </trkpt>
      <trkpt lat="43.83914" lon="4.24705">
        <ele>168.36804199219</ele>
        <time>2011-05-01T10:51:31Z</time>
      </trkpt>
      <trkpt lat="43.83906" lon="4.24695">
        <ele>169.32946777344</ele>
        <time>2011-05-01T10:51:38Z</time>
      </trkpt>
      <trkpt lat="43.83897" lon="4.24686">
        <ele>170.77136230469</ele>
        <time>2011-05-01T10:51:45Z</time>
      </trkpt>
      <trkpt lat="43.83889" lon="4.24678">
        <ele>171.25207519531</ele>
        <time>2011-05-01T10:51:51Z</time>
      </trkpt>
      <trkpt lat="43.8388" lon="4.24669">
        <ele>172.69396972656</ele>
        <time>2011-05-01T10:51:57Z</time>
      </trkpt>
      <trkpt lat="43.83872" lon="4.24662">
        <ele>173.17468261719</ele>
        <time>2011-05-01T10:52:02Z</time>
      </trkpt>
      <trkpt lat="43.83863" lon="4.24656">
        <ele>173.6552734375</ele>
        <time>2011-05-01T10:52:07Z</time>
      </trkpt>
      <trkpt lat="43.83853" lon="4.2465">
        <ele>173.6552734375</ele>
        <time>2011-05-01T10:52:12Z</time>
      </trkpt>
      <trkpt lat="43.83844" lon="4.24641">
        <ele>173.6552734375</ele>
        <time>2011-05-01T10:52:16Z</time>
      </trkpt>
      <trkpt lat="43.83836" lon="4.24631">
        <ele>173.17468261719</ele>
        <time>2011-05-01T10:52:20Z</time>
      </trkpt>
      <trkpt lat="43.83828" lon="4.24622">
        <ele>173.17468261719</ele>
        <time>2011-05-01T10:52:23Z</time>
      </trkpt>
      <trkpt lat="43.83821" lon="4.24613">
        <ele>172.69396972656</ele>
        <time>2011-05-01T10:52:26Z</time>
      </trkpt>
      <trkpt lat="43.83811" lon="4.24608">
        <ele>173.17468261719</ele>
        <time>2011-05-01T10:52:29Z</time>
      </trkpt>
      <trkpt lat="43.83802" lon="4.24603">
        <ele>173.17468261719</ele>
        <time>2011-05-01T10:52:32Z</time>
      </trkpt>
      <trkpt lat="43.83794" lon="4.246">
        <ele>173.17468261719</ele>
        <time>2011-05-01T10:52:35Z</time>
      </trkpt>
      <trkpt lat="43.83782" lon="4.24596">
        <ele>173.6552734375</ele>
        <time>2011-05-01T10:52:39Z</time>
      </trkpt>
      <trkpt lat="43.83772" lon="4.24592">
        <ele>174.61657714844</ele>
        <time>2011-05-01T10:52:43Z</time>
      </trkpt>
      <trkpt lat="43.83762" lon="4.24587">
        <ele>174.61657714844</ele>
        <time>2011-05-01T10:52:47Z</time>
      </trkpt>
      <trkpt lat="43.83753" lon="4.24581">
        <ele>175.09729003906</ele>
        <time>2011-05-01T10:52:51Z</time>
      </trkpt>
      <trkpt lat="43.83749" lon="4.24579">
        <ele>174.61657714844</ele>
        <time>2011-05-01T10:52:56Z</time>
      </trkpt>
      <trkpt lat="43.83749" lon="4.24579">
        <ele>173.6552734375</ele>
        <time>2011-05-01T10:53:00Z</time>
      </trkpt>
      <trkpt lat="43.83749" lon="4.24579">
        <ele>173.17468261719</ele>
        <time>2011-05-01T10:53:04Z</time>
      </trkpt>
      <trkpt lat="43.83749" lon="4.24579">
        <ele>169.81005859375</ele>
        <time>2011-05-01T10:53:08Z</time>
      </trkpt>
      <trkpt lat="43.83749" lon="4.24579">
        <ele>166.4453125</ele>
        <time>2011-05-01T10:53:12Z</time>
      </trkpt>
      <trkpt lat="43.83728" lon="4.24602">
        <ele>164.52270507812</ele>
        <time>2011-05-01T10:53:15Z</time>
      </trkpt>
      <trkpt lat="43.83681" lon="4.24567">
        <ele>163.08081054688</ele>
        <time>2011-05-01T10:53:18Z</time>
      </trkpt>
      <trkpt lat="43.83671" lon="4.24566">
        <ele>160.19689941406</ele>
        <time>2011-05-01T10:53:20Z</time>
      </trkpt>
      <trkpt lat="43.83659" lon="4.24565">
        <ele>161.158203125</ele>
        <time>2011-05-01T10:53:23Z</time>
      </trkpt>
      <trkpt lat="43.83649" lon="4.24559">
        <ele>158.75476074219</ele>
        <time>2011-05-01T10:53:27Z</time>
      </trkpt>
      <trkpt lat="43.83638" lon="4.24556">
        <ele>158.27416992188</ele>
        <time>2011-05-01T10:53:30Z</time>
      </trkpt>
      <trkpt lat="43.83629" lon="4.24553">
        <ele>156.3515625</ele>
        <time>2011-05-01T10:53:33Z</time>
      </trkpt>
      <trkpt lat="43.8362" lon="4.2455">
        <ele>153.46765136719</ele>
        <time>2011-05-01T10:53:36Z</time>
      </trkpt>
      <trkpt lat="43.83612" lon="4.24546">
        <ele>151.544921875</ele>
        <time>2011-05-01T10:53:40Z</time>
      </trkpt>
      <trkpt lat="43.83602" lon="4.24543">
        <ele>149.1416015625</ele>
        <time>2011-05-01T10:53:44Z</time>
      </trkpt>
      <trkpt lat="43.83591" lon="4.24536">
        <ele>145.77709960938</ele>
        <time>2011-05-01T10:53:48Z</time>
      </trkpt>
      <trkpt lat="43.83582" lon="4.24526">
        <ele>143.37365722656</ele>
        <time>2011-05-01T10:53:52Z</time>
      </trkpt>
      <trkpt lat="43.83572" lon="4.24526">
        <ele>142.89306640625</ele>
        <time>2011-05-01T10:53:56Z</time>
      </trkpt>
      <trkpt lat="43.83563" lon="4.2453">
        <ele>142.41247558594</ele>
        <time>2011-05-01T10:54:00Z</time>
      </trkpt>
      <trkpt lat="43.83555" lon="4.24527">
        <ele>141.45104980469</ele>
        <time>2011-05-01T10:54:05Z</time>
      </trkpt>
      <trkpt lat="43.83544" lon="4.24523">
        <ele>140.00915527344</ele>
        <time>2011-05-01T10:54:09Z</time>
      </trkpt>
      <trkpt lat="43.83535" lon="4.24522">
        <ele>139.52844238281</ele>
        <time>2011-05-01T10:54:13Z</time>
      </trkpt>
      <trkpt lat="43.83526" lon="4.24521">
        <ele>140.00915527344</ele>
        <time>2011-05-01T10:54:16Z</time>
      </trkpt>
      <trkpt lat="43.83515" lon="4.24522">
        <ele>139.0478515625</ele>
        <time>2011-05-01T10:54:19Z</time>
      </trkpt>
      <trkpt lat="43.83506" lon="4.24523">
        <ele>138.56726074219</ele>
        <time>2011-05-01T10:54:22Z</time>
      </trkpt>
      <trkpt lat="43.83498" lon="4.24517">
        <ele>137.12524414062</ele>
        <time>2011-05-01T10:54:25Z</time>
      </trkpt>
      <trkpt lat="43.83491" lon="4.24524">
        <ele>136.64465332031</ele>
        <time>2011-05-01T10:54:28Z</time>
      </trkpt>
      <trkpt lat="43.8348" lon="4.24532">
        <ele>135.68310546875</ele>
        <time>2011-05-01T10:54:31Z</time>
      </trkpt>
      <trkpt lat="43.83471" lon="4.24538">
        <ele>133.76049804688</ele>
        <time>2011-05-01T10:54:34Z</time>
      </trkpt>
      <trkpt lat="43.8346" lon="4.24543">
        <ele>132.79931640625</ele>
        <time>2011-05-01T10:54:37Z</time>
      </trkpt>
      <trkpt lat="43.83447" lon="4.24546">
        <ele>129.91528320312</ele>
        <time>2011-05-01T10:54:40Z</time>
      </trkpt>
      <trkpt lat="43.83437" lon="4.24546">
        <ele>127.51196289062</ele>
        <time>2011-05-01T10:54:43Z</time>
      </trkpt>
      <trkpt lat="43.83428" lon="4.24548">
        <ele>126.55065917969</ele>
        <time>2011-05-01T10:54:46Z</time>
      </trkpt>
      <trkpt lat="43.83419" lon="4.24555">
        <ele>123.18615722656</ele>
        <time>2011-05-01T10:54:49Z</time>
      </trkpt>
      <trkpt lat="43.8341" lon="4.2456">
        <ele>121.26354980469</ele>
        <time>2011-05-01T10:54:52Z</time>
      </trkpt>
      <trkpt lat="43.83393" lon="4.24546">
        <ele>121.26354980469</ele>
        <time>2011-05-01T10:54:55Z</time>
      </trkpt>
      <trkpt lat="43.83393" lon="4.24546">
        <ele>120.78283691406</ele>
        <time>2011-05-01T10:54:58Z</time>
      </trkpt>
      <trkpt lat="43.83383" lon="4.24574">
        <ele>119.3408203125</ele>
        <time>2011-05-01T10:55:01Z</time>
      </trkpt>
      <trkpt lat="43.83375" lon="4.24568">
        <ele>118.86010742188</ele>
        <time>2011-05-01T10:55:04Z</time>
      </trkpt>
      <trkpt lat="43.83366" lon="4.24572">
        <ele>116.45678710938</ele>
        <time>2011-05-01T10:55:07Z</time>
      </trkpt>
      <trkpt lat="43.83355" lon="4.24578">
        <ele>114.5341796875</ele>
        <time>2011-05-01T10:55:10Z</time>
      </trkpt>
      <trkpt lat="43.83346" lon="4.24579">
        <ele>114.05358886719</ele>
        <time>2011-05-01T10:55:13Z</time>
      </trkpt>
      <trkpt lat="43.83339" lon="4.24579">
        <ele>111.65026855469</ele>
        <time>2011-05-01T10:55:16Z</time>
      </trkpt>
      <trkpt lat="43.83329" lon="4.24601">
        <ele>111.16955566406</ele>
        <time>2011-05-01T10:55:19Z</time>
      </trkpt>
      <trkpt lat="43.83321" lon="4.24614">
        <ele>111.16955566406</ele>
        <time>2011-05-01T10:55:22Z</time>
      </trkpt>
      <trkpt lat="43.83311" lon="4.24622">
        <ele>109.24694824219</ele>
        <time>2011-05-01T10:55:25Z</time>
      </trkpt>
      <trkpt lat="43.83306" lon="4.24636">
        <ele>108.28564453125</ele>
        <time>2011-05-01T10:55:28Z</time>
      </trkpt>
      <trkpt lat="43.83302" lon="4.24647">
        <ele>108.28564453125</ele>
        <time>2011-05-01T10:55:31Z</time>
      </trkpt>
      <trkpt lat="43.83295" lon="4.24655">
        <ele>108.28564453125</ele>
        <time>2011-05-01T10:55:34Z</time>
      </trkpt>
      <trkpt lat="43.8329" lon="4.24658">
        <ele>108.28564453125</ele>
        <time>2011-05-01T10:55:38Z</time>
      </trkpt>
      <trkpt lat="43.8329" lon="4.24658">
        <ele>107.32434082031</ele>
        <time>2011-05-01T10:55:41Z</time>
      </trkpt>
      <trkpt lat="43.8327" lon="4.24669">
        <ele>106.36303710938</ele>
        <time>2011-05-01T10:55:44Z</time>
      </trkpt>
      <trkpt lat="43.83262" lon="4.24673">
        <ele>104.92102050781</ele>
        <time>2011-05-01T10:55:48Z</time>
      </trkpt>
      <trkpt lat="43.83253" lon="4.24675">
        <ele>103.47900390625</ele>
        <time>2011-05-01T10:55:51Z</time>
      </trkpt>
      <trkpt lat="43.83244" lon="4.24681">
        <ele>102.99829101562</ele>
        <time>2011-05-01T10:55:54Z</time>
      </trkpt>
      <trkpt lat="43.83239" lon="4.24691">
        <ele>102.99829101562</ele>
        <time>2011-05-01T10:55:57Z</time>
      </trkpt>
      <trkpt lat="43.83233" lon="4.24702">
        <ele>103.47900390625</ele>
        <time>2011-05-01T10:56:00Z</time>
      </trkpt>
      <trkpt lat="43.83225" lon="4.24713">
        <ele>102.51770019531</ele>
        <time>2011-05-01T10:56:03Z</time>
      </trkpt>
      <trkpt lat="43.83219" lon="4.24731">
        <ele>102.99829101562</ele>
        <time>2011-05-01T10:56:06Z</time>
      </trkpt>
      <trkpt lat="43.83215" lon="4.24743">
        <ele>102.99829101562</ele>
        <time>2011-05-01T10:56:09Z</time>
      </trkpt>
      <trkpt lat="43.83211" lon="4.24761">
        <ele>103.47900390625</ele>
        <time>2011-05-01T10:56:12Z</time>
      </trkpt>
      <trkpt lat="43.83208" lon="4.24778">
        <ele>102.99829101562</ele>
        <time>2011-05-01T10:56:15Z</time>
      </trkpt>
      <trkpt lat="43.83202" lon="4.24794">
        <ele>102.99829101562</ele>
        <time>2011-05-01T10:56:18Z</time>
      </trkpt>
      <trkpt lat="43.83197" lon="4.24812">
        <ele>102.99829101562</ele>
        <time>2011-05-01T10:56:21Z</time>
      </trkpt>
      <trkpt lat="43.83193" lon="4.24825">
        <ele>102.99829101562</ele>
        <time>2011-05-01T10:56:23Z</time>
      </trkpt>
      <trkpt lat="43.83188" lon="4.24836">
        <ele>103.47900390625</ele>
        <time>2011-05-01T10:56:25Z</time>
      </trkpt>
      <trkpt lat="43.83184" lon="4.2485">
        <ele>102.51770019531</ele>
        <time>2011-05-01T10:56:27Z</time>
      </trkpt>
      <trkpt lat="43.83183" lon="4.2487">
        <ele>101.55639648438</ele>
        <time>2011-05-01T10:56:30Z</time>
      </trkpt>
      <trkpt lat="43.83184" lon="4.24885">
        <ele>101.55639648438</ele>
        <time>2011-05-01T10:56:33Z</time>
      </trkpt>
      <trkpt lat="43.83183" lon="4.24895">
        <ele>102.037109375</ele>
        <time>2011-05-01T10:56:36Z</time>
      </trkpt>
      <trkpt lat="43.83178" lon="4.2491">
        <ele>102.51770019531</ele>
        <time>2011-05-01T10:56:40Z</time>
      </trkpt>
      <trkpt lat="43.83175" lon="4.24925">
        <ele>102.99829101562</ele>
        <time>2011-05-01T10:56:44Z</time>
      </trkpt>
      <trkpt lat="43.83167" lon="4.24933">
        <ele>102.99829101562</ele>
        <time>2011-05-01T10:56:47Z</time>
      </trkpt>
      <trkpt lat="43.83159" lon="4.24945">
        <ele>103.47900390625</ele>
        <time>2011-05-01T10:56:50Z</time>
      </trkpt>
      <trkpt lat="43.83155" lon="4.24956">
        <ele>102.51770019531</ele>
        <time>2011-05-01T10:56:52Z</time>
      </trkpt>
      <trkpt lat="43.83151" lon="4.24967">
        <ele>102.99829101562</ele>
        <time>2011-05-01T10:56:54Z</time>
      </trkpt>
      <trkpt lat="43.83146" lon="4.2498">
        <ele>102.51770019531</ele>
        <time>2011-05-01T10:56:56Z</time>
      </trkpt>
      <trkpt lat="43.83144" lon="4.24994">
        <ele>102.51770019531</ele>
        <time>2011-05-01T10:56:58Z</time>
      </trkpt>
      <trkpt lat="43.83142" lon="4.25013">
        <ele>102.51770019531</ele>
        <time>2011-05-01T10:57:01Z</time>
      </trkpt>
      <trkpt lat="43.83135" lon="4.25026">
        <ele>102.51770019531</ele>
        <time>2011-05-01T10:57:04Z</time>
      </trkpt>
      <trkpt lat="43.83129" lon="4.25036">
        <ele>101.55639648438</ele>
        <time>2011-05-01T10:57:06Z</time>
      </trkpt>
      <trkpt lat="43.83124" lon="4.25049">
        <ele>101.55639648438</ele>
        <time>2011-05-01T10:57:08Z</time>
      </trkpt>
      <trkpt lat="43.8312" lon="4.25061">
        <ele>101.55639648438</ele>
        <time>2011-05-01T10:57:10Z</time>
      </trkpt>
      <trkpt lat="43.83117" lon="4.25075">
        <ele>101.55639648438</ele>
        <time>2011-05-01T10:57:12Z</time>
      </trkpt>
      <trkpt lat="43.83116" lon="4.25087">
        <ele>101.55639648438</ele>
        <time>2011-05-01T10:57:14Z</time>
      </trkpt>
      <trkpt lat="43.83112" lon="4.25097">
        <ele>101.55639648438</ele>
        <time>2011-05-01T10:57:16Z</time>
      </trkpt>
      <trkpt lat="43.83104" lon="4.25107">
        <ele>101.07568359375</ele>
        <time>2011-05-01T10:57:18Z</time>
      </trkpt>
      <trkpt lat="43.83098" lon="4.25119">
        <ele>101.07568359375</ele>
        <time>2011-05-01T10:57:20Z</time>
      </trkpt>
      <trkpt lat="43.83093" lon="4.25134">
        <ele>99.153076171875</ele>
        <time>2011-05-01T10:57:22Z</time>
      </trkpt>
      <trkpt lat="43.83087" lon="4.25148">
        <ele>98.672485351562</ele>
        <time>2011-05-01T10:57:25Z</time>
      </trkpt>
      <trkpt lat="43.83082" lon="4.25166">
        <ele>97.711181640625</ele>
        <time>2011-05-01T10:57:28Z</time>
      </trkpt>
      <trkpt lat="43.83081" lon="4.25179">
        <ele>97.23046875</ele>
        <time>2011-05-01T10:57:30Z</time>
      </trkpt>
      <trkpt lat="43.8308" lon="4.25192">
        <ele>96.749877929688</ele>
        <time>2011-05-01T10:57:32Z</time>
      </trkpt>
      <trkpt lat="43.83076" lon="4.25205">
        <ele>96.269287109375</ele>
        <time>2011-05-01T10:57:34Z</time>
      </trkpt>
      <trkpt lat="43.83071" lon="4.25217">
        <ele>96.269287109375</ele>
        <time>2011-05-01T10:57:36Z</time>
      </trkpt>
      <trkpt lat="43.83065" lon="4.25229">
        <ele>96.269287109375</ele>
        <time>2011-05-01T10:57:38Z</time>
      </trkpt>
      <trkpt lat="43.8306" lon="4.25243">
        <ele>95.788452148438</ele>
        <time>2011-05-01T10:57:40Z</time>
      </trkpt>
      <trkpt lat="43.83056" lon="4.25256">
        <ele>96.749877929688</ele>
        <time>2011-05-01T10:57:42Z</time>
      </trkpt>
      <trkpt lat="43.8305" lon="4.25264">
        <ele>96.269287109375</ele>
        <time>2011-05-01T10:57:44Z</time>
      </trkpt>
      <trkpt lat="43.83045" lon="4.25271">
        <ele>96.269287109375</ele>
        <time>2011-05-01T10:57:46Z</time>
      </trkpt>
      <trkpt lat="43.83033" lon="4.25277">
        <ele>96.269287109375</ele>
        <time>2011-05-01T10:57:48Z</time>
      </trkpt>
      <trkpt lat="43.83023" lon="4.25283">
        <ele>95.788452148438</ele>
        <time>2011-05-01T10:57:50Z</time>
      </trkpt>
      <trkpt lat="43.83014" lon="4.25297">
        <ele>94.8271484375</ele>
        <time>2011-05-01T10:57:52Z</time>
      </trkpt>
      <trkpt lat="43.83011" lon="4.25312">
        <ele>94.346557617188</ele>
        <time>2011-05-01T10:57:54Z</time>
      </trkpt>
      <trkpt lat="43.83008" lon="4.25325">
        <ele>93.385131835938</ele>
        <time>2011-05-01T10:57:57Z</time>
      </trkpt>
      <trkpt lat="43.82999" lon="4.25331">
        <ele>92.904541015625</ele>
        <time>2011-05-01T10:58:00Z</time>
      </trkpt>
      <trkpt lat="43.82986" lon="4.25332">
        <ele>90.98193359375</ele>
        <time>2011-05-01T10:58:03Z</time>
      </trkpt>
      <trkpt lat="43.82975" lon="4.2533">
        <ele>90.98193359375</ele>
        <time>2011-05-01T10:58:05Z</time>
      </trkpt>
      <trkpt lat="43.82965" lon="4.25328">
        <ele>89.539916992188</ele>
        <time>2011-05-01T10:58:07Z</time>
      </trkpt>
      <trkpt lat="43.82954" lon="4.25327">
        <ele>88.578735351562</ele>
        <time>2011-05-01T10:58:09Z</time>
      </trkpt>
      <trkpt lat="43.82944" lon="4.25325">
        <ele>87.6171875</ele>
        <time>2011-05-01T10:58:11Z</time>
      </trkpt>
      <trkpt lat="43.82932" lon="4.25324">
        <ele>86.656005859375</ele>
        <time>2011-05-01T10:58:13Z</time>
      </trkpt>
      <trkpt lat="43.82921" lon="4.25323">
        <ele>85.213989257812</ele>
        <time>2011-05-01T10:58:15Z</time>
      </trkpt>
      <trkpt lat="43.82909" lon="4.25323">
        <ele>84.7333984375</ele>
        <time>2011-05-01T10:58:17Z</time>
      </trkpt>
      <trkpt lat="43.829" lon="4.25323">
        <ele>84.252685546875</ele>
        <time>2011-05-01T10:58:19Z</time>
      </trkpt>
      <trkpt lat="43.82856" lon="4.25325">
        <ele>82.810791015625</ele>
        <time>2011-05-01T10:58:26Z</time>
      </trkpt>
      <trkpt lat="43.8288" lon="4.25319">
        <ele>82.330078125</ele>
        <time>2011-05-01T10:58:31Z</time>
      </trkpt>
      <trkpt lat="43.82869" lon="4.25317">
        <ele>83.291381835938</ele>
        <time>2011-05-01T10:58:34Z</time>
      </trkpt>
      <trkpt lat="43.82861" lon="4.25316">
        <ele>82.330078125</ele>
        <time>2011-05-01T10:58:37Z</time>
      </trkpt>
      <trkpt lat="43.82856" lon="4.25336">
        <ele>81.368774414062</ele>
        <time>2011-05-01T10:58:40Z</time>
      </trkpt>
      <trkpt lat="43.82855" lon="4.25354">
        <ele>81.368774414062</ele>
        <time>2011-05-01T10:58:43Z</time>
      </trkpt>
      <trkpt lat="43.82855" lon="4.25372">
        <ele>81.368774414062</ele>
        <time>2011-05-01T10:58:46Z</time>
      </trkpt>
      <trkpt lat="43.82854" lon="4.25391">
        <ele>82.330078125</ele>
        <time>2011-05-01T10:58:49Z</time>
      </trkpt>
      <trkpt lat="43.82854" lon="4.25409">
        <ele>81.849365234375</ele>
        <time>2011-05-01T10:58:52Z</time>
      </trkpt>
      <trkpt lat="43.82854" lon="4.25428">
        <ele>82.330078125</ele>
        <time>2011-05-01T10:58:55Z</time>
      </trkpt>
      <trkpt lat="43.82854" lon="4.25442">
        <ele>83.291381835938</ele>
        <time>2011-05-01T10:58:57Z</time>
      </trkpt>
      <trkpt lat="43.82854" lon="4.25455">
        <ele>82.330078125</ele>
        <time>2011-05-01T10:58:59Z</time>
      </trkpt>
      <trkpt lat="43.82854" lon="4.25469">
        <ele>82.810791015625</ele>
        <time>2011-05-01T10:59:01Z</time>
      </trkpt>
      <trkpt lat="43.82854" lon="4.25483">
        <ele>82.330078125</ele>
        <time>2011-05-01T10:59:03Z</time>
      </trkpt>
      <trkpt lat="43.82854" lon="4.25497">
        <ele>82.810791015625</ele>
        <time>2011-05-01T10:59:05Z</time>
      </trkpt>
      <trkpt lat="43.82854" lon="4.25511">
        <ele>82.330078125</ele>
        <time>2011-05-01T10:59:07Z</time>
      </trkpt>
      <trkpt lat="43.82853" lon="4.25525">
        <ele>83.291381835938</ele>
        <time>2011-05-01T10:59:09Z</time>
      </trkpt>
      <trkpt lat="43.82852" lon="4.25539">
        <ele>83.77197265625</ele>
        <time>2011-05-01T10:59:11Z</time>
      </trkpt>
      <trkpt lat="43.82852" lon="4.25552">
        <ele>84.252685546875</ele>
        <time>2011-05-01T10:59:13Z</time>
      </trkpt>
      <trkpt lat="43.82852" lon="4.25565">
        <ele>84.252685546875</ele>
        <time>2011-05-01T10:59:15Z</time>
      </trkpt>
      <trkpt lat="43.82852" lon="4.25577">
        <ele>84.252685546875</ele>
        <time>2011-05-01T10:59:17Z</time>
      </trkpt>
      <trkpt lat="43.82845" lon="4.2559">
        <ele>83.77197265625</ele>
        <time>2011-05-01T10:59:20Z</time>
      </trkpt>
      <trkpt lat="43.82831" lon="4.25591">
        <ele>83.291381835938</ele>
        <time>2011-05-01T10:59:23Z</time>
      </trkpt>
      <trkpt lat="43.8282" lon="4.25592">
        <ele>83.291381835938</ele>
        <time>2011-05-01T10:59:25Z</time>
      </trkpt>
      <trkpt lat="43.82808" lon="4.25593">
        <ele>82.330078125</ele>
        <time>2011-05-01T10:59:27Z</time>
      </trkpt>
      <trkpt lat="43.82797" lon="4.25595">
        <ele>82.810791015625</ele>
        <time>2011-05-01T10:59:29Z</time>
      </trkpt>
      <trkpt lat="43.82787" lon="4.25596">
        <ele>82.810791015625</ele>
        <time>2011-05-01T10:59:31Z</time>
      </trkpt>
      <trkpt lat="43.82776" lon="4.25598">
        <ele>82.330078125</ele>
        <time>2011-05-01T10:59:33Z</time>
      </trkpt>
      <trkpt lat="43.82767" lon="4.25602">
        <ele>81.849365234375</ele>
        <time>2011-05-01T10:59:35Z</time>
      </trkpt>
      <trkpt lat="43.82758" lon="4.25608">
        <ele>81.368774414062</ele>
        <time>2011-05-01T10:59:37Z</time>
      </trkpt>
      <trkpt lat="43.82753" lon="4.25619">
        <ele>81.368774414062</ele>
        <time>2011-05-01T10:59:39Z</time>
      </trkpt>
      <trkpt lat="43.8275" lon="4.25632">
        <ele>81.368774414062</ele>
        <time>2011-05-01T10:59:41Z</time>
      </trkpt>
      <trkpt lat="43.82746" lon="4.25643">
        <ele>81.849365234375</ele>
        <time>2011-05-01T10:59:43Z</time>
      </trkpt>
      <trkpt lat="43.82739" lon="4.25659">
        <ele>80.88818359375</ele>
        <time>2011-05-01T10:59:46Z</time>
      </trkpt>
      <trkpt lat="43.82732" lon="4.25668">
        <ele>80.88818359375</ele>
        <time>2011-05-01T10:59:48Z</time>
      </trkpt>
      <trkpt lat="43.82725" lon="4.25677">
        <ele>81.368774414062</ele>
        <time>2011-05-01T10:59:50Z</time>
      </trkpt>
      <trkpt lat="43.82717" lon="4.25685">
        <ele>81.368774414062</ele>
        <time>2011-05-01T10:59:52Z</time>
      </trkpt>
      <trkpt lat="43.8271" lon="4.25695">
        <ele>80.88818359375</ele>
        <time>2011-05-01T10:59:54Z</time>
      </trkpt>
      <trkpt lat="43.82703" lon="4.25704">
        <ele>80.88818359375</ele>
        <time>2011-05-01T10:59:56Z</time>
      </trkpt>
      <trkpt lat="43.82695" lon="4.25713">
        <ele>80.88818359375</ele>
        <time>2011-05-01T10:59:58Z</time>
      </trkpt>
      <trkpt lat="43.82688" lon="4.25722">
        <ele>80.88818359375</ele>
        <time>2011-05-01T11:00:00Z</time>
      </trkpt>
      <trkpt lat="43.82681" lon="4.2573">
        <ele>81.368774414062</ele>
        <time>2011-05-01T11:00:02Z</time>
      </trkpt>
      <trkpt lat="43.82673" lon="4.25739">
        <ele>80.88818359375</ele>
        <time>2011-05-01T11:00:04Z</time>
      </trkpt>
      <trkpt lat="43.82666" lon="4.25747">
        <ele>81.849365234375</ele>
        <time>2011-05-01T11:00:06Z</time>
      </trkpt>
      <trkpt lat="43.82659" lon="4.25756">
        <ele>81.849365234375</ele>
        <time>2011-05-01T11:00:08Z</time>
      </trkpt>
      <trkpt lat="43.82651" lon="4.25764">
        <ele>81.849365234375</ele>
        <time>2011-05-01T11:00:10Z</time>
      </trkpt>
      <trkpt lat="43.82644" lon="4.25774">
        <ele>82.330078125</ele>
        <time>2011-05-01T11:00:12Z</time>
      </trkpt>
      <trkpt lat="43.82637" lon="4.25783">
        <ele>81.849365234375</ele>
        <time>2011-05-01T11:00:14Z</time>
      </trkpt>
      <trkpt lat="43.8263" lon="4.25792">
        <ele>82.330078125</ele>
        <time>2011-05-01T11:00:16Z</time>
      </trkpt>
      <trkpt lat="43.82623" lon="4.25802">
        <ele>82.330078125</ele>
        <time>2011-05-01T11:00:18Z</time>
      </trkpt>
      <trkpt lat="43.82615" lon="4.25811">
        <ele>81.368774414062</ele>
        <time>2011-05-01T11:00:20Z</time>
      </trkpt>
      <trkpt lat="43.82609" lon="4.2582">
        <ele>81.849365234375</ele>
        <time>2011-05-01T11:00:22Z</time>
      </trkpt>
      <trkpt lat="43.82602" lon="4.2583">
        <ele>81.368774414062</ele>
        <time>2011-05-01T11:00:24Z</time>
      </trkpt>
      <trkpt lat="43.82595" lon="4.2584">
        <ele>81.368774414062</ele>
        <time>2011-05-01T11:00:26Z</time>
      </trkpt>
      <trkpt lat="43.82588" lon="4.25849">
        <ele>81.368774414062</ele>
        <time>2011-05-01T11:00:28Z</time>
      </trkpt>
      <trkpt lat="43.82582" lon="4.25857">
        <ele>81.368774414062</ele>
        <time>2011-05-01T11:00:30Z</time>
      </trkpt>
      <trkpt lat="43.82574" lon="4.25865">
        <ele>81.368774414062</ele>
        <time>2011-05-01T11:00:32Z</time>
      </trkpt>
      <trkpt lat="43.82567" lon="4.25874">
        <ele>81.849365234375</ele>
        <time>2011-05-01T11:00:34Z</time>
      </trkpt>
      <trkpt lat="43.82561" lon="4.25882">
        <ele>81.849365234375</ele>
        <time>2011-05-01T11:00:36Z</time>
      </trkpt>
      <trkpt lat="43.82554" lon="4.25891">
        <ele>81.849365234375</ele>
        <time>2011-05-01T11:00:38Z</time>
      </trkpt>
      <trkpt lat="43.82544" lon="4.25903">
        <ele>81.368774414062</ele>
        <time>2011-05-01T11:00:41Z</time>
      </trkpt>
      <trkpt lat="43.82536" lon="4.25912">
        <ele>81.849365234375</ele>
        <time>2011-05-01T11:00:44Z</time>
      </trkpt>
      <trkpt lat="43.8254" lon="4.25927">
        <ele>80.88818359375</ele>
        <time>2011-05-01T11:00:47Z</time>
      </trkpt>
      <trkpt lat="43.82547" lon="4.25938">
        <ele>81.849365234375</ele>
        <time>2011-05-01T11:00:50Z</time>
      </trkpt>
      <trkpt lat="43.82555" lon="4.25949">
        <ele>82.330078125</ele>
        <time>2011-05-01T11:00:53Z</time>
      </trkpt>
      <trkpt lat="43.82563" lon="4.25961">
        <ele>81.849365234375</ele>
        <time>2011-05-01T11:00:56Z</time>
      </trkpt>
      <trkpt lat="43.82571" lon="4.25973">
        <ele>83.291381835938</ele>
        <time>2011-05-01T11:00:59Z</time>
      </trkpt>
      <trkpt lat="43.82578" lon="4.25983">
        <ele>82.330078125</ele>
        <time>2011-05-01T11:01:02Z</time>
      </trkpt>
      <trkpt lat="43.82585" lon="4.25993">
        <ele>82.330078125</ele>
        <time>2011-05-01T11:01:05Z</time>
      </trkpt>
      <trkpt lat="43.82593" lon="4.26005">
        <ele>82.810791015625</ele>
        <time>2011-05-01T11:01:08Z</time>
      </trkpt>
      <trkpt lat="43.826" lon="4.26016">
        <ele>83.77197265625</ele>
        <time>2011-05-01T11:01:11Z</time>
      </trkpt>
      <trkpt lat="43.82608" lon="4.26027">
        <ele>82.810791015625</ele>
        <time>2011-05-01T11:01:14Z</time>
      </trkpt>
      <trkpt lat="43.82618" lon="4.26042">
        <ele>83.291381835938</ele>
        <time>2011-05-01T11:01:19Z</time>
      </trkpt>
      <trkpt lat="43.82603" lon="4.2602">
        <ele>82.810791015625</ele>
        <time>2011-05-01T11:01:25Z</time>
      </trkpt>
      <trkpt lat="43.82601" lon="4.26017">
        <ele>81.849365234375</ele>
        <time>2011-05-01T11:02:11Z</time>
      </trkpt>
      <trkpt lat="43.82596" lon="4.2601">
        <ele>81.849365234375</ele>
        <time>2011-05-01T11:02:24Z</time>
      </trkpt>
      <trkpt lat="43.82594" lon="4.26006">
        <ele>81.849365234375</ele>
        <time>2011-05-01T11:02:34Z</time>
      </trkpt>
      <trkpt lat="43.82594" lon="4.26006">
        <ele>81.368774414062</ele>
        <time>2011-05-01T11:02:57Z</time>
      </trkpt>
    </trkseg>
  </trk>
</gpx>